<?xml version='1.0' encoding='UTF-8'?><gpx version="1.1" creator="JPX - https://github.com/jenetics/jpx" xmlns="http://www.topografix.com/GPX/1/1"><trk><trkseg><trkpt lat="43.0032102" lon="13.7634711"><ele>466.99999999999994</ele><time>2026-05-03T07:26:14.02Z</time></trkpt><trkpt lat="43.0032714" lon="13.7634995"><ele>467.0</ele><time>2026-05-03T07:26:15.02Z</time></trkpt><trkpt lat="43.003345" lon="13.7635226"><ele>467.0</ele><time>2026-05-03T07:26:16.021Z</time></trkpt><trkpt lat="43.0034341" lon="13.7635248"><ele>467.0</ele><time>2026-05-03T07:26:17.021Z</time></trkpt><trkpt lat="43.0035288" lon="13.7634958"><ele>466.99999999999994</ele><time>2026-05-03T07:26:18.021Z</time></trkpt><trkpt lat="43.0036219" lon="13.763429"><ele>467.0</ele><time>2026-05-03T07:26:19.02Z</time></trkpt><trkpt lat="43.0037165" lon="13.7633412"><ele>462.75</ele><time>2026-05-03T07:26:20.02Z</time></trkpt><trkpt lat="43.0038166" lon="13.7632495"><ele>458.5</ele><time>2026-05-03T07:26:21.019Z</time></trkpt><trkpt lat="43.0039273" lon="13.7631664"><ele>454.25</ele><time>2026-05-03T07:26:22.021Z</time></trkpt><trkpt lat="43.0040411" lon="13.7631102"><ele>450.0</ele><time>2026-05-03T07:26:23.02Z</time></trkpt><trkpt lat="43.0041606" lon="13.7630805"><ele>446.25</ele><time>2026-05-03T07:26:24.02Z</time></trkpt><trkpt lat="43.0042881" lon="13.7630717"><ele>442.5</ele><time>2026-05-03T07:26:25.02Z</time></trkpt><trkpt lat="43.0044231" lon="13.7630679"><ele>438.75</ele><time>2026-05-03T07:26:26.021Z</time></trkpt><trkpt lat="43.0045639" lon="13.7630475"><ele>435.0</ele><time>2026-05-03T07:26:27.021Z</time></trkpt><trkpt lat="43.0047068" lon="13.7630153"><ele>435.0</ele><time>2026-05-03T07:26:28.02Z</time></trkpt><trkpt lat="43.0048528" lon="13.7629644"><ele>435.0</ele><time>2026-05-03T07:26:29.02Z</time></trkpt><trkpt lat="43.0050073" lon="13.7629388"><ele>435.0</ele><time>2026-05-03T07:26:30.02Z</time></trkpt><trkpt lat="43.0051611" lon="13.7629337"><ele>434.0</ele><time>2026-05-03T07:26:31.02Z</time></trkpt><trkpt lat="43.0053155" lon="13.762945"><ele>433.0</ele><time>2026-05-03T07:26:32.021Z</time></trkpt><trkpt lat="43.0054728" lon="13.7629497"><ele>432.0</ele><time>2026-05-03T07:26:33.02Z</time></trkpt><trkpt lat="43.0056349" lon="13.7629597"><ele>432.0</ele><time>2026-05-03T07:26:34.021Z</time></trkpt><trkpt lat="43.0057971" lon="13.7629775"><ele>432.0</ele><time>2026-05-03T07:26:35.021Z</time></trkpt><trkpt lat="43.0059586" lon="13.763008"><ele>432.0</ele><time>2026-05-03T07:26:36.021Z</time></trkpt><trkpt lat="43.0061207" lon="13.7630327"><ele>429.33333333333337</ele><time>2026-05-03T07:26:37.021Z</time></trkpt><trkpt lat="43.0062824" lon="13.7630512"><ele>426.6666666666667</ele><time>2026-05-03T07:26:38.02Z</time></trkpt><trkpt lat="43.0064419" lon="13.7630621"><ele>424.0</ele><time>2026-05-03T07:26:39.021Z</time></trkpt><trkpt lat="43.0065977" lon="13.7630636"><ele>419.0</ele><time>2026-05-03T07:26:40.021Z</time></trkpt><trkpt lat="43.0067544" lon="13.7630528"><ele>414.0</ele><time>2026-05-03T07:26:41.021Z</time></trkpt><trkpt lat="43.0069128" lon="13.7630398"><ele>409.0</ele><time>2026-05-03T07:26:42.021Z</time></trkpt><trkpt lat="43.0070739" lon="13.7630375"><ele>409.0</ele><time>2026-05-03T07:26:43.021Z</time></trkpt><trkpt lat="43.0072345" lon="13.763053"><ele>409.0</ele><time>2026-05-03T07:26:44.021Z</time></trkpt><trkpt lat="43.0073963" lon="13.7630744"><ele>409.0</ele><time>2026-05-03T07:26:45.021Z</time></trkpt><trkpt lat="43.0075575" lon="13.7631104"><ele>406.6666666666667</ele><time>2026-05-03T07:26:46.021Z</time></trkpt><trkpt lat="43.007717" lon="13.7631645"><ele>404.33333333333337</ele><time>2026-05-03T07:26:47.021Z</time></trkpt><trkpt lat="43.0078713" lon="13.7632479"><ele>402.0</ele><time>2026-05-03T07:26:48.02Z</time></trkpt><trkpt lat="43.0080197" lon="13.763359"><ele>402.0</ele><time>2026-05-03T07:26:49.019Z</time></trkpt><trkpt lat="43.0081679" lon="13.7634784"><ele>402.0</ele><time>2026-05-03T07:26:50.021Z</time></trkpt><trkpt lat="43.0083109" lon="13.7636021"><ele>402.0</ele><time>2026-05-03T07:26:51.02Z</time></trkpt><trkpt lat="43.0084601" lon="13.7637261"><ele>397.0</ele><time>2026-05-03T07:26:52.02Z</time></trkpt><trkpt lat="43.0086051" lon="13.7638568"><ele>392.0</ele><time>2026-05-03T07:26:53.021Z</time></trkpt><trkpt lat="43.0087428" lon="13.7639967"><ele>387.0</ele><time>2026-05-03T07:26:54.021Z</time></trkpt><trkpt lat="43.0088766" lon="13.7641448"><ele>387.0</ele><time>2026-05-03T07:26:55.021Z</time></trkpt><trkpt lat="43.009004" lon="13.7642942"><ele>387.0</ele><time>2026-05-03T07:26:56.021Z</time></trkpt><trkpt lat="43.0091298" lon="13.7644383"><ele>387.0</ele><time>2026-05-03T07:26:57.021Z</time></trkpt><trkpt lat="43.0092598" lon="13.7645638"><ele>382.6666666666667</ele><time>2026-05-03T07:26:58.02Z</time></trkpt><trkpt lat="43.0093986" lon="13.76467"><ele>378.33333333333337</ele><time>2026-05-03T07:26:59.021Z</time></trkpt><trkpt lat="43.0095447" lon="13.7647573"><ele>374.0</ele><time>2026-05-03T07:27:00.02Z</time></trkpt><trkpt lat="43.0096967" lon="13.7648305"><ele>374.0</ele><time>2026-05-03T07:27:01.021Z</time></trkpt><trkpt lat="43.0098504" lon="13.764898"><ele>374.0</ele><time>2026-05-03T07:27:02.021Z</time></trkpt><trkpt lat="43.0100032" lon="13.7649695"><ele>374.0</ele><time>2026-05-03T07:27:03.021Z</time></trkpt><trkpt lat="43.0101527" lon="13.7650427"><ele>372.6666666666667</ele><time>2026-05-03T07:27:04.02Z</time></trkpt><trkpt lat="43.0102972" lon="13.7651218"><ele>371.3333333333333</ele><time>2026-05-03T07:27:05.021Z</time></trkpt><trkpt lat="43.0104384" lon="13.7652027"><ele>370.0</ele><time>2026-05-03T07:27:06.02Z</time></trkpt><trkpt lat="43.0105737" lon="13.7653002"><ele>369.75</ele><time>2026-05-03T07:27:07.02Z</time></trkpt><trkpt lat="43.0106954" lon="13.7654218"><ele>369.5</ele><time>2026-05-03T07:27:08.021Z</time></trkpt><trkpt lat="43.0108071" lon="13.7655621"><ele>369.25</ele><time>2026-05-03T07:27:09.021Z</time></trkpt><trkpt lat="43.0109018" lon="13.7657151"><ele>369.0</ele><time>2026-05-03T07:27:10.021Z</time></trkpt><trkpt lat="43.0109797" lon="13.7658794"><ele>366.5</ele><time>2026-05-03T07:27:11.021Z</time></trkpt><trkpt lat="43.0110349" lon="13.76604"><ele>364.0</ele><time>2026-05-03T07:27:12.02Z</time></trkpt><trkpt lat="43.0110867" lon="13.7661841"><ele>361.5</ele><time>2026-05-03T07:27:13.021Z</time></trkpt><trkpt lat="43.0111484" lon="13.7663052"><ele>359.0</ele><time>2026-05-03T07:27:14.021Z</time></trkpt><trkpt lat="43.0112287" lon="13.7663899"><ele>359.0</ele><time>2026-05-03T07:27:15.02Z</time></trkpt><trkpt lat="43.0113265" lon="13.7664441"><ele>359.0</ele><time>2026-05-03T07:27:16.021Z</time></trkpt><trkpt lat="43.0114372" lon="13.7664792"><ele>359.0</ele><time>2026-05-03T07:27:17.021Z</time></trkpt><trkpt lat="43.0115564" lon="13.7665032"><ele>359.0</ele><time>2026-05-03T07:27:18.02Z</time></trkpt><trkpt lat="43.011682" lon="13.7665282"><ele>359.5</ele><time>2026-05-03T07:27:19.021Z</time></trkpt><trkpt lat="43.0118134" lon="13.7665629"><ele>360.0</ele><time>2026-05-03T07:27:20.02Z</time></trkpt><trkpt lat="43.0119473" lon="13.7666166"><ele>360.5</ele><time>2026-05-03T07:27:21.02Z</time></trkpt><trkpt lat="43.0120804" lon="13.7666929"><ele>361.0</ele><time>2026-05-03T07:27:22.02Z</time></trkpt><trkpt lat="43.012212" lon="13.7667926"><ele>359.66666666666663</ele><time>2026-05-03T07:27:23.02Z</time></trkpt><trkpt lat="43.0123439" lon="13.7669064"><ele>358.3333333333333</ele><time>2026-05-03T07:27:24.02Z</time></trkpt><trkpt lat="43.0124772" lon="13.7670301"><ele>357.0</ele><time>2026-05-03T07:27:25.021Z</time></trkpt><trkpt lat="43.0126088" lon="13.7671645"><ele>357.0</ele><time>2026-05-03T07:27:26.02Z</time></trkpt><trkpt lat="43.0127361" lon="13.7673135"><ele>357.0</ele><time>2026-05-03T07:27:27.02Z</time></trkpt><trkpt lat="43.012856" lon="13.7674793"><ele>357.0</ele><time>2026-05-03T07:27:28.021Z</time></trkpt><trkpt lat="43.0129646" lon="13.7676623"><ele>352.0</ele><time>2026-05-03T07:27:29.02Z</time></trkpt><trkpt lat="43.013065" lon="13.76786"><ele>347.0</ele><time>2026-05-03T07:27:30.021Z</time></trkpt><trkpt lat="43.0131634" lon="13.7680602"><ele>342.0</ele><time>2026-05-03T07:27:31.021Z</time></trkpt><trkpt lat="43.0132624" lon="13.7682648"><ele>341.6666666666667</ele><time>2026-05-03T07:27:32.021Z</time></trkpt><trkpt lat="43.0133634" lon="13.7684745"><ele>341.33333333333337</ele><time>2026-05-03T07:27:33.021Z</time></trkpt><trkpt lat="43.0134667" lon="13.7686861"><ele>341.0</ele><time>2026-05-03T07:27:34.021Z</time></trkpt><trkpt lat="43.013574" lon="13.7689006"><ele>341.0</ele><time>2026-05-03T07:27:35.021Z</time></trkpt><trkpt lat="43.0136809" lon="13.769118"><ele>341.0</ele><time>2026-05-03T07:27:36.02Z</time></trkpt><trkpt lat="43.0137896" lon="13.769333"><ele>341.0</ele><time>2026-05-03T07:27:37.02Z</time></trkpt><trkpt lat="43.013902" lon="13.7695423"><ele>344.6666666666667</ele><time>2026-05-03T07:27:38.019Z</time></trkpt><trkpt lat="43.0140183" lon="13.7697488"><ele>348.3333333333333</ele><time>2026-05-03T07:27:39.021Z</time></trkpt><trkpt lat="43.0141373" lon="13.7699538"><ele>352.0</ele><time>2026-05-03T07:27:40.02Z</time></trkpt><trkpt lat="43.0142517" lon="13.7701667"><ele>347.0</ele><time>2026-05-03T07:27:41.021Z</time></trkpt><trkpt lat="43.0143577" lon="13.7703858"><ele>342.0</ele><time>2026-05-03T07:27:42.02Z</time></trkpt><trkpt lat="43.0144604" lon="13.7706018"><ele>337.0</ele><time>2026-05-03T07:27:43.021Z</time></trkpt><trkpt lat="43.0145643" lon="13.7708029"><ele>337.0</ele><time>2026-05-03T07:27:44.021Z</time></trkpt><trkpt lat="43.0146714" lon="13.7709873"><ele>337.0</ele><time>2026-05-03T07:27:45.021Z</time></trkpt><trkpt lat="43.0147855" lon="13.7711576"><ele>337.0</ele><time>2026-05-03T07:27:46.02Z</time></trkpt><trkpt lat="43.0149108" lon="13.7713056"><ele>339.3333333333333</ele><time>2026-05-03T07:27:47.02Z</time></trkpt><trkpt lat="43.0150502" lon="13.7714181"><ele>341.6666666666667</ele><time>2026-05-03T07:27:48.019Z</time></trkpt><trkpt lat="43.0152028" lon="13.771501"><ele>344.0</ele><time>2026-05-03T07:27:49.021Z</time></trkpt><trkpt lat="43.0153628" lon="13.7715607"><ele>344.0</ele><time>2026-05-03T07:27:50.021Z</time></trkpt><trkpt lat="43.0155276" lon="13.7716086"><ele>344.0</ele><time>2026-05-03T07:27:51.021Z</time></trkpt><trkpt lat="43.0156938" lon="13.7716572"><ele>344.0</ele><time>2026-05-03T07:27:52.021Z</time></trkpt><trkpt lat="43.0158572" lon="13.7717204"><ele>346.33333333333337</ele><time>2026-05-03T07:27:53.02Z</time></trkpt><trkpt lat="43.0160153" lon="13.7718076"><ele>348.6666666666667</ele><time>2026-05-03T07:27:54.021Z</time></trkpt><trkpt lat="43.0161651" lon="13.7719158"><ele>351.0</ele><time>2026-05-03T07:27:55.02Z</time></trkpt><trkpt lat="43.016308" lon="13.7720385"><ele>349.6666666666667</ele><time>2026-05-03T07:27:56.021Z</time></trkpt><trkpt lat="43.0164489" lon="13.7721674"><ele>348.33333333333337</ele><time>2026-05-03T07:27:57.02Z</time></trkpt><trkpt lat="43.0165914" lon="13.7722958"><ele>347.0</ele><time>2026-05-03T07:27:58.021Z</time></trkpt><trkpt lat="43.0167361" lon="13.7724236"><ele>347.0</ele><time>2026-05-03T07:27:59.021Z</time></trkpt><trkpt lat="43.0168827" lon="13.7725513"><ele>347.0</ele><time>2026-05-03T07:28:00.021Z</time></trkpt><trkpt lat="43.01703" lon="13.772683"><ele>347.0</ele><time>2026-05-03T07:28:01.021Z</time></trkpt><trkpt lat="43.0171777" lon="13.7728174"><ele>346.33333333333337</ele><time>2026-05-03T07:28:02.02Z</time></trkpt><trkpt lat="43.0173291" lon="13.7729506"><ele>345.6666666666667</ele><time>2026-05-03T07:28:03.021Z</time></trkpt><trkpt lat="43.0174824" lon="13.773085"><ele>345.0</ele><time>2026-05-03T07:28:04.021Z</time></trkpt><trkpt lat="43.0176341" lon="13.7732173"><ele>345.0</ele><time>2026-05-03T07:28:05.02Z</time></trkpt><trkpt lat="43.0177853" lon="13.7733478"><ele>345.0</ele><time>2026-05-03T07:28:06.021Z</time></trkpt><trkpt lat="43.0179358" lon="13.7734681"><ele>345.0</ele><time>2026-05-03T07:28:07.02Z</time></trkpt><trkpt lat="43.018087" lon="13.7735659"><ele>343.3333333333333</ele><time>2026-05-03T07:28:08.021Z</time></trkpt><trkpt lat="43.0182433" lon="13.7736349"><ele>341.66666666666663</ele><time>2026-05-03T07:28:09.02Z</time></trkpt><trkpt lat="43.0184043" lon="13.7736751"><ele>340.0</ele><time>2026-05-03T07:28:10.021Z</time></trkpt><trkpt lat="43.0185697" lon="13.7736856"><ele>340.0</ele><time>2026-05-03T07:28:11.02Z</time></trkpt><trkpt lat="43.0187372" lon="13.7736714"><ele>340.0</ele><time>2026-05-03T07:28:12.021Z</time></trkpt><trkpt lat="43.0189049" lon="13.7736407"><ele>340.0</ele><time>2026-05-03T07:28:13.021Z</time></trkpt><trkpt lat="43.01907" lon="13.7736053"><ele>340.0</ele><time>2026-05-03T07:28:14.021Z</time></trkpt><trkpt lat="43.0192263" lon="13.7735704"><ele>340.0</ele><time>2026-05-03T07:28:15.021Z</time></trkpt><trkpt lat="43.0193687" lon="13.7735284"><ele>340.0</ele><time>2026-05-03T07:28:16.021Z</time></trkpt><trkpt lat="43.0194993" lon="13.7734657"><ele>340.0</ele><time>2026-05-03T07:28:17.019Z</time></trkpt><trkpt lat="43.0196178" lon="13.7733745"><ele>340.0</ele><time>2026-05-03T07:28:18.02Z</time></trkpt><trkpt lat="43.0197198" lon="13.7732497"><ele>340.0</ele><time>2026-05-03T07:28:19.02Z</time></trkpt><trkpt lat="43.019808" lon="13.7730963"><ele>340.0</ele><time>2026-05-03T07:28:20.019Z</time></trkpt><trkpt lat="43.0198888" lon="13.7729234"><ele>340.0</ele><time>2026-05-03T07:28:21.021Z</time></trkpt><trkpt lat="43.0199715" lon="13.7727442"><ele>337.66666666666663</ele><time>2026-05-03T07:28:22.021Z</time></trkpt><trkpt lat="43.0200541" lon="13.7725594"><ele>335.3333333333333</ele><time>2026-05-03T07:28:23.021Z</time></trkpt><trkpt lat="43.0201374" lon="13.7723707"><ele>333.0</ele><time>2026-05-03T07:28:24.02Z</time></trkpt><trkpt lat="43.020222" lon="13.7721876"><ele>333.0</ele><time>2026-05-03T07:28:25.02Z</time></trkpt><trkpt lat="43.0203023" lon="13.7720146"><ele>333.0</ele><time>2026-05-03T07:28:26.02Z</time></trkpt><trkpt lat="43.0203827" lon="13.7718518"><ele>333.0</ele><time>2026-05-03T07:28:27.02Z</time></trkpt><trkpt lat="43.0204706" lon="13.7717083"><ele>333.0</ele><time>2026-05-03T07:28:28.02Z</time></trkpt><trkpt lat="43.0205723" lon="13.7715856"><ele>333.5</ele><time>2026-05-03T07:28:29.021Z</time></trkpt><trkpt lat="43.0206911" lon="13.7714906"><ele>334.0</ele><time>2026-05-03T07:28:30.02Z</time></trkpt><trkpt lat="43.0208245" lon="13.7714238"><ele>334.5</ele><time>2026-05-03T07:28:31.02Z</time></trkpt><trkpt lat="43.0209702" lon="13.7713837"><ele>335.0</ele><time>2026-05-03T07:28:32.021Z</time></trkpt><trkpt lat="43.0211246" lon="13.7713688"><ele>328.6666666666667</ele><time>2026-05-03T07:28:33.021Z</time></trkpt><trkpt lat="43.0212864" lon="13.7713686"><ele>322.3333333333333</ele><time>2026-05-03T07:28:34.02Z</time></trkpt><trkpt lat="43.0214515" lon="13.7713776"><ele>316.0</ele><time>2026-05-03T07:28:35.021Z</time></trkpt><trkpt lat="43.0216137" lon="13.7713856"><ele>313.0</ele><time>2026-05-03T07:28:36.021Z</time></trkpt><trkpt lat="43.021769" lon="13.7713888"><ele>310.0</ele><time>2026-05-03T07:28:37.02Z</time></trkpt><trkpt lat="43.0219116" lon="13.7713807"><ele>307.0</ele><time>2026-05-03T07:28:38.021Z</time></trkpt><trkpt lat="43.0220415" lon="13.7713496"><ele>304.0</ele><time>2026-05-03T07:28:39.02Z</time></trkpt><trkpt lat="43.0221529" lon="13.7712881"><ele>304.0</ele><time>2026-05-03T07:28:40.021Z</time></trkpt><trkpt lat="43.0222453" lon="13.7711884"><ele>304.0</ele><time>2026-05-03T07:28:41.02Z</time></trkpt><trkpt lat="43.0223181" lon="13.7710538"><ele>304.0</ele><time>2026-05-03T07:28:42.02Z</time></trkpt><trkpt lat="43.0223699" lon="13.7708937"><ele>304.0</ele><time>2026-05-03T07:28:43.02Z</time></trkpt><trkpt lat="43.022408" lon="13.7707146"><ele>305.0</ele><time>2026-05-03T07:28:44.02Z</time></trkpt><trkpt lat="43.0224404" lon="13.7705252"><ele>306.0</ele><time>2026-05-03T07:28:45.021Z</time></trkpt><trkpt lat="43.0224726" lon="13.7703281"><ele>307.0</ele><time>2026-05-03T07:28:46.02Z</time></trkpt><trkpt lat="43.0225062" lon="13.7701262"><ele>308.0</ele><time>2026-05-03T07:28:47.021Z</time></trkpt><trkpt lat="43.022538" lon="13.7699266"><ele>305.0</ele><time>2026-05-03T07:28:48.02Z</time></trkpt><trkpt lat="43.0225638" lon="13.7697281"><ele>302.0</ele><time>2026-05-03T07:28:49.021Z</time></trkpt><trkpt lat="43.0225846" lon="13.7695317"><ele>299.0</ele><time>2026-05-03T07:28:50.021Z</time></trkpt><trkpt lat="43.0226009" lon="13.7693384"><ele>296.0</ele><time>2026-05-03T07:28:51.021Z</time></trkpt><trkpt lat="43.0226124" lon="13.7691528"><ele>294.0</ele><time>2026-05-03T07:28:52.02Z</time></trkpt><trkpt lat="43.0226266" lon="13.7689859"><ele>292.0</ele><time>2026-05-03T07:28:53.02Z</time></trkpt><trkpt lat="43.0226511" lon="13.7688354"><ele>290.0</ele><time>2026-05-03T07:28:54.02Z</time></trkpt><trkpt lat="43.0226902" lon="13.768697"><ele>288.0</ele><time>2026-05-03T07:28:55.021Z</time></trkpt><trkpt lat="43.0227424" lon="13.7685816"><ele>286.0</ele><time>2026-05-03T07:28:56.019Z</time></trkpt><trkpt lat="43.0228103" lon="13.768494"><ele>286.0</ele><time>2026-05-03T07:28:57.021Z</time></trkpt><trkpt lat="43.0228929" lon="13.7684424"><ele>286.0</ele><time>2026-05-03T07:28:58.021Z</time></trkpt><trkpt lat="43.0229871" lon="13.7684269"><ele>286.0</ele><time>2026-05-03T07:28:59.021Z</time></trkpt><trkpt lat="43.0230871" lon="13.7684432"><ele>286.0</ele><time>2026-05-03T07:29:00.021Z</time></trkpt><trkpt lat="43.0231875" lon="13.7684968"><ele>286.0</ele><time>2026-05-03T07:29:01.021Z</time></trkpt><trkpt lat="43.0232888" lon="13.7685729"><ele>285.25</ele><time>2026-05-03T07:29:02.021Z</time></trkpt><trkpt lat="43.0233935" lon="13.7686626"><ele>284.5</ele><time>2026-05-03T07:29:03.021Z</time></trkpt><trkpt lat="43.0235003" lon="13.7687652"><ele>283.75</ele><time>2026-05-03T07:29:04.021Z</time></trkpt><trkpt lat="43.0236125" lon="13.7688699"><ele>283.0</ele><time>2026-05-03T07:29:05.021Z</time></trkpt><trkpt lat="43.0237262" lon="13.7689622"><ele>283.0</ele><time>2026-05-03T07:29:06.021Z</time></trkpt><trkpt lat="43.0238444" lon="13.7690482"><ele>283.0</ele><time>2026-05-03T07:29:07.021Z</time></trkpt><trkpt lat="43.0239716" lon="13.7691239"><ele>283.0</ele><time>2026-05-03T07:29:08.021Z</time></trkpt><trkpt lat="43.0241064" lon="13.7691876"><ele>283.0</ele><time>2026-05-03T07:29:09.02Z</time></trkpt><trkpt lat="43.0242477" lon="13.7692381"><ele>280.75</ele><time>2026-05-03T07:29:10.02Z</time></trkpt><trkpt lat="43.0243957" lon="13.769282"><ele>278.5</ele><time>2026-05-03T07:29:11.021Z</time></trkpt><trkpt lat="43.0245422" lon="13.7693246"><ele>276.25</ele><time>2026-05-03T07:29:12.021Z</time></trkpt><trkpt lat="43.0246828" lon="13.7693699"><ele>274.0</ele><time>2026-05-03T07:29:13.02Z</time></trkpt><trkpt lat="43.0248188" lon="13.7694241"><ele>274.0</ele><time>2026-05-03T07:29:14.021Z</time></trkpt><trkpt lat="43.0249498" lon="13.7694807"><ele>274.0</ele><time>2026-05-03T07:29:15.021Z</time></trkpt><trkpt lat="43.025067" lon="13.7695531"><ele>274.0</ele><time>2026-05-03T07:29:16.02Z</time></trkpt><trkpt lat="43.0251728" lon="13.7696407"><ele>274.0</ele><time>2026-05-03T07:29:17.021Z</time></trkpt><trkpt lat="43.0252601" lon="13.769754"><ele>270.5</ele><time>2026-05-03T07:29:18.02Z</time></trkpt><trkpt lat="43.025321" lon="13.7698906"><ele>267.0</ele><time>2026-05-03T07:29:19.02Z</time></trkpt><trkpt lat="43.0253531" lon="13.7700546"><ele>263.5</ele><time>2026-05-03T07:29:20.021Z</time></trkpt><trkpt lat="43.0253615" lon="13.7702321"><ele>260.0</ele><time>2026-05-03T07:29:21.021Z</time></trkpt><trkpt lat="43.025353" lon="13.7704211"><ele>259.5</ele><time>2026-05-03T07:29:22.021Z</time></trkpt><trkpt lat="43.0253428" lon="13.7706086"><ele>259.0</ele><time>2026-05-03T07:29:23.021Z</time></trkpt><trkpt lat="43.0253469" lon="13.7707943"><ele>258.5</ele><time>2026-05-03T07:29:24.019Z</time></trkpt><trkpt lat="43.0253792" lon="13.7709772"><ele>258.0</ele><time>2026-05-03T07:29:25.021Z</time></trkpt><trkpt lat="43.0254376" lon="13.7711521"><ele>257.0</ele><time>2026-05-03T07:29:26.02Z</time></trkpt><trkpt lat="43.0255265" lon="13.7713116"><ele>256.0</ele><time>2026-05-03T07:29:27.019Z</time></trkpt><trkpt lat="43.0256383" lon="13.7714528"><ele>255.0</ele><time>2026-05-03T07:29:28.02Z</time></trkpt><trkpt lat="43.0257668" lon="13.7715796"><ele>248.0</ele><time>2026-05-03T07:29:29.021Z</time></trkpt><trkpt lat="43.0259033" lon="13.7716986"><ele>241.0</ele><time>2026-05-03T07:29:30.021Z</time></trkpt><trkpt lat="43.026039" lon="13.7718121"><ele>234.0</ele><time>2026-05-03T07:29:31.02Z</time></trkpt><trkpt lat="43.0261665" lon="13.7719223"><ele>233.75</ele><time>2026-05-03T07:29:32.019Z</time></trkpt><trkpt lat="43.0262775" lon="13.7720457"><ele>233.5</ele><time>2026-05-03T07:29:33.02Z</time></trkpt><trkpt lat="43.0263697" lon="13.7721877"><ele>233.25</ele><time>2026-05-03T07:29:34.021Z</time></trkpt><trkpt lat="43.0264378" lon="13.7723485"><ele>233.0</ele><time>2026-05-03T07:29:35.021Z</time></trkpt><trkpt lat="43.0264817" lon="13.7725252"><ele>231.25</ele><time>2026-05-03T07:29:36.02Z</time></trkpt><trkpt lat="43.0264972" lon="13.772715"><ele>229.5</ele><time>2026-05-03T07:29:37.021Z</time></trkpt><trkpt lat="43.0264852" lon="13.7729084"><ele>227.75</ele><time>2026-05-03T07:29:38.02Z</time></trkpt><trkpt lat="43.0264486" lon="13.7730996"><ele>226.0</ele><time>2026-05-03T07:29:39.021Z</time></trkpt><trkpt lat="43.0263912" lon="13.773289"><ele>226.0</ele><time>2026-05-03T07:29:40.02Z</time></trkpt><trkpt lat="43.0263179" lon="13.7734749"><ele>226.0</ele><time>2026-05-03T07:29:41.02Z</time></trkpt><trkpt lat="43.0262361" lon="13.7736609"><ele>226.0</ele><time>2026-05-03T07:29:42.021Z</time></trkpt><trkpt lat="43.0261463" lon="13.7738501"><ele>223.0</ele><time>2026-05-03T07:29:43.021Z</time></trkpt><trkpt lat="43.0260549" lon="13.7740441"><ele>220.0</ele><time>2026-05-03T07:29:44.021Z</time></trkpt><trkpt lat="43.0259642" lon="13.7742431"><ele>217.0</ele><time>2026-05-03T07:29:45.02Z</time></trkpt><trkpt lat="43.0258733" lon="13.7744395"><ele>217.33333333333331</ele><time>2026-05-03T07:29:46.02Z</time></trkpt><trkpt lat="43.0257824" lon="13.7746283"><ele>217.66666666666669</ele><time>2026-05-03T07:29:47.02Z</time></trkpt><trkpt lat="43.0256883" lon="13.7748041"><ele>218.0</ele><time>2026-05-03T07:29:48.021Z</time></trkpt><trkpt lat="43.0255936" lon="13.77497"><ele>218.0</ele><time>2026-05-03T07:29:49.021Z</time></trkpt><trkpt lat="43.0255027" lon="13.775128"><ele>218.0</ele><time>2026-05-03T07:29:50.021Z</time></trkpt><trkpt lat="43.0254155" lon="13.775284"><ele>218.0</ele><time>2026-05-03T07:29:51.02Z</time></trkpt><trkpt lat="43.0253423" lon="13.775442"><ele>218.0</ele><time>2026-05-03T07:29:52.02Z</time></trkpt><trkpt lat="43.0252852" lon="13.7756105"><ele>216.25</ele><time>2026-05-03T07:29:53.02Z</time></trkpt><trkpt lat="43.0252531" lon="13.7757831"><ele>214.5</ele><time>2026-05-03T07:29:54.021Z</time></trkpt><trkpt lat="43.0252437" lon="13.7759605"><ele>212.75</ele><time>2026-05-03T07:29:55.02Z</time></trkpt><trkpt lat="43.0252457" lon="13.7761494"><ele>211.0</ele><time>2026-05-03T07:29:56.02Z</time></trkpt><trkpt lat="43.0252485" lon="13.776346"><ele>210.0</ele><time>2026-05-03T07:29:57.021Z</time></trkpt><trkpt lat="43.0252497" lon="13.7765419"><ele>209.0</ele><time>2026-05-03T07:29:58.021Z</time></trkpt><trkpt lat="43.0252466" lon="13.7767327"><ele>208.0</ele><time>2026-05-03T07:29:59.02Z</time></trkpt><trkpt lat="43.0252379" lon="13.7769252"><ele>207.0</ele><time>2026-05-03T07:30:00.021Z</time></trkpt><trkpt lat="43.0252245" lon="13.7771292"><ele>205.33333333333331</ele><time>2026-05-03T07:30:01.021Z</time></trkpt><trkpt lat="43.0252084" lon="13.7773453"><ele>203.66666666666666</ele><time>2026-05-03T07:30:02.02Z</time></trkpt><trkpt lat="43.0251947" lon="13.7775663"><ele>202.0</ele><time>2026-05-03T07:30:03.021Z</time></trkpt><trkpt lat="43.0251823" lon="13.7777914"><ele>202.0</ele><time>2026-05-03T07:30:04.02Z</time></trkpt><trkpt lat="43.0251821" lon="13.7780195"><ele>202.0</ele><time>2026-05-03T07:30:05.021Z</time></trkpt><trkpt lat="43.0251997" lon="13.7782488"><ele>202.0</ele><time>2026-05-03T07:30:06.02Z</time></trkpt><trkpt lat="43.0252323" lon="13.7784766"><ele>203.66666666666666</ele><time>2026-05-03T07:30:07.02Z</time></trkpt><trkpt lat="43.025281" lon="13.7787032"><ele>205.33333333333331</ele><time>2026-05-03T07:30:08.021Z</time></trkpt><trkpt lat="43.0253419" lon="13.7789278"><ele>207.0</ele><time>2026-05-03T07:30:09.021Z</time></trkpt><trkpt lat="43.0254183" lon="13.7791481"><ele>209.33333333333331</ele><time>2026-05-03T07:30:10.021Z</time></trkpt><trkpt lat="43.0255059" lon="13.7793639"><ele>211.66666666666666</ele><time>2026-05-03T07:30:11.02Z</time></trkpt><trkpt lat="43.0256008" lon="13.779578"><ele>214.0</ele><time>2026-05-03T07:30:12.02Z</time></trkpt><trkpt lat="43.0256989" lon="13.7797961"><ele>214.0</ele><time>2026-05-03T07:30:13.021Z</time></trkpt><trkpt lat="43.0257994" lon="13.780016"><ele>214.0</ele><time>2026-05-03T07:30:14.021Z</time></trkpt><trkpt lat="43.0258988" lon="13.7802362"><ele>214.0</ele><time>2026-05-03T07:30:15.021Z</time></trkpt><trkpt lat="43.0259963" lon="13.7804562"><ele>208.66666666666666</ele><time>2026-05-03T07:30:16.021Z</time></trkpt><trkpt lat="43.0260908" lon="13.7806719"><ele>203.33333333333331</ele><time>2026-05-03T07:30:17.021Z</time></trkpt><trkpt lat="43.0261805" lon="13.7808848"><ele>198.0</ele><time>2026-05-03T07:30:18.021Z</time></trkpt><trkpt lat="43.0262668" lon="13.7810947"><ele>196.33333333333331</ele><time>2026-05-03T07:30:19.021Z</time></trkpt><trkpt lat="43.0263505" lon="13.7813017"><ele>194.66666666666666</ele><time>2026-05-03T07:30:20.021Z</time></trkpt><trkpt lat="43.0264309" lon="13.7815047"><ele>193.0</ele><time>2026-05-03T07:30:21.019Z</time></trkpt><trkpt lat="43.0265114" lon="13.7817033"><ele>192.33333333333331</ele><time>2026-05-03T07:30:22.021Z</time></trkpt><trkpt lat="43.0265904" lon="13.7818988"><ele>191.66666666666666</ele><time>2026-05-03T07:30:23.021Z</time></trkpt><trkpt lat="43.0266647" lon="13.7820931"><ele>191.0</ele><time>2026-05-03T07:30:24.02Z</time></trkpt><trkpt lat="43.0267367" lon="13.7822917"><ele>186.0</ele><time>2026-05-03T07:30:25.021Z</time></trkpt><trkpt lat="43.0268061" lon="13.7824937"><ele>181.0</ele><time>2026-05-03T07:30:26.021Z</time></trkpt><trkpt lat="43.0268695" lon="13.7826981"><ele>176.0</ele><time>2026-05-03T07:30:27.019Z</time></trkpt><trkpt lat="43.0269203" lon="13.7829102"><ele>174.33333333333331</ele><time>2026-05-03T07:30:28.02Z</time></trkpt><trkpt lat="43.0269543" lon="13.7831281"><ele>172.66666666666666</ele><time>2026-05-03T07:30:29.021Z</time></trkpt><trkpt lat="43.0269696" lon="13.7833532"><ele>171.0</ele><time>2026-05-03T07:30:30.02Z</time></trkpt><trkpt lat="43.0269661" lon="13.7835814"><ele>166.66666666666666</ele><time>2026-05-03T07:30:31.02Z</time></trkpt><trkpt lat="43.0269491" lon="13.7838047"><ele>162.33333333333331</ele><time>2026-05-03T07:30:32.021Z</time></trkpt><trkpt lat="43.0269225" lon="13.7840278"><ele>158.0</ele><time>2026-05-03T07:30:33.02Z</time></trkpt><trkpt lat="43.0268904" lon="13.7842512"><ele>155.33333333333331</ele><time>2026-05-03T07:30:34.021Z</time></trkpt><trkpt lat="43.0268534" lon="13.7844786"><ele>152.66666666666666</ele><time>2026-05-03T07:30:35.02Z</time></trkpt><trkpt lat="43.026816" lon="13.7847051"><ele>150.0</ele><time>2026-05-03T07:30:36.02Z</time></trkpt><trkpt lat="43.0267781" lon="13.7849286"><ele>150.0</ele><time>2026-05-03T07:30:37.02Z</time></trkpt><trkpt lat="43.0267421" lon="13.7851501"><ele>150.0</ele><time>2026-05-03T07:30:38.021Z</time></trkpt><trkpt lat="43.0267042" lon="13.7853683"><ele>150.0</ele><time>2026-05-03T07:30:39.021Z</time></trkpt><trkpt lat="43.0266666" lon="13.7855876"><ele>150.66666666666666</ele><time>2026-05-03T07:30:40.02Z</time></trkpt><trkpt lat="43.0266299" lon="13.7858052"><ele>151.33333333333331</ele><time>2026-05-03T07:30:41.02Z</time></trkpt><trkpt lat="43.0265956" lon="13.7860213"><ele>152.0</ele><time>2026-05-03T07:30:42.021Z</time></trkpt><trkpt lat="43.0265708" lon="13.7862406"><ele>148.66666666666666</ele><time>2026-05-03T07:30:43.02Z</time></trkpt><trkpt lat="43.026565" lon="13.786465"><ele>145.33333333333334</ele><time>2026-05-03T07:30:44.021Z</time></trkpt><trkpt lat="43.0265789" lon="13.7866933"><ele>142.0</ele><time>2026-05-03T07:30:45.021Z</time></trkpt><trkpt lat="43.0266116" lon="13.7869227"><ele>138.0</ele><time>2026-05-03T07:30:46.02Z</time></trkpt><trkpt lat="43.0266744" lon="13.7871469"><ele>134.0</ele><time>2026-05-03T07:30:47.02Z</time></trkpt><trkpt lat="43.026763" lon="13.7873562"><ele>130.0</ele><time>2026-05-03T07:30:48.02Z</time></trkpt><trkpt lat="43.0268731" lon="13.7875539"><ele>127.33333333333334</ele><time>2026-05-03T07:30:49.019Z</time></trkpt><trkpt lat="43.0270025" lon="13.7877354"><ele>124.66666666666666</ele><time>2026-05-03T07:30:50.02Z</time></trkpt><trkpt lat="43.0271512" lon="13.7878966"><ele>122.0</ele><time>2026-05-03T07:30:51.021Z</time></trkpt><trkpt lat="43.0273147" lon="13.7880396"><ele>120.0</ele><time>2026-05-03T07:30:52.021Z</time></trkpt><trkpt lat="43.0274831" lon="13.7881696"><ele>118.0</ele><time>2026-05-03T07:30:53.021Z</time></trkpt><trkpt lat="43.0276532" lon="13.7882989"><ele>116.0</ele><time>2026-05-03T07:30:54.02Z</time></trkpt><trkpt lat="43.0278201" lon="13.7884428"><ele>114.33333333333333</ele><time>2026-05-03T07:30:55.021Z</time></trkpt><trkpt lat="43.0279753" lon="13.7886128"><ele>112.66666666666666</ele><time>2026-05-03T07:30:56.021Z</time></trkpt><trkpt lat="43.0281157" lon="13.7888144"><ele>111.0</ele><time>2026-05-03T07:30:57.021Z</time></trkpt><trkpt lat="43.0282388" lon="13.7890452"><ele>108.0</ele><time>2026-05-03T07:30:58.02Z</time></trkpt><trkpt lat="43.0283474" lon="13.789297"><ele>105.0</ele><time>2026-05-03T07:30:59.021Z</time></trkpt><trkpt lat="43.0284498" lon="13.7895631"><ele>102.0</ele><time>2026-05-03T07:31:00.021Z</time></trkpt><trkpt lat="43.0285502" lon="13.7898367"><ele>99.5</ele><time>2026-05-03T07:31:01.02Z</time></trkpt><trkpt lat="43.0286541" lon="13.790115"><ele>97.0</ele><time>2026-05-03T07:31:02.02Z</time></trkpt><trkpt lat="43.0287591" lon="13.7903953"><ele>94.5</ele><time>2026-05-03T07:31:03.019Z</time></trkpt><trkpt lat="43.0288663" lon="13.7906788"><ele>92.0</ele><time>2026-05-03T07:31:04.021Z</time></trkpt><trkpt lat="43.0289771" lon="13.7909645"><ele>90.0</ele><time>2026-05-03T07:31:05.019Z</time></trkpt><trkpt lat="43.0290936" lon="13.791248"><ele>88.0</ele><time>2026-05-03T07:31:06.021Z</time></trkpt><trkpt lat="43.0292187" lon="13.7915292"><ele>86.0</ele><time>2026-05-03T07:31:07.02Z</time></trkpt><trkpt lat="43.0293514" lon="13.7918046"><ele>84.0</ele><time>2026-05-03T07:31:08.02Z</time></trkpt><trkpt lat="43.0294909" lon="13.7920743"><ele>83.5</ele><time>2026-05-03T07:31:09.02Z</time></trkpt><trkpt lat="43.0296313" lon="13.7923434"><ele>83.0</ele><time>2026-05-03T07:31:10.019Z</time></trkpt><trkpt lat="43.0297736" lon="13.7926101"><ele>81.5</ele><time>2026-05-03T07:31:11.021Z</time></trkpt><trkpt lat="43.0299201" lon="13.7928691"><ele>80.0</ele><time>2026-05-03T07:31:12.021Z</time></trkpt><trkpt lat="43.0300704" lon="13.7931197"><ele>77.0</ele><time>2026-05-03T07:31:13.021Z</time></trkpt><trkpt lat="43.0302217" lon="13.7933603"><ele>74.0</ele><time>2026-05-03T07:31:14.02Z</time></trkpt><trkpt lat="43.0303749" lon="13.7935913"><ele>72.33333333333334</ele><time>2026-05-03T07:31:15.02Z</time></trkpt><trkpt lat="43.0305293" lon="13.793814"><ele>70.66666666666667</ele><time>2026-05-03T07:31:16.021Z</time></trkpt><trkpt lat="43.0306837" lon="13.7940262"><ele>69.0</ele><time>2026-05-03T07:31:17.02Z</time></trkpt><trkpt lat="43.0308389" lon="13.7942292"><ele>67.33333333333333</ele><time>2026-05-03T07:31:18.021Z</time></trkpt><trkpt lat="43.030994" lon="13.7944254"><ele>65.66666666666666</ele><time>2026-05-03T07:31:19.021Z</time></trkpt><trkpt lat="43.0311463" lon="13.7946225"><ele>64.0</ele><time>2026-05-03T07:31:20.021Z</time></trkpt><trkpt lat="43.0312911" lon="13.794827"><ele>64.0</ele><time>2026-05-03T07:31:21.021Z</time></trkpt><trkpt lat="43.03143" lon="13.7950365"><ele>64.0</ele><time>2026-05-03T07:31:22.02Z</time></trkpt><trkpt lat="43.0315675" lon="13.7952493"><ele>64.0</ele><time>2026-05-03T07:31:23.021Z</time></trkpt><trkpt lat="43.0317031" lon="13.7954603"><ele>62.0</ele><time>2026-05-03T07:31:24.021Z</time></trkpt><trkpt lat="43.031836" lon="13.7956653"><ele>60.0</ele><time>2026-05-03T07:31:25.021Z</time></trkpt><trkpt lat="43.0319648" lon="13.7958683"><ele>58.0</ele><time>2026-05-03T07:31:26.021Z</time></trkpt><trkpt lat="43.0320902" lon="13.7960679"><ele>56.666666666666664</ele><time>2026-05-03T07:31:27.021Z</time></trkpt><trkpt lat="43.0322148" lon="13.796268"><ele>55.33333333333333</ele><time>2026-05-03T07:31:28.021Z</time></trkpt><trkpt lat="43.0323394" lon="13.7964683"><ele>54.0</ele><time>2026-05-03T07:31:29.02Z</time></trkpt><trkpt lat="43.0324631" lon="13.7966676"><ele>52.0</ele><time>2026-05-03T07:31:30.021Z</time></trkpt><trkpt lat="43.0325868" lon="13.7968649"><ele>50.0</ele><time>2026-05-03T07:31:31.019Z</time></trkpt><trkpt lat="43.0327115" lon="13.7970624"><ele>48.0</ele><time>2026-05-03T07:31:32.021Z</time></trkpt><trkpt lat="43.0328369" lon="13.7972573"><ele>48.0</ele><time>2026-05-03T07:31:33.02Z</time></trkpt><trkpt lat="43.0329677" lon="13.797445"><ele>48.0</ele><time>2026-05-03T07:31:34.021Z</time></trkpt><trkpt lat="43.0331016" lon="13.7976187"><ele>48.0</ele><time>2026-05-03T07:31:35.02Z</time></trkpt><trkpt lat="43.0332343" lon="13.7977786"><ele>47.0</ele><time>2026-05-03T07:31:36.02Z</time></trkpt><trkpt lat="43.0333558" lon="13.7979253"><ele>46.0</ele><time>2026-05-03T07:31:37.02Z</time></trkpt><trkpt lat="43.0334616" lon="13.7980683"><ele>45.0</ele><time>2026-05-03T07:31:38.02Z</time></trkpt><trkpt lat="43.0335423" lon="13.7982196"><ele>44.0</ele><time>2026-05-03T07:31:39.021Z</time></trkpt><trkpt lat="43.03359" lon="13.7983918"><ele>43.5</ele><time>2026-05-03T07:31:40.021Z</time></trkpt><trkpt lat="43.033612" lon="13.798574"><ele>43.0</ele><time>2026-05-03T07:31:41.021Z</time></trkpt><trkpt lat="43.0336194" lon="13.7987582"><ele>42.5</ele><time>2026-05-03T07:31:42.02Z</time></trkpt><trkpt lat="43.0336228" lon="13.7989348"><ele>42.0</ele><time>2026-05-03T07:31:43.021Z</time></trkpt><trkpt lat="43.0336254" lon="13.7991096"><ele>42.0</ele><time>2026-05-03T07:31:44.021Z</time></trkpt><trkpt lat="43.0336271" lon="13.7992824"><ele>42.0</ele><time>2026-05-03T07:31:45.02Z</time></trkpt><trkpt lat="43.0336286" lon="13.7994513"><ele>42.0</ele><time>2026-05-03T07:31:46.021Z</time></trkpt><trkpt lat="43.0336303" lon="13.7996118"><ele>42.0</ele><time>2026-05-03T07:31:47.02Z</time></trkpt><trkpt lat="43.0336309" lon="13.799763"><ele>42.0</ele><time>2026-05-03T07:31:48.021Z</time></trkpt><trkpt lat="43.0336322" lon="13.7999036"><ele>42.0</ele><time>2026-05-03T07:31:49.019Z</time></trkpt><trkpt lat="43.0336378" lon="13.8000337"><ele>42.0</ele><time>2026-05-03T07:31:50.021Z</time></trkpt><trkpt lat="43.0336597" lon="13.8001477"><ele>42.0</ele><time>2026-05-03T07:31:51.021Z</time></trkpt><trkpt lat="43.0337087" lon="13.8002401"><ele>42.0</ele><time>2026-05-03T07:31:52.021Z</time></trkpt><trkpt lat="43.0337843" lon="13.8003043"><ele>42.0</ele><time>2026-05-03T07:31:53.021Z</time></trkpt><trkpt lat="43.033883" lon="13.8003353"><ele>42.0</ele><time>2026-05-03T07:31:54.02Z</time></trkpt><trkpt lat="43.0340053" lon="13.800337"><ele>42.0</ele><time>2026-05-03T07:31:55.021Z</time></trkpt><trkpt lat="43.0341525" lon="13.8003303"><ele>42.0</ele><time>2026-05-03T07:31:56.021Z</time></trkpt><trkpt lat="43.0343227" lon="13.8003331"><ele>41.333333333333336</ele><time>2026-05-03T07:31:57.021Z</time></trkpt><trkpt lat="43.03451" lon="13.8003466"><ele>40.66666666666667</ele><time>2026-05-03T07:31:58.02Z</time></trkpt><trkpt lat="43.0347118" lon="13.8003564"><ele>40.0</ele><time>2026-05-03T07:31:59.02Z</time></trkpt><trkpt lat="43.0349261" lon="13.8003628"><ele>38.0</ele><time>2026-05-03T07:32:00.021Z</time></trkpt><trkpt lat="43.0351503" lon="13.8003706"><ele>36.0</ele><time>2026-05-03T07:32:01.021Z</time></trkpt><trkpt lat="43.0353819" lon="13.800379"><ele>36.0</ele><time>2026-05-03T07:32:02.021Z</time></trkpt><trkpt lat="43.0356165" lon="13.800388"><ele>36.0</ele><time>2026-05-03T07:32:03.021Z</time></trkpt><trkpt lat="43.0358429" lon="13.8003976"><ele>35.333333333333336</ele><time>2026-05-03T07:32:04.021Z</time></trkpt><trkpt lat="43.0360565" lon="13.8004054"><ele>34.66666666666667</ele><time>2026-05-03T07:32:05.021Z</time></trkpt><trkpt lat="43.0362577" lon="13.8004145"><ele>34.0</ele><time>2026-05-03T07:32:06.021Z</time></trkpt><trkpt lat="43.0364471" lon="13.8004243"><ele>34.0</ele><time>2026-05-03T07:32:07.021Z</time></trkpt><trkpt lat="43.0366225" lon="13.800433"><ele>34.0</ele><time>2026-05-03T07:32:08.021Z</time></trkpt><trkpt lat="43.0367842" lon="13.8004399"><ele>34.0</ele><time>2026-05-03T07:32:09.021Z</time></trkpt><trkpt lat="43.0369313" lon="13.8004486"><ele>34.2</ele><time>2026-05-03T07:32:10.02Z</time></trkpt><trkpt lat="43.0370526" lon="13.8004591"><ele>34.4</ele><time>2026-05-03T07:32:11.021Z</time></trkpt><trkpt lat="43.0371454" lon="13.8004744"><ele>34.6</ele><time>2026-05-03T07:32:12.02Z</time></trkpt><trkpt lat="43.0372108" lon="13.8004987"><ele>34.8</ele><time>2026-05-03T07:32:13.021Z</time></trkpt><trkpt lat="43.0372846" lon="13.8005981"><ele>35.0</ele><time>2026-05-03T07:32:15.02Z</time></trkpt><trkpt lat="43.0373001" lon="13.8006877"><ele>35.0</ele><time>2026-05-03T07:32:16.02Z</time></trkpt><trkpt lat="43.0373045" lon="13.800805"><ele>35.0</ele><time>2026-05-03T07:32:17.02Z</time></trkpt><trkpt lat="43.0373003" lon="13.8009475"><ele>35.0</ele><time>2026-05-03T07:32:18.02Z</time></trkpt><trkpt lat="43.0372938" lon="13.8011121"><ele>35.0</ele><time>2026-05-03T07:32:19.021Z</time></trkpt><trkpt lat="43.0372849" lon="13.8012942"><ele>35.0</ele><time>2026-05-03T07:32:20.021Z</time></trkpt><trkpt lat="43.0372738" lon="13.8014923"><ele>35.0</ele><time>2026-05-03T07:32:21.021Z</time></trkpt><trkpt lat="43.0372626" lon="13.8017067"><ele>35.0</ele><time>2026-05-03T07:32:22.02Z</time></trkpt><trkpt lat="43.037249" lon="13.801937"><ele>35.0</ele><time>2026-05-03T07:32:23.02Z</time></trkpt><trkpt lat="43.0372326" lon="13.802182"><ele>35.0</ele><time>2026-05-03T07:32:24.021Z</time></trkpt><trkpt lat="43.0372181" lon="13.8024396"><ele>35.0</ele><time>2026-05-03T07:32:25.02Z</time></trkpt><trkpt lat="43.037202" lon="13.8027077"><ele>35.0</ele><time>2026-05-03T07:32:26.02Z</time></trkpt><trkpt lat="43.037184" lon="13.8029865"><ele>34.666666666666664</ele><time>2026-05-03T07:32:27.021Z</time></trkpt><trkpt lat="43.0371657" lon="13.8032735"><ele>34.333333333333336</ele><time>2026-05-03T07:32:28.021Z</time></trkpt><trkpt lat="43.0371484" lon="13.8035684"><ele>34.0</ele><time>2026-05-03T07:32:29.02Z</time></trkpt><trkpt lat="43.0371302" lon="13.8038688"><ele>34.0</ele><time>2026-05-03T07:32:30.021Z</time></trkpt><trkpt lat="43.0371127" lon="13.8041729"><ele>34.0</ele><time>2026-05-03T07:32:31.02Z</time></trkpt><trkpt lat="43.0371049" lon="13.8044805"><ele>34.0</ele><time>2026-05-03T07:32:32.02Z</time></trkpt><trkpt lat="43.0371187" lon="13.8047898"><ele>34.0</ele><time>2026-05-03T07:32:33.02Z</time></trkpt><trkpt lat="43.0371518" lon="13.8050976"><ele>34.0</ele><time>2026-05-03T07:32:34.02Z</time></trkpt><trkpt lat="43.0371988" lon="13.8054034"><ele>34.5</ele><time>2026-05-03T07:32:35.021Z</time></trkpt><trkpt lat="43.0372557" lon="13.8057083"><ele>35.0</ele><time>2026-05-03T07:32:36.021Z</time></trkpt><trkpt lat="43.0373148" lon="13.8060138"><ele>33.5</ele><time>2026-05-03T07:32:37.021Z</time></trkpt><trkpt lat="43.0373716" lon="13.8063209"><ele>32.0</ele><time>2026-05-03T07:32:38.02Z</time></trkpt><trkpt lat="43.0374305" lon="13.80663"><ele>35.5</ele><time>2026-05-03T07:32:39.021Z</time></trkpt><trkpt lat="43.0374905" lon="13.8069391"><ele>39.0</ele><time>2026-05-03T07:32:40.021Z</time></trkpt><trkpt lat="43.0375499" lon="13.8072485"><ele>39.0</ele><time>2026-05-03T07:32:41.019Z</time></trkpt><trkpt lat="43.0376054" lon="13.8075601"><ele>39.0</ele><time>2026-05-03T07:32:42.02Z</time></trkpt><trkpt lat="43.0376445" lon="13.8078766"><ele>37.5</ele><time>2026-05-03T07:32:43.02Z</time></trkpt><trkpt lat="43.0376606" lon="13.8081955"><ele>36.0</ele><time>2026-05-03T07:32:44.021Z</time></trkpt><trkpt lat="43.0376532" lon="13.8085144"><ele>36.0</ele><time>2026-05-03T07:32:45.021Z</time></trkpt><trkpt lat="43.0376255" lon="13.8088314"><ele>36.0</ele><time>2026-05-03T07:32:46.02Z</time></trkpt><trkpt lat="43.0375882" lon="13.8091478"><ele>35.0</ele><time>2026-05-03T07:32:47.02Z</time></trkpt><trkpt lat="43.037548" lon="13.8094621"><ele>34.0</ele><time>2026-05-03T07:32:48.021Z</time></trkpt><trkpt lat="43.037507" lon="13.8097774"><ele>32.0</ele><time>2026-05-03T07:32:49.02Z</time></trkpt><trkpt lat="43.0374669" lon="13.8100911"><ele>30.0</ele><time>2026-05-03T07:32:50.021Z</time></trkpt><trkpt lat="43.0374289" lon="13.8104034"><ele>29.0</ele><time>2026-05-03T07:32:51.021Z</time></trkpt><trkpt lat="43.0373932" lon="13.8107156"><ele>28.0</ele><time>2026-05-03T07:32:52.021Z</time></trkpt><trkpt lat="43.0373618" lon="13.8110269"><ele>28.0</ele><time>2026-05-03T07:32:53.02Z</time></trkpt><trkpt lat="43.0373367" lon="13.8113385"><ele>28.0</ele><time>2026-05-03T07:32:54.021Z</time></trkpt><trkpt lat="43.0373176" lon="13.8116496"><ele>28.5</ele><time>2026-05-03T07:32:55.021Z</time></trkpt><trkpt lat="43.0373017" lon="13.8119607"><ele>29.0</ele><time>2026-05-03T07:32:56.019Z</time></trkpt><trkpt lat="43.0372873" lon="13.8122706"><ele>29.0</ele><time>2026-05-03T07:32:57.021Z</time></trkpt><trkpt lat="43.0372737" lon="13.8125796"><ele>29.0</ele><time>2026-05-03T07:32:58.021Z</time></trkpt><trkpt lat="43.0372614" lon="13.8128883"><ele>29.0</ele><time>2026-05-03T07:32:59.021Z</time></trkpt><trkpt lat="43.0372493" lon="13.8131972"><ele>29.0</ele><time>2026-05-03T07:33:00.021Z</time></trkpt><trkpt lat="43.0372341" lon="13.8135075"><ele>28.0</ele><time>2026-05-03T07:33:01.021Z</time></trkpt><trkpt lat="43.037217" lon="13.8138192"><ele>27.0</ele><time>2026-05-03T07:33:02.021Z</time></trkpt><trkpt lat="43.0371988" lon="13.814132"><ele>27.0</ele><time>2026-05-03T07:33:03.02Z</time></trkpt><trkpt lat="43.0371802" lon="13.8144447"><ele>27.0</ele><time>2026-05-03T07:33:04.02Z</time></trkpt><trkpt lat="43.0371612" lon="13.8147552"><ele>27.0</ele><time>2026-05-03T07:33:05.021Z</time></trkpt><trkpt lat="43.0371423" lon="13.815059"><ele>27.0</ele><time>2026-05-03T07:33:06.021Z</time></trkpt><trkpt lat="43.0371204" lon="13.8153508"><ele>27.0</ele><time>2026-05-03T07:33:07.021Z</time></trkpt><trkpt lat="43.0370915" lon="13.8156329"><ele>27.0</ele><time>2026-05-03T07:33:08.021Z</time></trkpt><trkpt lat="43.0370515" lon="13.815899"><ele>27.0</ele><time>2026-05-03T07:33:09.02Z</time></trkpt><trkpt lat="43.0369966" lon="13.8161489"><ele>27.0</ele><time>2026-05-03T07:33:10.019Z</time></trkpt><trkpt lat="43.0369298" lon="13.8163787"><ele>26.333333333333336</ele><time>2026-05-03T07:33:11.021Z</time></trkpt><trkpt lat="43.0368556" lon="13.816591"><ele>25.666666666666668</ele><time>2026-05-03T07:33:12.021Z</time></trkpt><trkpt lat="43.0367766" lon="13.8167873"><ele>25.0</ele><time>2026-05-03T07:33:13.021Z</time></trkpt><trkpt lat="43.0366932" lon="13.8169735"><ele>24.666666666666668</ele><time>2026-05-03T07:33:14.019Z</time></trkpt><trkpt lat="43.0366085" lon="13.8171529"><ele>24.333333333333336</ele><time>2026-05-03T07:33:15.021Z</time></trkpt><trkpt lat="43.0365266" lon="13.8173281"><ele>24.0</ele><time>2026-05-03T07:33:16.02Z</time></trkpt><trkpt lat="43.0364511" lon="13.8175031"><ele>24.0</ele><time>2026-05-03T07:33:17.019Z</time></trkpt><trkpt lat="43.0363808" lon="13.8176791"><ele>24.0</ele><time>2026-05-03T07:33:18.019Z</time></trkpt><trkpt lat="43.0363148" lon="13.8178602"><ele>24.0</ele><time>2026-05-03T07:33:19.021Z</time></trkpt><trkpt lat="43.036254" lon="13.818054"><ele>24.0</ele><time>2026-05-03T07:33:20.021Z</time></trkpt><trkpt lat="43.036202" lon="13.8182637"><ele>24.333333333333336</ele><time>2026-05-03T07:33:21.021Z</time></trkpt><trkpt lat="43.0361599" lon="13.818485"><ele>24.666666666666668</ele><time>2026-05-03T07:33:22.02Z</time></trkpt><trkpt lat="43.0361328" lon="13.8187182"><ele>25.0</ele><time>2026-05-03T07:33:23.021Z</time></trkpt><trkpt lat="43.0361191" lon="13.8189623"><ele>25.0</ele><time>2026-05-03T07:33:24.021Z</time></trkpt><trkpt lat="43.0361165" lon="13.8192197"><ele>25.0</ele><time>2026-05-03T07:33:25.02Z</time></trkpt><trkpt lat="43.0361221" lon="13.819495"><ele>25.0</ele><time>2026-05-03T07:33:26.021Z</time></trkpt><trkpt lat="43.0361306" lon="13.8197849"><ele>25.5</ele><time>2026-05-03T07:33:27.021Z</time></trkpt><trkpt lat="43.0361398" lon="13.820089"><ele>26.0</ele><time>2026-05-03T07:33:28.02Z</time></trkpt><trkpt lat="43.0361457" lon="13.8204056"><ele>26.5</ele><time>2026-05-03T07:33:29.02Z</time></trkpt><trkpt lat="43.0361493" lon="13.82073"><ele>27.0</ele><time>2026-05-03T07:33:30.021Z</time></trkpt><trkpt lat="43.0361544" lon="13.8210566"><ele>27.0</ele><time>2026-05-03T07:33:31.021Z</time></trkpt><trkpt lat="43.0361616" lon="13.8213834"><ele>27.0</ele><time>2026-05-03T07:33:32.021Z</time></trkpt><trkpt lat="43.0361697" lon="13.8217107"><ele>26.0</ele><time>2026-05-03T07:33:33.021Z</time></trkpt><trkpt lat="43.0361785" lon="13.8220378"><ele>25.0</ele><time>2026-05-03T07:33:34.021Z</time></trkpt><trkpt lat="43.0361871" lon="13.8223634"><ele>25.0</ele><time>2026-05-03T07:33:35.019Z</time></trkpt><trkpt lat="43.0361941" lon="13.8226895"><ele>25.0</ele><time>2026-05-03T07:33:36.02Z</time></trkpt><trkpt lat="43.036202" lon="13.8230158"><ele>25.0</ele><time>2026-05-03T07:33:37.02Z</time></trkpt><trkpt lat="43.0362098" lon="13.8233415"><ele>25.0</ele><time>2026-05-03T07:33:38.021Z</time></trkpt><trkpt lat="43.0362173" lon="13.823667"><ele>25.0</ele><time>2026-05-03T07:33:39.02Z</time></trkpt><trkpt lat="43.0362245" lon="13.8239921"><ele>25.0</ele><time>2026-05-03T07:33:40.021Z</time></trkpt><trkpt lat="43.0362322" lon="13.8243169"><ele>25.0</ele><time>2026-05-03T07:33:41.021Z</time></trkpt><trkpt lat="43.0362401" lon="13.8246407"><ele>25.0</ele><time>2026-05-03T07:33:42.019Z</time></trkpt><trkpt lat="43.0362501" lon="13.8249645"><ele>25.5</ele><time>2026-05-03T07:33:43.021Z</time></trkpt><trkpt lat="43.036265" lon="13.8252861"><ele>26.0</ele><time>2026-05-03T07:33:44.021Z</time></trkpt><trkpt lat="43.0362876" lon="13.8256062"><ele>26.0</ele><time>2026-05-03T07:33:45.021Z</time></trkpt><trkpt lat="43.0363171" lon="13.8259251"><ele>26.0</ele><time>2026-05-03T07:33:46.02Z</time></trkpt><trkpt lat="43.036349" lon="13.8262414"><ele>27.0</ele><time>2026-05-03T07:33:47.021Z</time></trkpt><trkpt lat="43.036375" lon="13.826557"><ele>28.0</ele><time>2026-05-03T07:33:48.021Z</time></trkpt><trkpt lat="43.0363899" lon="13.8268717"><ele>28.0</ele><time>2026-05-03T07:33:49.021Z</time></trkpt><trkpt lat="43.036389" lon="13.8271841"><ele>28.0</ele><time>2026-05-03T07:33:50.021Z</time></trkpt><trkpt lat="43.0363715" lon="13.8274917"><ele>27.0</ele><time>2026-05-03T07:33:51.021Z</time></trkpt><trkpt lat="43.0363457" lon="13.8277963"><ele>26.0</ele><time>2026-05-03T07:33:52.021Z</time></trkpt><trkpt lat="43.0363238" lon="13.8281"><ele>25.0</ele><time>2026-05-03T07:33:53.02Z</time></trkpt><trkpt lat="43.0363146" lon="13.828403"><ele>24.666666666666668</ele><time>2026-05-03T07:33:54.021Z</time></trkpt><trkpt lat="43.0363195" lon="13.8287049"><ele>24.333333333333336</ele><time>2026-05-03T07:33:55.02Z</time></trkpt><trkpt lat="43.0363404" lon="13.8290067"><ele>24.0</ele><time>2026-05-03T07:33:56.021Z</time></trkpt><trkpt lat="43.0363717" lon="13.8293093"><ele>24.0</ele><time>2026-05-03T07:33:57.02Z</time></trkpt><trkpt lat="43.0364059" lon="13.8296155"><ele>24.0</ele><time>2026-05-03T07:33:58.021Z</time></trkpt><trkpt lat="43.0364387" lon="13.8299265"><ele>26.0</ele><time>2026-05-03T07:33:59.019Z</time></trkpt><trkpt lat="43.0364728" lon="13.8302419"><ele>28.0</ele><time>2026-05-03T07:34:00.021Z</time></trkpt><trkpt lat="43.0365106" lon="13.8305579"><ele>28.0</ele><time>2026-05-03T07:34:01.021Z</time></trkpt><trkpt lat="43.0365473" lon="13.8308786"><ele>28.0</ele><time>2026-05-03T07:34:02.02Z</time></trkpt><trkpt lat="43.0365801" lon="13.8312026"><ele>28.5</ele><time>2026-05-03T07:34:03.021Z</time></trkpt><trkpt lat="43.0366082" lon="13.8315287"><ele>29.0</ele><time>2026-05-03T07:34:04.021Z</time></trkpt><trkpt lat="43.0366328" lon="13.8318563"><ele>24.0</ele><time>2026-05-03T07:34:05.02Z</time></trkpt><trkpt lat="43.0366522" lon="13.8321861"><ele>19.0</ele><time>2026-05-03T07:34:06.021Z</time></trkpt><trkpt lat="43.0366631" lon="13.8325174"><ele>19.0</ele><time>2026-05-03T07:34:07.021Z</time></trkpt><trkpt lat="43.036663" lon="13.8328481"><ele>19.0</ele><time>2026-05-03T07:34:08.021Z</time></trkpt><trkpt lat="43.0366589" lon="13.8331771"><ele>19.0</ele><time>2026-05-03T07:34:09.02Z</time></trkpt><trkpt lat="43.0366564" lon="13.8334994"><ele>19.0</ele><time>2026-05-03T07:34:10.02Z</time></trkpt><trkpt lat="43.0366466" lon="13.8338094"><ele>20.0</ele><time>2026-05-03T07:34:11.021Z</time></trkpt><trkpt lat="43.0366171" lon="13.8341089"><ele>21.0</ele><time>2026-05-03T07:34:12.021Z</time></trkpt><trkpt lat="43.0365643" lon="13.8343991"><ele>22.0</ele><time>2026-05-03T07:34:13.02Z</time></trkpt><trkpt lat="43.0364915" lon="13.8346802"><ele>22.0</ele><time>2026-05-03T07:34:14.02Z</time></trkpt><trkpt lat="43.0364059" lon="13.8349537"><ele>22.0</ele><time>2026-05-03T07:34:15.02Z</time></trkpt><trkpt lat="43.0363144" lon="13.8352246"><ele>22.0</ele><time>2026-05-03T07:34:16.021Z</time></trkpt><trkpt lat="43.0362215" lon="13.8354944"><ele>21.333333333333332</ele><time>2026-05-03T07:34:17.021Z</time></trkpt><trkpt lat="43.0361274" lon="13.8357647"><ele>20.666666666666668</ele><time>2026-05-03T07:34:18.021Z</time></trkpt><trkpt lat="43.0360337" lon="13.8360342"><ele>20.0</ele><time>2026-05-03T07:34:19.02Z</time></trkpt><trkpt lat="43.0359395" lon="13.8363035"><ele>19.666666666666668</ele><time>2026-05-03T07:34:20.02Z</time></trkpt><trkpt lat="43.0358445" lon="13.8365706"><ele>19.333333333333332</ele><time>2026-05-03T07:34:21.02Z</time></trkpt><trkpt lat="43.0357544" lon="13.8368374"><ele>19.0</ele><time>2026-05-03T07:34:22.021Z</time></trkpt><trkpt lat="43.0356793" lon="13.8371102"><ele>19.0</ele><time>2026-05-03T07:34:23.021Z</time></trkpt><trkpt lat="43.0356261" lon="13.8373878"><ele>19.0</ele><time>2026-05-03T07:34:24.02Z</time></trkpt><trkpt lat="43.0355938" lon="13.8376704"><ele>19.0</ele><time>2026-05-03T07:34:25.02Z</time></trkpt><trkpt lat="43.0355777" lon="13.8379572"><ele>19.666666666666664</ele><time>2026-05-03T07:34:26.02Z</time></trkpt><trkpt lat="43.0355719" lon="13.8382478"><ele>20.333333333333332</ele><time>2026-05-03T07:34:27.02Z</time></trkpt><trkpt lat="43.0355712" lon="13.8385413"><ele>21.0</ele><time>2026-05-03T07:34:28.02Z</time></trkpt><trkpt lat="43.035571" lon="13.8388387"><ele>21.666666666666668</ele><time>2026-05-03T07:34:29.021Z</time></trkpt><trkpt lat="43.03557" lon="13.8391379"><ele>22.333333333333336</ele><time>2026-05-03T07:34:30.02Z</time></trkpt><trkpt lat="43.0355694" lon="13.8394378"><ele>23.0</ele><time>2026-05-03T07:34:31.021Z</time></trkpt><trkpt lat="43.0355698" lon="13.8397389"><ele>24.333333333333336</ele><time>2026-05-03T07:34:32.02Z</time></trkpt><trkpt lat="43.0355703" lon="13.8400393"><ele>25.666666666666668</ele><time>2026-05-03T07:34:33.02Z</time></trkpt><trkpt lat="43.0355711" lon="13.8403382"><ele>27.0</ele><time>2026-05-03T07:34:34.02Z</time></trkpt><trkpt lat="43.0355717" lon="13.8406351"><ele>27.666666666666664</ele><time>2026-05-03T07:34:35.02Z</time></trkpt><trkpt lat="43.0355721" lon="13.84093"><ele>28.333333333333332</ele><time>2026-05-03T07:34:36.02Z</time></trkpt><trkpt lat="43.0355725" lon="13.8412224"><ele>29.0</ele><time>2026-05-03T07:34:37.021Z</time></trkpt><trkpt lat="43.0355745" lon="13.8415117"><ele>26.333333333333332</ele><time>2026-05-03T07:34:38.021Z</time></trkpt><trkpt lat="43.0355754" lon="13.8418"><ele>23.666666666666664</ele><time>2026-05-03T07:34:39.02Z</time></trkpt><trkpt lat="43.0355724" lon="13.8420864"><ele>21.0</ele><time>2026-05-03T07:34:40.02Z</time></trkpt><trkpt lat="43.0355604" lon="13.8423717"><ele>20.0</ele><time>2026-05-03T07:34:41.021Z</time></trkpt><trkpt lat="43.0355324" lon="13.8426554"><ele>19.0</ele><time>2026-05-03T07:34:42.021Z</time></trkpt><trkpt lat="43.0354875" lon="13.8429352"><ele>18.0</ele><time>2026-05-03T07:34:43.02Z</time></trkpt><trkpt lat="43.0354254" lon="13.8432103"><ele>17.0</ele><time>2026-05-03T07:34:44.021Z</time></trkpt><trkpt lat="43.0353499" lon="13.8434801"><ele>16.0</ele><time>2026-05-03T07:34:45.02Z</time></trkpt><trkpt lat="43.0352675" lon="13.8437484"><ele>15.0</ele><time>2026-05-03T07:34:46.021Z</time></trkpt><trkpt lat="43.0351844" lon="13.8440181"><ele>15.0</ele><time>2026-05-03T07:34:47.021Z</time></trkpt><trkpt lat="43.0351022" lon="13.8442895"><ele>15.0</ele><time>2026-05-03T07:34:48.021Z</time></trkpt><trkpt lat="43.0350207" lon="13.8445616"><ele>15.0</ele><time>2026-05-03T07:34:49.02Z</time></trkpt><trkpt lat="43.0349374" lon="13.8448327"><ele>16.333333333333332</ele><time>2026-05-03T07:34:50.021Z</time></trkpt><trkpt lat="43.0348548" lon="13.8451013"><ele>17.666666666666664</ele><time>2026-05-03T07:34:51.02Z</time></trkpt><trkpt lat="43.0347789" lon="13.8453719"><ele>19.0</ele><time>2026-05-03T07:34:52.021Z</time></trkpt><trkpt lat="43.0347158" lon="13.8456442"><ele>19.0</ele><time>2026-05-03T07:34:53.021Z</time></trkpt><trkpt lat="43.0346695" lon="13.845919"><ele>19.0</ele><time>2026-05-03T07:34:54.021Z</time></trkpt><trkpt lat="43.034641" lon="13.8461954"><ele>19.0</ele><time>2026-05-03T07:34:55.02Z</time></trkpt><trkpt lat="43.0346343" lon="13.8464721"><ele>19.333333333333332</ele><time>2026-05-03T07:34:56.02Z</time></trkpt><trkpt lat="43.034643" lon="13.8467497"><ele>19.666666666666668</ele><time>2026-05-03T07:34:57.02Z</time></trkpt><trkpt lat="43.0346598" lon="13.8470256"><ele>20.0</ele><time>2026-05-03T07:34:58.021Z</time></trkpt><trkpt lat="43.0346781" lon="13.8472989"><ele>21.666666666666668</ele><time>2026-05-03T07:34:59.021Z</time></trkpt><trkpt lat="43.0346955" lon="13.847573"><ele>23.333333333333336</ele><time>2026-05-03T07:35:00.021Z</time></trkpt><trkpt lat="43.0347067" lon="13.8478459"><ele>25.0</ele><time>2026-05-03T07:35:01.021Z</time></trkpt><trkpt lat="43.034704" lon="13.8481194"><ele>26.0</ele><time>2026-05-03T07:35:02.021Z</time></trkpt><trkpt lat="43.0346891" lon="13.8483919"><ele>27.0</ele><time>2026-05-03T07:35:03.021Z</time></trkpt><trkpt lat="43.0346651" lon="13.8486622"><ele>28.0</ele><time>2026-05-03T07:35:04.019Z</time></trkpt><trkpt lat="43.0346354" lon="13.8489299"><ele>28.0</ele><time>2026-05-03T07:35:05.021Z</time></trkpt><trkpt lat="43.0346104" lon="13.8491957"><ele>28.0</ele><time>2026-05-03T07:35:06.019Z</time></trkpt><trkpt lat="43.0345986" lon="13.8494619"><ele>28.0</ele><time>2026-05-03T07:35:07.02Z</time></trkpt><trkpt lat="43.0346045" lon="13.8497287"><ele>26.333333333333336</ele><time>2026-05-03T07:35:08.021Z</time></trkpt><trkpt lat="43.0346221" lon="13.8499955"><ele>24.666666666666668</ele><time>2026-05-03T07:35:09.02Z</time></trkpt><trkpt lat="43.0346457" lon="13.8502635"><ele>23.0</ele><time>2026-05-03T07:35:10.021Z</time></trkpt><trkpt lat="43.0346673" lon="13.8505341"><ele>22.0</ele><time>2026-05-03T07:35:11.02Z</time></trkpt><trkpt lat="43.0346934" lon="13.8508065"><ele>21.0</ele><time>2026-05-03T07:35:12.021Z</time></trkpt><trkpt lat="43.0347177" lon="13.8510813"><ele>20.0</ele><time>2026-05-03T07:35:13.021Z</time></trkpt><trkpt lat="43.0347444" lon="13.8513617"><ele>19.666666666666668</ele><time>2026-05-03T07:35:14.02Z</time></trkpt><trkpt lat="43.034769" lon="13.851646"><ele>19.333333333333332</ele><time>2026-05-03T07:35:15.021Z</time></trkpt><trkpt lat="43.0347931" lon="13.8519332"><ele>19.0</ele><time>2026-05-03T07:35:16.02Z</time></trkpt><trkpt lat="43.0348177" lon="13.8522227"><ele>19.666666666666664</ele><time>2026-05-03T07:35:17.021Z</time></trkpt><trkpt lat="43.0348444" lon="13.8525154"><ele>20.333333333333332</ele><time>2026-05-03T07:35:18.02Z</time></trkpt><trkpt lat="43.0348705" lon="13.8528105"><ele>21.0</ele><time>2026-05-03T07:35:19.021Z</time></trkpt><trkpt lat="43.0348992" lon="13.8531025"><ele>22.0</ele><time>2026-05-03T07:35:20.02Z</time></trkpt><trkpt lat="43.034926" lon="13.8533839"><ele>23.0</ele><time>2026-05-03T07:35:21.021Z</time></trkpt><trkpt lat="43.0349509" lon="13.8536528"><ele>24.0</ele><time>2026-05-03T07:35:22.019Z</time></trkpt><trkpt lat="43.0349746" lon="13.8539087"><ele>19.0</ele><time>2026-05-03T07:35:23.02Z</time></trkpt><trkpt lat="43.0349975" lon="13.8541529"><ele>14.0</ele><time>2026-05-03T07:35:24.021Z</time></trkpt><trkpt lat="43.0350173" lon="13.854385"><ele>9.0</ele><time>2026-05-03T07:35:25.02Z</time></trkpt><trkpt lat="43.0350375" lon="13.8546052"><ele>8.25</ele><time>2026-05-03T07:35:26.021Z</time></trkpt><trkpt lat="43.0350581" lon="13.8548143"><ele>7.5</ele><time>2026-05-03T07:35:27.021Z</time></trkpt><trkpt lat="43.0350776" lon="13.855013"><ele>6.75</ele><time>2026-05-03T07:35:28.021Z</time></trkpt><trkpt lat="43.0350916" lon="13.8551979"><ele>6.0</ele><time>2026-05-03T07:35:29.021Z</time></trkpt><trkpt lat="43.035093" lon="13.8553621"><ele>5.833333333333333</ele><time>2026-05-03T07:35:30.021Z</time></trkpt><trkpt lat="43.0350834" lon="13.8554966"><ele>5.666666666666667</ele><time>2026-05-03T07:35:31.02Z</time></trkpt><trkpt lat="43.0350741" lon="13.8556049"><ele>5.5</ele><time>2026-05-03T07:35:32.021Z</time></trkpt><trkpt lat="43.0350744" lon="13.8556974"><ele>5.333333333333334</ele><time>2026-05-03T07:35:33.021Z</time></trkpt><trkpt lat="43.0350956" lon="13.855818"><ele>5.166666666666667</ele><time>2026-05-03T07:35:35.02Z</time></trkpt><trkpt lat="43.0351311" lon="13.8558892"><ele>5.0</ele><time>2026-05-03T07:35:46.02Z</time></trkpt><trkpt lat="43.0352115" lon="13.8559126"><ele>5.0</ele><time>2026-05-03T07:35:48.021Z</time></trkpt><trkpt lat="43.0353228" lon="13.8558941"><ele>5.0</ele><time>2026-05-03T07:35:50.019Z</time></trkpt><trkpt lat="43.035391" lon="13.8558788"><ele>5.0</ele><time>2026-05-03T07:35:51.021Z</time></trkpt><trkpt lat="43.0354735" lon="13.8558648"><ele>5.0</ele><time>2026-05-03T07:35:52.02Z</time></trkpt><trkpt lat="43.0355712" lon="13.8558495"><ele>5.0</ele><time>2026-05-03T07:35:53.02Z</time></trkpt><trkpt lat="43.0356814" lon="13.855824"><ele>5.0</ele><time>2026-05-03T07:35:54.02Z</time></trkpt><trkpt lat="43.0358026" lon="13.8557901"><ele>5.0</ele><time>2026-05-03T07:35:55.021Z</time></trkpt><trkpt lat="43.035934" lon="13.855751"><ele>5.0</ele><time>2026-05-03T07:35:56.021Z</time></trkpt><trkpt lat="43.0360754" lon="13.8557097"><ele>5.0</ele><time>2026-05-03T07:35:57.021Z</time></trkpt><trkpt lat="43.0362259" lon="13.8556656"><ele>5.0</ele><time>2026-05-03T07:35:58.02Z</time></trkpt><trkpt lat="43.0363867" lon="13.8556177"><ele>5.0</ele><time>2026-05-03T07:35:59.02Z</time></trkpt><trkpt lat="43.0365579" lon="13.8555679"><ele>5.0</ele><time>2026-05-03T07:36:00.02Z</time></trkpt><trkpt lat="43.036737" lon="13.8555167"><ele>5.0</ele><time>2026-05-03T07:36:01.021Z</time></trkpt><trkpt lat="43.0369173" lon="13.8554646"><ele>5.0</ele><time>2026-05-03T07:36:02.021Z</time></trkpt><trkpt lat="43.0370948" lon="13.8554134"><ele>5.0</ele><time>2026-05-03T07:36:03.02Z</time></trkpt><trkpt lat="43.0372692" lon="13.855362"><ele>5.0</ele><time>2026-05-03T07:36:04.021Z</time></trkpt><trkpt lat="43.0374352" lon="13.8553124"><ele>5.0</ele><time>2026-05-03T07:36:05.021Z</time></trkpt><trkpt lat="43.0375917" lon="13.8552667"><ele>5.0</ele><time>2026-05-03T07:36:06.02Z</time></trkpt><trkpt lat="43.0377393" lon="13.8552255"><ele>5.25</ele><time>2026-05-03T07:36:07.021Z</time></trkpt><trkpt lat="43.0378759" lon="13.8551875"><ele>5.5</ele><time>2026-05-03T07:36:08.021Z</time></trkpt><trkpt lat="43.0380031" lon="13.8551513"><ele>5.75</ele><time>2026-05-03T07:36:09.02Z</time></trkpt><trkpt lat="43.0381216" lon="13.8551175"><ele>6.0</ele><time>2026-05-03T07:36:10.021Z</time></trkpt><trkpt lat="43.0382341" lon="13.8550846"><ele>5.25</ele><time>2026-05-03T07:36:11.021Z</time></trkpt><trkpt lat="43.0383453" lon="13.8550533"><ele>4.5</ele><time>2026-05-03T07:36:12.021Z</time></trkpt><trkpt lat="43.0384578" lon="13.8550223"><ele>3.75</ele><time>2026-05-03T07:36:13.02Z</time></trkpt><trkpt lat="43.038575" lon="13.8549911"><ele>3.0</ele><time>2026-05-03T07:36:14.021Z</time></trkpt><trkpt lat="43.0386973" lon="13.8549585"><ele>3.0</ele><time>2026-05-03T07:36:15.021Z</time></trkpt><trkpt lat="43.0388253" lon="13.854924"><ele>3.0</ele><time>2026-05-03T07:36:16.02Z</time></trkpt><trkpt lat="43.0389599" lon="13.8548873"><ele>3.0</ele><time>2026-05-03T07:36:17.021Z</time></trkpt><trkpt lat="43.039101" lon="13.8548487"><ele>3.0</ele><time>2026-05-03T07:36:18.019Z</time></trkpt><trkpt lat="43.03925" lon="13.8548072"><ele>3.0</ele><time>2026-05-03T07:36:19.021Z</time></trkpt><trkpt lat="43.0394076" lon="13.8547647"><ele>3.0</ele><time>2026-05-03T07:36:20.021Z</time></trkpt><trkpt lat="43.0395737" lon="13.8547199"><ele>3.0</ele><time>2026-05-03T07:36:21.021Z</time></trkpt><trkpt lat="43.0397459" lon="13.8546707"><ele>3.0</ele><time>2026-05-03T07:36:22.021Z</time></trkpt><trkpt lat="43.0399223" lon="13.8546189"><ele>3.0</ele><time>2026-05-03T07:36:23.02Z</time></trkpt><trkpt lat="43.0401035" lon="13.8545667"><ele>3.0</ele><time>2026-05-03T07:36:24.021Z</time></trkpt><trkpt lat="43.0402888" lon="13.8545124"><ele>2.6666666666666665</ele><time>2026-05-03T07:36:25.02Z</time></trkpt><trkpt lat="43.0404783" lon="13.8544556"><ele>2.333333333333333</ele><time>2026-05-03T07:36:26.019Z</time></trkpt><trkpt lat="43.0406729" lon="13.8543979"><ele>2.0</ele><time>2026-05-03T07:36:27.021Z</time></trkpt><trkpt lat="43.0408711" lon="13.8543397"><ele>2.0</ele><time>2026-05-03T07:36:28.021Z</time></trkpt><trkpt lat="43.0410727" lon="13.854281"><ele>2.0</ele><time>2026-05-03T07:36:29.021Z</time></trkpt><trkpt lat="43.0412767" lon="13.8542205"><ele>2.0</ele><time>2026-05-03T07:36:30.021Z</time></trkpt><trkpt lat="43.0414833" lon="13.8541581"><ele>2.0</ele><time>2026-05-03T07:36:31.021Z</time></trkpt><trkpt lat="43.0416931" lon="13.8540954"><ele>2.0</ele><time>2026-05-03T07:36:32.019Z</time></trkpt><trkpt lat="43.0419058" lon="13.8540323"><ele>2.0</ele><time>2026-05-03T07:36:33.021Z</time></trkpt><trkpt lat="43.0421189" lon="13.8539702"><ele>2.0</ele><time>2026-05-03T07:36:34.021Z</time></trkpt><trkpt lat="43.0423283" lon="13.8539095"><ele>2.0</ele><time>2026-05-03T07:36:35.021Z</time></trkpt><trkpt lat="43.0425329" lon="13.8538514"><ele>2.0</ele><time>2026-05-03T07:36:36.021Z</time></trkpt><trkpt lat="43.0427341" lon="13.8537968"><ele>2.0</ele><time>2026-05-03T07:36:37.02Z</time></trkpt><trkpt lat="43.0429327" lon="13.8537458"><ele>2.0</ele><time>2026-05-03T07:36:38.021Z</time></trkpt><trkpt lat="43.0431303" lon="13.8536978"><ele>2.0</ele><time>2026-05-03T07:36:39.021Z</time></trkpt><trkpt lat="43.0433284" lon="13.8536528"><ele>2.0</ele><time>2026-05-03T07:36:40.02Z</time></trkpt><trkpt lat="43.0435249" lon="13.8536093"><ele>2.0</ele><time>2026-05-03T07:36:41.02Z</time></trkpt><trkpt lat="43.0437217" lon="13.8535633"><ele>2.0</ele><time>2026-05-03T07:36:42.02Z</time></trkpt><trkpt lat="43.0439202" lon="13.8535143"><ele>2.0</ele><time>2026-05-03T07:36:43.02Z</time></trkpt><trkpt lat="43.0441225" lon="13.8534675"><ele>2.0</ele><time>2026-05-03T07:36:44.02Z</time></trkpt><trkpt lat="43.0443296" lon="13.8534235"><ele>2.0</ele><time>2026-05-03T07:36:45.02Z</time></trkpt><trkpt lat="43.0445408" lon="13.8533795"><ele>3.0</ele><time>2026-05-03T07:36:46.02Z</time></trkpt><trkpt lat="43.0447553" lon="13.8533367"><ele>4.0</ele><time>2026-05-03T07:36:47.021Z</time></trkpt><trkpt lat="43.0449721" lon="13.8532958"><ele>5.0</ele><time>2026-05-03T07:36:48.02Z</time></trkpt><trkpt lat="43.0451912" lon="13.8532551"><ele>5.0</ele><time>2026-05-03T07:36:49.021Z</time></trkpt><trkpt lat="43.0454115" lon="13.8532111"><ele>5.0</ele><time>2026-05-03T07:36:50.021Z</time></trkpt><trkpt lat="43.045633" lon="13.8531639"><ele>5.0</ele><time>2026-05-03T07:36:51.02Z</time></trkpt><trkpt lat="43.0458573" lon="13.8531151"><ele>3.5</ele><time>2026-05-03T07:36:52.021Z</time></trkpt><trkpt lat="43.0460843" lon="13.8530672"><ele>2.0</ele><time>2026-05-03T07:36:53.02Z</time></trkpt><trkpt lat="43.0463132" lon="13.8530205"><ele>2.0</ele><time>2026-05-03T07:36:54.021Z</time></trkpt><trkpt lat="43.0465431" lon="13.8529742"><ele>2.0</ele><time>2026-05-03T07:36:55.021Z</time></trkpt><trkpt lat="43.0467733" lon="13.852927"><ele>2.0</ele><time>2026-05-03T07:36:56.019Z</time></trkpt><trkpt lat="43.0470027" lon="13.8528799"><ele>2.0</ele><time>2026-05-03T07:36:57.021Z</time></trkpt><trkpt lat="43.0472311" lon="13.8528336"><ele>2.0</ele><time>2026-05-03T07:36:58.02Z</time></trkpt><trkpt lat="43.0474599" lon="13.852786"><ele>2.0</ele><time>2026-05-03T07:36:59.02Z</time></trkpt><trkpt lat="43.0476882" lon="13.8527362"><ele>2.0</ele><time>2026-05-03T07:37:00.021Z</time></trkpt><trkpt lat="43.0479176" lon="13.8526828"><ele>2.0</ele><time>2026-05-03T07:37:01.02Z</time></trkpt><trkpt lat="43.048147" lon="13.8526274"><ele>3.0</ele><time>2026-05-03T07:37:02.021Z</time></trkpt><trkpt lat="43.0483751" lon="13.8525711"><ele>4.0</ele><time>2026-05-03T07:37:03.02Z</time></trkpt><trkpt lat="43.0486025" lon="13.8525135"><ele>4.0</ele><time>2026-05-03T07:37:04.021Z</time></trkpt><trkpt lat="43.0488259" lon="13.8524544"><ele>4.0</ele><time>2026-05-03T07:37:05.02Z</time></trkpt><trkpt lat="43.0490447" lon="13.8523946"><ele>3.6666666666666665</ele><time>2026-05-03T07:37:06.021Z</time></trkpt><trkpt lat="43.049261" lon="13.8523323"><ele>3.333333333333333</ele><time>2026-05-03T07:37:07.02Z</time></trkpt><trkpt lat="43.0494764" lon="13.8522682"><ele>3.0</ele><time>2026-05-03T07:37:08.02Z</time></trkpt><trkpt lat="43.049692" lon="13.8522027"><ele>3.0</ele><time>2026-05-03T07:37:09.021Z</time></trkpt><trkpt lat="43.0499084" lon="13.8521334"><ele>3.0</ele><time>2026-05-03T07:37:10.021Z</time></trkpt><trkpt lat="43.0501244" lon="13.8520633"><ele>3.0</ele><time>2026-05-03T07:37:11.021Z</time></trkpt><trkpt lat="43.0503415" lon="13.851996"><ele>3.0</ele><time>2026-05-03T07:37:12.021Z</time></trkpt><trkpt lat="43.0505592" lon="13.8519297"><ele>3.0</ele><time>2026-05-03T07:37:13.02Z</time></trkpt><trkpt lat="43.050776" lon="13.851862"><ele>3.0</ele><time>2026-05-03T07:37:14.02Z</time></trkpt><trkpt lat="43.0509874" lon="13.8517962"><ele>6.0</ele><time>2026-05-03T07:37:15.02Z</time></trkpt><trkpt lat="43.0511903" lon="13.8517339"><ele>9.0</ele><time>2026-05-03T07:37:16.021Z</time></trkpt><trkpt lat="43.0513826" lon="13.851675"><ele>12.0</ele><time>2026-05-03T07:37:17.02Z</time></trkpt><trkpt lat="43.0515703" lon="13.8516172"><ele>10.666666666666666</ele><time>2026-05-03T07:37:18.021Z</time></trkpt><trkpt lat="43.0517562" lon="13.8515597"><ele>9.333333333333332</ele><time>2026-05-03T07:37:19.022Z</time></trkpt><trkpt lat="43.0519425" lon="13.8515013"><ele>8.0</ele><time>2026-05-03T07:37:20.02Z</time></trkpt><trkpt lat="43.0521307" lon="13.8514424"><ele>8.0</ele><time>2026-05-03T07:37:21.021Z</time></trkpt><trkpt lat="43.0523205" lon="13.8513837"><ele>8.0</ele><time>2026-05-03T07:37:22.021Z</time></trkpt><trkpt lat="43.0525082" lon="13.8513249"><ele>8.0</ele><time>2026-05-03T07:37:23.02Z</time></trkpt><trkpt lat="43.0526958" lon="13.8512625"><ele>6.333333333333333</ele><time>2026-05-03T07:37:24.02Z</time></trkpt><trkpt lat="43.0528903" lon="13.851196"><ele>4.666666666666666</ele><time>2026-05-03T07:37:25.02Z</time></trkpt><trkpt lat="43.0530979" lon="13.8511271"><ele>3.0</ele><time>2026-05-03T07:37:26.019Z</time></trkpt><trkpt lat="43.0533151" lon="13.8510602"><ele>3.0</ele><time>2026-05-03T07:37:27.021Z</time></trkpt><trkpt lat="43.0535325" lon="13.8510003"><ele>3.0</ele><time>2026-05-03T07:37:28.021Z</time></trkpt><trkpt lat="43.0537461" lon="13.8509487"><ele>3.0</ele><time>2026-05-03T07:37:29.02Z</time></trkpt><trkpt lat="43.0539503" lon="13.8509072"><ele>3.666666666666667</ele><time>2026-05-03T07:37:30.021Z</time></trkpt><trkpt lat="43.0541436" lon="13.8508716"><ele>4.333333333333334</ele><time>2026-05-03T07:37:31.021Z</time></trkpt><trkpt lat="43.0543282" lon="13.8508354"><ele>5.0</ele><time>2026-05-03T07:37:32.02Z</time></trkpt><trkpt lat="43.0545098" lon="13.8507966"><ele>5.0</ele><time>2026-05-03T07:37:33.021Z</time></trkpt><trkpt lat="43.0546896" lon="13.8507569"><ele>5.0</ele><time>2026-05-03T07:37:34.02Z</time></trkpt><trkpt lat="43.0548685" lon="13.8507176"><ele>5.0</ele><time>2026-05-03T07:37:35.021Z</time></trkpt><trkpt lat="43.0550463" lon="13.8506789"><ele>4.666666666666667</ele><time>2026-05-03T07:37:36.021Z</time></trkpt><trkpt lat="43.055222" lon="13.8506404"><ele>4.333333333333333</ele><time>2026-05-03T07:37:37.021Z</time></trkpt><trkpt lat="43.0553965" lon="13.8506005"><ele>4.0</ele><time>2026-05-03T07:37:38.021Z</time></trkpt><trkpt lat="43.0555698" lon="13.850561"><ele>4.0</ele><time>2026-05-03T07:37:39.021Z</time></trkpt><trkpt lat="43.0557424" lon="13.8505236"><ele>4.0</ele><time>2026-05-03T07:37:40.02Z</time></trkpt><trkpt lat="43.0559154" lon="13.8504876"><ele>4.0</ele><time>2026-05-03T07:37:41.021Z</time></trkpt><trkpt lat="43.056088" lon="13.8504506"><ele>3.333333333333333</ele><time>2026-05-03T07:37:42.021Z</time></trkpt><trkpt lat="43.0562605" lon="13.850413"><ele>2.6666666666666665</ele><time>2026-05-03T07:37:43.021Z</time></trkpt><trkpt lat="43.0564335" lon="13.850375"><ele>2.0</ele><time>2026-05-03T07:37:44.021Z</time></trkpt><trkpt lat="43.0566069" lon="13.850337"><ele>2.0</ele><time>2026-05-03T07:37:45.02Z</time></trkpt><trkpt lat="43.0567815" lon="13.8502983"><ele>2.0</ele><time>2026-05-03T07:37:46.02Z</time></trkpt><trkpt lat="43.0569568" lon="13.8502594"><ele>2.0</ele><time>2026-05-03T07:37:47.02Z</time></trkpt><trkpt lat="43.0571325" lon="13.8502212"><ele>2.0</ele><time>2026-05-03T07:37:48.02Z</time></trkpt><trkpt lat="43.0573098" lon="13.8501828"><ele>2.0</ele><time>2026-05-03T07:37:49.021Z</time></trkpt><trkpt lat="43.057488" lon="13.8501446"><ele>2.0</ele><time>2026-05-03T07:37:50.021Z</time></trkpt><trkpt lat="43.0576666" lon="13.8501057"><ele>3.0</ele><time>2026-05-03T07:37:51.019Z</time></trkpt><trkpt lat="43.0578453" lon="13.8500679"><ele>4.0</ele><time>2026-05-03T07:37:52.021Z</time></trkpt><trkpt lat="43.0580254" lon="13.8500305"><ele>5.0</ele><time>2026-05-03T07:37:53.019Z</time></trkpt><trkpt lat="43.0582068" lon="13.8499935"><ele>5.333333333333334</ele><time>2026-05-03T07:37:54.021Z</time></trkpt><trkpt lat="43.0583902" lon="13.8499568"><ele>5.666666666666667</ele><time>2026-05-03T07:37:55.021Z</time></trkpt><trkpt lat="43.0585761" lon="13.849917"><ele>6.0</ele><time>2026-05-03T07:37:56.02Z</time></trkpt><trkpt lat="43.0587652" lon="13.8498745"><ele>6.0</ele><time>2026-05-03T07:37:57.02Z</time></trkpt><trkpt lat="43.058957" lon="13.849832"><ele>6.0</ele><time>2026-05-03T07:37:58.02Z</time></trkpt><trkpt lat="43.0591513" lon="13.8497914"><ele>6.0</ele><time>2026-05-03T07:37:59.021Z</time></trkpt><trkpt lat="43.0593485" lon="13.8497516"><ele>5.0</ele><time>2026-05-03T07:38:00.02Z</time></trkpt><trkpt lat="43.0595471" lon="13.8497101"><ele>4.0</ele><time>2026-05-03T07:38:01.021Z</time></trkpt><trkpt lat="43.0597493" lon="13.8496669"><ele>3.0</ele><time>2026-05-03T07:38:02.02Z</time></trkpt><trkpt lat="43.0599563" lon="13.8496222"><ele>2.3333333333333335</ele><time>2026-05-03T07:38:03.021Z</time></trkpt><trkpt lat="43.0601678" lon="13.8495769"><ele>1.6666666666666665</ele><time>2026-05-03T07:38:04.021Z</time></trkpt><trkpt lat="43.0603839" lon="13.8495299"><ele>1.0</ele><time>2026-05-03T07:38:05.021Z</time></trkpt><trkpt lat="43.0606037" lon="13.8494815"><ele>0.5</ele><time>2026-05-03T07:38:06.021Z</time></trkpt><trkpt lat="43.060827" lon="13.8494321"><ele>0.0</ele><time>2026-05-03T07:38:07.02Z</time></trkpt><trkpt lat="43.061053" lon="13.8493824"><ele>0.0</ele><time>2026-05-03T07:38:08.021Z</time></trkpt><trkpt lat="43.0612831" lon="13.8493329"><ele>0.0</ele><time>2026-05-03T07:38:09.02Z</time></trkpt><trkpt lat="43.0615149" lon="13.8492836"><ele>3.5</ele><time>2026-05-03T07:38:10.02Z</time></trkpt><trkpt lat="43.0617494" lon="13.8492329"><ele>7.0</ele><time>2026-05-03T07:38:11.02Z</time></trkpt><trkpt lat="43.0619862" lon="13.849181"><ele>7.0</ele><time>2026-05-03T07:38:12.02Z</time></trkpt><trkpt lat="43.0622241" lon="13.8491289"><ele>7.0</ele><time>2026-05-03T07:38:13.021Z</time></trkpt><trkpt lat="43.0624633" lon="13.8490777"><ele>6.0</ele><time>2026-05-03T07:38:14.021Z</time></trkpt><trkpt lat="43.0627041" lon="13.849028"><ele>5.0</ele><time>2026-05-03T07:38:15.021Z</time></trkpt><trkpt lat="43.0629453" lon="13.8489774"><ele>5.0</ele><time>2026-05-03T07:38:16.021Z</time></trkpt><trkpt lat="43.0631873" lon="13.8489255"><ele>5.0</ele><time>2026-05-03T07:38:17.021Z</time></trkpt><trkpt lat="43.0634311" lon="13.8488735"><ele>4.5</ele><time>2026-05-03T07:38:18.02Z</time></trkpt><trkpt lat="43.0636761" lon="13.8488207"><ele>4.0</ele><time>2026-05-03T07:38:19.02Z</time></trkpt><trkpt lat="43.06392" lon="13.8487682"><ele>3.0</ele><time>2026-05-03T07:38:20.021Z</time></trkpt><trkpt lat="43.0641612" lon="13.8487159"><ele>2.0</ele><time>2026-05-03T07:38:21.021Z</time></trkpt><trkpt lat="43.0644006" lon="13.8486645"><ele>2.0</ele><time>2026-05-03T07:38:22.02Z</time></trkpt><trkpt lat="43.0646377" lon="13.8486139"><ele>2.0</ele><time>2026-05-03T07:38:23.021Z</time></trkpt><trkpt lat="43.0648725" lon="13.8485633"><ele>1.0</ele><time>2026-05-03T07:38:24.02Z</time></trkpt><trkpt lat="43.0651054" lon="13.8485115"><ele>0.0</ele><time>2026-05-03T07:38:25.021Z</time></trkpt><trkpt lat="43.0653362" lon="13.8484614"><ele>4.5</ele><time>2026-05-03T07:38:26.021Z</time></trkpt><trkpt lat="43.0655669" lon="13.8484172"><ele>9.0</ele><time>2026-05-03T07:38:27.021Z</time></trkpt><trkpt lat="43.0657987" lon="13.8483713"><ele>9.0</ele><time>2026-05-03T07:38:28.021Z</time></trkpt><trkpt lat="43.0660299" lon="13.8483212"><ele>9.0</ele><time>2026-05-03T07:38:29.021Z</time></trkpt><trkpt lat="43.0662613" lon="13.8482693"><ele>9.0</ele><time>2026-05-03T07:38:30.021Z</time></trkpt><trkpt lat="43.0664932" lon="13.8482183"><ele>9.0</ele><time>2026-05-03T07:38:31.019Z</time></trkpt><trkpt lat="43.0667256" lon="13.8481687"><ele>6.5</ele><time>2026-05-03T07:38:32.021Z</time></trkpt><trkpt lat="43.0669578" lon="13.8481207"><ele>4.0</ele><time>2026-05-03T07:38:33.021Z</time></trkpt><trkpt lat="43.0671901" lon="13.8480742"><ele>4.0</ele><time>2026-05-03T07:38:34.021Z</time></trkpt><trkpt lat="43.0674203" lon="13.8480294"><ele>4.0</ele><time>2026-05-03T07:38:35.02Z</time></trkpt><trkpt lat="43.0676444" lon="13.847987"><ele>4.0</ele><time>2026-05-03T07:38:36.019Z</time></trkpt><trkpt lat="43.0678582" lon="13.8479474"><ele>4.0</ele><time>2026-05-03T07:38:37.021Z</time></trkpt><trkpt lat="43.0680614" lon="13.8479111"><ele>4.0</ele><time>2026-05-03T07:38:38.021Z</time></trkpt><trkpt lat="43.0682546" lon="13.8478759"><ele>3.6666666666666665</ele><time>2026-05-03T07:38:39.02Z</time></trkpt><trkpt lat="43.0684394" lon="13.8478413"><ele>3.333333333333333</ele><time>2026-05-03T07:38:40.021Z</time></trkpt><trkpt lat="43.068623" lon="13.8478067"><ele>3.0</ele><time>2026-05-03T07:38:41.019Z</time></trkpt><trkpt lat="43.0688095" lon="13.847771"><ele>3.0</ele><time>2026-05-03T07:38:42.021Z</time></trkpt><trkpt lat="43.0689996" lon="13.8477327"><ele>3.0</ele><time>2026-05-03T07:38:43.021Z</time></trkpt><trkpt lat="43.0691932" lon="13.8476951"><ele>3.0</ele><time>2026-05-03T07:38:44.02Z</time></trkpt><trkpt lat="43.0693919" lon="13.8476591"><ele>4.0</ele><time>2026-05-03T07:38:45.021Z</time></trkpt><trkpt lat="43.0695944" lon="13.8476258"><ele>5.0</ele><time>2026-05-03T07:38:46.021Z</time></trkpt><trkpt lat="43.0698009" lon="13.8475959"><ele>6.0</ele><time>2026-05-03T07:38:47.021Z</time></trkpt><trkpt lat="43.0700117" lon="13.8475687"><ele>6.0</ele><time>2026-05-03T07:38:48.019Z</time></trkpt><trkpt lat="43.0702261" lon="13.8475431"><ele>6.0</ele><time>2026-05-03T07:38:49.019Z</time></trkpt><trkpt lat="43.0704432" lon="13.8475172"><ele>6.0</ele><time>2026-05-03T07:38:50.02Z</time></trkpt><trkpt lat="43.0706633" lon="13.8474912"><ele>6.0</ele><time>2026-05-03T07:38:51.021Z</time></trkpt><trkpt lat="43.0708854" lon="13.8474668"><ele>6.0</ele><time>2026-05-03T07:38:52.02Z</time></trkpt><trkpt lat="43.0711083" lon="13.8474431"><ele>6.0</ele><time>2026-05-03T07:38:53.02Z</time></trkpt><trkpt lat="43.0713297" lon="13.847418"><ele>6.0</ele><time>2026-05-03T07:38:54.02Z</time></trkpt><trkpt lat="43.0715504" lon="13.8473926"><ele>6.0</ele><time>2026-05-03T07:38:55.021Z</time></trkpt><trkpt lat="43.0717698" lon="13.8473694"><ele>6.0</ele><time>2026-05-03T07:38:56.021Z</time></trkpt><trkpt lat="43.0719885" lon="13.8473435"><ele>6.5</ele><time>2026-05-03T07:38:57.021Z</time></trkpt><trkpt lat="43.0722109" lon="13.8473149"><ele>7.0</ele><time>2026-05-03T07:38:58.021Z</time></trkpt><trkpt lat="43.0724397" lon="13.8472929"><ele>6.0</ele><time>2026-05-03T07:38:59.021Z</time></trkpt><trkpt lat="43.0726749" lon="13.8472771"><ele>5.0</ele><time>2026-05-03T07:39:00.021Z</time></trkpt><trkpt lat="43.0729157" lon="13.8472614"><ele>5.0</ele><time>2026-05-03T07:39:01.021Z</time></trkpt><trkpt lat="43.0731603" lon="13.8472424"><ele>5.0</ele><time>2026-05-03T07:39:02.021Z</time></trkpt><trkpt lat="43.0734091" lon="13.847216"><ele>4.0</ele><time>2026-05-03T07:39:03.021Z</time></trkpt><trkpt lat="43.073661" lon="13.8471835"><ele>3.0</ele><time>2026-05-03T07:39:04.02Z</time></trkpt><trkpt lat="43.073915" lon="13.8471457"><ele>2.0</ele><time>2026-05-03T07:39:05.021Z</time></trkpt><trkpt lat="43.0741706" lon="13.8471056"><ele>1.0</ele><time>2026-05-03T07:39:06.021Z</time></trkpt><trkpt lat="43.0744276" lon="13.8470642"><ele>1.0</ele><time>2026-05-03T07:39:07.021Z</time></trkpt><trkpt lat="43.0746857" lon="13.8470205"><ele>1.0</ele><time>2026-05-03T07:39:08.021Z</time></trkpt><trkpt lat="43.0749447" lon="13.8469776"><ele>1.5</ele><time>2026-05-03T07:39:09.021Z</time></trkpt><trkpt lat="43.0752028" lon="13.846934"><ele>2.0</ele><time>2026-05-03T07:39:10.021Z</time></trkpt><trkpt lat="43.0754611" lon="13.8468907"><ele>2.0</ele><time>2026-05-03T07:39:11.021Z</time></trkpt><trkpt lat="43.0757181" lon="13.846847"><ele>2.0</ele><time>2026-05-03T07:39:12.021Z</time></trkpt><trkpt lat="43.0759752" lon="13.8468017"><ele>3.5</ele><time>2026-05-03T07:39:13.021Z</time></trkpt><trkpt lat="43.0762306" lon="13.8467562"><ele>5.0</ele><time>2026-05-03T07:39:14.021Z</time></trkpt><trkpt lat="43.0764852" lon="13.846713"><ele>3.5</ele><time>2026-05-03T07:39:15.022Z</time></trkpt><trkpt lat="43.0767404" lon="13.8466713"><ele>2.0</ele><time>2026-05-03T07:39:16.021Z</time></trkpt><trkpt lat="43.0769949" lon="13.8466309"><ele>2.0</ele><time>2026-05-03T07:39:17.021Z</time></trkpt><trkpt lat="43.0772489" lon="13.8465881"><ele>2.0</ele><time>2026-05-03T07:39:18.021Z</time></trkpt><trkpt lat="43.0775035" lon="13.8465429"><ele>2.5</ele><time>2026-05-03T07:39:19.02Z</time></trkpt><trkpt lat="43.0777579" lon="13.8464976"><ele>3.0</ele><time>2026-05-03T07:39:20.021Z</time></trkpt><trkpt lat="43.0780124" lon="13.8464553"><ele>3.0</ele><time>2026-05-03T07:39:21.02Z</time></trkpt><trkpt lat="43.0782637" lon="13.8464144"><ele>3.0</ele><time>2026-05-03T07:39:22.021Z</time></trkpt><trkpt lat="43.0785123" lon="13.8463725"><ele>2.5</ele><time>2026-05-03T07:39:23.02Z</time></trkpt><trkpt lat="43.0787582" lon="13.8463295"><ele>2.0</ele><time>2026-05-03T07:39:24.021Z</time></trkpt><trkpt lat="43.0790032" lon="13.8462869"><ele>3.0</ele><time>2026-05-03T07:39:25.021Z</time></trkpt><trkpt lat="43.0792481" lon="13.8462452"><ele>4.0</ele><time>2026-05-03T07:39:26.021Z</time></trkpt><trkpt lat="43.0794938" lon="13.846202"><ele>4.0</ele><time>2026-05-03T07:39:27.02Z</time></trkpt><trkpt lat="43.0797403" lon="13.8461575"><ele>4.0</ele><time>2026-05-03T07:39:28.019Z</time></trkpt><trkpt lat="43.0799886" lon="13.8461149"><ele>3.0</ele><time>2026-05-03T07:39:29.02Z</time></trkpt><trkpt lat="43.0802394" lon="13.8460747"><ele>2.0</ele><time>2026-05-03T07:39:30.02Z</time></trkpt><trkpt lat="43.0804923" lon="13.8460343"><ele>2.0</ele><time>2026-05-03T07:39:31.021Z</time></trkpt><trkpt lat="43.0807476" lon="13.8459928"><ele>2.0</ele><time>2026-05-03T07:39:32.02Z</time></trkpt><trkpt lat="43.0810039" lon="13.8459491"><ele>4.0</ele><time>2026-05-03T07:39:33.02Z</time></trkpt><trkpt lat="43.0812608" lon="13.845906"><ele>6.0</ele><time>2026-05-03T07:39:34.02Z</time></trkpt><trkpt lat="43.0815194" lon="13.8458628"><ele>5.5</ele><time>2026-05-03T07:39:35.02Z</time></trkpt><trkpt lat="43.0817779" lon="13.8458202"><ele>5.0</ele><time>2026-05-03T07:39:36.021Z</time></trkpt><trkpt lat="43.082037" lon="13.8457767"><ele>5.0</ele><time>2026-05-03T07:39:37.02Z</time></trkpt><trkpt lat="43.0822961" lon="13.8457341"><ele>5.0</ele><time>2026-05-03T07:39:38.021Z</time></trkpt><trkpt lat="43.0825548" lon="13.8456941"><ele>4.5</ele><time>2026-05-03T07:39:39.019Z</time></trkpt><trkpt lat="43.0828145" lon="13.845664"><ele>4.0</ele><time>2026-05-03T07:39:40.021Z</time></trkpt><trkpt lat="43.0830737" lon="13.845647"><ele>3.5</ele><time>2026-05-03T07:39:41.021Z</time></trkpt><trkpt lat="43.0833339" lon="13.8456359"><ele>3.0</ele><time>2026-05-03T07:39:42.02Z</time></trkpt><trkpt lat="43.0835944" lon="13.8456273"><ele>3.0</ele><time>2026-05-03T07:39:43.021Z</time></trkpt><trkpt lat="43.0838556" lon="13.8456206"><ele>3.0</ele><time>2026-05-03T07:39:44.02Z</time></trkpt><trkpt lat="43.0841168" lon="13.8456159"><ele>2.5</ele><time>2026-05-03T07:39:45.021Z</time></trkpt><trkpt lat="43.0843778" lon="13.8456126"><ele>2.0</ele><time>2026-05-03T07:39:46.02Z</time></trkpt><trkpt lat="43.0846392" lon="13.845609"><ele>2.0</ele><time>2026-05-03T07:39:47.021Z</time></trkpt><trkpt lat="43.0848992" lon="13.8456057"><ele>2.0</ele><time>2026-05-03T07:39:48.021Z</time></trkpt><trkpt lat="43.085159" lon="13.845603"><ele>2.0</ele><time>2026-05-03T07:39:49.019Z</time></trkpt><trkpt lat="43.08542" lon="13.8455996"><ele>2.0</ele><time>2026-05-03T07:39:50.02Z</time></trkpt><trkpt lat="43.0856794" lon="13.8455951"><ele>3.0</ele><time>2026-05-03T07:39:51.02Z</time></trkpt><trkpt lat="43.0859356" lon="13.845592"><ele>4.0</ele><time>2026-05-03T07:39:52.021Z</time></trkpt><trkpt lat="43.0861891" lon="13.8456004"><ele>4.0</ele><time>2026-05-03T07:39:53.021Z</time></trkpt><trkpt lat="43.0864405" lon="13.8456344"><ele>4.0</ele><time>2026-05-03T07:39:54.02Z</time></trkpt><trkpt lat="43.0866889" lon="13.8456984"><ele>5.0</ele><time>2026-05-03T07:39:55.021Z</time></trkpt><trkpt lat="43.0869325" lon="13.8457922"><ele>6.0</ele><time>2026-05-03T07:39:56.019Z</time></trkpt><trkpt lat="43.0871723" lon="13.845913"><ele>5.0</ele><time>2026-05-03T07:39:57.021Z</time></trkpt><trkpt lat="43.0874156" lon="13.8460398"><ele>4.0</ele><time>2026-05-03T07:39:58.02Z</time></trkpt><trkpt lat="43.087668" lon="13.8461434"><ele>4.0</ele><time>2026-05-03T07:39:59.021Z</time></trkpt><trkpt lat="43.087929" lon="13.8462123"><ele>4.0</ele><time>2026-05-03T07:40:00.02Z</time></trkpt><trkpt lat="43.0881964" lon="13.8462464"><ele>3.0</ele><time>2026-05-03T07:40:01.021Z</time></trkpt><trkpt lat="43.0884668" lon="13.8462525"><ele>2.0</ele><time>2026-05-03T07:40:02.021Z</time></trkpt><trkpt lat="43.0887411" lon="13.8462384"><ele>2.0</ele><time>2026-05-03T07:40:03.02Z</time></trkpt><trkpt lat="43.0890177" lon="13.846215"><ele>2.0</ele><time>2026-05-03T07:40:04.021Z</time></trkpt><trkpt lat="43.0892943" lon="13.84619"><ele>2.5</ele><time>2026-05-03T07:40:05.019Z</time></trkpt><trkpt lat="43.0895723" lon="13.8461637"><ele>3.0</ele><time>2026-05-03T07:40:06.02Z</time></trkpt><trkpt lat="43.0898523" lon="13.8461284"><ele>3.0</ele><time>2026-05-03T07:40:07.021Z</time></trkpt><trkpt lat="43.0901302" lon="13.8460854"><ele>3.0</ele><time>2026-05-03T07:40:08.021Z</time></trkpt><trkpt lat="43.0904081" lon="13.8460325"><ele>3.0</ele><time>2026-05-03T07:40:09.021Z</time></trkpt><trkpt lat="43.0906829" lon="13.8459754"><ele>3.0</ele><time>2026-05-03T07:40:10.021Z</time></trkpt><trkpt lat="43.0909511" lon="13.8459173"><ele>7.0</ele><time>2026-05-03T07:40:11.021Z</time></trkpt><trkpt lat="43.0912072" lon="13.8458577"><ele>11.0</ele><time>2026-05-03T07:40:12.021Z</time></trkpt><trkpt lat="43.0914487" lon="13.8457912"><ele>9.0</ele><time>2026-05-03T07:40:13.02Z</time></trkpt><trkpt lat="43.0916795" lon="13.8457113"><ele>7.0</ele><time>2026-05-03T07:40:14.021Z</time></trkpt><trkpt lat="43.0919" lon="13.845616"><ele>7.0</ele><time>2026-05-03T07:40:15.021Z</time></trkpt><trkpt lat="43.0921068" lon="13.8455056"><ele>7.0</ele><time>2026-05-03T07:40:16.02Z</time></trkpt><trkpt lat="43.0923003" lon="13.845388"><ele>7.0</ele><time>2026-05-03T07:40:17.021Z</time></trkpt><trkpt lat="43.0924825" lon="13.8452718"><ele>5.333333333333334</ele><time>2026-05-03T07:40:18.021Z</time></trkpt><trkpt lat="43.0926547" lon="13.8451593"><ele>3.666666666666667</ele><time>2026-05-03T07:40:19.02Z</time></trkpt><trkpt lat="43.092818" lon="13.8450545"><ele>2.0</ele><time>2026-05-03T07:40:20.021Z</time></trkpt><trkpt lat="43.0929726" lon="13.8449558"><ele>3.0</ele><time>2026-05-03T07:40:21.021Z</time></trkpt><trkpt lat="43.0931178" lon="13.8448605"><ele>4.0</ele><time>2026-05-03T07:40:22.02Z</time></trkpt><trkpt lat="43.0932546" lon="13.844769"><ele>5.0</ele><time>2026-05-03T07:40:23.02Z</time></trkpt><trkpt lat="43.0933884" lon="13.84468"><ele>5.0</ele><time>2026-05-03T07:40:24.02Z</time></trkpt><trkpt lat="43.0935211" lon="13.8445926"><ele>5.0</ele><time>2026-05-03T07:40:25.021Z</time></trkpt><trkpt lat="43.0936528" lon="13.8445054"><ele>5.0</ele><time>2026-05-03T07:40:26.02Z</time></trkpt><trkpt lat="43.0937865" lon="13.844416"><ele>5.0</ele><time>2026-05-03T07:40:27.021Z</time></trkpt><trkpt lat="43.0939242" lon="13.8443236"><ele>6.333333333333334</ele><time>2026-05-03T07:40:28.02Z</time></trkpt><trkpt lat="43.0940654" lon="13.8442282"><ele>7.666666666666667</ele><time>2026-05-03T07:40:29.02Z</time></trkpt><trkpt lat="43.0942103" lon="13.8441295"><ele>9.0</ele><time>2026-05-03T07:40:30.021Z</time></trkpt><trkpt lat="43.0943549" lon="13.8440321"><ele>9.0</ele><time>2026-05-03T07:40:31.021Z</time></trkpt><trkpt lat="43.094495" lon="13.8439401"><ele>9.0</ele><time>2026-05-03T07:40:32.021Z</time></trkpt><trkpt lat="43.0946337" lon="13.8438531"><ele>9.0</ele><time>2026-05-03T07:40:33.02Z</time></trkpt><trkpt lat="43.0947749" lon="13.8437733"><ele>9.0</ele><time>2026-05-03T07:40:34.021Z</time></trkpt><trkpt lat="43.0949187" lon="13.8437002"><ele>9.0</ele><time>2026-05-03T07:40:35.02Z</time></trkpt><trkpt lat="43.0950552" lon="13.8436315"><ele>9.0</ele><time>2026-05-03T07:40:36.021Z</time></trkpt><trkpt lat="43.0951871" lon="13.8435664"><ele>9.0</ele><time>2026-05-03T07:40:37.021Z</time></trkpt><trkpt lat="43.0953114" lon="13.843498"><ele>11.5</ele><time>2026-05-03T07:40:38.021Z</time></trkpt><trkpt lat="43.095424" lon="13.843426"><ele>14.0</ele><time>2026-05-03T07:40:39.02Z</time></trkpt><trkpt lat="43.0955296" lon="13.843353"><ele>16.5</ele><time>2026-05-03T07:40:40.02Z</time></trkpt><trkpt lat="43.0956338" lon="13.8432667"><ele>19.0</ele><time>2026-05-03T07:40:41.021Z</time></trkpt><trkpt lat="43.0957377" lon="13.8431569"><ele>14.666666666666666</ele><time>2026-05-03T07:40:42.02Z</time></trkpt><trkpt lat="43.0958483" lon="13.843017"><ele>10.333333333333332</ele><time>2026-05-03T07:40:43.02Z</time></trkpt><trkpt lat="43.0959631" lon="13.8428518"><ele>6.0</ele><time>2026-05-03T07:40:44.02Z</time></trkpt><trkpt lat="43.096085" lon="13.8426682"><ele>10.666666666666668</ele><time>2026-05-03T07:40:45.021Z</time></trkpt><trkpt lat="43.0962162" lon="13.842477"><ele>15.333333333333334</ele><time>2026-05-03T07:40:46.021Z</time></trkpt><trkpt lat="43.0963538" lon="13.8422888"><ele>20.0</ele><time>2026-05-03T07:40:47.02Z</time></trkpt><trkpt lat="43.096491" lon="13.8421057"><ele>16.0</ele><time>2026-05-03T07:40:48.021Z</time></trkpt><trkpt lat="43.096621" lon="13.8419292"><ele>12.0</ele><time>2026-05-03T07:40:49.021Z</time></trkpt><trkpt lat="43.0967425" lon="13.8417593"><ele>8.0</ele><time>2026-05-03T07:40:50.021Z</time></trkpt><trkpt lat="43.096853" lon="13.8415937"><ele>8.0</ele><time>2026-05-03T07:40:51.02Z</time></trkpt><trkpt lat="43.0969524" lon="13.8414334"><ele>8.0</ele><time>2026-05-03T07:40:52.021Z</time></trkpt><trkpt lat="43.0970436" lon="13.8412835"><ele>8.0</ele><time>2026-05-03T07:40:53.021Z</time></trkpt><trkpt lat="43.0971274" lon="13.8411449"><ele>8.0</ele><time>2026-05-03T07:40:54.021Z</time></trkpt><trkpt lat="43.0972039" lon="13.8410191"><ele>8.200000000000001</ele><time>2026-05-03T07:40:55.021Z</time></trkpt><trkpt lat="43.0972744" lon="13.8409033"><ele>8.4</ele><time>2026-05-03T07:40:56.02Z</time></trkpt><trkpt lat="43.0973397" lon="13.8407964"><ele>8.600000000000001</ele><time>2026-05-03T07:40:57.021Z</time></trkpt><trkpt lat="43.0974" lon="13.8407004"><ele>8.8</ele><time>2026-05-03T07:40:58.02Z</time></trkpt><trkpt lat="43.0974547" lon="13.8406182"><ele>9.0</ele><time>2026-05-03T07:40:59.021Z</time></trkpt><trkpt lat="43.0975031" lon="13.8405498"><ele>8.6</ele><time>2026-05-03T07:41:00.02Z</time></trkpt><trkpt lat="43.0975819" lon="13.8404549"><ele>8.2</ele><time>2026-05-03T07:41:02.02Z</time></trkpt><trkpt lat="43.097699" lon="13.8403516"><ele>7.799999999999999</ele><time>2026-05-03T07:41:04.021Z</time></trkpt><trkpt lat="43.0977639" lon="13.8402682"><ele>7.3999999999999995</ele><time>2026-05-03T07:41:05.019Z</time></trkpt><trkpt lat="43.0978368" lon="13.8401728"><ele>7.0</ele><time>2026-05-03T07:41:06.021Z</time></trkpt><trkpt lat="43.0979198" lon="13.8400835"><ele>7.0</ele><time>2026-05-03T07:41:07.021Z</time></trkpt><trkpt lat="43.0980137" lon="13.8399922"><ele>7.0</ele><time>2026-05-03T07:41:08.02Z</time></trkpt><trkpt lat="43.0981113" lon="13.8398981"><ele>7.0</ele><time>2026-05-03T07:41:09.021Z</time></trkpt><trkpt lat="43.09821" lon="13.8398036"><ele>7.0</ele><time>2026-05-03T07:41:10.021Z</time></trkpt><trkpt lat="43.0983039" lon="13.8397113"><ele>6.8</ele><time>2026-05-03T07:41:11.021Z</time></trkpt><trkpt lat="43.098393" lon="13.8396201"><ele>6.6</ele><time>2026-05-03T07:41:12.02Z</time></trkpt><trkpt lat="43.0984771" lon="13.8395294"><ele>6.3999999999999995</ele><time>2026-05-03T07:41:13.02Z</time></trkpt><trkpt lat="43.0985581" lon="13.8394414"><ele>6.199999999999999</ele><time>2026-05-03T07:41:14.021Z</time></trkpt><trkpt lat="43.0986401" lon="13.8393554"><ele>6.0</ele><time>2026-05-03T07:41:15.021Z</time></trkpt><trkpt lat="43.0987258" lon="13.8392712"><ele>6.0</ele><time>2026-05-03T07:41:16.02Z</time></trkpt><trkpt lat="43.0988152" lon="13.8391852"><ele>6.0</ele><time>2026-05-03T07:41:17.021Z</time></trkpt><trkpt lat="43.0989085" lon="13.8390979"><ele>6.0</ele><time>2026-05-03T07:41:18.019Z</time></trkpt><trkpt lat="43.0990103" lon="13.8390068"><ele>6.0</ele><time>2026-05-03T07:41:19.02Z</time></trkpt><trkpt lat="43.099118" lon="13.8389207"><ele>5.75</ele><time>2026-05-03T07:41:20.021Z</time></trkpt><trkpt lat="43.0992311" lon="13.8388471"><ele>5.5</ele><time>2026-05-03T07:41:21.021Z</time></trkpt><trkpt lat="43.099343" lon="13.8387875"><ele>5.25</ele><time>2026-05-03T07:41:22.021Z</time></trkpt><trkpt lat="43.0994474" lon="13.8387387"><ele>5.0</ele><time>2026-05-03T07:41:23.02Z</time></trkpt><trkpt lat="43.0995429" lon="13.8386963"><ele>5.0</ele><time>2026-05-03T07:41:24.021Z</time></trkpt><trkpt lat="43.0996349" lon="13.8386565"><ele>5.0</ele><time>2026-05-03T07:41:25.021Z</time></trkpt><trkpt lat="43.0997252" lon="13.8386167"><ele>5.0</ele><time>2026-05-03T07:41:26.021Z</time></trkpt><trkpt lat="43.0998155" lon="13.8385767"><ele>5.0</ele><time>2026-05-03T07:41:27.02Z</time></trkpt><trkpt lat="43.0999085" lon="13.8385359"><ele>5.0</ele><time>2026-05-03T07:41:28.02Z</time></trkpt><trkpt lat="43.1000066" lon="13.838487"><ele>5.0</ele><time>2026-05-03T07:41:29.019Z</time></trkpt><trkpt lat="43.1001165" lon="13.8384292"><ele>5.0</ele><time>2026-05-03T07:41:30.02Z</time></trkpt><trkpt lat="43.1002451" lon="13.8383658"><ele>5.0</ele><time>2026-05-03T07:41:31.021Z</time></trkpt><trkpt lat="43.1003851" lon="13.8382934"><ele>5.0</ele><time>2026-05-03T07:41:32.02Z</time></trkpt><trkpt lat="43.1005343" lon="13.8382137"><ele>5.0</ele><time>2026-05-03T07:41:33.02Z</time></trkpt><trkpt lat="43.1006818" lon="13.8381271"><ele>5.0</ele><time>2026-05-03T07:41:34.021Z</time></trkpt><trkpt lat="43.1008194" lon="13.8380385"><ele>5.0</ele><time>2026-05-03T07:41:35.019Z</time></trkpt><trkpt lat="43.1009384" lon="13.8379579"><ele>5.0</ele><time>2026-05-03T07:41:36.021Z</time></trkpt><trkpt lat="43.1010404" lon="13.8378889"><ele>5.2</ele><time>2026-05-03T07:41:37.02Z</time></trkpt><trkpt lat="43.1011314" lon="13.8378252"><ele>5.4</ele><time>2026-05-03T07:41:38.02Z</time></trkpt><trkpt lat="43.1012199" lon="13.8377623"><ele>5.6</ele><time>2026-05-03T07:41:39.02Z</time></trkpt><trkpt lat="43.1013078" lon="13.8376976"><ele>5.8</ele><time>2026-05-03T07:41:40.02Z</time></trkpt><trkpt lat="43.101399" lon="13.8376277"><ele>6.0</ele><time>2026-05-03T07:41:41.02Z</time></trkpt><trkpt lat="43.1014951" lon="13.8375534"><ele>5.0</ele><time>2026-05-03T07:41:42.019Z</time></trkpt><trkpt lat="43.1015971" lon="13.8374753"><ele>4.0</ele><time>2026-05-03T07:41:43.021Z</time></trkpt><trkpt lat="43.1017038" lon="13.8373949"><ele>3.0</ele><time>2026-05-03T07:41:44.02Z</time></trkpt><trkpt lat="43.1018139" lon="13.8373122"><ele>2.0</ele><time>2026-05-03T07:41:45.021Z</time></trkpt><trkpt lat="43.1019258" lon="13.8372271"><ele>2.0</ele><time>2026-05-03T07:41:46.02Z</time></trkpt><trkpt lat="43.1020393" lon="13.8371393"><ele>2.0</ele><time>2026-05-03T07:41:47.02Z</time></trkpt><trkpt lat="43.1021495" lon="13.8370534"><ele>2.0</ele><time>2026-05-03T07:41:48.02Z</time></trkpt><trkpt lat="43.1022578" lon="13.8369696"><ele>2.0</ele><time>2026-05-03T07:41:49.021Z</time></trkpt><trkpt lat="43.1023616" lon="13.8368899"><ele>2.6</ele><time>2026-05-03T07:41:50.02Z</time></trkpt><trkpt lat="43.1024605" lon="13.8368126"><ele>3.2</ele><time>2026-05-03T07:41:51.02Z</time></trkpt><trkpt lat="43.1025584" lon="13.8367375"><ele>3.8</ele><time>2026-05-03T07:41:52.021Z</time></trkpt><trkpt lat="43.102656" lon="13.8366644"><ele>4.4</ele><time>2026-05-03T07:41:53.02Z</time></trkpt><trkpt lat="43.1027542" lon="13.8365934"><ele>5.0</ele><time>2026-05-03T07:41:54.021Z</time></trkpt><trkpt lat="43.1028556" lon="13.8365247"><ele>5.0</ele><time>2026-05-03T07:41:55.02Z</time></trkpt><trkpt lat="43.1029633" lon="13.836458"><ele>5.0</ele><time>2026-05-03T07:41:56.021Z</time></trkpt><trkpt lat="43.1030781" lon="13.8363989"><ele>5.0</ele><time>2026-05-03T07:41:57.021Z</time></trkpt><trkpt lat="43.1032001" lon="13.8363451"><ele>5.0</ele><time>2026-05-03T07:41:58.021Z</time></trkpt><trkpt lat="43.1033273" lon="13.8362954"><ele>5.0</ele><time>2026-05-03T07:41:59.02Z</time></trkpt><trkpt lat="43.1034585" lon="13.8362497"><ele>5.0</ele><time>2026-05-03T07:42:00.02Z</time></trkpt><trkpt lat="43.1035914" lon="13.8362115"><ele>5.0</ele><time>2026-05-03T07:42:01.021Z</time></trkpt><trkpt lat="43.1037219" lon="13.8361797"><ele>5.0</ele><time>2026-05-03T07:42:02.02Z</time></trkpt><trkpt lat="43.1038452" lon="13.8361532"><ele>5.0</ele><time>2026-05-03T07:42:03.021Z</time></trkpt><trkpt lat="43.1039605" lon="13.8361327"><ele>5.0</ele><time>2026-05-03T07:42:04.02Z</time></trkpt><trkpt lat="43.1040691" lon="13.8361183"><ele>5.0</ele><time>2026-05-03T07:42:05.021Z</time></trkpt><trkpt lat="43.1041702" lon="13.836108"><ele>5.0</ele><time>2026-05-03T07:42:06.02Z</time></trkpt><trkpt lat="43.104263" lon="13.8361005"><ele>5.0</ele><time>2026-05-03T07:42:07.021Z</time></trkpt><trkpt lat="43.104348" lon="13.8360958"><ele>5.0</ele><time>2026-05-03T07:42:08.021Z</time></trkpt><trkpt lat="43.1044248" lon="13.8360936"><ele>5.0</ele><time>2026-05-03T07:42:09.021Z</time></trkpt><trkpt lat="43.1044929" lon="13.8360919"><ele>5.0</ele><time>2026-05-03T07:42:10.02Z</time></trkpt><trkpt lat="43.1046024" lon="13.8360956"><ele>5.0</ele><time>2026-05-03T07:42:12.021Z</time></trkpt><trkpt lat="43.104675" lon="13.8361158"><ele>5.0</ele><time>2026-05-03T07:42:15.021Z</time></trkpt><trkpt lat="43.1047687" lon="13.8361838"><ele>5.0</ele><time>2026-05-03T07:42:19.021Z</time></trkpt><trkpt lat="43.1048292" lon="13.8362112"><ele>5.0</ele><time>2026-05-03T07:42:20.019Z</time></trkpt><trkpt lat="43.1049122" lon="13.8362233"><ele>5.0</ele><time>2026-05-03T07:42:21.02Z</time></trkpt><trkpt lat="43.1050086" lon="13.8362349"><ele>5.0</ele><time>2026-05-03T07:42:22.02Z</time></trkpt><trkpt lat="43.1051103" lon="13.8362567"><ele>5.0</ele><time>2026-05-03T07:42:23.02Z</time></trkpt><trkpt lat="43.1052162" lon="13.8362884"><ele>5.0</ele><time>2026-05-03T07:42:24.021Z</time></trkpt><trkpt lat="43.1053248" lon="13.8363221"><ele>5.5</ele><time>2026-05-03T07:42:25.021Z</time></trkpt><trkpt lat="43.1054353" lon="13.836357"><ele>6.0</ele><time>2026-05-03T07:42:26.021Z</time></trkpt><trkpt lat="43.1055471" lon="13.8363936"><ele>6.5</ele><time>2026-05-03T07:42:27.02Z</time></trkpt><trkpt lat="43.1056587" lon="13.8364316"><ele>7.0</ele><time>2026-05-03T07:42:28.02Z</time></trkpt><trkpt lat="43.10577" lon="13.8364698"><ele>7.0</ele><time>2026-05-03T07:42:29.021Z</time></trkpt><trkpt lat="43.1058781" lon="13.8365063"><ele>6.999999999999999</ele><time>2026-05-03T07:42:30.021Z</time></trkpt><trkpt lat="43.105985" lon="13.836544"><ele>6.999999999999999</ele><time>2026-05-03T07:42:31.021Z</time></trkpt><trkpt lat="43.1060908" lon="13.8365815"><ele>7.0</ele><time>2026-05-03T07:42:32.021Z</time></trkpt><trkpt lat="43.1061961" lon="13.8366177"><ele>7.0</ele><time>2026-05-03T07:42:33.021Z</time></trkpt><trkpt lat="43.1063008" lon="13.8366546"><ele>7.0</ele><time>2026-05-03T07:42:34.021Z</time></trkpt><trkpt lat="43.1064062" lon="13.8366924"><ele>7.0</ele><time>2026-05-03T07:42:35.02Z</time></trkpt><trkpt lat="43.1065149" lon="13.8367318"><ele>7.0</ele><time>2026-05-03T07:42:36.021Z</time></trkpt><trkpt lat="43.1066288" lon="13.836773"><ele>7.0</ele><time>2026-05-03T07:42:37.021Z</time></trkpt><trkpt lat="43.1067472" lon="13.8368147"><ele>6.75</ele><time>2026-05-03T07:42:38.021Z</time></trkpt><trkpt lat="43.1068715" lon="13.8368574"><ele>6.5</ele><time>2026-05-03T07:42:39.021Z</time></trkpt><trkpt lat="43.1070025" lon="13.8369029"><ele>6.25</ele><time>2026-05-03T07:42:40.021Z</time></trkpt><trkpt lat="43.1071393" lon="13.8369515"><ele>6.0</ele><time>2026-05-03T07:42:41.02Z</time></trkpt><trkpt lat="43.1072831" lon="13.8370014"><ele>5.666666666666667</ele><time>2026-05-03T07:42:42.021Z</time></trkpt><trkpt lat="43.1074332" lon="13.8370507"><ele>5.333333333333334</ele><time>2026-05-03T07:42:43.02Z</time></trkpt><trkpt lat="43.1075874" lon="13.8370947"><ele>5.0</ele><time>2026-05-03T07:42:44.021Z</time></trkpt><trkpt lat="43.1077456" lon="13.8371299"><ele>5.0</ele><time>2026-05-03T07:42:45.02Z</time></trkpt><trkpt lat="43.1079081" lon="13.8371558"><ele>5.0</ele><time>2026-05-03T07:42:46.019Z</time></trkpt><trkpt lat="43.1080739" lon="13.8371718"><ele>5.0</ele><time>2026-05-03T07:42:47.021Z</time></trkpt><trkpt lat="43.1082425" lon="13.8371781"><ele>4.666666666666667</ele><time>2026-05-03T07:42:48.02Z</time></trkpt><trkpt lat="43.108413" lon="13.8371741"><ele>4.333333333333333</ele><time>2026-05-03T07:42:49.019Z</time></trkpt><trkpt lat="43.1085834" lon="13.8371568"><ele>4.0</ele><time>2026-05-03T07:42:50.021Z</time></trkpt><trkpt lat="43.1087516" lon="13.8371246"><ele>4.0</ele><time>2026-05-03T07:42:51.019Z</time></trkpt><trkpt lat="43.1089176" lon="13.8370793"><ele>4.0</ele><time>2026-05-03T07:42:52.021Z</time></trkpt><trkpt lat="43.1090779" lon="13.8370268"><ele>4.0</ele><time>2026-05-03T07:42:53.021Z</time></trkpt><trkpt lat="43.1092287" lon="13.8369744"><ele>4.0</ele><time>2026-05-03T07:42:54.021Z</time></trkpt><trkpt lat="43.1093669" lon="13.8369243"><ele>4.0</ele><time>2026-05-03T07:42:55.021Z</time></trkpt><trkpt lat="43.1094979" lon="13.8368729"><ele>4.0</ele><time>2026-05-03T07:42:56.02Z</time></trkpt><trkpt lat="43.109625" lon="13.8368182"><ele>4.0</ele><time>2026-05-03T07:42:57.021Z</time></trkpt><trkpt lat="43.1097528" lon="13.8367642"><ele>4.0</ele><time>2026-05-03T07:42:58.019Z</time></trkpt><trkpt lat="43.1098875" lon="13.8367096"><ele>4.0</ele><time>2026-05-03T07:42:59.021Z</time></trkpt><trkpt lat="43.1100305" lon="13.8366529"><ele>4.0</ele><time>2026-05-03T07:43:00.021Z</time></trkpt><trkpt lat="43.110182" lon="13.8365897"><ele>4.0</ele><time>2026-05-03T07:43:01.021Z</time></trkpt><trkpt lat="43.1103423" lon="13.8365213"><ele>3.6666666666666665</ele><time>2026-05-03T07:43:02.021Z</time></trkpt><trkpt lat="43.1105113" lon="13.8364501"><ele>3.333333333333333</ele><time>2026-05-03T07:43:03.021Z</time></trkpt><trkpt lat="43.1106873" lon="13.8363759"><ele>3.0</ele><time>2026-05-03T07:43:04.021Z</time></trkpt><trkpt lat="43.1108705" lon="13.8362992"><ele>2.6666666666666665</ele><time>2026-05-03T07:43:05.021Z</time></trkpt><trkpt lat="43.111062" lon="13.8362192"><ele>2.333333333333333</ele><time>2026-05-03T07:43:06.02Z</time></trkpt><trkpt lat="43.1112627" lon="13.836136"><ele>2.0</ele><time>2026-05-03T07:43:07.02Z</time></trkpt><trkpt lat="43.1114704" lon="13.8360505"><ele>5.0</ele><time>2026-05-03T07:43:08.021Z</time></trkpt><trkpt lat="43.1116861" lon="13.8359611"><ele>8.0</ele><time>2026-05-03T07:43:09.021Z</time></trkpt><trkpt lat="43.1119141" lon="13.8358645"><ele>8.0</ele><time>2026-05-03T07:43:10.02Z</time></trkpt><trkpt lat="43.1121537" lon="13.8357617"><ele>8.0</ele><time>2026-05-03T07:43:11.02Z</time></trkpt><trkpt lat="43.1124018" lon="13.8356568"><ele>6.5</ele><time>2026-05-03T07:43:12.019Z</time></trkpt><trkpt lat="43.1126564" lon="13.8355484"><ele>5.0</ele><time>2026-05-03T07:43:13.02Z</time></trkpt><trkpt lat="43.1129152" lon="13.8354371"><ele>5.0</ele><time>2026-05-03T07:43:14.019Z</time></trkpt><trkpt lat="43.1131813" lon="13.835321"><ele>5.0</ele><time>2026-05-03T07:43:15.02Z</time></trkpt><trkpt lat="43.1134574" lon="13.8352002"><ele>8.5</ele><time>2026-05-03T07:43:16.021Z</time></trkpt><trkpt lat="43.1137433" lon="13.8350794"><ele>12.0</ele><time>2026-05-03T07:43:17.02Z</time></trkpt><trkpt lat="43.1140354" lon="13.8349582"><ele>9.0</ele><time>2026-05-03T07:43:18.021Z</time></trkpt><trkpt lat="43.1143277" lon="13.8348374"><ele>6.0</ele><time>2026-05-03T07:43:19.021Z</time></trkpt><trkpt lat="43.1146135" lon="13.8347183"><ele>6.0</ele><time>2026-05-03T07:43:20.02Z</time></trkpt><trkpt lat="43.1148923" lon="13.8345979"><ele>6.0</ele><time>2026-05-03T07:43:21.02Z</time></trkpt><trkpt lat="43.1151652" lon="13.8344753"><ele>4.0</ele><time>2026-05-03T07:43:22.02Z</time></trkpt><trkpt lat="43.1154271" lon="13.8343493"><ele>2.0</ele><time>2026-05-03T07:43:23.021Z</time></trkpt><trkpt lat="43.1156783" lon="13.8342213"><ele>4.5</ele><time>2026-05-03T07:43:24.02Z</time></trkpt><trkpt lat="43.1159176" lon="13.834094"><ele>7.0</ele><time>2026-05-03T07:43:25.021Z</time></trkpt><trkpt lat="43.1161448" lon="13.8339715"><ele>7.0</ele><time>2026-05-03T07:43:26.021Z</time></trkpt><trkpt lat="43.1163626" lon="13.8338535"><ele>7.0</ele><time>2026-05-03T07:43:27.021Z</time></trkpt><trkpt lat="43.1165763" lon="13.8337395"><ele>8.0</ele><time>2026-05-03T07:43:28.021Z</time></trkpt><trkpt lat="43.1167855" lon="13.8336284"><ele>9.0</ele><time>2026-05-03T07:43:29.019Z</time></trkpt><trkpt lat="43.1169929" lon="13.8335179"><ele>10.0</ele><time>2026-05-03T07:43:30.021Z</time></trkpt><trkpt lat="43.1171988" lon="13.8334083"><ele>8.333333333333334</ele><time>2026-05-03T07:43:31.021Z</time></trkpt><trkpt lat="43.1174041" lon="13.833299"><ele>6.666666666666667</ele><time>2026-05-03T07:43:32.02Z</time></trkpt><trkpt lat="43.1176103" lon="13.8331909"><ele>5.0</ele><time>2026-05-03T07:43:33.021Z</time></trkpt><trkpt lat="43.1178203" lon="13.8330831"><ele>5.0</ele><time>2026-05-03T07:43:34.021Z</time></trkpt><trkpt lat="43.1180288" lon="13.8329729"><ele>5.0</ele><time>2026-05-03T07:43:35.021Z</time></trkpt><trkpt lat="43.1182386" lon="13.832862"><ele>5.0</ele><time>2026-05-03T07:43:36.021Z</time></trkpt><trkpt lat="43.118449" lon="13.832751"><ele>6.0</ele><time>2026-05-03T07:43:37.02Z</time></trkpt><trkpt lat="43.1186581" lon="13.8326412"><ele>7.0</ele><time>2026-05-03T07:43:38.021Z</time></trkpt><trkpt lat="43.1188644" lon="13.8325328"><ele>8.0</ele><time>2026-05-03T07:43:39.019Z</time></trkpt><trkpt lat="43.1190666" lon="13.8324252"><ele>6.333333333333333</ele><time>2026-05-03T07:43:40.021Z</time></trkpt><trkpt lat="43.1192661" lon="13.8323189"><ele>4.666666666666666</ele><time>2026-05-03T07:43:41.02Z</time></trkpt><trkpt lat="43.1194652" lon="13.8322132"><ele>3.0</ele><time>2026-05-03T07:43:42.021Z</time></trkpt><trkpt lat="43.119665" lon="13.8321082"><ele>3.0</ele><time>2026-05-03T07:43:43.02Z</time></trkpt><trkpt lat="43.1198676" lon="13.8320025"><ele>3.0</ele><time>2026-05-03T07:43:44.021Z</time></trkpt><trkpt lat="43.1200685" lon="13.8318973"><ele>3.0</ele><time>2026-05-03T07:43:45.021Z</time></trkpt><trkpt lat="43.1202709" lon="13.8317912"><ele>3.333333333333333</ele><time>2026-05-03T07:43:46.02Z</time></trkpt><trkpt lat="43.1204723" lon="13.8316847"><ele>3.6666666666666665</ele><time>2026-05-03T07:43:47.021Z</time></trkpt><trkpt lat="43.1206725" lon="13.8315794"><ele>4.0</ele><time>2026-05-03T07:43:48.02Z</time></trkpt><trkpt lat="43.1208719" lon="13.8314749"><ele>3.333333333333333</ele><time>2026-05-03T07:43:49.021Z</time></trkpt><trkpt lat="43.1210724" lon="13.8313701"><ele>2.6666666666666665</ele><time>2026-05-03T07:43:50.021Z</time></trkpt><trkpt lat="43.1212739" lon="13.8312639"><ele>2.0</ele><time>2026-05-03T07:43:51.021Z</time></trkpt><trkpt lat="43.1214764" lon="13.8311556"><ele>1.6666666666666665</ele><time>2026-05-03T07:43:52.02Z</time></trkpt><trkpt lat="43.1216803" lon="13.8310453"><ele>1.3333333333333333</ele><time>2026-05-03T07:43:53.021Z</time></trkpt><trkpt lat="43.121885" lon="13.8309354"><ele>1.0</ele><time>2026-05-03T07:43:54.021Z</time></trkpt><trkpt lat="43.1220873" lon="13.830828"><ele>1.3333333333333333</ele><time>2026-05-03T07:43:55.02Z</time></trkpt><trkpt lat="43.1222872" lon="13.8307225"><ele>1.6666666666666665</ele><time>2026-05-03T07:43:56.021Z</time></trkpt><trkpt lat="43.1224838" lon="13.8306189"><ele>2.0</ele><time>2026-05-03T07:43:57.02Z</time></trkpt><trkpt lat="43.1226755" lon="13.8305174"><ele>2.0</ele><time>2026-05-03T07:43:58.021Z</time></trkpt><trkpt lat="43.1228601" lon="13.8304208"><ele>2.0</ele><time>2026-05-03T07:43:59.021Z</time></trkpt><trkpt lat="43.1230361" lon="13.830329"><ele>2.0</ele><time>2026-05-03T07:44:00.02Z</time></trkpt><trkpt lat="43.123211" lon="13.8302378"><ele>1.6666666666666665</ele><time>2026-05-03T07:44:01.021Z</time></trkpt><trkpt lat="43.1233891" lon="13.8301442"><ele>1.3333333333333333</ele><time>2026-05-03T07:44:02.02Z</time></trkpt><trkpt lat="43.1235718" lon="13.8300483"><ele>1.0</ele><time>2026-05-03T07:44:03.02Z</time></trkpt><trkpt lat="43.1237589" lon="13.8299504"><ele>1.3333333333333333</ele><time>2026-05-03T07:44:04.021Z</time></trkpt><trkpt lat="43.123949" lon="13.8298502"><ele>1.6666666666666665</ele><time>2026-05-03T07:44:05.02Z</time></trkpt><trkpt lat="43.1241426" lon="13.8297472"><ele>2.0</ele><time>2026-05-03T07:44:06.021Z</time></trkpt><trkpt lat="43.1243385" lon="13.8296423"><ele>2.0</ele><time>2026-05-03T07:44:07.02Z</time></trkpt><trkpt lat="43.1245362" lon="13.8295382"><ele>2.0</ele><time>2026-05-03T07:44:08.02Z</time></trkpt><trkpt lat="43.1247354" lon="13.8294331"><ele>2.0</ele><time>2026-05-03T07:44:09.021Z</time></trkpt><trkpt lat="43.1249367" lon="13.8293261"><ele>4.333333333333333</ele><time>2026-05-03T07:44:10.02Z</time></trkpt><trkpt lat="43.1251373" lon="13.82922"><ele>6.666666666666667</ele><time>2026-05-03T07:44:11.02Z</time></trkpt><trkpt lat="43.1253355" lon="13.8291166"><ele>9.0</ele><time>2026-05-03T07:44:12.02Z</time></trkpt><trkpt lat="43.1255291" lon="13.8290135"><ele>9.0</ele><time>2026-05-03T07:44:13.019Z</time></trkpt><trkpt lat="43.125721" lon="13.8289138"><ele>9.0</ele><time>2026-05-03T07:44:14.021Z</time></trkpt><trkpt lat="43.1259117" lon="13.8288152"><ele>9.0</ele><time>2026-05-03T07:44:15.021Z</time></trkpt><trkpt lat="43.1261032" lon="13.8287177"><ele>7.333333333333333</ele><time>2026-05-03T07:44:16.021Z</time></trkpt><trkpt lat="43.1262966" lon="13.8286202"><ele>5.666666666666666</ele><time>2026-05-03T07:44:17.021Z</time></trkpt><trkpt lat="43.1264906" lon="13.8285182"><ele>4.0</ele><time>2026-05-03T07:44:18.021Z</time></trkpt><trkpt lat="43.1266855" lon="13.8284158"><ele>4.0</ele><time>2026-05-03T07:44:19.021Z</time></trkpt><trkpt lat="43.1268807" lon="13.8283099"><ele>4.0</ele><time>2026-05-03T07:44:20.021Z</time></trkpt><trkpt lat="43.1270776" lon="13.8281998"><ele>4.0</ele><time>2026-05-03T07:44:21.021Z</time></trkpt><trkpt lat="43.1272757" lon="13.8280866"><ele>3.0</ele><time>2026-05-03T07:44:22.02Z</time></trkpt><trkpt lat="43.1274743" lon="13.8279689"><ele>2.0</ele><time>2026-05-03T07:44:23.021Z</time></trkpt><trkpt lat="43.1276718" lon="13.8278444"><ele>1.0</ele><time>2026-05-03T07:44:24.02Z</time></trkpt><trkpt lat="43.1278673" lon="13.8277136"><ele>3.0</ele><time>2026-05-03T07:44:25.019Z</time></trkpt><trkpt lat="43.1280594" lon="13.8275809"><ele>5.0</ele><time>2026-05-03T07:44:26.021Z</time></trkpt><trkpt lat="43.1282478" lon="13.8274452"><ele>7.0</ele><time>2026-05-03T07:44:27.02Z</time></trkpt><trkpt lat="43.1284355" lon="13.8273069"><ele>7.0</ele><time>2026-05-03T07:44:28.019Z</time></trkpt><trkpt lat="43.1286228" lon="13.8271637"><ele>7.0</ele><time>2026-05-03T07:44:29.02Z</time></trkpt><trkpt lat="43.1288108" lon="13.8270172"><ele>7.0</ele><time>2026-05-03T07:44:30.021Z</time></trkpt><trkpt lat="43.1289961" lon="13.8268644"><ele>7.333333333333334</ele><time>2026-05-03T07:44:31.021Z</time></trkpt><trkpt lat="43.1291796" lon="13.8267058"><ele>7.666666666666666</ele><time>2026-05-03T07:44:32.021Z</time></trkpt><trkpt lat="43.1293637" lon="13.8265438"><ele>8.0</ele><time>2026-05-03T07:44:33.021Z</time></trkpt><trkpt lat="43.1295473" lon="13.8263856"><ele>8.0</ele><time>2026-05-03T07:44:34.02Z</time></trkpt><trkpt lat="43.1297283" lon="13.8262306"><ele>8.0</ele><time>2026-05-03T07:44:35.02Z</time></trkpt><trkpt lat="43.1299042" lon="13.826077"><ele>8.0</ele><time>2026-05-03T07:44:36.02Z</time></trkpt><trkpt lat="43.1300746" lon="13.8259257"><ele>8.333333333333332</ele><time>2026-05-03T07:44:37.021Z</time></trkpt><trkpt lat="43.1302452" lon="13.8257774"><ele>8.666666666666666</ele><time>2026-05-03T07:44:38.021Z</time></trkpt><trkpt lat="43.1304203" lon="13.8256291"><ele>9.0</ele><time>2026-05-03T07:44:39.021Z</time></trkpt><trkpt lat="43.1306043" lon="13.8254715"><ele>8.5</ele><time>2026-05-03T07:44:40.02Z</time></trkpt><trkpt lat="43.1307975" lon="13.8252953"><ele>8.0</ele><time>2026-05-03T07:44:41.021Z</time></trkpt><trkpt lat="43.1310039" lon="13.8251128"><ele>8.0</ele><time>2026-05-03T07:44:42.021Z</time></trkpt><trkpt lat="43.1312219" lon="13.8249286"><ele>8.0</ele><time>2026-05-03T07:44:43.021Z</time></trkpt><trkpt lat="43.1314465" lon="13.8247415"><ele>4.5</ele><time>2026-05-03T07:44:44.02Z</time></trkpt><trkpt lat="43.1316689" lon="13.8245551"><ele>1.0</ele><time>2026-05-03T07:44:45.021Z</time></trkpt><trkpt lat="43.1318852" lon="13.8243721"><ele>5.5</ele><time>2026-05-03T07:44:46.02Z</time></trkpt><trkpt lat="43.1320954" lon="13.824192"><ele>10.0</ele><time>2026-05-03T07:44:47.021Z</time></trkpt><trkpt lat="43.1323011" lon="13.824015"><ele>6.5</ele><time>2026-05-03T07:44:48.02Z</time></trkpt><trkpt lat="43.1324992" lon="13.8238455"><ele>3.0</ele><time>2026-05-03T07:44:49.021Z</time></trkpt><trkpt lat="43.1326895" lon="13.8236835"><ele>3.0</ele><time>2026-05-03T07:44:50.02Z</time></trkpt><trkpt lat="43.1328744" lon="13.8235253"><ele>3.0</ele><time>2026-05-03T07:44:51.02Z</time></trkpt><trkpt lat="43.1330589" lon="13.8233667"><ele>3.0</ele><time>2026-05-03T07:44:52.021Z</time></trkpt><trkpt lat="43.133244" lon="13.8232093"><ele>3.0</ele><time>2026-05-03T07:44:53.021Z</time></trkpt><trkpt lat="43.1334293" lon="13.8230513"><ele>3.0</ele><time>2026-05-03T07:44:54.021Z</time></trkpt><trkpt lat="43.1336161" lon="13.8228939"><ele>3.0</ele><time>2026-05-03T07:44:55.02Z</time></trkpt><trkpt lat="43.1338048" lon="13.8227367"><ele>2.6666666666666665</ele><time>2026-05-03T07:44:56.02Z</time></trkpt><trkpt lat="43.1339952" lon="13.8225786"><ele>2.333333333333333</ele><time>2026-05-03T07:44:57.021Z</time></trkpt><trkpt lat="43.1341858" lon="13.8224201"><ele>2.0</ele><time>2026-05-03T07:44:58.02Z</time></trkpt><trkpt lat="43.1343807" lon="13.8222643"><ele>2.0</ele><time>2026-05-03T07:44:59.02Z</time></trkpt><trkpt lat="43.1345757" lon="13.8221138"><ele>2.0</ele><time>2026-05-03T07:45:00.019Z</time></trkpt><trkpt lat="43.1347704" lon="13.821968"><ele>2.0</ele><time>2026-05-03T07:45:01.021Z</time></trkpt><trkpt lat="43.1349639" lon="13.8218256"><ele>2.6666666666666665</ele><time>2026-05-03T07:45:02.021Z</time></trkpt><trkpt lat="43.1351556" lon="13.8216869"><ele>3.333333333333333</ele><time>2026-05-03T07:45:03.02Z</time></trkpt><trkpt lat="43.1353453" lon="13.8215505"><ele>4.0</ele><time>2026-05-03T07:45:04.02Z</time></trkpt><trkpt lat="43.1355345" lon="13.8214163"><ele>4.0</ele><time>2026-05-03T07:45:05.02Z</time></trkpt><trkpt lat="43.1357255" lon="13.8212855"><ele>4.0</ele><time>2026-05-03T07:45:06.021Z</time></trkpt><trkpt lat="43.1359186" lon="13.8211579"><ele>4.0</ele><time>2026-05-03T07:45:07.021Z</time></trkpt><trkpt lat="43.1361145" lon="13.8210325"><ele>4.0</ele><time>2026-05-03T07:45:08.021Z</time></trkpt><trkpt lat="43.1363131" lon="13.8209056"><ele>4.0</ele><time>2026-05-03T07:45:09.021Z</time></trkpt><trkpt lat="43.1365118" lon="13.8207775"><ele>4.0</ele><time>2026-05-03T07:45:10.02Z</time></trkpt><trkpt lat="43.1367116" lon="13.8206479"><ele>3.333333333333333</ele><time>2026-05-03T07:45:11.02Z</time></trkpt><trkpt lat="43.1369114" lon="13.8205178"><ele>2.6666666666666665</ele><time>2026-05-03T07:45:12.02Z</time></trkpt><trkpt lat="43.1371105" lon="13.8203869"><ele>2.0</ele><time>2026-05-03T07:45:13.02Z</time></trkpt><trkpt lat="43.1373099" lon="13.8202563"><ele>3.333333333333333</ele><time>2026-05-03T07:45:14.021Z</time></trkpt><trkpt lat="43.1375097" lon="13.8201265"><ele>4.666666666666667</ele><time>2026-05-03T07:45:15.021Z</time></trkpt><trkpt lat="43.1377087" lon="13.8199972"><ele>6.0</ele><time>2026-05-03T07:45:16.021Z</time></trkpt><trkpt lat="43.1379076" lon="13.8198673"><ele>6.0</ele><time>2026-05-03T07:45:17.021Z</time></trkpt><trkpt lat="43.1381028" lon="13.8197395"><ele>6.0</ele><time>2026-05-03T07:45:18.02Z</time></trkpt><trkpt lat="43.1382938" lon="13.8196151"><ele>6.0</ele><time>2026-05-03T07:45:19.021Z</time></trkpt><trkpt lat="43.138482" lon="13.8194924"><ele>5.333333333333333</ele><time>2026-05-03T07:45:20.021Z</time></trkpt><trkpt lat="43.1386708" lon="13.8193696"><ele>4.666666666666666</ele><time>2026-05-03T07:45:21.021Z</time></trkpt><trkpt lat="43.1388597" lon="13.819245"><ele>4.0</ele><time>2026-05-03T07:45:22.021Z</time></trkpt><trkpt lat="43.1390463" lon="13.8191216"><ele>3.6666666666666665</ele><time>2026-05-03T07:45:23.02Z</time></trkpt><trkpt lat="43.1392295" lon="13.819001"><ele>3.333333333333333</ele><time>2026-05-03T07:45:24.02Z</time></trkpt><trkpt lat="43.1394117" lon="13.8188818"><ele>3.0</ele><time>2026-05-03T07:45:25.021Z</time></trkpt><trkpt lat="43.1395919" lon="13.8187648"><ele>3.0</ele><time>2026-05-03T07:45:26.021Z</time></trkpt><trkpt lat="43.1397719" lon="13.818648"><ele>3.0</ele><time>2026-05-03T07:45:27.021Z</time></trkpt><trkpt lat="43.1399494" lon="13.818533"><ele>3.0</ele><time>2026-05-03T07:45:28.021Z</time></trkpt><trkpt lat="43.1401247" lon="13.8184171"><ele>3.0</ele><time>2026-05-03T07:45:29.02Z</time></trkpt><trkpt lat="43.1402989" lon="13.8182996"><ele>3.0</ele><time>2026-05-03T07:45:30.02Z</time></trkpt><trkpt lat="43.1404746" lon="13.8181829"><ele>3.0</ele><time>2026-05-03T07:45:31.021Z</time></trkpt><trkpt lat="43.1406511" lon="13.8180682"><ele>3.0</ele><time>2026-05-03T07:45:32.02Z</time></trkpt><trkpt lat="43.140826" lon="13.8179545"><ele>3.0</ele><time>2026-05-03T07:45:33.021Z</time></trkpt><trkpt lat="43.1409994" lon="13.817838"><ele>3.0</ele><time>2026-05-03T07:45:34.021Z</time></trkpt><trkpt lat="43.1411697" lon="13.8177137"><ele>2.6666666666666665</ele><time>2026-05-03T07:45:35.021Z</time></trkpt><trkpt lat="43.1413384" lon="13.8175809"><ele>2.333333333333333</ele><time>2026-05-03T07:45:36.021Z</time></trkpt><trkpt lat="43.1415043" lon="13.8174354"><ele>2.0</ele><time>2026-05-03T07:45:37.02Z</time></trkpt><trkpt lat="43.1416637" lon="13.8172731"><ele>2.0</ele><time>2026-05-03T07:45:38.021Z</time></trkpt><trkpt lat="43.1418154" lon="13.8170928"><ele>2.0</ele><time>2026-05-03T07:45:39.021Z</time></trkpt><trkpt lat="43.1419598" lon="13.816898"><ele>2.0</ele><time>2026-05-03T07:45:40.02Z</time></trkpt><trkpt lat="43.1420963" lon="13.8166907"><ele>2.333333333333333</ele><time>2026-05-03T07:45:41.021Z</time></trkpt><trkpt lat="43.1422234" lon="13.8164736"><ele>2.6666666666666665</ele><time>2026-05-03T07:45:42.02Z</time></trkpt><trkpt lat="43.1423409" lon="13.8162539"><ele>3.0</ele><time>2026-05-03T07:45:43.021Z</time></trkpt><trkpt lat="43.1424484" lon="13.8160323"><ele>3.333333333333333</ele><time>2026-05-03T07:45:44.021Z</time></trkpt><trkpt lat="43.1425433" lon="13.8158102"><ele>3.6666666666666665</ele><time>2026-05-03T07:45:45.021Z</time></trkpt><trkpt lat="43.1426268" lon="13.8155849"><ele>4.0</ele><time>2026-05-03T07:45:46.021Z</time></trkpt><trkpt lat="43.1427037" lon="13.8153585"><ele>5.666666666666666</ele><time>2026-05-03T07:45:47.019Z</time></trkpt><trkpt lat="43.14278" lon="13.8151334"><ele>7.333333333333333</ele><time>2026-05-03T07:45:48.02Z</time></trkpt><trkpt lat="43.1428564" lon="13.8149116"><ele>9.0</ele><time>2026-05-03T07:45:49.021Z</time></trkpt><trkpt lat="43.1429323" lon="13.8146898"><ele>9.0</ele><time>2026-05-03T07:45:50.02Z</time></trkpt><trkpt lat="43.1430068" lon="13.8144683"><ele>9.0</ele><time>2026-05-03T07:45:51.021Z</time></trkpt><trkpt lat="43.1430816" lon="13.814249"><ele>9.0</ele><time>2026-05-03T07:45:52.021Z</time></trkpt><trkpt lat="43.1431568" lon="13.8140322"><ele>8.0</ele><time>2026-05-03T07:45:53.02Z</time></trkpt><trkpt lat="43.1432293" lon="13.8138228"><ele>7.0</ele><time>2026-05-03T07:45:54.021Z</time></trkpt><trkpt lat="43.1432996" lon="13.8136181"><ele>6.0</ele><time>2026-05-03T07:45:55.02Z</time></trkpt><trkpt lat="43.1433677" lon="13.8134188"><ele>7.5</ele><time>2026-05-03T07:45:56.02Z</time></trkpt><trkpt lat="43.1434326" lon="13.8132308"><ele>9.0</ele><time>2026-05-03T07:45:57.021Z</time></trkpt><trkpt lat="43.1434903" lon="13.813065"><ele>10.5</ele><time>2026-05-03T07:45:58.021Z</time></trkpt><trkpt lat="43.143541" lon="13.8129192"><ele>12.0</ele><time>2026-05-03T07:45:59.021Z</time></trkpt><trkpt lat="43.1435854" lon="13.8127986"><ele>12.0</ele><time>2026-05-03T07:46:00.021Z</time></trkpt><trkpt lat="43.1436278" lon="13.8127044"><ele>12.0</ele><time>2026-05-03T07:46:01.021Z</time></trkpt><trkpt lat="43.143676" lon="13.8126291"><ele>12.0</ele><time>2026-05-03T07:46:02.021Z</time></trkpt><trkpt lat="43.1437268" lon="13.8125605"><ele>12.0</ele><time>2026-05-03T07:46:03.02Z</time></trkpt><trkpt lat="43.1437668" lon="13.8124756"><ele>12.0</ele><time>2026-05-03T07:46:04.021Z</time></trkpt><trkpt lat="43.1437907" lon="13.8123758"><ele>12.0</ele><time>2026-05-03T07:46:05.021Z</time></trkpt><trkpt lat="43.1438086" lon="13.8122624"><ele>13.2</ele><time>2026-05-03T07:46:06.021Z</time></trkpt><trkpt lat="43.1438338" lon="13.8121421"><ele>14.399999999999999</ele><time>2026-05-03T07:46:07.021Z</time></trkpt><trkpt lat="43.1438712" lon="13.8120182"><ele>15.600000000000001</ele><time>2026-05-03T07:46:08.021Z</time></trkpt><trkpt lat="43.1439194" lon="13.8118881"><ele>16.8</ele><time>2026-05-03T07:46:09.019Z</time></trkpt><trkpt lat="43.1439752" lon="13.8117492"><ele>18.0</ele><time>2026-05-03T07:46:10.021Z</time></trkpt><trkpt lat="43.144036" lon="13.8116009"><ele>17.0</ele><time>2026-05-03T07:46:11.021Z</time></trkpt><trkpt lat="43.1441025" lon="13.8114463"><ele>16.0</ele><time>2026-05-03T07:46:12.021Z</time></trkpt><trkpt lat="43.1441771" lon="13.8112874"><ele>15.0</ele><time>2026-05-03T07:46:13.021Z</time></trkpt><trkpt lat="43.1442636" lon="13.8111267"><ele>14.0</ele><time>2026-05-03T07:46:14.02Z</time></trkpt><trkpt lat="43.1443611" lon="13.8109664"><ele>14.0</ele><time>2026-05-03T07:46:15.021Z</time></trkpt><trkpt lat="43.1444705" lon="13.8108078"><ele>14.0</ele><time>2026-05-03T07:46:16.02Z</time></trkpt><trkpt lat="43.1445893" lon="13.8106483"><ele>14.0</ele><time>2026-05-03T07:46:17.021Z</time></trkpt><trkpt lat="43.1447159" lon="13.8104873"><ele>14.0</ele><time>2026-05-03T07:46:18.021Z</time></trkpt><trkpt lat="43.1448497" lon="13.8103339"><ele>14.0</ele><time>2026-05-03T07:46:19.021Z</time></trkpt><trkpt lat="43.1449921" lon="13.8101943"><ele>14.0</ele><time>2026-05-03T07:46:20.02Z</time></trkpt><trkpt lat="43.1451423" lon="13.8100703"><ele>16.0</ele><time>2026-05-03T07:46:21.019Z</time></trkpt><trkpt lat="43.1453005" lon="13.8099588"><ele>18.0</ele><time>2026-05-03T07:46:22.021Z</time></trkpt><trkpt lat="43.1454665" lon="13.8098587"><ele>20.0</ele><time>2026-05-03T07:46:23.02Z</time></trkpt><trkpt lat="43.1456386" lon="13.8097668"><ele>18.333333333333336</ele><time>2026-05-03T07:46:24.02Z</time></trkpt><trkpt lat="43.1458134" lon="13.8096772"><ele>16.666666666666668</ele><time>2026-05-03T07:46:25.021Z</time></trkpt><trkpt lat="43.1459915" lon="13.8095844"><ele>15.0</ele><time>2026-05-03T07:46:26.02Z</time></trkpt><trkpt lat="43.1461758" lon="13.8094907"><ele>15.0</ele><time>2026-05-03T07:46:27.021Z</time></trkpt><trkpt lat="43.1463625" lon="13.8093946"><ele>15.0</ele><time>2026-05-03T07:46:28.021Z</time></trkpt><trkpt lat="43.1465524" lon="13.8092977"><ele>15.0</ele><time>2026-05-03T07:46:29.021Z</time></trkpt><trkpt lat="43.1467447" lon="13.8091979"><ele>17.0</ele><time>2026-05-03T07:46:30.021Z</time></trkpt><trkpt lat="43.1469411" lon="13.8090944"><ele>19.0</ele><time>2026-05-03T07:46:31.021Z</time></trkpt><trkpt lat="43.1471379" lon="13.8089922"><ele>21.0</ele><time>2026-05-03T07:46:32.02Z</time></trkpt><trkpt lat="43.1473412" lon="13.8088889"><ele>20.333333333333332</ele><time>2026-05-03T07:46:33.019Z</time></trkpt><trkpt lat="43.1475445" lon="13.8087856"><ele>19.666666666666664</ele><time>2026-05-03T07:46:34.021Z</time></trkpt><trkpt lat="43.1477417" lon="13.8086843"><ele>19.0</ele><time>2026-05-03T07:46:35.021Z</time></trkpt><trkpt lat="43.1479336" lon="13.8085855"><ele>20.666666666666664</ele><time>2026-05-03T07:46:36.019Z</time></trkpt><trkpt lat="43.1481222" lon="13.8084873"><ele>22.333333333333332</ele><time>2026-05-03T07:46:37.021Z</time></trkpt><trkpt lat="43.1483125" lon="13.8083878"><ele>24.0</ele><time>2026-05-03T07:46:38.019Z</time></trkpt><trkpt lat="43.1485064" lon="13.8082874"><ele>24.0</ele><time>2026-05-03T07:46:39.021Z</time></trkpt><trkpt lat="43.1487059" lon="13.8081842"><ele>24.0</ele><time>2026-05-03T07:46:40.02Z</time></trkpt><trkpt lat="43.1489163" lon="13.8080747"><ele>24.0</ele><time>2026-05-03T07:46:41.021Z</time></trkpt><trkpt lat="43.1491372" lon="13.8079567"><ele>20.5</ele><time>2026-05-03T07:46:42.019Z</time></trkpt><trkpt lat="43.1493635" lon="13.8078374"><ele>17.0</ele><time>2026-05-03T07:46:43.02Z</time></trkpt><trkpt lat="43.149594" lon="13.8077179"><ele>18.0</ele><time>2026-05-03T07:46:44.021Z</time></trkpt><trkpt lat="43.1498316" lon="13.80759"><ele>19.0</ele><time>2026-05-03T07:46:45.021Z</time></trkpt><trkpt lat="43.1500762" lon="13.807455"><ele>19.0</ele><time>2026-05-03T07:46:46.02Z</time></trkpt><trkpt lat="43.1503321" lon="13.8073196"><ele>19.0</ele><time>2026-05-03T07:46:47.02Z</time></trkpt><trkpt lat="43.1505981" lon="13.8071847"><ele>18.0</ele><time>2026-05-03T07:46:48.021Z</time></trkpt><trkpt lat="43.1508652" lon="13.807049"><ele>17.0</ele><time>2026-05-03T07:46:49.02Z</time></trkpt><trkpt lat="43.1511289" lon="13.8069156"><ele>18.0</ele><time>2026-05-03T07:46:50.021Z</time></trkpt><trkpt lat="43.1513926" lon="13.8067813"><ele>19.0</ele><time>2026-05-03T07:46:51.021Z</time></trkpt><trkpt lat="43.1516585" lon="13.8066378"><ele>19.0</ele><time>2026-05-03T07:46:52.021Z</time></trkpt><trkpt lat="43.151931" lon="13.8064885"><ele>19.0</ele><time>2026-05-03T07:46:53.02Z</time></trkpt><trkpt lat="43.1522111" lon="13.8063419"><ele>17.5</ele><time>2026-05-03T07:46:54.021Z</time></trkpt><trkpt lat="43.1524943" lon="13.8061927"><ele>16.0</ele><time>2026-05-03T07:46:55.021Z</time></trkpt><trkpt lat="43.1527819" lon="13.8060415"><ele>17.5</ele><time>2026-05-03T07:46:56.021Z</time></trkpt><trkpt lat="43.1530759" lon="13.8058936"><ele>19.0</ele><time>2026-05-03T07:46:57.02Z</time></trkpt><trkpt lat="43.1533668" lon="13.8057524"><ele>19.0</ele><time>2026-05-03T07:46:58.021Z</time></trkpt><trkpt lat="43.1536551" lon="13.8056162"><ele>19.0</ele><time>2026-05-03T07:46:59.02Z</time></trkpt><trkpt lat="43.1539179" lon="13.8054984"><ele>17.5</ele><time>2026-05-03T07:47:00.02Z</time></trkpt><trkpt lat="43.1541736" lon="13.8053821"><ele>16.0</ele><time>2026-05-03T07:47:01.02Z</time></trkpt><trkpt lat="43.154421" lon="13.805268"><ele>17.0</ele><time>2026-05-03T07:47:02.021Z</time></trkpt><trkpt lat="43.1546703" lon="13.8051567"><ele>18.0</ele><time>2026-05-03T07:47:03.02Z</time></trkpt><trkpt lat="43.1549149" lon="13.8050493"><ele>18.0</ele><time>2026-05-03T07:47:04.02Z</time></trkpt><trkpt lat="43.1551496" lon="13.8049417"><ele>18.0</ele><time>2026-05-03T07:47:05.021Z</time></trkpt><trkpt lat="43.1553855" lon="13.8048316"><ele>18.0</ele><time>2026-05-03T07:47:06.02Z</time></trkpt><trkpt lat="43.1556138" lon="13.8047341"><ele>18.0</ele><time>2026-05-03T07:47:07.021Z</time></trkpt><trkpt lat="43.1558314" lon="13.8046372"><ele>15.666666666666666</ele><time>2026-05-03T07:47:08.02Z</time></trkpt><trkpt lat="43.1560431" lon="13.8045403"><ele>13.333333333333332</ele><time>2026-05-03T07:47:09.019Z</time></trkpt><trkpt lat="43.1562428" lon="13.8044475"><ele>11.0</ele><time>2026-05-03T07:47:10.021Z</time></trkpt><trkpt lat="43.1564409" lon="13.8043604"><ele>11.666666666666666</ele><time>2026-05-03T07:47:11.02Z</time></trkpt><trkpt lat="43.156627" lon="13.8042745"><ele>12.333333333333332</ele><time>2026-05-03T07:47:12.021Z</time></trkpt><trkpt lat="43.1568141" lon="13.8041906"><ele>13.0</ele><time>2026-05-03T07:47:13.021Z</time></trkpt><trkpt lat="43.1569866" lon="13.8040896"><ele>13.0</ele><time>2026-05-03T07:47:14.02Z</time></trkpt><trkpt lat="43.1571521" lon="13.8039707"><ele>13.0</ele><time>2026-05-03T07:47:15.02Z</time></trkpt><trkpt lat="43.1573004" lon="13.8038156"><ele>13.0</ele><time>2026-05-03T07:47:16.019Z</time></trkpt><trkpt lat="43.1574342" lon="13.8036328"><ele>13.333333333333332</ele><time>2026-05-03T07:47:17.02Z</time></trkpt><trkpt lat="43.1575481" lon="13.8034319"><ele>13.666666666666668</ele><time>2026-05-03T07:47:18.021Z</time></trkpt><trkpt lat="43.1576451" lon="13.8032099"><ele>14.0</ele><time>2026-05-03T07:47:19.02Z</time></trkpt><trkpt lat="43.1577247" lon="13.8029771"><ele>14.0</ele><time>2026-05-03T07:47:20.02Z</time></trkpt><trkpt lat="43.1577892" lon="13.8027335"><ele>14.0</ele><time>2026-05-03T07:47:21.02Z</time></trkpt><trkpt lat="43.1578444" lon="13.8024903"><ele>14.0</ele><time>2026-05-03T07:47:22.02Z</time></trkpt><trkpt lat="43.1579024" lon="13.8022515"><ele>15.666666666666668</ele><time>2026-05-03T07:47:23.021Z</time></trkpt><trkpt lat="43.1579625" lon="13.80202"><ele>17.333333333333332</ele><time>2026-05-03T07:47:24.02Z</time></trkpt><trkpt lat="43.1580211" lon="13.8017935"><ele>19.0</ele><time>2026-05-03T07:47:25.021Z</time></trkpt><trkpt lat="43.1580811" lon="13.8015743"><ele>19.333333333333332</ele><time>2026-05-03T07:47:26.021Z</time></trkpt><trkpt lat="43.158141" lon="13.8013544"><ele>19.666666666666668</ele><time>2026-05-03T07:47:27.021Z</time></trkpt><trkpt lat="43.1582072" lon="13.8011456"><ele>20.0</ele><time>2026-05-03T07:47:28.021Z</time></trkpt><trkpt lat="43.1582875" lon="13.8009528"><ele>17.0</ele><time>2026-05-03T07:47:29.021Z</time></trkpt><trkpt lat="43.158388" lon="13.8007742"><ele>14.0</ele><time>2026-05-03T07:47:30.021Z</time></trkpt><trkpt lat="43.1585036" lon="13.8006136"><ele>11.0</ele><time>2026-05-03T07:47:31.02Z</time></trkpt><trkpt lat="43.1586328" lon="13.8004732"><ele>11.0</ele><time>2026-05-03T07:47:32.021Z</time></trkpt><trkpt lat="43.1587738" lon="13.8003611"><ele>11.0</ele><time>2026-05-03T07:47:33.021Z</time></trkpt><trkpt lat="43.1589169" lon="13.8002835"><ele>11.0</ele><time>2026-05-03T07:47:34.021Z</time></trkpt><trkpt lat="43.1590504" lon="13.8002403"><ele>9.25</ele><time>2026-05-03T07:47:35.02Z</time></trkpt><trkpt lat="43.1591925" lon="13.8002143"><ele>7.5</ele><time>2026-05-03T07:47:36.02Z</time></trkpt><trkpt lat="43.1593387" lon="13.8002144"><ele>5.75</ele><time>2026-05-03T07:47:37.021Z</time></trkpt><trkpt lat="43.1594829" lon="13.8002407"><ele>4.0</ele><time>2026-05-03T07:47:38.021Z</time></trkpt><trkpt lat="43.1596269" lon="13.8002851"><ele>4.0</ele><time>2026-05-03T07:47:39.021Z</time></trkpt><trkpt lat="43.1597686" lon="13.8003402"><ele>4.0</ele><time>2026-05-03T07:47:40.021Z</time></trkpt><trkpt lat="43.1599026" lon="13.8003878"><ele>4.0</ele><time>2026-05-03T07:47:41.02Z</time></trkpt><trkpt lat="43.1600309" lon="13.800431"><ele>4.0</ele><time>2026-05-03T07:47:42.02Z</time></trkpt><trkpt lat="43.1601495" lon="13.8004685"><ele>4.4</ele><time>2026-05-03T07:47:43.021Z</time></trkpt><trkpt lat="43.1602587" lon="13.8005043"><ele>4.800000000000001</ele><time>2026-05-03T07:47:44.021Z</time></trkpt><trkpt lat="43.160363" lon="13.8005458"><ele>5.199999999999999</ele><time>2026-05-03T07:47:45.021Z</time></trkpt><trkpt lat="43.160458" lon="13.8005815"><ele>5.6</ele><time>2026-05-03T07:47:46.021Z</time></trkpt><trkpt lat="43.1605463" lon="13.8006138"><ele>6.0</ele><time>2026-05-03T07:47:47.021Z</time></trkpt><trkpt lat="43.1606283" lon="13.8006435"><ele>5.666666666666667</ele><time>2026-05-03T07:47:48.021Z</time></trkpt><trkpt lat="43.1607056" lon="13.8006734"><ele>5.333333333333333</ele><time>2026-05-03T07:47:49.02Z</time></trkpt><trkpt lat="43.160779" lon="13.8006981"><ele>5.0</ele><time>2026-05-03T07:47:50.021Z</time></trkpt><trkpt lat="43.1608875" lon="13.8007558"><ele>4.666666666666666</ele><time>2026-05-03T07:47:52.02Z</time></trkpt><trkpt lat="43.1609554" lon="13.8008341"><ele>4.333333333333333</ele><time>2026-05-03T07:47:54.02Z</time></trkpt><trkpt lat="43.1610192" lon="13.8009013"><ele>4.0</ele><time>2026-05-03T07:47:56.021Z</time></trkpt><trkpt lat="43.1610522" lon="13.8009862"><ele>3.6666666666666665</ele><time>2026-05-03T07:47:58.021Z</time></trkpt><trkpt lat="43.1610911" lon="13.801078"><ele>3.333333333333333</ele><time>2026-05-03T07:48:01.02Z</time></trkpt><trkpt lat="43.1611153" lon="13.801178"><ele>3.0</ele><time>2026-05-03T07:48:02.021Z</time></trkpt><trkpt lat="43.1611456" lon="13.8013054"><ele>2.6666666666666665</ele><time>2026-05-03T07:48:03.021Z</time></trkpt><trkpt lat="43.1611949" lon="13.8014297"><ele>2.333333333333333</ele><time>2026-05-03T07:48:04.02Z</time></trkpt><trkpt lat="43.1612645" lon="13.8015058"><ele>2.0</ele><time>2026-05-03T07:48:05.021Z</time></trkpt><trkpt lat="43.1613481" lon="13.8015474"><ele>1.9999999999999998</ele><time>2026-05-03T07:48:06.021Z</time></trkpt><trkpt lat="43.161431" lon="13.8015449"><ele>2.0</ele><time>2026-05-03T07:48:07.021Z</time></trkpt><trkpt lat="43.1615095" lon="13.8015095"><ele>2.0</ele><time>2026-05-03T07:48:08.019Z</time></trkpt><trkpt lat="43.1615777" lon="13.801446"><ele>2.0</ele><time>2026-05-03T07:48:09.021Z</time></trkpt><trkpt lat="43.1616292" lon="13.8013597"><ele>1.9999999999999998</ele><time>2026-05-03T07:48:10.021Z</time></trkpt><trkpt lat="43.1616525" lon="13.8012573"><ele>2.0</ele><time>2026-05-03T07:48:11.021Z</time></trkpt><trkpt lat="43.1616524" lon="13.8011441"><ele>1.8</ele><time>2026-05-03T07:48:12.021Z</time></trkpt><trkpt lat="43.1616257" lon="13.8010244"><ele>1.6</ele><time>2026-05-03T07:48:13.021Z</time></trkpt><trkpt lat="43.1615827" lon="13.8009087"><ele>1.4000000000000001</ele><time>2026-05-03T07:48:14.02Z</time></trkpt><trkpt lat="43.1615417" lon="13.8007914"><ele>1.2000000000000002</ele><time>2026-05-03T07:48:15.021Z</time></trkpt><trkpt lat="43.1615138" lon="13.8006744"><ele>1.0</ele><time>2026-05-03T07:48:16.021Z</time></trkpt><trkpt lat="43.1614942" lon="13.8005506"><ele>1.5</ele><time>2026-05-03T07:48:17.021Z</time></trkpt><trkpt lat="43.1614732" lon="13.8004278"><ele>2.0</ele><time>2026-05-03T07:48:18.021Z</time></trkpt><trkpt lat="43.161444" lon="13.80031"><ele>2.5</ele><time>2026-05-03T07:48:19.02Z</time></trkpt><trkpt lat="43.1614077" lon="13.80021"><ele>3.0</ele><time>2026-05-03T07:48:20.02Z</time></trkpt><trkpt lat="43.1613715" lon="13.8001271"><ele>3.4999999999999996</ele><time>2026-05-03T07:48:21.02Z</time></trkpt><trkpt lat="43.1613032" lon="13.8000037"><ele>4.0</ele><time>2026-05-03T07:48:23.02Z</time></trkpt><trkpt lat="43.1612538" lon="13.7999105"><ele>4.0</ele><time>2026-05-03T07:48:25.021Z</time></trkpt><trkpt lat="43.1611906" lon="13.7997982"><ele>4.0</ele><time>2026-05-03T07:48:43.021Z</time></trkpt><trkpt lat="43.1611409" lon="13.7997089"><ele>4.0</ele><time>2026-05-03T07:48:44.021Z</time></trkpt><trkpt lat="43.1610939" lon="13.7995952"><ele>4.0</ele><time>2026-05-03T07:48:45.02Z</time></trkpt><trkpt lat="43.1610498" lon="13.7994446"><ele>4.0</ele><time>2026-05-03T07:48:46.02Z</time></trkpt><trkpt lat="43.1610225" lon="13.799271"><ele>3.75</ele><time>2026-05-03T07:48:47.02Z</time></trkpt><trkpt lat="43.161013" lon="13.7990776"><ele>3.5</ele><time>2026-05-03T07:48:48.021Z</time></trkpt><trkpt lat="43.1610227" lon="13.7988896"><ele>3.25</ele><time>2026-05-03T07:48:49.021Z</time></trkpt><trkpt lat="43.1610778" lon="13.798699"><ele>3.0</ele><time>2026-05-03T07:48:50.021Z</time></trkpt><trkpt lat="43.161157" lon="13.7985203"><ele>3.333333333333333</ele><time>2026-05-03T07:48:51.021Z</time></trkpt><trkpt lat="43.1612599" lon="13.7983575"><ele>3.6666666666666665</ele><time>2026-05-03T07:48:52.021Z</time></trkpt><trkpt lat="43.1613795" lon="13.7982066"><ele>4.0</ele><time>2026-05-03T07:48:53.02Z</time></trkpt><trkpt lat="43.1615135" lon="13.798068"><ele>4.333333333333333</ele><time>2026-05-03T07:48:54.021Z</time></trkpt><trkpt lat="43.1616593" lon="13.7979451"><ele>4.666666666666667</ele><time>2026-05-03T07:48:55.021Z</time></trkpt><trkpt lat="43.1618152" lon="13.7978381"><ele>5.0</ele><time>2026-05-03T07:48:56.02Z</time></trkpt><trkpt lat="43.161983" lon="13.7977487"><ele>5.0</ele><time>2026-05-03T07:48:57.021Z</time></trkpt><trkpt lat="43.162152" lon="13.7976638"><ele>5.0</ele><time>2026-05-03T07:48:58.021Z</time></trkpt><trkpt lat="43.1623302" lon="13.7975766"><ele>5.0</ele><time>2026-05-03T07:48:59.02Z</time></trkpt><trkpt lat="43.1625122" lon="13.797488"><ele>5.0</ele><time>2026-05-03T07:49:00.021Z</time></trkpt><trkpt lat="43.1626973" lon="13.7974011"><ele>5.0</ele><time>2026-05-03T07:49:01.02Z</time></trkpt><trkpt lat="43.1628865" lon="13.7973067"><ele>5.0</ele><time>2026-05-03T07:49:02.021Z</time></trkpt><trkpt lat="43.1630769" lon="13.7972042"><ele>5.333333333333334</ele><time>2026-05-03T07:49:03.021Z</time></trkpt><trkpt lat="43.1632709" lon="13.7970869"><ele>5.666666666666667</ele><time>2026-05-03T07:49:04.02Z</time></trkpt><trkpt lat="43.1634667" lon="13.7969569"><ele>6.0</ele><time>2026-05-03T07:49:05.02Z</time></trkpt><trkpt lat="43.1636681" lon="13.7968141"><ele>7.5</ele><time>2026-05-03T07:49:06.02Z</time></trkpt><trkpt lat="43.1638762" lon="13.796666"><ele>9.0</ele><time>2026-05-03T07:49:07.02Z</time></trkpt><trkpt lat="43.1640822" lon="13.7965033"><ele>11.5</ele><time>2026-05-03T07:49:08.02Z</time></trkpt><trkpt lat="43.1642874" lon="13.7963284"><ele>14.0</ele><time>2026-05-03T07:49:09.019Z</time></trkpt><trkpt lat="43.1644901" lon="13.7961352"><ele>13.5</ele><time>2026-05-03T07:49:10.02Z</time></trkpt><trkpt lat="43.1646859" lon="13.7959253"><ele>13.0</ele><time>2026-05-03T07:49:11.019Z</time></trkpt><trkpt lat="43.1648773" lon="13.7956998"><ele>16.0</ele><time>2026-05-03T07:49:12.021Z</time></trkpt><trkpt lat="43.1650642" lon="13.7954547"><ele>19.0</ele><time>2026-05-03T07:49:13.021Z</time></trkpt><trkpt lat="43.1652417" lon="13.795201"><ele>18.0</ele><time>2026-05-03T07:49:14.021Z</time></trkpt><trkpt lat="43.1654076" lon="13.7949338"><ele>17.0</ele><time>2026-05-03T07:49:15.02Z</time></trkpt><trkpt lat="43.1655677" lon="13.7946452"><ele>21.0</ele><time>2026-05-03T07:49:16.02Z</time></trkpt><trkpt lat="43.1657181" lon="13.7943449"><ele>25.0</ele><time>2026-05-03T07:49:17.021Z</time></trkpt><trkpt lat="43.1658626" lon="13.7940334"><ele>25.5</ele><time>2026-05-03T07:49:18.02Z</time></trkpt><trkpt lat="43.1660045" lon="13.793715"><ele>26.0</ele><time>2026-05-03T07:49:19.021Z</time></trkpt><trkpt lat="43.1661461" lon="13.7933929"><ele>28.0</ele><time>2026-05-03T07:49:20.021Z</time></trkpt><trkpt lat="43.1662824" lon="13.7930696"><ele>30.0</ele><time>2026-05-03T07:49:21.02Z</time></trkpt><trkpt lat="43.1664303" lon="13.7927426"><ele>33.5</ele><time>2026-05-03T07:49:22.02Z</time></trkpt><trkpt lat="43.1665789" lon="13.7924162"><ele>37.0</ele><time>2026-05-03T07:49:23.02Z</time></trkpt><trkpt lat="43.1667301" lon="13.7920924"><ele>35.0</ele><time>2026-05-03T07:49:24.02Z</time></trkpt><trkpt lat="43.1668925" lon="13.7917752"><ele>33.0</ele><time>2026-05-03T07:49:25.021Z</time></trkpt><trkpt lat="43.1670659" lon="13.791463"><ele>33.0</ele><time>2026-05-03T07:49:26.021Z</time></trkpt><trkpt lat="43.1672503" lon="13.791168"><ele>33.0</ele><time>2026-05-03T07:49:27.02Z</time></trkpt><trkpt lat="43.1674504" lon="13.7908899"><ele>34.5</ele><time>2026-05-03T07:49:28.021Z</time></trkpt><trkpt lat="43.1676634" lon="13.7906272"><ele>36.0</ele><time>2026-05-03T07:49:29.021Z</time></trkpt><trkpt lat="43.1678886" lon="13.7903828"><ele>38.0</ele><time>2026-05-03T07:49:30.02Z</time></trkpt><trkpt lat="43.1681236" lon="13.7901567"><ele>40.0</ele><time>2026-05-03T07:49:31.021Z</time></trkpt><trkpt lat="43.1683706" lon="13.7899527"><ele>40.5</ele><time>2026-05-03T07:49:32.02Z</time></trkpt><trkpt lat="43.1686265" lon="13.789775"><ele>41.0</ele><time>2026-05-03T07:49:33.021Z</time></trkpt><trkpt lat="43.1688913" lon="13.7896162"><ele>45.0</ele><time>2026-05-03T07:49:34.021Z</time></trkpt><trkpt lat="43.1691632" lon="13.7894861"><ele>49.0</ele><time>2026-05-03T07:49:35.021Z</time></trkpt><trkpt lat="43.169442" lon="13.7893869"><ele>50.0</ele><time>2026-05-03T07:49:36.021Z</time></trkpt><trkpt lat="43.1697266" lon="13.7892923"><ele>51.0</ele><time>2026-05-03T07:49:37.021Z</time></trkpt><trkpt lat="43.1700092" lon="13.7891955"><ele>51.0</ele><time>2026-05-03T07:49:38.02Z</time></trkpt><trkpt lat="43.1702996" lon="13.7890825"><ele>51.0</ele><time>2026-05-03T07:49:39.021Z</time></trkpt><trkpt lat="43.1779814" lon="13.78895"><ele>41.5</ele><time>2026-05-03T07:50:07.02Z</time></trkpt><trkpt lat="43.1782984" lon="13.7889537"><ele>32.0</ele><time>2026-05-03T07:50:08.02Z</time></trkpt><trkpt lat="43.1786038" lon="13.7889566"><ele>32.0</ele><time>2026-05-03T07:50:09.019Z</time></trkpt><trkpt lat="43.1788996" lon="13.7889447"><ele>32.0</ele><time>2026-05-03T07:50:10.019Z</time></trkpt><trkpt lat="43.1791927" lon="13.7889404"><ele>24.5</ele><time>2026-05-03T07:50:11.019Z</time></trkpt><trkpt lat="43.179486" lon="13.7889304"><ele>17.0</ele><time>2026-05-03T07:50:12.019Z</time></trkpt><trkpt lat="43.1797802" lon="13.7889239"><ele>19.5</ele><time>2026-05-03T07:50:13.019Z</time></trkpt><trkpt lat="43.1800743" lon="13.7889173"><ele>22.0</ele><time>2026-05-03T07:50:14.019Z</time></trkpt><trkpt lat="43.1803653" lon="13.788902"><ele>22.0</ele><time>2026-05-03T07:50:15.02Z</time></trkpt><trkpt lat="43.1806593" lon="13.7888796"><ele>22.0</ele><time>2026-05-03T07:50:16.02Z</time></trkpt><trkpt lat="43.1809539" lon="13.788848"><ele>26.5</ele><time>2026-05-03T07:50:17.02Z</time></trkpt><trkpt lat="43.1812503" lon="13.7888137"><ele>31.0</ele><time>2026-05-03T07:50:18.019Z</time></trkpt><trkpt lat="43.1815458" lon="13.7887714"><ele>34.5</ele><time>2026-05-03T07:50:19.019Z</time></trkpt><trkpt lat="43.1818433" lon="13.7887213"><ele>38.0</ele><time>2026-05-03T07:50:20.019Z</time></trkpt><trkpt lat="43.1821408" lon="13.7886625"><ele>39.5</ele><time>2026-05-03T07:50:21.019Z</time></trkpt><trkpt lat="43.1824376" lon="13.7885963"><ele>41.0</ele><time>2026-05-03T07:50:22.02Z</time></trkpt><trkpt lat="43.1827371" lon="13.7885279"><ele>43.5</ele><time>2026-05-03T07:50:23.02Z</time></trkpt><trkpt lat="43.1830389" lon="13.788455"><ele>46.0</ele><time>2026-05-03T07:50:24.02Z</time></trkpt><trkpt lat="43.1833404" lon="13.7883812"><ele>46.0</ele><time>2026-05-03T07:50:25.019Z</time></trkpt><trkpt lat="43.1836437" lon="13.7883083"><ele>46.0</ele><time>2026-05-03T07:50:26.019Z</time></trkpt><trkpt lat="43.1839477" lon="13.7882382"><ele>43.5</ele><time>2026-05-03T07:50:27.02Z</time></trkpt><trkpt lat="43.1842525" lon="13.7881729"><ele>41.0</ele><time>2026-05-03T07:50:28.02Z</time></trkpt><trkpt lat="43.1845607" lon="13.7881041"><ele>40.0</ele><time>2026-05-03T07:50:29.019Z</time></trkpt><trkpt lat="43.1848673" lon="13.7880334"><ele>39.0</ele><time>2026-05-03T07:50:30.019Z</time></trkpt><trkpt lat="43.1851747" lon="13.787959"><ele>39.0</ele><time>2026-05-03T07:50:31.019Z</time></trkpt><trkpt lat="43.1854823" lon="13.7878874"><ele>39.0</ele><time>2026-05-03T07:50:32.019Z</time></trkpt><trkpt lat="43.185791" lon="13.7878162"><ele>41.0</ele><time>2026-05-03T07:50:33.019Z</time></trkpt><trkpt lat="43.1860987" lon="13.7877416"><ele>43.0</ele><time>2026-05-03T07:50:34.02Z</time></trkpt><trkpt lat="43.1864056" lon="13.7876644"><ele>41.0</ele><time>2026-05-03T07:50:35.019Z</time></trkpt><trkpt lat="43.1867141" lon="13.7875883"><ele>39.0</ele><time>2026-05-03T07:50:36.02Z</time></trkpt><trkpt lat="43.1870189" lon="13.7874942"><ele>39.0</ele><time>2026-05-03T07:50:37.02Z</time></trkpt><trkpt lat="43.1873195" lon="13.7873825"><ele>39.0</ele><time>2026-05-03T07:50:38.019Z</time></trkpt><trkpt lat="43.1876156" lon="13.7872535"><ele>38.0</ele><time>2026-05-03T07:50:39.02Z</time></trkpt><trkpt lat="43.1879066" lon="13.787111"><ele>37.0</ele><time>2026-05-03T07:50:40.019Z</time></trkpt><trkpt lat="43.1881921" lon="13.7869489"><ele>40.5</ele><time>2026-05-03T07:50:41.02Z</time></trkpt><trkpt lat="43.1884675" lon="13.7867666"><ele>44.0</ele><time>2026-05-03T07:50:42.02Z</time></trkpt><trkpt lat="43.1887392" lon="13.7865658"><ele>44.0</ele><time>2026-05-03T07:50:43.02Z</time></trkpt><trkpt lat="43.1890054" lon="13.7863546"><ele>44.0</ele><time>2026-05-03T07:50:44.019Z</time></trkpt><trkpt lat="43.1892737" lon="13.7861383"><ele>45.5</ele><time>2026-05-03T07:50:45.02Z</time></trkpt><trkpt lat="43.189545" lon="13.7859227"><ele>47.0</ele><time>2026-05-03T07:50:46.018Z</time></trkpt><trkpt lat="43.1898178" lon="13.7857088"><ele>46.0</ele><time>2026-05-03T07:50:47.02Z</time></trkpt><trkpt lat="43.1900905" lon="13.7854944"><ele>45.0</ele><time>2026-05-03T07:50:48.02Z</time></trkpt><trkpt lat="43.1903646" lon="13.7852787"><ele>45.5</ele><time>2026-05-03T07:50:49.02Z</time></trkpt><trkpt lat="43.1906393" lon="13.7850646"><ele>46.0</ele><time>2026-05-03T07:50:50.02Z</time></trkpt><trkpt lat="43.1909182" lon="13.7848544"><ele>46.0</ele><time>2026-05-03T07:50:51.02Z</time></trkpt><trkpt lat="43.1911979" lon="13.784647"><ele>46.0</ele><time>2026-05-03T07:50:52.02Z</time></trkpt><trkpt lat="43.1914775" lon="13.7844383"><ele>41.5</ele><time>2026-05-03T07:50:53.02Z</time></trkpt><trkpt lat="43.1917591" lon="13.7842287"><ele>37.0</ele><time>2026-05-03T07:50:54.019Z</time></trkpt><trkpt lat="43.1920391" lon="13.7840214"><ele>37.0</ele><time>2026-05-03T07:50:55.02Z</time></trkpt><trkpt lat="43.1923229" lon="13.7838122"><ele>37.0</ele><time>2026-05-03T07:50:56.02Z</time></trkpt><trkpt lat="43.1926042" lon="13.7836061"><ele>31.5</ele><time>2026-05-03T07:50:57.019Z</time></trkpt><trkpt lat="43.1928862" lon="13.7834019"><ele>26.0</ele><time>2026-05-03T07:50:58.02Z</time></trkpt><trkpt lat="43.1931685" lon="13.7831984"><ele>25.5</ele><time>2026-05-03T07:50:59.019Z</time></trkpt><trkpt lat="43.1934456" lon="13.7829927"><ele>25.0</ele><time>2026-05-03T07:51:00.02Z</time></trkpt><trkpt lat="43.193723" lon="13.7827888"><ele>24.5</ele><time>2026-05-03T07:51:01.02Z</time></trkpt><trkpt lat="43.1939999" lon="13.7825886"><ele>24.0</ele><time>2026-05-03T07:51:02.019Z</time></trkpt><trkpt lat="43.1942718" lon="13.7823891"><ele>23.5</ele><time>2026-05-03T07:51:03.02Z</time></trkpt><trkpt lat="43.194544" lon="13.7821912"><ele>23.0</ele><time>2026-05-03T07:51:04.019Z</time></trkpt><trkpt lat="43.1948098" lon="13.7819933"><ele>20.5</ele><time>2026-05-03T07:51:05.02Z</time></trkpt><trkpt lat="43.1950754" lon="13.7818008"><ele>18.0</ele><time>2026-05-03T07:51:06.019Z</time></trkpt><trkpt lat="43.195335" lon="13.7816082"><ele>18.0</ele><time>2026-05-03T07:51:07.02Z</time></trkpt><trkpt lat="43.1955941" lon="13.781418"><ele>18.0</ele><time>2026-05-03T07:51:08.02Z</time></trkpt><trkpt lat="43.1958524" lon="13.7812256"><ele>17.5</ele><time>2026-05-03T07:51:09.02Z</time></trkpt><trkpt lat="43.1961113" lon="13.7810332"><ele>17.0</ele><time>2026-05-03T07:51:10.019Z</time></trkpt><trkpt lat="43.1963671" lon="13.7808419"><ele>20.5</ele><time>2026-05-03T07:51:11.02Z</time></trkpt><trkpt lat="43.1966239" lon="13.7806543"><ele>24.0</ele><time>2026-05-03T07:51:12.02Z</time></trkpt><trkpt lat="43.1968817" lon="13.7804659"><ele>24.0</ele><time>2026-05-03T07:51:13.019Z</time></trkpt><trkpt lat="43.1971399" lon="13.7802789"><ele>24.0</ele><time>2026-05-03T07:51:14.02Z</time></trkpt><trkpt lat="43.1973992" lon="13.7800919"><ele>31.0</ele><time>2026-05-03T07:51:15.019Z</time></trkpt><trkpt lat="43.1976621" lon="13.7799034"><ele>38.0</ele><time>2026-05-03T07:51:16.02Z</time></trkpt><trkpt lat="43.1979277" lon="13.779718"><ele>39.0</ele><time>2026-05-03T07:51:17.02Z</time></trkpt><trkpt lat="43.1982013" lon="13.7795443"><ele>40.0</ele><time>2026-05-03T07:51:18.02Z</time></trkpt><trkpt lat="43.1984807" lon="13.7793861"><ele>42.5</ele><time>2026-05-03T07:51:19.019Z</time></trkpt><trkpt lat="43.1987613" lon="13.7792472"><ele>45.0</ele><time>2026-05-03T07:51:20.02Z</time></trkpt><trkpt lat="43.1990442" lon="13.7791237"><ele>45.0</ele><time>2026-05-03T07:51:21.02Z</time></trkpt><trkpt lat="43.199324" lon="13.7790147"><ele>45.0</ele><time>2026-05-03T07:51:22.02Z</time></trkpt><trkpt lat="43.1996023" lon="13.7789203"><ele>45.5</ele><time>2026-05-03T07:51:23.02Z</time></trkpt><trkpt lat="43.1998777" lon="13.7788329"><ele>46.0</ele><time>2026-05-03T07:51:24.02Z</time></trkpt><trkpt lat="43.2001541" lon="13.7787499"><ele>46.0</ele><time>2026-05-03T07:51:25.02Z</time></trkpt><trkpt lat="43.2004348" lon="13.7786881"><ele>46.0</ele><time>2026-05-03T07:51:26.02Z</time></trkpt><trkpt lat="43.2007202" lon="13.7786399"><ele>44.5</ele><time>2026-05-03T07:51:27.019Z</time></trkpt><trkpt lat="43.2010101" lon="13.7785925"><ele>43.0</ele><time>2026-05-03T07:51:28.02Z</time></trkpt><trkpt lat="43.2013039" lon="13.7785422"><ele>47.5</ele><time>2026-05-03T07:51:29.02Z</time></trkpt><trkpt lat="43.2016014" lon="13.7784973"><ele>52.0</ele><time>2026-05-03T07:51:30.019Z</time></trkpt><trkpt lat="43.2018982" lon="13.7784544"><ele>52.0</ele><time>2026-05-03T07:51:31.019Z</time></trkpt><trkpt lat="43.202199" lon="13.7784111"><ele>52.0</ele><time>2026-05-03T07:51:32.02Z</time></trkpt><trkpt lat="43.202498" lon="13.7783622"><ele>51.5</ele><time>2026-05-03T07:51:33.02Z</time></trkpt><trkpt lat="43.2027997" lon="13.7783131"><ele>51.0</ele><time>2026-05-03T07:51:34.018Z</time></trkpt><trkpt lat="43.2031018" lon="13.7782617"><ele>51.5</ele><time>2026-05-03T07:51:35.02Z</time></trkpt><trkpt lat="43.2034025" lon="13.7782109"><ele>52.0</ele><time>2026-05-03T07:51:36.02Z</time></trkpt><trkpt lat="43.2037085" lon="13.7781652"><ele>50.0</ele><time>2026-05-03T07:51:37.02Z</time></trkpt><trkpt lat="43.2040155" lon="13.7781194"><ele>48.0</ele><time>2026-05-03T07:51:38.019Z</time></trkpt><trkpt lat="43.2043213" lon="13.7780749"><ele>48.0</ele><time>2026-05-03T07:51:39.02Z</time></trkpt><trkpt lat="43.2046283" lon="13.7780304"><ele>48.0</ele><time>2026-05-03T07:51:40.02Z</time></trkpt><trkpt lat="43.204936" lon="13.7779845"><ele>48.0</ele><time>2026-05-03T07:51:41.019Z</time></trkpt><trkpt lat="43.2052418" lon="13.777943"><ele>48.0</ele><time>2026-05-03T07:51:42.02Z</time></trkpt><trkpt lat="43.2055487" lon="13.7779026"><ele>44.5</ele><time>2026-05-03T07:51:43.02Z</time></trkpt><trkpt lat="43.2058559" lon="13.7778531"><ele>41.0</ele><time>2026-05-03T07:51:44.02Z</time></trkpt><trkpt lat="43.2061634" lon="13.7778023"><ele>41.0</ele><time>2026-05-03T07:51:45.02Z</time></trkpt><trkpt lat="43.2064712" lon="13.7777466"><ele>41.0</ele><time>2026-05-03T07:51:46.02Z</time></trkpt><trkpt lat="43.2067784" lon="13.7776851"><ele>42.0</ele><time>2026-05-03T07:51:47.019Z</time></trkpt><trkpt lat="43.2070835" lon="13.7776197"><ele>43.0</ele><time>2026-05-03T07:51:48.019Z</time></trkpt><trkpt lat="43.2073881" lon="13.7775483"><ele>43.0</ele><time>2026-05-03T07:51:49.019Z</time></trkpt><trkpt lat="43.2076904" lon="13.7774725"><ele>43.0</ele><time>2026-05-03T07:51:50.019Z</time></trkpt><trkpt lat="43.2079921" lon="13.7773916"><ele>40.0</ele><time>2026-05-03T07:51:51.02Z</time></trkpt><trkpt lat="43.2082927" lon="13.7773078"><ele>37.0</ele><time>2026-05-03T07:51:52.02Z</time></trkpt><trkpt lat="43.2085912" lon="13.7772197"><ele>37.0</ele><time>2026-05-03T07:51:53.019Z</time></trkpt><trkpt lat="43.2088886" lon="13.7771293"><ele>37.0</ele><time>2026-05-03T07:51:54.019Z</time></trkpt><trkpt lat="43.2091849" lon="13.7770339"><ele>37.0</ele><time>2026-05-03T07:51:55.02Z</time></trkpt><trkpt lat="43.2094798" lon="13.7769378"><ele>37.0</ele><time>2026-05-03T07:51:56.02Z</time></trkpt><trkpt lat="43.2097675" lon="13.7768434"><ele>36.5</ele><time>2026-05-03T07:51:57.019Z</time></trkpt><trkpt lat="43.2100538" lon="13.7767557"><ele>36.0</ele><time>2026-05-03T07:51:58.02Z</time></trkpt><trkpt lat="43.2103374" lon="13.7766635"><ele>36.0</ele><time>2026-05-03T07:51:59.019Z</time></trkpt><trkpt lat="43.2106181" lon="13.77657"><ele>36.0</ele><time>2026-05-03T07:52:00.019Z</time></trkpt><trkpt lat="43.2108999" lon="13.7764756"><ele>34.0</ele><time>2026-05-03T07:52:01.019Z</time></trkpt><trkpt lat="43.2111839" lon="13.7763778"><ele>32.0</ele><time>2026-05-03T07:52:02.019Z</time></trkpt><trkpt lat="43.2114662" lon="13.7762791"><ele>29.0</ele><time>2026-05-03T07:52:03.02Z</time></trkpt><trkpt lat="43.2117464" lon="13.7761755"><ele>26.0</ele><time>2026-05-03T07:52:04.02Z</time></trkpt><trkpt lat="43.2120297" lon="13.7760723"><ele>34.5</ele><time>2026-05-03T07:52:05.02Z</time></trkpt><trkpt lat="43.2123124" lon="13.77598"><ele>43.0</ele><time>2026-05-03T07:52:06.02Z</time></trkpt><trkpt lat="43.2125937" lon="13.7758855"><ele>43.5</ele><time>2026-05-03T07:52:07.02Z</time></trkpt><trkpt lat="43.2128794" lon="13.775794"><ele>44.0</ele><time>2026-05-03T07:52:08.019Z</time></trkpt><trkpt lat="43.2131632" lon="13.7757005"><ele>41.5</ele><time>2026-05-03T07:52:09.02Z</time></trkpt><trkpt lat="43.2134491" lon="13.7756078"><ele>39.0</ele><time>2026-05-03T07:52:10.02Z</time></trkpt><trkpt lat="43.2137387" lon="13.7755205"><ele>35.5</ele><time>2026-05-03T07:52:11.02Z</time></trkpt><trkpt lat="43.2140271" lon="13.7754383"><ele>32.0</ele><time>2026-05-03T07:52:12.02Z</time></trkpt><trkpt lat="43.2143098" lon="13.7753535"><ele>32.0</ele><time>2026-05-03T07:52:13.02Z</time></trkpt><trkpt lat="43.2145953" lon="13.7752644"><ele>32.0</ele><time>2026-05-03T07:52:14.018Z</time></trkpt><trkpt lat="43.2148769" lon="13.7751695"><ele>31.0</ele><time>2026-05-03T07:52:15.019Z</time></trkpt><trkpt lat="43.2151581" lon="13.77508"><ele>30.0</ele><time>2026-05-03T07:52:16.019Z</time></trkpt><trkpt lat="43.2154388" lon="13.7749914"><ele>26.0</ele><time>2026-05-03T07:52:17.019Z</time></trkpt><trkpt lat="43.2157218" lon="13.7748965"><ele>22.0</ele><time>2026-05-03T07:52:18.02Z</time></trkpt><trkpt lat="43.2160058" lon="13.7747995"><ele>22.0</ele><time>2026-05-03T07:52:19.018Z</time></trkpt><trkpt lat="43.2162893" lon="13.7747039"><ele>22.0</ele><time>2026-05-03T07:52:20.019Z</time></trkpt><trkpt lat="43.2165691" lon="13.7746094"><ele>19.5</ele><time>2026-05-03T07:52:21.02Z</time></trkpt><trkpt lat="43.2168511" lon="13.7745144"><ele>17.0</ele><time>2026-05-03T07:52:22.02Z</time></trkpt><trkpt lat="43.2171368" lon="13.774423"><ele>16.5</ele><time>2026-05-03T07:52:23.02Z</time></trkpt><trkpt lat="43.217422" lon="13.774329"><ele>16.0</ele><time>2026-05-03T07:52:24.019Z</time></trkpt><trkpt lat="43.2177073" lon="13.7742376"><ele>16.0</ele><time>2026-05-03T07:52:25.02Z</time></trkpt><trkpt lat="43.2179915" lon="13.7741432"><ele>16.0</ele><time>2026-05-03T07:52:26.02Z</time></trkpt><trkpt lat="43.2182769" lon="13.7740508"><ele>15.0</ele><time>2026-05-03T07:52:27.02Z</time></trkpt><trkpt lat="43.218563" lon="13.7739607"><ele>14.0</ele><time>2026-05-03T07:52:28.02Z</time></trkpt><trkpt lat="43.2188448" lon="13.7738638"><ele>12.0</ele><time>2026-05-03T07:52:29.02Z</time></trkpt><trkpt lat="43.2191258" lon="13.7737647"><ele>10.0</ele><time>2026-05-03T07:52:30.019Z</time></trkpt><trkpt lat="43.2194084" lon="13.7736645"><ele>10.0</ele><time>2026-05-03T07:52:31.019Z</time></trkpt><trkpt lat="43.2196869" lon="13.773555"><ele>10.0</ele><time>2026-05-03T07:52:32.02Z</time></trkpt><trkpt lat="43.2199631" lon="13.7734297"><ele>11.0</ele><time>2026-05-03T07:52:33.02Z</time></trkpt><trkpt lat="43.2202356" lon="13.7732913"><ele>12.0</ele><time>2026-05-03T07:52:34.02Z</time></trkpt><trkpt lat="43.2204989" lon="13.7731367"><ele>11.0</ele><time>2026-05-03T07:52:35.019Z</time></trkpt><trkpt lat="43.2207626" lon="13.7729702"><ele>10.0</ele><time>2026-05-03T07:52:36.02Z</time></trkpt><trkpt lat="43.2210165" lon="13.7727817"><ele>10.0</ele><time>2026-05-03T07:52:37.02Z</time></trkpt><trkpt lat="43.2212635" lon="13.7725813"><ele>10.0</ele><time>2026-05-03T07:52:38.019Z</time></trkpt><trkpt lat="43.2215077" lon="13.7723705"><ele>10.0</ele><time>2026-05-03T07:52:39.019Z</time></trkpt><trkpt lat="43.2217451" lon="13.772146"><ele>10.0</ele><time>2026-05-03T07:52:40.018Z</time></trkpt><trkpt lat="43.2219754" lon="13.7719112"><ele>10.0</ele><time>2026-05-03T07:52:41.02Z</time></trkpt><trkpt lat="43.2221987" lon="13.7716668"><ele>10.0</ele><time>2026-05-03T07:52:42.019Z</time></trkpt><trkpt lat="43.2224219" lon="13.7714119"><ele>10.0</ele><time>2026-05-03T07:52:43.019Z</time></trkpt><trkpt lat="43.222643" lon="13.7711648"><ele>10.0</ele><time>2026-05-03T07:52:44.02Z</time></trkpt><trkpt lat="43.2228673" lon="13.7709193"><ele>10.5</ele><time>2026-05-03T07:52:45.02Z</time></trkpt><trkpt lat="43.2230902" lon="13.7706674"><ele>11.0</ele><time>2026-05-03T07:52:46.02Z</time></trkpt><trkpt lat="43.2233108" lon="13.7704196"><ele>10.5</ele><time>2026-05-03T07:52:47.019Z</time></trkpt><trkpt lat="43.2235351" lon="13.7701703"><ele>10.0</ele><time>2026-05-03T07:52:48.019Z</time></trkpt><trkpt lat="43.2237576" lon="13.7699267"><ele>10.0</ele><time>2026-05-03T07:52:49.02Z</time></trkpt><trkpt lat="43.2239788" lon="13.7696766"><ele>10.0</ele><time>2026-05-03T07:52:50.019Z</time></trkpt><trkpt lat="43.2242017" lon="13.7694214"><ele>10.5</ele><time>2026-05-03T07:52:51.019Z</time></trkpt><trkpt lat="43.2244222" lon="13.7691698"><ele>11.0</ele><time>2026-05-03T07:52:52.019Z</time></trkpt><trkpt lat="43.2246462" lon="13.7689194"><ele>9.5</ele><time>2026-05-03T07:52:53.02Z</time></trkpt><trkpt lat="43.2248689" lon="13.768672"><ele>8.0</ele><time>2026-05-03T07:52:54.02Z</time></trkpt><trkpt lat="43.2250873" lon="13.768429"><ele>7.5</ele><time>2026-05-03T07:52:55.019Z</time></trkpt><trkpt lat="43.2253054" lon="13.7681874"><ele>7.0</ele><time>2026-05-03T07:52:56.019Z</time></trkpt><trkpt lat="43.2255217" lon="13.7679457"><ele>6.5</ele><time>2026-05-03T07:52:57.018Z</time></trkpt><trkpt lat="43.2257385" lon="13.7677039"><ele>6.0</ele><time>2026-05-03T07:52:58.019Z</time></trkpt><trkpt lat="43.2259554" lon="13.7674589"><ele>6.0</ele><time>2026-05-03T07:52:59.019Z</time></trkpt><trkpt lat="43.2261685" lon="13.7672161"><ele>6.0</ele><time>2026-05-03T07:53:00.019Z</time></trkpt><trkpt lat="43.2263805" lon="13.7669773"><ele>6.5</ele><time>2026-05-03T07:53:01.019Z</time></trkpt><trkpt lat="43.2265939" lon="13.7667347"><ele>7.0</ele><time>2026-05-03T07:53:02.02Z</time></trkpt><trkpt lat="43.2268092" lon="13.7664965"><ele>7.0</ele><time>2026-05-03T07:53:03.02Z</time></trkpt><trkpt lat="43.2270256" lon="13.7662554"><ele>7.0</ele><time>2026-05-03T07:53:04.02Z</time></trkpt><trkpt lat="43.2272412" lon="13.7660152"><ele>6.0</ele><time>2026-05-03T07:53:05.02Z</time></trkpt><trkpt lat="43.2274554" lon="13.765773"><ele>5.0</ele><time>2026-05-03T07:53:06.019Z</time></trkpt><trkpt lat="43.2276711" lon="13.7655277"><ele>5.0</ele><time>2026-05-03T07:53:07.019Z</time></trkpt><trkpt lat="43.2278836" lon="13.7652866"><ele>5.0</ele><time>2026-05-03T07:53:08.019Z</time></trkpt><trkpt lat="43.2280955" lon="13.7650414"><ele>5.5</ele><time>2026-05-03T07:53:09.019Z</time></trkpt><trkpt lat="43.2283107" lon="13.764796"><ele>6.0</ele><time>2026-05-03T07:53:10.018Z</time></trkpt><trkpt lat="43.228524" lon="13.7645527"><ele>6.0</ele><time>2026-05-03T07:53:11.019Z</time></trkpt><trkpt lat="43.22874" lon="13.7643104"><ele>6.0</ele><time>2026-05-03T07:53:12.02Z</time></trkpt><trkpt lat="43.2289544" lon="13.7640682"><ele>6.5</ele><time>2026-05-03T07:53:13.02Z</time></trkpt><trkpt lat="43.2291692" lon="13.7638254"><ele>7.0</ele><time>2026-05-03T07:53:14.02Z</time></trkpt><trkpt lat="43.2293868" lon="13.7635723"><ele>7.0</ele><time>2026-05-03T07:53:15.019Z</time></trkpt><trkpt lat="43.2296062" lon="13.7633114"><ele>7.0</ele><time>2026-05-03T07:53:16.02Z</time></trkpt><trkpt lat="43.2298276" lon="13.7630564"><ele>7.5</ele><time>2026-05-03T07:53:17.02Z</time></trkpt><trkpt lat="43.2300502" lon="13.7628033"><ele>8.0</ele><time>2026-05-03T07:53:18.02Z</time></trkpt><trkpt lat="43.2302713" lon="13.7625502"><ele>9.0</ele><time>2026-05-03T07:53:19.02Z</time></trkpt><trkpt lat="43.230493" lon="13.7623008"><ele>10.0</ele><time>2026-05-03T07:53:20.019Z</time></trkpt><trkpt lat="43.2307148" lon="13.7620494"><ele>9.5</ele><time>2026-05-03T07:53:21.02Z</time></trkpt><trkpt lat="43.2309387" lon="13.7618003"><ele>9.0</ele><time>2026-05-03T07:53:22.02Z</time></trkpt><trkpt lat="43.2311627" lon="13.7615514"><ele>9.0</ele><time>2026-05-03T07:53:23.019Z</time></trkpt><trkpt lat="43.2313876" lon="13.7613031"><ele>9.0</ele><time>2026-05-03T07:53:24.02Z</time></trkpt><trkpt lat="43.2316138" lon="13.7610538"><ele>8.5</ele><time>2026-05-03T07:53:25.02Z</time></trkpt><trkpt lat="43.2318379" lon="13.7608055"><ele>8.0</ele><time>2026-05-03T07:53:26.02Z</time></trkpt><trkpt lat="43.2320679" lon="13.7605585"><ele>8.0</ele><time>2026-05-03T07:53:27.02Z</time></trkpt><trkpt lat="43.2322974" lon="13.7603169"><ele>8.0</ele><time>2026-05-03T07:53:28.019Z</time></trkpt><trkpt lat="43.2325244" lon="13.7600686"><ele>8.0</ele><time>2026-05-03T07:53:29.019Z</time></trkpt><trkpt lat="43.2327481" lon="13.7598221"><ele>8.0</ele><time>2026-05-03T07:53:30.019Z</time></trkpt><trkpt lat="43.2329689" lon="13.7595746"><ele>7.5</ele><time>2026-05-03T07:53:31.019Z</time></trkpt><trkpt lat="43.2331876" lon="13.7593286"><ele>7.0</ele><time>2026-05-03T07:53:32.019Z</time></trkpt><trkpt lat="43.2334057" lon="13.7590847"><ele>7.0</ele><time>2026-05-03T07:53:33.02Z</time></trkpt><trkpt lat="43.2336232" lon="13.7588411"><ele>7.0</ele><time>2026-05-03T07:53:34.019Z</time></trkpt><trkpt lat="43.2338393" lon="13.7585985"><ele>7.5</ele><time>2026-05-03T07:53:35.02Z</time></trkpt><trkpt lat="43.2340544" lon="13.7583567"><ele>8.0</ele><time>2026-05-03T07:53:36.02Z</time></trkpt><trkpt lat="43.2342712" lon="13.7581134"><ele>8.0</ele><time>2026-05-03T07:53:37.02Z</time></trkpt><trkpt lat="43.2344874" lon="13.7578708"><ele>8.0</ele><time>2026-05-03T07:53:38.02Z</time></trkpt><trkpt lat="43.2347048" lon="13.7576305"><ele>10.0</ele><time>2026-05-03T07:53:39.02Z</time></trkpt><trkpt lat="43.2349242" lon="13.7573893"><ele>12.0</ele><time>2026-05-03T07:53:40.02Z</time></trkpt><trkpt lat="43.2351429" lon="13.7571445"><ele>12.0</ele><time>2026-05-03T07:53:41.02Z</time></trkpt><trkpt lat="43.2353644" lon="13.7568976"><ele>12.0</ele><time>2026-05-03T07:53:42.02Z</time></trkpt><trkpt lat="43.2355847" lon="13.7566538"><ele>13.0</ele><time>2026-05-03T07:53:43.018Z</time></trkpt><trkpt lat="43.2358082" lon="13.7564132"><ele>14.0</ele><time>2026-05-03T07:53:44.02Z</time></trkpt><trkpt lat="43.2360325" lon="13.7561728"><ele>15.5</ele><time>2026-05-03T07:53:45.019Z</time></trkpt><trkpt lat="43.2362631" lon="13.7559412"><ele>17.0</ele><time>2026-05-03T07:53:46.02Z</time></trkpt><trkpt lat="43.2364997" lon="13.755723"><ele>18.0</ele><time>2026-05-03T07:53:47.019Z</time></trkpt><trkpt lat="43.2367408" lon="13.7555132"><ele>19.0</ele><time>2026-05-03T07:53:48.019Z</time></trkpt><trkpt lat="43.2369948" lon="13.7553008"><ele>19.0</ele><time>2026-05-03T07:53:49.019Z</time></trkpt><trkpt lat="43.2372459" lon="13.7551086"><ele>19.0</ele><time>2026-05-03T07:53:50.02Z</time></trkpt><trkpt lat="43.2374986" lon="13.754923"><ele>19.0</ele><time>2026-05-03T07:53:51.019Z</time></trkpt><trkpt lat="43.2377535" lon="13.7547371"><ele>19.0</ele><time>2026-05-03T07:53:52.02Z</time></trkpt><trkpt lat="43.2380098" lon="13.7545556"><ele>19.5</ele><time>2026-05-03T07:53:53.019Z</time></trkpt><trkpt lat="43.238269" lon="13.7543869"><ele>20.0</ele><time>2026-05-03T07:53:54.02Z</time></trkpt><trkpt lat="43.2385347" lon="13.7542243"><ele>20.0</ele><time>2026-05-03T07:53:55.019Z</time></trkpt><trkpt lat="43.2388026" lon="13.7540652"><ele>20.0</ele><time>2026-05-03T07:53:56.019Z</time></trkpt><trkpt lat="43.2390709" lon="13.7539039"><ele>20.5</ele><time>2026-05-03T07:53:57.019Z</time></trkpt><trkpt lat="43.239339" lon="13.7537432"><ele>21.0</ele><time>2026-05-03T07:53:58.019Z</time></trkpt><trkpt lat="43.2396093" lon="13.7535818"><ele>22.5</ele><time>2026-05-03T07:53:59.019Z</time></trkpt><trkpt lat="43.2398814" lon="13.7534189"><ele>24.0</ele><time>2026-05-03T07:54:00.02Z</time></trkpt><trkpt lat="43.2401523" lon="13.7532493"><ele>24.0</ele><time>2026-05-03T07:54:01.02Z</time></trkpt><trkpt lat="43.2404212" lon="13.7530799"><ele>24.0</ele><time>2026-05-03T07:54:02.02Z</time></trkpt><trkpt lat="43.2406909" lon="13.7529134"><ele>23.5</ele><time>2026-05-03T07:54:03.02Z</time></trkpt><trkpt lat="43.2409611" lon="13.752749"><ele>23.0</ele><time>2026-05-03T07:54:04.019Z</time></trkpt><trkpt lat="43.2412334" lon="13.7525871"><ele>28.0</ele><time>2026-05-03T07:54:05.02Z</time></trkpt><trkpt lat="43.2415044" lon="13.7524258"><ele>33.0</ele><time>2026-05-03T07:54:06.019Z</time></trkpt><trkpt lat="43.2417795" lon="13.7522641"><ele>33.0</ele><time>2026-05-03T07:54:07.019Z</time></trkpt><trkpt lat="43.2420506" lon="13.7521046"><ele>33.0</ele><time>2026-05-03T07:54:08.019Z</time></trkpt><trkpt lat="43.242324" lon="13.7519361"><ele>34.0</ele><time>2026-05-03T07:54:09.019Z</time></trkpt><trkpt lat="43.2425973" lon="13.7517766"><ele>35.0</ele><time>2026-05-03T07:54:10.02Z</time></trkpt><trkpt lat="43.2428661" lon="13.7516165"><ele>34.0</ele><time>2026-05-03T07:54:11.02Z</time></trkpt><trkpt lat="43.2431349" lon="13.7514521"><ele>33.0</ele><time>2026-05-03T07:54:12.02Z</time></trkpt><trkpt lat="43.2434049" lon="13.7512876"><ele>33.0</ele><time>2026-05-03T07:54:13.02Z</time></trkpt><trkpt lat="43.2436756" lon="13.7511225"><ele>33.0</ele><time>2026-05-03T07:54:14.02Z</time></trkpt><trkpt lat="43.2439462" lon="13.7509584"><ele>33.5</ele><time>2026-05-03T07:54:15.02Z</time></trkpt><trkpt lat="43.2442183" lon="13.7507938"><ele>34.0</ele><time>2026-05-03T07:54:16.02Z</time></trkpt><trkpt lat="43.2444905" lon="13.7506314"><ele>34.0</ele><time>2026-05-03T07:54:17.019Z</time></trkpt><trkpt lat="43.2447645" lon="13.7504694"><ele>34.0</ele><time>2026-05-03T07:54:18.02Z</time></trkpt><trkpt lat="43.2450377" lon="13.7503092"><ele>36.0</ele><time>2026-05-03T07:54:19.02Z</time></trkpt><trkpt lat="43.2453069" lon="13.7501395"><ele>38.0</ele><time>2026-05-03T07:54:20.019Z</time></trkpt><trkpt lat="43.2455833" lon="13.7499616"><ele>40.5</ele><time>2026-05-03T07:54:21.02Z</time></trkpt><trkpt lat="43.2458662" lon="13.7497895"><ele>43.0</ele><time>2026-05-03T07:54:22.019Z</time></trkpt><trkpt lat="43.2461523" lon="13.749623"><ele>43.0</ele><time>2026-05-03T07:54:23.02Z</time></trkpt><trkpt lat="43.2464478" lon="13.7494757"><ele>43.0</ele><time>2026-05-03T07:54:24.019Z</time></trkpt><trkpt lat="43.2467475" lon="13.7493445"><ele>47.0</ele><time>2026-05-03T07:54:25.02Z</time></trkpt><trkpt lat="43.2470521" lon="13.7492297"><ele>51.0</ele><time>2026-05-03T07:54:26.019Z</time></trkpt><trkpt lat="43.2473597" lon="13.749131"><ele>51.5</ele><time>2026-05-03T07:54:27.019Z</time></trkpt><trkpt lat="43.2476708" lon="13.7490495"><ele>52.0</ele><time>2026-05-03T07:54:28.02Z</time></trkpt><trkpt lat="43.2479846" lon="13.7489832"><ele>51.5</ele><time>2026-05-03T07:54:29.019Z</time></trkpt><trkpt lat="43.2483002" lon="13.7489353"><ele>51.0</ele><time>2026-05-03T07:54:30.02Z</time></trkpt><trkpt lat="43.2486169" lon="13.7488998"><ele>51.0</ele><time>2026-05-03T07:54:31.02Z</time></trkpt><trkpt lat="43.2489332" lon="13.7488774"><ele>51.0</ele><time>2026-05-03T07:54:32.02Z</time></trkpt><trkpt lat="43.2492498" lon="13.7488708"><ele>51.0</ele><time>2026-05-03T07:54:33.019Z</time></trkpt><trkpt lat="43.2495655" lon="13.7488728"><ele>51.0</ele><time>2026-05-03T07:54:34.02Z</time></trkpt><trkpt lat="43.2498795" lon="13.7488867"><ele>51.0</ele><time>2026-05-03T07:54:35.019Z</time></trkpt><trkpt lat="43.2501931" lon="13.7489079"><ele>51.0</ele><time>2026-05-03T07:54:36.019Z</time></trkpt><trkpt lat="43.2505075" lon="13.74893"><ele>52.5</ele><time>2026-05-03T07:54:37.019Z</time></trkpt><trkpt lat="43.2508205" lon="13.7489547"><ele>54.0</ele><time>2026-05-03T07:54:38.02Z</time></trkpt><trkpt lat="43.2511336" lon="13.7489808"><ele>54.0</ele><time>2026-05-03T07:54:39.019Z</time></trkpt><trkpt lat="43.2514444" lon="13.7490057"><ele>54.0</ele><time>2026-05-03T07:54:40.019Z</time></trkpt><trkpt lat="43.2517567" lon="13.7490323"><ele>56.0</ele><time>2026-05-03T07:54:41.02Z</time></trkpt><trkpt lat="43.2520696" lon="13.7490642"><ele>58.0</ele><time>2026-05-03T07:54:42.02Z</time></trkpt><trkpt lat="43.2523768" lon="13.7490839"><ele>58.5</ele><time>2026-05-03T07:54:43.019Z</time></trkpt><trkpt lat="43.2526868" lon="13.7491105"><ele>59.0</ele><time>2026-05-03T07:54:44.02Z</time></trkpt><trkpt lat="43.2529975" lon="13.7491401"><ele>58.0</ele><time>2026-05-03T07:54:45.02Z</time></trkpt><trkpt lat="43.2533083" lon="13.7491653"><ele>57.0</ele><time>2026-05-03T07:54:46.02Z</time></trkpt><trkpt lat="43.2536193" lon="13.7491851"><ele>57.0</ele><time>2026-05-03T07:54:47.02Z</time></trkpt><trkpt lat="43.2539298" lon="13.7492038"><ele>57.0</ele><time>2026-05-03T07:54:48.019Z</time></trkpt><trkpt lat="43.2542394" lon="13.7492231"><ele>56.0</ele><time>2026-05-03T07:54:49.02Z</time></trkpt><trkpt lat="43.2545443" lon="13.7492479"><ele>55.0</ele><time>2026-05-03T07:54:50.019Z</time></trkpt><trkpt lat="43.254856" lon="13.7492676"><ele>48.0</ele><time>2026-05-03T07:54:51.02Z</time></trkpt><trkpt lat="43.255159" lon="13.7492967"><ele>41.0</ele><time>2026-05-03T07:54:52.02Z</time></trkpt><trkpt lat="43.2554671" lon="13.7493144"><ele>36.5</ele><time>2026-05-03T07:54:53.02Z</time></trkpt><trkpt lat="43.2557684" lon="13.7493279"><ele>32.0</ele><time>2026-05-03T07:54:54.02Z</time></trkpt><trkpt lat="43.2560748" lon="13.7493297"><ele>32.0</ele><time>2026-05-03T07:54:55.019Z</time></trkpt><trkpt lat="43.2563782" lon="13.7493239"><ele>32.0</ele><time>2026-05-03T07:54:56.019Z</time></trkpt><trkpt lat="43.2566864" lon="13.7493024"><ele>37.5</ele><time>2026-05-03T07:54:57.02Z</time></trkpt><trkpt lat="43.2569897" lon="13.7492647"><ele>43.0</ele><time>2026-05-03T07:54:58.02Z</time></trkpt><trkpt lat="43.2572906" lon="13.7492155"><ele>51.0</ele><time>2026-05-03T07:54:59.02Z</time></trkpt><trkpt lat="43.2575905" lon="13.7491534"><ele>59.0</ele><time>2026-05-03T07:55:00.018Z</time></trkpt><trkpt lat="43.257891" lon="13.7490827"><ele>66.0</ele><time>2026-05-03T07:55:01.02Z</time></trkpt><trkpt lat="43.2581865" lon="13.7489947"><ele>73.0</ele><time>2026-05-03T07:55:02.019Z</time></trkpt><trkpt lat="43.2584831" lon="13.748909"><ele>73.0</ele><time>2026-05-03T07:55:03.02Z</time></trkpt><trkpt lat="43.2587783" lon="13.7488214"><ele>73.0</ele><time>2026-05-03T07:55:04.019Z</time></trkpt><trkpt lat="43.2600424" lon="13.748549"><ele>71.5</ele><time>2026-05-03T07:55:08.019Z</time></trkpt><trkpt lat="43.2603509" lon="13.7485049"><ele>70.0</ele><time>2026-05-03T07:55:09.019Z</time></trkpt><trkpt lat="43.2606563" lon="13.7484717"><ele>69.5</ele><time>2026-05-03T07:55:10.019Z</time></trkpt><trkpt lat="43.2609709" lon="13.7484454"><ele>69.0</ele><time>2026-05-03T07:55:11.019Z</time></trkpt><trkpt lat="43.2612786" lon="13.7484465"><ele>66.5</ele><time>2026-05-03T07:55:12.02Z</time></trkpt><trkpt lat="43.2615931" lon="13.7484587"><ele>64.0</ele><time>2026-05-03T07:55:13.019Z</time></trkpt><trkpt lat="43.2619036" lon="13.7484793"><ele>64.0</ele><time>2026-05-03T07:55:14.02Z</time></trkpt><trkpt lat="43.2622118" lon="13.7485054"><ele>64.0</ele><time>2026-05-03T07:55:15.02Z</time></trkpt><trkpt lat="43.2625226" lon="13.748535"><ele>53.0</ele><time>2026-05-03T07:55:16.019Z</time></trkpt><trkpt lat="43.2628363" lon="13.7485635"><ele>42.0</ele><time>2026-05-03T07:55:17.02Z</time></trkpt><trkpt lat="43.263151" lon="13.7485919"><ele>39.5</ele><time>2026-05-03T07:55:18.02Z</time></trkpt><trkpt lat="43.2634628" lon="13.748618"><ele>37.0</ele><time>2026-05-03T07:55:19.02Z</time></trkpt><trkpt lat="43.2637723" lon="13.7486454"><ele>37.0</ele><time>2026-05-03T07:55:20.018Z</time></trkpt><trkpt lat="43.2640799" lon="13.7486687"><ele>37.0</ele><time>2026-05-03T07:55:21.019Z</time></trkpt><trkpt lat="43.2643871" lon="13.7486794"><ele>37.0</ele><time>2026-05-03T07:55:22.019Z</time></trkpt><trkpt lat="43.2646916" lon="13.7486759"><ele>37.0</ele><time>2026-05-03T07:55:23.02Z</time></trkpt><trkpt lat="43.2649939" lon="13.7486532"><ele>36.0</ele><time>2026-05-03T07:55:24.019Z</time></trkpt><trkpt lat="43.2652938" lon="13.7485999"><ele>35.0</ele><time>2026-05-03T07:55:25.019Z</time></trkpt><trkpt lat="43.2655901" lon="13.7485251"><ele>42.0</ele><time>2026-05-03T07:55:26.019Z</time></trkpt><trkpt lat="43.2658837" lon="13.748422"><ele>49.0</ele><time>2026-05-03T07:55:27.019Z</time></trkpt><trkpt lat="43.2661726" lon="13.7482976"><ele>48.0</ele><time>2026-05-03T07:55:28.02Z</time></trkpt><trkpt lat="43.2664562" lon="13.7481436"><ele>47.0</ele><time>2026-05-03T07:55:29.02Z</time></trkpt><trkpt lat="43.2667345" lon="13.7479683"><ele>47.0</ele><time>2026-05-03T07:55:30.018Z</time></trkpt><trkpt lat="43.2670072" lon="13.7477808"><ele>47.0</ele><time>2026-05-03T07:55:31.02Z</time></trkpt><trkpt lat="43.2672798" lon="13.7475844"><ele>46.0</ele><time>2026-05-03T07:55:32.02Z</time></trkpt><trkpt lat="43.2675495" lon="13.7473795"><ele>45.0</ele><time>2026-05-03T07:55:33.02Z</time></trkpt><trkpt lat="43.2678172" lon="13.7471761"><ele>45.0</ele><time>2026-05-03T07:55:34.019Z</time></trkpt><trkpt lat="43.268085" lon="13.7469745"><ele>45.0</ele><time>2026-05-03T07:55:35.02Z</time></trkpt><trkpt lat="43.2683519" lon="13.7467736"><ele>47.5</ele><time>2026-05-03T07:55:36.019Z</time></trkpt><trkpt lat="43.2686211" lon="13.7465718"><ele>50.0</ele><time>2026-05-03T07:55:37.019Z</time></trkpt><trkpt lat="43.2688872" lon="13.746372"><ele>48.5</ele><time>2026-05-03T07:55:38.02Z</time></trkpt><trkpt lat="43.2691514" lon="13.7461726"><ele>47.0</ele><time>2026-05-03T07:55:39.019Z</time></trkpt><trkpt lat="43.2694151" lon="13.7459743"><ele>47.0</ele><time>2026-05-03T07:55:40.02Z</time></trkpt><trkpt lat="43.2696767" lon="13.7457773"><ele>47.0</ele><time>2026-05-03T07:55:41.02Z</time></trkpt><trkpt lat="43.2699441" lon="13.7455877"><ele>43.5</ele><time>2026-05-03T07:55:42.02Z</time></trkpt><trkpt lat="43.270214" lon="13.7454068"><ele>40.0</ele><time>2026-05-03T07:55:43.02Z</time></trkpt><trkpt lat="43.2704903" lon="13.7452351"><ele>45.5</ele><time>2026-05-03T07:55:44.02Z</time></trkpt><trkpt lat="43.2707721" lon="13.74508"><ele>51.0</ele><time>2026-05-03T07:55:45.02Z</time></trkpt><trkpt lat="43.2710587" lon="13.7449357"><ele>51.0</ele><time>2026-05-03T07:55:46.019Z</time></trkpt><trkpt lat="43.2713471" lon="13.7447966"><ele>51.0</ele><time>2026-05-03T07:55:47.019Z</time></trkpt><trkpt lat="43.271638" lon="13.7446667"><ele>48.5</ele><time>2026-05-03T07:55:48.019Z</time></trkpt><trkpt lat="43.2719309" lon="13.7445421"><ele>46.0</ele><time>2026-05-03T07:55:49.02Z</time></trkpt><trkpt lat="43.2722256" lon="13.7444214"><ele>47.0</ele><time>2026-05-03T07:55:50.02Z</time></trkpt><trkpt lat="43.2725198" lon="13.7443008"><ele>48.0</ele><time>2026-05-03T07:55:51.019Z</time></trkpt><trkpt lat="43.2728145" lon="13.7441796"><ele>38.0</ele><time>2026-05-03T07:55:52.019Z</time></trkpt><trkpt lat="43.273112" lon="13.7440588"><ele>28.0</ele><time>2026-05-03T07:55:53.019Z</time></trkpt><trkpt lat="43.27341" lon="13.7439317"><ele>28.0</ele><time>2026-05-03T07:55:54.02Z</time></trkpt><trkpt lat="43.2737082" lon="13.7437971"><ele>28.0</ele><time>2026-05-03T07:55:55.02Z</time></trkpt><trkpt lat="43.2740022" lon="13.7436507"><ele>22.0</ele><time>2026-05-03T07:55:56.019Z</time></trkpt><trkpt lat="43.2742941" lon="13.7434989"><ele>16.0</ele><time>2026-05-03T07:55:57.02Z</time></trkpt><trkpt lat="43.2745842" lon="13.743344"><ele>22.0</ele><time>2026-05-03T07:55:58.02Z</time></trkpt><trkpt lat="43.2748731" lon="13.7431872"><ele>28.0</ele><time>2026-05-03T07:55:59.019Z</time></trkpt><trkpt lat="43.27516" lon="13.7430282"><ele>28.0</ele><time>2026-05-03T07:56:00.019Z</time></trkpt><trkpt lat="43.2754463" lon="13.7428681"><ele>28.0</ele><time>2026-05-03T07:56:01.02Z</time></trkpt><trkpt lat="43.2757309" lon="13.7427069"><ele>30.5</ele><time>2026-05-03T07:56:02.02Z</time></trkpt><trkpt lat="43.2760134" lon="13.7425463"><ele>33.0</ele><time>2026-05-03T07:56:03.019Z</time></trkpt><trkpt lat="43.2762948" lon="13.7423869"><ele>30.0</ele><time>2026-05-03T07:56:04.019Z</time></trkpt><trkpt lat="43.2765721" lon="13.7422211"><ele>27.0</ele><time>2026-05-03T07:56:05.019Z</time></trkpt><trkpt lat="43.2768406" lon="13.7420413"><ele>30.0</ele><time>2026-05-03T07:56:06.02Z</time></trkpt><trkpt lat="43.2771002" lon="13.7418429"><ele>33.0</ele><time>2026-05-03T07:56:07.02Z</time></trkpt><trkpt lat="43.2773509" lon="13.7416252"><ele>33.0</ele><time>2026-05-03T07:56:08.019Z</time></trkpt><trkpt lat="43.2775909" lon="13.7413839"><ele>33.0</ele><time>2026-05-03T07:56:09.019Z</time></trkpt><trkpt lat="43.2778223" lon="13.7411214"><ele>30.5</ele><time>2026-05-03T07:56:10.019Z</time></trkpt><trkpt lat="43.2780417" lon="13.7408418"><ele>28.0</ele><time>2026-05-03T07:56:11.02Z</time></trkpt><trkpt lat="43.2782447" lon="13.7405442"><ele>28.0</ele><time>2026-05-03T07:56:12.02Z</time></trkpt><trkpt lat="43.2784316" lon="13.740227"><ele>28.0</ele><time>2026-05-03T07:56:13.019Z</time></trkpt><trkpt lat="43.2786031" lon="13.739894"><ele>27.5</ele><time>2026-05-03T07:56:14.02Z</time></trkpt><trkpt lat="43.2787627" lon="13.7395503"><ele>27.0</ele><time>2026-05-03T07:56:15.02Z</time></trkpt><trkpt lat="43.2789023" lon="13.7391923"><ele>28.0</ele><time>2026-05-03T07:56:16.02Z</time></trkpt><trkpt lat="43.279025" lon="13.7388248"><ele>29.0</ele><time>2026-05-03T07:56:17.018Z</time></trkpt><trkpt lat="43.2791298" lon="13.7384457"><ele>30.0</ele><time>2026-05-03T07:56:18.02Z</time></trkpt><trkpt lat="43.2792157" lon="13.7380601"><ele>31.0</ele><time>2026-05-03T07:56:19.02Z</time></trkpt><trkpt lat="43.2793042" lon="13.737679"><ele>31.0</ele><time>2026-05-03T07:56:20.02Z</time></trkpt><trkpt lat="43.2793455" lon="13.7372749"><ele>31.0</ele><time>2026-05-03T07:56:21.019Z</time></trkpt><trkpt lat="43.2794096" lon="13.7368811"><ele>31.0</ele><time>2026-05-03T07:56:22.02Z</time></trkpt><trkpt lat="43.2794702" lon="13.7364858"><ele>31.0</ele><time>2026-05-03T07:56:23.019Z</time></trkpt><trkpt lat="43.2795319" lon="13.7360919"><ele>29.5</ele><time>2026-05-03T07:56:24.02Z</time></trkpt><trkpt lat="43.2795944" lon="13.7356989"><ele>28.0</ele><time>2026-05-03T07:56:25.02Z</time></trkpt><trkpt lat="43.2796513" lon="13.7353077"><ele>29.0</ele><time>2026-05-03T07:56:26.019Z</time></trkpt><trkpt lat="43.2797066" lon="13.7349166"><ele>30.0</ele><time>2026-05-03T07:56:27.019Z</time></trkpt><trkpt lat="43.2797666" lon="13.73453"><ele>22.0</ele><time>2026-05-03T07:56:28.019Z</time></trkpt><trkpt lat="43.2798265" lon="13.7341431"><ele>14.0</ele><time>2026-05-03T07:56:29.02Z</time></trkpt><trkpt lat="43.2798853" lon="13.733758"><ele>14.5</ele><time>2026-05-03T07:56:30.019Z</time></trkpt><trkpt lat="43.2799469" lon="13.7333752"><ele>15.0</ele><time>2026-05-03T07:56:31.02Z</time></trkpt><trkpt lat="43.2800093" lon="13.7329964"><ele>16.0</ele><time>2026-05-03T07:56:32.02Z</time></trkpt><trkpt lat="43.2800784" lon="13.7326198"><ele>17.0</ele><time>2026-05-03T07:56:33.019Z</time></trkpt><trkpt lat="43.2801597" lon="13.7322493"><ele>15.5</ele><time>2026-05-03T07:56:34.02Z</time></trkpt><trkpt lat="43.2802538" lon="13.7318814"><ele>14.0</ele><time>2026-05-03T07:56:35.019Z</time></trkpt><trkpt lat="43.2803543" lon="13.7315179"><ele>14.0</ele><time>2026-05-03T07:56:36.019Z</time></trkpt><trkpt lat="43.280468" lon="13.7311579"><ele>14.0</ele><time>2026-05-03T07:56:37.02Z</time></trkpt><trkpt lat="43.28059" lon="13.7308047"><ele>12.5</ele><time>2026-05-03T07:56:38.02Z</time></trkpt><trkpt lat="43.2807239" lon="13.7304553"><ele>11.0</ele><time>2026-05-03T07:56:39.02Z</time></trkpt><trkpt lat="43.2808664" lon="13.7301228"><ele>11.0</ele><time>2026-05-03T07:56:40.02Z</time></trkpt><trkpt lat="43.2810226" lon="13.7297897"><ele>11.0</ele><time>2026-05-03T07:56:41.019Z</time></trkpt><trkpt lat="43.2811852" lon="13.7294634"><ele>11.0</ele><time>2026-05-03T07:56:42.019Z</time></trkpt><trkpt lat="43.28136" lon="13.7291518"><ele>11.0</ele><time>2026-05-03T07:56:43.02Z</time></trkpt><trkpt lat="43.2815447" lon="13.7288532"><ele>11.0</ele><time>2026-05-03T07:56:44.02Z</time></trkpt><trkpt lat="43.2817369" lon="13.7285604"><ele>11.0</ele><time>2026-05-03T07:56:45.02Z</time></trkpt><trkpt lat="43.2819325" lon="13.728281"><ele>10.5</ele><time>2026-05-03T07:56:46.02Z</time></trkpt><trkpt lat="43.2821279" lon="13.7280047"><ele>10.0</ele><time>2026-05-03T07:56:47.019Z</time></trkpt><trkpt lat="43.2823266" lon="13.7277344"><ele>10.0</ele><time>2026-05-03T07:56:48.02Z</time></trkpt><trkpt lat="43.2825214" lon="13.7274733"><ele>10.0</ele><time>2026-05-03T07:56:49.02Z</time></trkpt><trkpt lat="43.2827162" lon="13.7272131"><ele>10.0</ele><time>2026-05-03T07:56:50.019Z</time></trkpt><trkpt lat="43.2829052" lon="13.7269558"><ele>10.0</ele><time>2026-05-03T07:56:51.019Z</time></trkpt><trkpt lat="43.2830941" lon="13.7266981"><ele>8.0</ele><time>2026-05-03T07:56:52.019Z</time></trkpt><trkpt lat="43.2832851" lon="13.7264434"><ele>6.0</ele><time>2026-05-03T07:56:53.02Z</time></trkpt><trkpt lat="43.2834755" lon="13.7261854"><ele>7.0</ele><time>2026-05-03T07:56:54.02Z</time></trkpt><trkpt lat="43.2836657" lon="13.7259299"><ele>8.0</ele><time>2026-05-03T07:56:55.02Z</time></trkpt><trkpt lat="43.2838577" lon="13.7256705"><ele>7.5</ele><time>2026-05-03T07:56:56.02Z</time></trkpt><trkpt lat="43.2840503" lon="13.7254117"><ele>7.0</ele><time>2026-05-03T07:56:57.019Z</time></trkpt><trkpt lat="43.2842398" lon="13.7251536"><ele>7.0</ele><time>2026-05-03T07:56:58.02Z</time></trkpt><trkpt lat="43.28443" lon="13.7248991"><ele>7.0</ele><time>2026-05-03T07:56:59.02Z</time></trkpt><trkpt lat="43.2846194" lon="13.7246477"><ele>7.5</ele><time>2026-05-03T07:57:00.019Z</time></trkpt><trkpt lat="43.2848091" lon="13.7243932"><ele>8.0</ele><time>2026-05-03T07:57:01.02Z</time></trkpt><trkpt lat="43.2849932" lon="13.7241392"><ele>8.0</ele><time>2026-05-03T07:57:02.019Z</time></trkpt><trkpt lat="43.2851814" lon="13.72389"><ele>8.0</ele><time>2026-05-03T07:57:03.019Z</time></trkpt><trkpt lat="43.2853728" lon="13.7236384"><ele>8.5</ele><time>2026-05-03T07:57:04.019Z</time></trkpt><trkpt lat="43.2855617" lon="13.7233849"><ele>9.0</ele><time>2026-05-03T07:57:05.02Z</time></trkpt><trkpt lat="43.2857485" lon="13.7231236"><ele>9.0</ele><time>2026-05-03T07:57:06.019Z</time></trkpt><trkpt lat="43.2859358" lon="13.7228664"><ele>9.0</ele><time>2026-05-03T07:57:07.019Z</time></trkpt><trkpt lat="43.2861201" lon="13.7226128"><ele>9.0</ele><time>2026-05-03T07:57:08.02Z</time></trkpt><trkpt lat="43.2863041" lon="13.722362"><ele>9.0</ele><time>2026-05-03T07:57:09.02Z</time></trkpt><trkpt lat="43.2864877" lon="13.722111"><ele>9.0</ele><time>2026-05-03T07:57:10.02Z</time></trkpt><trkpt lat="43.2866724" lon="13.7218587"><ele>9.0</ele><time>2026-05-03T07:57:11.02Z</time></trkpt><trkpt lat="43.2868603" lon="13.7216092"><ele>9.0</ele><time>2026-05-03T07:57:12.02Z</time></trkpt><trkpt lat="43.2870505" lon="13.72136"><ele>9.0</ele><time>2026-05-03T07:57:13.019Z</time></trkpt><trkpt lat="43.2872406" lon="13.7211089"><ele>9.0</ele><time>2026-05-03T07:57:14.019Z</time></trkpt><trkpt lat="43.2874315" lon="13.7208592"><ele>9.0</ele><time>2026-05-03T07:57:15.019Z</time></trkpt><trkpt lat="43.2876229" lon="13.7206055"><ele>9.0</ele><time>2026-05-03T07:57:16.019Z</time></trkpt><trkpt lat="43.2878143" lon="13.7203501"><ele>9.0</ele><time>2026-05-03T07:57:17.02Z</time></trkpt><trkpt lat="43.2880066" lon="13.7200954"><ele>8.5</ele><time>2026-05-03T07:57:18.019Z</time></trkpt><trkpt lat="43.2882013" lon="13.7198412"><ele>8.0</ele><time>2026-05-03T07:57:19.02Z</time></trkpt><trkpt lat="43.2883985" lon="13.7195845"><ele>8.0</ele><time>2026-05-03T07:57:20.02Z</time></trkpt><trkpt lat="43.2885946" lon="13.7193266"><ele>8.0</ele><time>2026-05-03T07:57:21.02Z</time></trkpt><trkpt lat="43.2887944" lon="13.7190706"><ele>8.5</ele><time>2026-05-03T07:57:22.019Z</time></trkpt><trkpt lat="43.2889936" lon="13.7188124"><ele>9.0</ele><time>2026-05-03T07:57:23.02Z</time></trkpt><trkpt lat="43.2891903" lon="13.7185535"><ele>9.0</ele><time>2026-05-03T07:57:24.02Z</time></trkpt><trkpt lat="43.2893888" lon="13.7182931"><ele>9.0</ele><time>2026-05-03T07:57:25.018Z</time></trkpt><trkpt lat="43.2895871" lon="13.7180316"><ele>9.0</ele><time>2026-05-03T07:57:26.019Z</time></trkpt><trkpt lat="43.2897832" lon="13.7177712"><ele>9.0</ele><time>2026-05-03T07:57:27.02Z</time></trkpt><trkpt lat="43.2899792" lon="13.717514"><ele>9.0</ele><time>2026-05-03T07:57:28.02Z</time></trkpt><trkpt lat="43.2901751" lon="13.7172492"><ele>9.0</ele><time>2026-05-03T07:57:29.02Z</time></trkpt><trkpt lat="43.2903677" lon="13.7169894"><ele>9.0</ele><time>2026-05-03T07:57:30.02Z</time></trkpt><trkpt lat="43.2905606" lon="13.7167282"><ele>9.0</ele><time>2026-05-03T07:57:31.02Z</time></trkpt><trkpt lat="43.2907534" lon="13.7164693"><ele>9.0</ele><time>2026-05-03T07:57:32.019Z</time></trkpt><trkpt lat="43.290946" lon="13.7162174"><ele>9.0</ele><time>2026-05-03T07:57:33.019Z</time></trkpt><trkpt lat="43.2911392" lon="13.715963"><ele>8.5</ele><time>2026-05-03T07:57:34.019Z</time></trkpt><trkpt lat="43.2913295" lon="13.7157047"><ele>8.0</ele><time>2026-05-03T07:57:35.018Z</time></trkpt><trkpt lat="43.2915208" lon="13.7154498"><ele>8.0</ele><time>2026-05-03T07:57:36.018Z</time></trkpt><trkpt lat="43.2917145" lon="13.715195"><ele>8.0</ele><time>2026-05-03T07:57:37.019Z</time></trkpt><trkpt lat="43.2919083" lon="13.7149359"><ele>8.0</ele><time>2026-05-03T07:57:38.019Z</time></trkpt><trkpt lat="43.2921015" lon="13.7146821"><ele>8.0</ele><time>2026-05-03T07:57:39.02Z</time></trkpt><trkpt lat="43.2922975" lon="13.7144273"><ele>8.5</ele><time>2026-05-03T07:57:40.019Z</time></trkpt><trkpt lat="43.2924927" lon="13.71417"><ele>9.0</ele><time>2026-05-03T07:57:41.019Z</time></trkpt><trkpt lat="43.2926861" lon="13.7139208"><ele>9.0</ele><time>2026-05-03T07:57:42.02Z</time></trkpt><trkpt lat="43.2928855" lon="13.7136745"><ele>9.0</ele><time>2026-05-03T07:57:43.02Z</time></trkpt><trkpt lat="43.2930928" lon="13.7134396"><ele>9.0</ele><time>2026-05-03T07:57:44.019Z</time></trkpt><trkpt lat="43.2933041" lon="13.7132116"><ele>9.0</ele><time>2026-05-03T07:57:45.02Z</time></trkpt><trkpt lat="43.2935246" lon="13.712993"><ele>9.0</ele><time>2026-05-03T07:57:46.02Z</time></trkpt><trkpt lat="43.2937485" lon="13.7127773"><ele>9.0</ele><time>2026-05-03T07:57:47.019Z</time></trkpt><trkpt lat="43.2939753" lon="13.7125707"><ele>9.5</ele><time>2026-05-03T07:57:48.019Z</time></trkpt><trkpt lat="43.2942072" lon="13.7123712"><ele>10.0</ele><time>2026-05-03T07:57:49.019Z</time></trkpt><trkpt lat="43.2944403" lon="13.712182"><ele>10.0</ele><time>2026-05-03T07:57:50.019Z</time></trkpt><trkpt lat="43.2946778" lon="13.7119993"><ele>10.0</ele><time>2026-05-03T07:57:51.019Z</time></trkpt><trkpt lat="43.2949188" lon="13.7118253"><ele>10.5</ele><time>2026-05-03T07:57:52.019Z</time></trkpt><trkpt lat="43.2951588" lon="13.7116506"><ele>11.0</ele><time>2026-05-03T07:57:53.02Z</time></trkpt><trkpt lat="43.2953971" lon="13.7114793"><ele>11.0</ele><time>2026-05-03T07:57:54.02Z</time></trkpt><trkpt lat="43.2956377" lon="13.7113068"><ele>11.0</ele><time>2026-05-03T07:57:55.02Z</time></trkpt><trkpt lat="43.2958778" lon="13.7111361"><ele>10.5</ele><time>2026-05-03T07:57:56.02Z</time></trkpt><trkpt lat="43.2961255" lon="13.7109652"><ele>10.0</ele><time>2026-05-03T07:57:57.02Z</time></trkpt><trkpt lat="43.296374" lon="13.710791"><ele>10.0</ele><time>2026-05-03T07:57:58.02Z</time></trkpt><trkpt lat="43.2966228" lon="13.7106171"><ele>10.0</ele><time>2026-05-03T07:57:59.019Z</time></trkpt><trkpt lat="43.2968725" lon="13.7104415"><ele>10.0</ele><time>2026-05-03T07:58:00.019Z</time></trkpt><trkpt lat="43.2971214" lon="13.7102649"><ele>10.0</ele><time>2026-05-03T07:58:01.02Z</time></trkpt><trkpt lat="43.2973749" lon="13.7100891"><ele>12.5</ele><time>2026-05-03T07:58:02.019Z</time></trkpt><trkpt lat="43.2976251" lon="13.7099124"><ele>15.0</ele><time>2026-05-03T07:58:03.019Z</time></trkpt><trkpt lat="43.2978751" lon="13.7097327"><ele>15.0</ele><time>2026-05-03T07:58:04.02Z</time></trkpt><trkpt lat="43.2981253" lon="13.7095577"><ele>15.0</ele><time>2026-05-03T07:58:05.02Z</time></trkpt><trkpt lat="43.2983715" lon="13.7093866"><ele>15.0</ele><time>2026-05-03T07:58:06.02Z</time></trkpt><trkpt lat="43.2986217" lon="13.7092138"><ele>15.0</ele><time>2026-05-03T07:58:07.019Z</time></trkpt><trkpt lat="43.2988715" lon="13.709032"><ele>15.5</ele><time>2026-05-03T07:58:08.019Z</time></trkpt><trkpt lat="43.2991262" lon="13.7088531"><ele>16.0</ele><time>2026-05-03T07:58:09.02Z</time></trkpt><trkpt lat="43.299378" lon="13.708675"><ele>16.0</ele><time>2026-05-03T07:58:10.019Z</time></trkpt><trkpt lat="43.2996352" lon="13.7084951"><ele>16.0</ele><time>2026-05-03T07:58:11.02Z</time></trkpt><trkpt lat="43.2998903" lon="13.7083137"><ele>17.5</ele><time>2026-05-03T07:58:12.019Z</time></trkpt><trkpt lat="43.3001446" lon="13.7081352"><ele>19.0</ele><time>2026-05-03T07:58:13.019Z</time></trkpt><trkpt lat="43.3004005" lon="13.7079554"><ele>21.5</ele><time>2026-05-03T07:58:14.02Z</time></trkpt><trkpt lat="43.3006551" lon="13.7077754"><ele>24.0</ele><time>2026-05-03T07:58:15.02Z</time></trkpt><trkpt lat="43.3009106" lon="13.7075974"><ele>24.0</ele><time>2026-05-03T07:58:16.02Z</time></trkpt><trkpt lat="43.3011666" lon="13.7074186"><ele>24.0</ele><time>2026-05-03T07:58:17.019Z</time></trkpt><trkpt lat="43.3014234" lon="13.7072358"><ele>24.5</ele><time>2026-05-03T07:58:18.018Z</time></trkpt><trkpt lat="43.3016803" lon="13.7070513"><ele>25.0</ele><time>2026-05-03T07:58:19.019Z</time></trkpt><trkpt lat="43.3019362" lon="13.7068698"><ele>25.0</ele><time>2026-05-03T07:58:20.019Z</time></trkpt><trkpt lat="43.3021933" lon="13.7066881"><ele>25.0</ele><time>2026-05-03T07:58:21.02Z</time></trkpt><trkpt lat="43.3024493" lon="13.7065096"><ele>28.0</ele><time>2026-05-03T07:58:22.019Z</time></trkpt><trkpt lat="43.3027029" lon="13.7063316"><ele>31.0</ele><time>2026-05-03T07:58:23.02Z</time></trkpt><trkpt lat="43.3029576" lon="13.7061552"><ele>34.0</ele><time>2026-05-03T07:58:24.02Z</time></trkpt><trkpt lat="43.3032127" lon="13.7059856"><ele>37.0</ele><time>2026-05-03T07:58:25.018Z</time></trkpt><trkpt lat="43.3034702" lon="13.7058234"><ele>37.0</ele><time>2026-05-03T07:58:26.02Z</time></trkpt><trkpt lat="43.303733" lon="13.7056828"><ele>37.0</ele><time>2026-05-03T07:58:27.019Z</time></trkpt><trkpt lat="43.3039959" lon="13.7055454"><ele>38.5</ele><time>2026-05-03T07:58:28.019Z</time></trkpt><trkpt lat="43.3042694" lon="13.7054539"><ele>40.0</ele><time>2026-05-03T07:58:29.02Z</time></trkpt><trkpt lat="43.3045462" lon="13.7053737"><ele>42.0</ele><time>2026-05-03T07:58:30.02Z</time></trkpt><trkpt lat="43.3048241" lon="13.7053178"><ele>44.0</ele><time>2026-05-03T07:58:31.02Z</time></trkpt><trkpt lat="43.3051075" lon="13.705281"><ele>44.0</ele><time>2026-05-03T07:58:32.02Z</time></trkpt><trkpt lat="43.3053914" lon="13.7052646"><ele>44.0</ele><time>2026-05-03T07:58:33.02Z</time></trkpt><trkpt lat="43.3056762" lon="13.7052625"><ele>44.5</ele><time>2026-05-03T07:58:34.019Z</time></trkpt><trkpt lat="43.3059622" lon="13.7052843"><ele>45.0</ele><time>2026-05-03T07:58:35.019Z</time></trkpt><trkpt lat="43.306248" lon="13.7053234"><ele>44.0</ele><time>2026-05-03T07:58:36.019Z</time></trkpt><trkpt lat="43.3065305" lon="13.7053773"><ele>43.0</ele><time>2026-05-03T07:58:37.02Z</time></trkpt><trkpt lat="43.3068116" lon="13.7054462"><ele>43.0</ele><time>2026-05-03T07:58:38.019Z</time></trkpt><trkpt lat="43.3070977" lon="13.7055238"><ele>43.0</ele><time>2026-05-03T07:58:39.02Z</time></trkpt><trkpt lat="43.3073846" lon="13.7056031"><ele>40.5</ele><time>2026-05-03T07:58:40.02Z</time></trkpt><trkpt lat="43.3076676" lon="13.7056841"><ele>38.0</ele><time>2026-05-03T07:58:41.02Z</time></trkpt><trkpt lat="43.3079552" lon="13.7057614"><ele>34.0</ele><time>2026-05-03T07:58:42.02Z</time></trkpt><trkpt lat="43.3082464" lon="13.7058396"><ele>30.0</ele><time>2026-05-03T07:58:43.02Z</time></trkpt><trkpt lat="43.3085324" lon="13.705911"><ele>30.0</ele><time>2026-05-03T07:58:44.02Z</time></trkpt><trkpt lat="43.308821" lon="13.7059886"><ele>30.0</ele><time>2026-05-03T07:58:45.02Z</time></trkpt><trkpt lat="43.3091095" lon="13.7060656"><ele>24.5</ele><time>2026-05-03T07:58:46.02Z</time></trkpt><trkpt lat="43.3093922" lon="13.7061443"><ele>19.0</ele><time>2026-05-03T07:58:47.02Z</time></trkpt><trkpt lat="43.3096751" lon="13.7062171"><ele>23.5</ele><time>2026-05-03T07:58:48.019Z</time></trkpt><trkpt lat="43.3099545" lon="13.7062932"><ele>28.0</ele><time>2026-05-03T07:58:49.02Z</time></trkpt><trkpt lat="43.310234" lon="13.7063693"><ele>28.0</ele><time>2026-05-03T07:58:50.018Z</time></trkpt><trkpt lat="43.3105126" lon="13.7064468"><ele>28.0</ele><time>2026-05-03T07:58:51.02Z</time></trkpt><trkpt lat="43.3107886" lon="13.7065256"><ele>32.0</ele><time>2026-05-03T07:58:52.019Z</time></trkpt><trkpt lat="43.3110682" lon="13.7066063"><ele>36.0</ele><time>2026-05-03T07:58:53.02Z</time></trkpt><trkpt lat="43.3113506" lon="13.7066843"><ele>38.0</ele><time>2026-05-03T07:58:54.019Z</time></trkpt><trkpt lat="43.3116285" lon="13.7067623"><ele>40.0</ele><time>2026-05-03T07:58:55.02Z</time></trkpt><trkpt lat="43.3119155" lon="13.7068363"><ele>39.5</ele><time>2026-05-03T07:58:56.02Z</time></trkpt><trkpt lat="43.312205" lon="13.7069141"><ele>39.0</ele><time>2026-05-03T07:58:57.02Z</time></trkpt><trkpt lat="43.3124964" lon="13.7069913"><ele>39.0</ele><time>2026-05-03T07:58:58.02Z</time></trkpt><trkpt lat="43.3127936" lon="13.7070686"><ele>39.0</ele><time>2026-05-03T07:58:59.02Z</time></trkpt><trkpt lat="43.3130965" lon="13.7071389"><ele>39.0</ele><time>2026-05-03T07:59:00.02Z</time></trkpt><trkpt lat="43.3133985" lon="13.707208"><ele>39.0</ele><time>2026-05-03T07:59:01.02Z</time></trkpt><trkpt lat="43.3137028" lon="13.7072842"><ele>39.0</ele><time>2026-05-03T07:59:02.02Z</time></trkpt><trkpt lat="43.3140062" lon="13.7073632"><ele>39.0</ele><time>2026-05-03T07:59:03.018Z</time></trkpt><trkpt lat="43.3143073" lon="13.7074357"><ele>39.0</ele><time>2026-05-03T07:59:04.018Z</time></trkpt><trkpt lat="43.3146002" lon="13.7075138"><ele>39.0</ele><time>2026-05-03T07:59:05.018Z</time></trkpt><trkpt lat="43.3148964" lon="13.7075947"><ele>38.5</ele><time>2026-05-03T07:59:06.019Z</time></trkpt><trkpt lat="43.3151907" lon="13.7076746"><ele>38.0</ele><time>2026-05-03T07:59:07.02Z</time></trkpt><trkpt lat="43.3154816" lon="13.7077562"><ele>38.0</ele><time>2026-05-03T07:59:08.02Z</time></trkpt><trkpt lat="43.3157738" lon="13.7078345"><ele>38.0</ele><time>2026-05-03T07:59:09.02Z</time></trkpt><trkpt lat="43.3160632" lon="13.707912"><ele>38.0</ele><time>2026-05-03T07:59:10.019Z</time></trkpt><trkpt lat="43.3163491" lon="13.7079912"><ele>38.0</ele><time>2026-05-03T07:59:11.02Z</time></trkpt><trkpt lat="43.3166382" lon="13.7080677"><ele>38.5</ele><time>2026-05-03T07:59:12.02Z</time></trkpt><trkpt lat="43.3169288" lon="13.708144"><ele>39.0</ele><time>2026-05-03T07:59:13.02Z</time></trkpt><trkpt lat="43.3172211" lon="13.7082189"><ele>40.0</ele><time>2026-05-03T07:59:14.019Z</time></trkpt><trkpt lat="43.3175113" lon="13.7082919"><ele>41.0</ele><time>2026-05-03T07:59:15.02Z</time></trkpt><trkpt lat="43.3178002" lon="13.708372"><ele>40.5</ele><time>2026-05-03T07:59:16.02Z</time></trkpt><trkpt lat="43.3180901" lon="13.7084514"><ele>40.0</ele><time>2026-05-03T07:59:17.019Z</time></trkpt><trkpt lat="43.3183815" lon="13.7085329"><ele>39.5</ele><time>2026-05-03T07:59:18.019Z</time></trkpt><trkpt lat="43.3186698" lon="13.7086107"><ele>39.0</ele><time>2026-05-03T07:59:19.019Z</time></trkpt><trkpt lat="43.3189596" lon="13.7086898"><ele>39.0</ele><time>2026-05-03T07:59:20.019Z</time></trkpt><trkpt lat="43.319247" lon="13.7087736"><ele>39.0</ele><time>2026-05-03T07:59:21.02Z</time></trkpt><trkpt lat="43.3195356" lon="13.7088567"><ele>41.5</ele><time>2026-05-03T07:59:22.02Z</time></trkpt><trkpt lat="43.3198286" lon="13.7089337"><ele>44.0</ele><time>2026-05-03T07:59:23.02Z</time></trkpt><trkpt lat="43.3201184" lon="13.7090165"><ele>44.0</ele><time>2026-05-03T07:59:24.019Z</time></trkpt><trkpt lat="43.3204089" lon="13.7090996"><ele>44.0</ele><time>2026-05-03T07:59:25.02Z</time></trkpt><trkpt lat="43.3206977" lon="13.7091811"><ele>45.5</ele><time>2026-05-03T07:59:26.02Z</time></trkpt><trkpt lat="43.3209891" lon="13.7092611"><ele>47.0</ele><time>2026-05-03T07:59:27.02Z</time></trkpt><trkpt lat="43.3212822" lon="13.7093305"><ele>46.0</ele><time>2026-05-03T07:59:28.019Z</time></trkpt><trkpt lat="43.3215779" lon="13.7093869"><ele>45.0</ele><time>2026-05-03T07:59:29.02Z</time></trkpt><trkpt lat="43.3218755" lon="13.709424"><ele>45.0</ele><time>2026-05-03T07:59:30.02Z</time></trkpt><trkpt lat="43.3221735" lon="13.7094361"><ele>45.0</ele><time>2026-05-03T07:59:31.019Z</time></trkpt><trkpt lat="43.3224705" lon="13.7094347"><ele>44.0</ele><time>2026-05-03T07:59:32.019Z</time></trkpt><trkpt lat="43.3227687" lon="13.7094153"><ele>43.0</ele><time>2026-05-03T07:59:33.02Z</time></trkpt><trkpt lat="43.3230698" lon="13.7093858"><ele>43.0</ele><time>2026-05-03T07:59:34.02Z</time></trkpt><trkpt lat="43.3233619" lon="13.7093379"><ele>43.0</ele><time>2026-05-03T07:59:35.019Z</time></trkpt><trkpt lat="43.3236509" lon="13.7092726"><ele>41.5</ele><time>2026-05-03T07:59:36.02Z</time></trkpt><trkpt lat="43.3239393" lon="13.7091918"><ele>40.0</ele><time>2026-05-03T07:59:37.019Z</time></trkpt><trkpt lat="43.3242269" lon="13.7090928"><ele>40.0</ele><time>2026-05-03T07:59:38.02Z</time></trkpt><trkpt lat="43.3245123" lon="13.7089867"><ele>40.0</ele><time>2026-05-03T07:59:39.019Z</time></trkpt><trkpt lat="43.324798" lon="13.7088674"><ele>39.0</ele><time>2026-05-03T07:59:40.02Z</time></trkpt><trkpt lat="43.3250859" lon="13.7087478"><ele>38.0</ele><time>2026-05-03T07:59:41.019Z</time></trkpt><trkpt lat="43.3253713" lon="13.7086326"><ele>39.0</ele><time>2026-05-03T07:59:42.02Z</time></trkpt><trkpt lat="43.3256579" lon="13.7085197"><ele>40.0</ele><time>2026-05-03T07:59:43.019Z</time></trkpt><trkpt lat="43.3259466" lon="13.7084062"><ele>40.0</ele><time>2026-05-03T07:59:44.02Z</time></trkpt><trkpt lat="43.3262348" lon="13.7082867"><ele>40.0</ele><time>2026-05-03T07:59:45.02Z</time></trkpt><trkpt lat="43.3265207" lon="13.7081648"><ele>38.5</ele><time>2026-05-03T07:59:46.019Z</time></trkpt><trkpt lat="43.3268098" lon="13.708057"><ele>37.0</ele><time>2026-05-03T07:59:47.02Z</time></trkpt><trkpt lat="43.3270968" lon="13.7079348"><ele>35.0</ele><time>2026-05-03T07:59:48.019Z</time></trkpt><trkpt lat="43.3273855" lon="13.7078138"><ele>33.0</ele><time>2026-05-03T07:59:49.019Z</time></trkpt><trkpt lat="43.3276732" lon="13.7076926"><ele>32.5</ele><time>2026-05-03T07:59:50.019Z</time></trkpt><trkpt lat="43.3279627" lon="13.707572"><ele>32.0</ele><time>2026-05-03T07:59:51.02Z</time></trkpt><trkpt lat="43.3282514" lon="13.7074499"><ele>30.0</ele><time>2026-05-03T07:59:52.02Z</time></trkpt><trkpt lat="43.3285382" lon="13.7073264"><ele>28.0</ele><time>2026-05-03T07:59:53.02Z</time></trkpt><trkpt lat="43.3288283" lon="13.7072074"><ele>22.0</ele><time>2026-05-03T07:59:54.02Z</time></trkpt><trkpt lat="43.3291173" lon="13.7070861"><ele>16.0</ele><time>2026-05-03T07:59:55.02Z</time></trkpt><trkpt lat="43.3294065" lon="13.7069707"><ele>14.0</ele><time>2026-05-03T07:59:56.018Z</time></trkpt><trkpt lat="43.3296921" lon="13.7068508"><ele>12.0</ele><time>2026-05-03T07:59:57.02Z</time></trkpt><trkpt lat="43.3299764" lon="13.70673"><ele>12.0</ele><time>2026-05-03T07:59:58.02Z</time></trkpt><trkpt lat="43.3302567" lon="13.7066095"><ele>12.0</ele><time>2026-05-03T07:59:59.019Z</time></trkpt><trkpt lat="43.3305349" lon="13.7064927"><ele>15.0</ele><time>2026-05-03T08:00:00.019Z</time></trkpt><trkpt lat="43.3308095" lon="13.7063784"><ele>18.0</ele><time>2026-05-03T08:00:01.019Z</time></trkpt><trkpt lat="43.3310833" lon="13.7062643"><ele>18.0</ele><time>2026-05-03T08:00:02.02Z</time></trkpt><trkpt lat="43.3313548" lon="13.7061524"><ele>18.0</ele><time>2026-05-03T08:00:03.019Z</time></trkpt><trkpt lat="43.3316273" lon="13.706034"><ele>22.0</ele><time>2026-05-03T08:00:04.018Z</time></trkpt><trkpt lat="43.3318979" lon="13.7059203"><ele>26.0</ele><time>2026-05-03T08:00:05.019Z</time></trkpt><trkpt lat="43.3321693" lon="13.7058064"><ele>27.0</ele><time>2026-05-03T08:00:06.02Z</time></trkpt><trkpt lat="43.3324406" lon="13.7056962"><ele>28.0</ele><time>2026-05-03T08:00:07.02Z</time></trkpt><trkpt lat="43.3327161" lon="13.7055848"><ele>28.0</ele><time>2026-05-03T08:00:08.019Z</time></trkpt><trkpt lat="43.3329869" lon="13.7054729"><ele>28.0</ele><time>2026-05-03T08:00:09.019Z</time></trkpt><trkpt lat="43.3332596" lon="13.7053621"><ele>29.0</ele><time>2026-05-03T08:00:10.019Z</time></trkpt><trkpt lat="43.3335327" lon="13.7052539"><ele>30.0</ele><time>2026-05-03T08:00:11.019Z</time></trkpt><trkpt lat="43.3338062" lon="13.7051462"><ele>26.0</ele><time>2026-05-03T08:00:12.019Z</time></trkpt><trkpt lat="43.3340819" lon="13.7050362"><ele>22.0</ele><time>2026-05-03T08:00:13.018Z</time></trkpt><trkpt lat="43.3343566" lon="13.7049254"><ele>22.0</ele><time>2026-05-03T08:00:14.019Z</time></trkpt><trkpt lat="43.3346312" lon="13.7048119"><ele>22.0</ele><time>2026-05-03T08:00:15.02Z</time></trkpt><trkpt lat="43.3349052" lon="13.7047018"><ele>19.5</ele><time>2026-05-03T08:00:16.019Z</time></trkpt><trkpt lat="43.3351782" lon="13.7045907"><ele>17.0</ele><time>2026-05-03T08:00:17.018Z</time></trkpt><trkpt lat="43.3354516" lon="13.7044779"><ele>20.0</ele><time>2026-05-03T08:00:18.02Z</time></trkpt><trkpt lat="43.335723" lon="13.7043658"><ele>23.0</ele><time>2026-05-03T08:00:19.019Z</time></trkpt><trkpt lat="43.3359951" lon="13.7042559"><ele>23.0</ele><time>2026-05-03T08:00:20.02Z</time></trkpt><trkpt lat="43.3362702" lon="13.7041503"><ele>23.0</ele><time>2026-05-03T08:00:21.02Z</time></trkpt><trkpt lat="43.3365425" lon="13.7040428"><ele>21.0</ele><time>2026-05-03T08:00:22.018Z</time></trkpt><trkpt lat="43.3368136" lon="13.7039314"><ele>19.0</ele><time>2026-05-03T08:00:23.018Z</time></trkpt><trkpt lat="43.3370832" lon="13.703816"><ele>17.0</ele><time>2026-05-03T08:00:24.019Z</time></trkpt><trkpt lat="43.3373544" lon="13.7037022"><ele>15.0</ele><time>2026-05-03T08:00:25.018Z</time></trkpt><trkpt lat="43.3376223" lon="13.703591"><ele>17.5</ele><time>2026-05-03T08:00:26.02Z</time></trkpt><trkpt lat="43.3378877" lon="13.703483"><ele>20.0</ele><time>2026-05-03T08:00:27.019Z</time></trkpt><trkpt lat="43.338154" lon="13.7033715"><ele>20.0</ele><time>2026-05-03T08:00:28.019Z</time></trkpt><trkpt lat="43.3384184" lon="13.7032652"><ele>20.0</ele><time>2026-05-03T08:00:29.019Z</time></trkpt><trkpt lat="43.3386784" lon="13.7031594"><ele>18.5</ele><time>2026-05-03T08:00:30.019Z</time></trkpt><trkpt lat="43.3389404" lon="13.7030497"><ele>17.0</ele><time>2026-05-03T08:00:31.02Z</time></trkpt><trkpt lat="43.3391994" lon="13.7029355"><ele>17.0</ele><time>2026-05-03T08:00:32.018Z</time></trkpt><trkpt lat="43.3394614" lon="13.7028346"><ele>17.0</ele><time>2026-05-03T08:00:33.019Z</time></trkpt><trkpt lat="43.3397201" lon="13.7027274"><ele>18.5</ele><time>2026-05-03T08:00:34.02Z</time></trkpt><trkpt lat="43.3399804" lon="13.7026183"><ele>20.0</ele><time>2026-05-03T08:00:35.02Z</time></trkpt><trkpt lat="43.3402435" lon="13.7025074"><ele>20.0</ele><time>2026-05-03T08:00:36.019Z</time></trkpt><trkpt lat="43.3405084" lon="13.7023964"><ele>20.0</ele><time>2026-05-03T08:00:37.019Z</time></trkpt><trkpt lat="43.3407764" lon="13.7022847"><ele>18.0</ele><time>2026-05-03T08:00:38.019Z</time></trkpt><trkpt lat="43.3410466" lon="13.7021726"><ele>16.0</ele><time>2026-05-03T08:00:39.02Z</time></trkpt><trkpt lat="43.3413168" lon="13.7020592"><ele>15.5</ele><time>2026-05-03T08:00:40.019Z</time></trkpt><trkpt lat="43.3415891" lon="13.7019463"><ele>15.0</ele><time>2026-05-03T08:00:41.02Z</time></trkpt><trkpt lat="43.3418591" lon="13.7018339"><ele>17.0</ele><time>2026-05-03T08:00:42.019Z</time></trkpt><trkpt lat="43.3421312" lon="13.7017228"><ele>19.0</ele><time>2026-05-03T08:00:43.019Z</time></trkpt><trkpt lat="43.3424018" lon="13.7016052"><ele>19.0</ele><time>2026-05-03T08:00:44.019Z</time></trkpt><trkpt lat="43.3426766" lon="13.7014805"><ele>19.0</ele><time>2026-05-03T08:00:45.019Z</time></trkpt><trkpt lat="43.3429558" lon="13.7013528"><ele>18.0</ele><time>2026-05-03T08:00:46.019Z</time></trkpt><trkpt lat="43.3432417" lon="13.7012284"><ele>17.0</ele><time>2026-05-03T08:00:47.02Z</time></trkpt><trkpt lat="43.3435288" lon="13.7011049"><ele>18.5</ele><time>2026-05-03T08:00:48.02Z</time></trkpt><trkpt lat="43.343819" lon="13.7009864"><ele>20.0</ele><time>2026-05-03T08:00:49.018Z</time></trkpt><trkpt lat="43.3441062" lon="13.7008674"><ele>20.0</ele><time>2026-05-03T08:00:50.019Z</time></trkpt><trkpt lat="43.3443921" lon="13.700743"><ele>20.0</ele><time>2026-05-03T08:00:51.018Z</time></trkpt><trkpt lat="43.3446766" lon="13.7006124"><ele>19.5</ele><time>2026-05-03T08:00:52.02Z</time></trkpt><trkpt lat="43.3449604" lon="13.700473"><ele>19.0</ele><time>2026-05-03T08:00:53.02Z</time></trkpt><trkpt lat="43.3452443" lon="13.700335"><ele>19.0</ele><time>2026-05-03T08:00:54.018Z</time></trkpt><trkpt lat="43.3455239" lon="13.7001909"><ele>19.0</ele><time>2026-05-03T08:00:55.02Z</time></trkpt><trkpt lat="43.3457982" lon="13.7000394"><ele>19.0</ele><time>2026-05-03T08:00:56.02Z</time></trkpt><trkpt lat="43.3460742" lon="13.6998857"><ele>19.0</ele><time>2026-05-03T08:00:57.02Z</time></trkpt><trkpt lat="43.3463467" lon="13.6997265"><ele>17.5</ele><time>2026-05-03T08:00:58.02Z</time></trkpt><trkpt lat="43.3466155" lon="13.6995653"><ele>16.0</ele><time>2026-05-03T08:00:59.02Z</time></trkpt><trkpt lat="43.3468863" lon="13.699396"><ele>16.0</ele><time>2026-05-03T08:01:00.02Z</time></trkpt><trkpt lat="43.3471548" lon="13.6992238"><ele>16.0</ele><time>2026-05-03T08:01:01.02Z</time></trkpt><trkpt lat="43.3474189" lon="13.6990486"><ele>12.5</ele><time>2026-05-03T08:01:02.019Z</time></trkpt><trkpt lat="43.3476808" lon="13.6988701"><ele>9.0</ele><time>2026-05-03T08:01:03.02Z</time></trkpt><trkpt lat="43.3479464" lon="13.6986928"><ele>7.5</ele><time>2026-05-03T08:01:04.02Z</time></trkpt><trkpt lat="43.3482138" lon="13.6985116"><ele>6.0</ele><time>2026-05-03T08:01:05.02Z</time></trkpt><trkpt lat="43.3484779" lon="13.6983283"><ele>6.0</ele><time>2026-05-03T08:01:06.019Z</time></trkpt><trkpt lat="43.3487441" lon="13.6981423"><ele>6.0</ele><time>2026-05-03T08:01:07.019Z</time></trkpt><trkpt lat="43.3490099" lon="13.6979576"><ele>5.5</ele><time>2026-05-03T08:01:08.019Z</time></trkpt><trkpt lat="43.3492795" lon="13.6977712"><ele>5.0</ele><time>2026-05-03T08:01:09.02Z</time></trkpt><trkpt lat="43.349545" lon="13.6975876"><ele>6.5</ele><time>2026-05-03T08:01:10.019Z</time></trkpt><trkpt lat="43.3498114" lon="13.6974015"><ele>8.0</ele><time>2026-05-03T08:01:11.019Z</time></trkpt><trkpt lat="43.3500757" lon="13.6972183"><ele>8.0</ele><time>2026-05-03T08:01:12.02Z</time></trkpt><trkpt lat="43.3503398" lon="13.6970317"><ele>8.0</ele><time>2026-05-03T08:01:13.019Z</time></trkpt><trkpt lat="43.3506004" lon="13.6968498"><ele>11.0</ele><time>2026-05-03T08:01:14.019Z</time></trkpt><trkpt lat="43.3508606" lon="13.6966726"><ele>14.0</ele><time>2026-05-03T08:01:15.019Z</time></trkpt><trkpt lat="43.3511193" lon="13.6964976"><ele>11.5</ele><time>2026-05-03T08:01:16.019Z</time></trkpt><trkpt lat="43.351374" lon="13.6963224"><ele>9.0</ele><time>2026-05-03T08:01:17.02Z</time></trkpt><trkpt lat="43.3516288" lon="13.6961464"><ele>15.5</ele><time>2026-05-03T08:01:18.019Z</time></trkpt><trkpt lat="43.3518829" lon="13.6959749"><ele>22.0</ele><time>2026-05-03T08:01:19.019Z</time></trkpt><trkpt lat="43.3521372" lon="13.6958069"><ele>20.0</ele><time>2026-05-03T08:01:20.018Z</time></trkpt><trkpt lat="43.3523918" lon="13.695638"><ele>18.0</ele><time>2026-05-03T08:01:21.019Z</time></trkpt><trkpt lat="43.3526457" lon="13.6954676"><ele>18.0</ele><time>2026-05-03T08:01:22.019Z</time></trkpt><trkpt lat="43.3529008" lon="13.6952936"><ele>18.0</ele><time>2026-05-03T08:01:23.02Z</time></trkpt><trkpt lat="43.3531565" lon="13.6951183"><ele>20.5</ele><time>2026-05-03T08:01:24.02Z</time></trkpt><trkpt lat="43.3534111" lon="13.6949468"><ele>23.0</ele><time>2026-05-03T08:01:25.019Z</time></trkpt><trkpt lat="43.3536627" lon="13.6947732"><ele>21.0</ele><time>2026-05-03T08:01:26.02Z</time></trkpt><trkpt lat="43.3539182" lon="13.6946056"><ele>19.0</ele><time>2026-05-03T08:01:27.02Z</time></trkpt><trkpt lat="43.3541731" lon="13.6944349"><ele>25.5</ele><time>2026-05-03T08:01:28.02Z</time></trkpt><trkpt lat="43.3544215" lon="13.6942669"><ele>32.0</ele><time>2026-05-03T08:01:29.019Z</time></trkpt><trkpt lat="43.3546717" lon="13.6940949"><ele>30.0</ele><time>2026-05-03T08:01:30.018Z</time></trkpt><trkpt lat="43.3549228" lon="13.6939263"><ele>28.0</ele><time>2026-05-03T08:01:31.019Z</time></trkpt><trkpt lat="43.3551748" lon="13.6937528"><ele>32.0</ele><time>2026-05-03T08:01:32.02Z</time></trkpt><trkpt lat="43.3554235" lon="13.6935767"><ele>36.0</ele><time>2026-05-03T08:01:33.02Z</time></trkpt><trkpt lat="43.3556713" lon="13.6934037"><ele>36.0</ele><time>2026-05-03T08:01:34.02Z</time></trkpt><trkpt lat="43.3559219" lon="13.6932368"><ele>36.0</ele><time>2026-05-03T08:01:35.019Z</time></trkpt><trkpt lat="43.356178" lon="13.693067"><ele>35.5</ele><time>2026-05-03T08:01:36.02Z</time></trkpt><trkpt lat="43.3564328" lon="13.6928986"><ele>35.0</ele><time>2026-05-03T08:01:37.019Z</time></trkpt><trkpt lat="43.3566951" lon="13.6927341"><ele>35.5</ele><time>2026-05-03T08:01:38.02Z</time></trkpt><trkpt lat="43.3569568" lon="13.6925717"><ele>36.0</ele><time>2026-05-03T08:01:39.02Z</time></trkpt><trkpt lat="43.3572205" lon="13.6924087"><ele>36.0</ele><time>2026-05-03T08:01:40.02Z</time></trkpt><trkpt lat="43.3574878" lon="13.6922555"><ele>36.0</ele><time>2026-05-03T08:01:41.02Z</time></trkpt><trkpt lat="43.3577562" lon="13.6921031"><ele>36.0</ele><time>2026-05-03T08:01:42.019Z</time></trkpt><trkpt lat="43.3580297" lon="13.691956"><ele>36.0</ele><time>2026-05-03T08:01:43.019Z</time></trkpt><trkpt lat="43.3583058" lon="13.691812"><ele>37.0</ele><time>2026-05-03T08:01:44.02Z</time></trkpt><trkpt lat="43.3585831" lon="13.6916685"><ele>38.0</ele><time>2026-05-03T08:01:45.019Z</time></trkpt><trkpt lat="43.3588624" lon="13.6915314"><ele>35.0</ele><time>2026-05-03T08:01:46.019Z</time></trkpt><trkpt lat="43.3591434" lon="13.6913969"><ele>32.0</ele><time>2026-05-03T08:01:47.019Z</time></trkpt><trkpt lat="43.3594267" lon="13.6912677"><ele>33.0</ele><time>2026-05-03T08:01:48.02Z</time></trkpt><trkpt lat="43.3597079" lon="13.6911356"><ele>34.0</ele><time>2026-05-03T08:01:49.02Z</time></trkpt><trkpt lat="43.3599925" lon="13.690998"><ele>34.0</ele><time>2026-05-03T08:01:50.02Z</time></trkpt><trkpt lat="43.3602742" lon="13.6908622"><ele>34.0</ele><time>2026-05-03T08:01:51.019Z</time></trkpt><trkpt lat="43.3605596" lon="13.6907319"><ele>31.0</ele><time>2026-05-03T08:01:52.02Z</time></trkpt><trkpt lat="43.3608448" lon="13.6906027"><ele>28.0</ele><time>2026-05-03T08:01:53.02Z</time></trkpt><trkpt lat="43.3611296" lon="13.6904661"><ele>25.5</ele><time>2026-05-03T08:01:54.019Z</time></trkpt><trkpt lat="43.3614151" lon="13.6903289"><ele>23.0</ele><time>2026-05-03T08:01:55.019Z</time></trkpt><trkpt lat="43.361704" lon="13.6901905"><ele>23.0</ele><time>2026-05-03T08:01:56.02Z</time></trkpt><trkpt lat="43.3619915" lon="13.6900551"><ele>23.0</ele><time>2026-05-03T08:01:57.02Z</time></trkpt><trkpt lat="43.3622802" lon="13.6899212"><ele>17.5</ele><time>2026-05-03T08:01:58.019Z</time></trkpt><trkpt lat="43.3625699" lon="13.6897955"><ele>12.0</ele><time>2026-05-03T08:01:59.019Z</time></trkpt><trkpt lat="43.3628626" lon="13.6896804"><ele>11.0</ele><time>2026-05-03T08:02:00.02Z</time></trkpt><trkpt lat="43.3631592" lon="13.6895848"><ele>10.0</ele><time>2026-05-03T08:02:01.019Z</time></trkpt><trkpt lat="43.3634583" lon="13.6895003"><ele>12.0</ele><time>2026-05-03T08:02:02.019Z</time></trkpt><trkpt lat="43.3637606" lon="13.6894201"><ele>14.0</ele><time>2026-05-03T08:02:03.018Z</time></trkpt><trkpt lat="43.3640642" lon="13.6893541"><ele>18.5</ele><time>2026-05-03T08:02:04.019Z</time></trkpt><trkpt lat="43.3643707" lon="13.6893004"><ele>23.0</ele><time>2026-05-03T08:02:05.019Z</time></trkpt><trkpt lat="43.3646762" lon="13.6892576"><ele>23.0</ele><time>2026-05-03T08:02:06.02Z</time></trkpt><trkpt lat="43.3649803" lon="13.6892298"><ele>23.0</ele><time>2026-05-03T08:02:07.019Z</time></trkpt><trkpt lat="43.3652862" lon="13.6892129"><ele>19.5</ele><time>2026-05-03T08:02:08.019Z</time></trkpt><trkpt lat="43.3655912" lon="13.6892057"><ele>16.0</ele><time>2026-05-03T08:02:09.019Z</time></trkpt><trkpt lat="43.3658945" lon="13.6891978"><ele>16.0</ele><time>2026-05-03T08:02:10.02Z</time></trkpt><trkpt lat="43.3661959" lon="13.689194"><ele>16.0</ele><time>2026-05-03T08:02:11.019Z</time></trkpt><trkpt lat="43.3664981" lon="13.6891913"><ele>16.5</ele><time>2026-05-03T08:02:12.02Z</time></trkpt><trkpt lat="43.366803" lon="13.6891934"><ele>17.0</ele><time>2026-05-03T08:02:13.018Z</time></trkpt><trkpt lat="43.3671052" lon="13.6891927"><ele>16.0</ele><time>2026-05-03T08:02:14.019Z</time></trkpt><trkpt lat="43.3674082" lon="13.6891766"><ele>15.0</ele><time>2026-05-03T08:02:15.02Z</time></trkpt><trkpt lat="43.3677138" lon="13.6891512"><ele>15.0</ele><time>2026-05-03T08:02:16.019Z</time></trkpt><trkpt lat="43.3680175" lon="13.6891057"><ele>15.0</ele><time>2026-05-03T08:02:17.019Z</time></trkpt><trkpt lat="43.3683258" lon="13.689047"><ele>13.0</ele><time>2026-05-03T08:02:18.019Z</time></trkpt><trkpt lat="43.3686317" lon="13.6889754"><ele>11.0</ele><time>2026-05-03T08:02:19.019Z</time></trkpt><trkpt lat="43.368937" lon="13.68889"><ele>9.0</ele><time>2026-05-03T08:02:20.019Z</time></trkpt><trkpt lat="43.3692378" lon="13.6887971"><ele>7.0</ele><time>2026-05-03T08:02:21.019Z</time></trkpt><trkpt lat="43.3695378" lon="13.6886937"><ele>8.0</ele><time>2026-05-03T08:02:22.02Z</time></trkpt><trkpt lat="43.3698351" lon="13.6885772"><ele>9.0</ele><time>2026-05-03T08:02:23.02Z</time></trkpt><trkpt lat="43.3701333" lon="13.6884468"><ele>9.0</ele><time>2026-05-03T08:02:24.02Z</time></trkpt><trkpt lat="43.370431" lon="13.6883072"><ele>9.0</ele><time>2026-05-03T08:02:25.019Z</time></trkpt><trkpt lat="43.3707264" lon="13.6881613"><ele>7.5</ele><time>2026-05-03T08:02:26.02Z</time></trkpt><trkpt lat="43.37102" lon="13.6880166"><ele>6.0</ele><time>2026-05-03T08:02:27.02Z</time></trkpt><trkpt lat="43.3713146" lon="13.6878617"><ele>7.5</ele><time>2026-05-03T08:02:28.02Z</time></trkpt><trkpt lat="43.3716067" lon="13.6877114"><ele>9.0</ele><time>2026-05-03T08:02:29.019Z</time></trkpt><trkpt lat="43.3719024" lon="13.6875666"><ele>7.5</ele><time>2026-05-03T08:02:30.02Z</time></trkpt><trkpt lat="43.3721956" lon="13.6874086"><ele>6.0</ele><time>2026-05-03T08:02:31.019Z</time></trkpt><trkpt lat="43.3724896" lon="13.6872529"><ele>6.0</ele><time>2026-05-03T08:02:32.018Z</time></trkpt><trkpt lat="43.3727816" lon="13.6870983"><ele>6.0</ele><time>2026-05-03T08:02:33.018Z</time></trkpt><trkpt lat="43.3730772" lon="13.6869459"><ele>7.5</ele><time>2026-05-03T08:02:34.019Z</time></trkpt><trkpt lat="43.3733689" lon="13.6867951"><ele>9.0</ele><time>2026-05-03T08:02:35.02Z</time></trkpt><trkpt lat="43.3736631" lon="13.6866514"><ele>7.0</ele><time>2026-05-03T08:02:36.018Z</time></trkpt><trkpt lat="43.3739564" lon="13.6865072"><ele>5.0</ele><time>2026-05-03T08:02:37.02Z</time></trkpt><trkpt lat="43.3742514" lon="13.6863662"><ele>5.0</ele><time>2026-05-03T08:02:38.019Z</time></trkpt><trkpt lat="43.3745451" lon="13.6862268"><ele>5.0</ele><time>2026-05-03T08:02:39.02Z</time></trkpt><trkpt lat="43.3748351" lon="13.6860848"><ele>7.0</ele><time>2026-05-03T08:02:40.02Z</time></trkpt><trkpt lat="43.3751272" lon="13.6859417"><ele>9.0</ele><time>2026-05-03T08:02:41.02Z</time></trkpt><trkpt lat="43.3754142" lon="13.6857949"><ele>7.0</ele><time>2026-05-03T08:02:42.02Z</time></trkpt><trkpt lat="43.3757034" lon="13.6856516"><ele>5.0</ele><time>2026-05-03T08:02:43.018Z</time></trkpt><trkpt lat="43.3759908" lon="13.6855115"><ele>5.0</ele><time>2026-05-03T08:02:44.02Z</time></trkpt><trkpt lat="43.3762776" lon="13.6853717"><ele>5.0</ele><time>2026-05-03T08:02:45.02Z</time></trkpt><trkpt lat="43.3765648" lon="13.6852273"><ele>6.5</ele><time>2026-05-03T08:02:46.02Z</time></trkpt><trkpt lat="43.3768551" lon="13.6850855"><ele>8.0</ele><time>2026-05-03T08:02:47.019Z</time></trkpt><trkpt lat="43.377143" lon="13.6849413"><ele>6.5</ele><time>2026-05-03T08:02:48.02Z</time></trkpt><trkpt lat="43.3774332" lon="13.6847968"><ele>5.0</ele><time>2026-05-03T08:02:49.017Z</time></trkpt><trkpt lat="43.3777243" lon="13.6846533"><ele>5.0</ele><time>2026-05-03T08:02:50.018Z</time></trkpt><trkpt lat="43.3780151" lon="13.6845072"><ele>5.0</ele><time>2026-05-03T08:02:51.019Z</time></trkpt><trkpt lat="43.3783066" lon="13.6843688"><ele>5.0</ele><time>2026-05-03T08:02:52.018Z</time></trkpt><trkpt lat="43.3785983" lon="13.6842227"><ele>5.0</ele><time>2026-05-03T08:02:53.019Z</time></trkpt><trkpt lat="43.3788909" lon="13.6840856"><ele>5.0</ele><time>2026-05-03T08:02:54.018Z</time></trkpt><trkpt lat="43.3791821" lon="13.6839487"><ele>5.0</ele><time>2026-05-03T08:02:55.019Z</time></trkpt><trkpt lat="43.3794715" lon="13.6838142"><ele>4.0</ele><time>2026-05-03T08:02:56.019Z</time></trkpt><trkpt lat="43.3797621" lon="13.6836732"><ele>3.0</ele><time>2026-05-03T08:02:57.018Z</time></trkpt><trkpt lat="43.3800483" lon="13.683538"><ele>4.0</ele><time>2026-05-03T08:02:58.018Z</time></trkpt><trkpt lat="43.3803365" lon="13.683396"><ele>5.0</ele><time>2026-05-03T08:02:59.019Z</time></trkpt><trkpt lat="43.3806232" lon="13.6832529"><ele>5.0</ele><time>2026-05-03T08:03:00.019Z</time></trkpt><trkpt lat="43.3809116" lon="13.6831065"><ele>5.0</ele><time>2026-05-03T08:03:01.019Z</time></trkpt><trkpt lat="43.3812016" lon="13.6829682"><ele>4.0</ele><time>2026-05-03T08:03:02.018Z</time></trkpt><trkpt lat="43.3814928" lon="13.682826"><ele>3.0</ele><time>2026-05-03T08:03:03.019Z</time></trkpt><trkpt lat="43.3817797" lon="13.6826807"><ele>4.0</ele><time>2026-05-03T08:03:04.017Z</time></trkpt><trkpt lat="43.3820733" lon="13.6825409"><ele>5.0</ele><time>2026-05-03T08:03:05.018Z</time></trkpt><trkpt lat="43.38236" lon="13.6823972"><ele>5.0</ele><time>2026-05-03T08:03:06.018Z</time></trkpt><trkpt lat="43.3826441" lon="13.6822553"><ele>5.0</ele><time>2026-05-03T08:03:07.019Z</time></trkpt><trkpt lat="43.3829321" lon="13.6821143"><ele>5.0</ele><time>2026-05-03T08:03:08.018Z</time></trkpt><trkpt lat="43.38322" lon="13.6819736"><ele>5.0</ele><time>2026-05-03T08:03:09.018Z</time></trkpt><trkpt lat="43.3835039" lon="13.6818352"><ele>6.0</ele><time>2026-05-03T08:03:10.018Z</time></trkpt><trkpt lat="43.3837833" lon="13.6816949"><ele>7.0</ele><time>2026-05-03T08:03:11.019Z</time></trkpt><trkpt lat="43.3840625" lon="13.6815485"><ele>7.0</ele><time>2026-05-03T08:03:12.019Z</time></trkpt><trkpt lat="43.3843436" lon="13.6814075"><ele>7.0</ele><time>2026-05-03T08:03:13.019Z</time></trkpt><trkpt lat="43.3846202" lon="13.6812585"><ele>7.0</ele><time>2026-05-03T08:03:14.019Z</time></trkpt><trkpt lat="43.3848951" lon="13.681099"><ele>7.0</ele><time>2026-05-03T08:03:15.019Z</time></trkpt><trkpt lat="43.3851678" lon="13.6809346"><ele>7.0</ele><time>2026-05-03T08:03:16.019Z</time></trkpt><trkpt lat="43.3854393" lon="13.6807673"><ele>7.0</ele><time>2026-05-03T08:03:17.019Z</time></trkpt><trkpt lat="43.3857065" lon="13.6805954"><ele>6.5</ele><time>2026-05-03T08:03:18.019Z</time></trkpt><trkpt lat="43.385969" lon="13.6804167"><ele>6.0</ele><time>2026-05-03T08:03:19.018Z</time></trkpt><trkpt lat="43.3862285" lon="13.6802309"><ele>5.5</ele><time>2026-05-03T08:03:20.019Z</time></trkpt><trkpt lat="43.3864861" lon="13.6800383"><ele>5.0</ele><time>2026-05-03T08:03:21.018Z</time></trkpt><trkpt lat="43.3867383" lon="13.6798413"><ele>5.0</ele><time>2026-05-03T08:03:22.018Z</time></trkpt><trkpt lat="43.3869894" lon="13.6796378"><ele>5.0</ele><time>2026-05-03T08:03:23.018Z</time></trkpt><trkpt lat="43.3872365" lon="13.679429"><ele>5.0</ele><time>2026-05-03T08:03:24.019Z</time></trkpt><trkpt lat="43.387483" lon="13.6792169"><ele>5.0</ele><time>2026-05-03T08:03:25.019Z</time></trkpt><trkpt lat="43.3877281" lon="13.6790021"><ele>5.0</ele><time>2026-05-03T08:03:26.019Z</time></trkpt><trkpt lat="43.3879707" lon="13.6787814"><ele>5.0</ele><time>2026-05-03T08:03:27.019Z</time></trkpt><trkpt lat="43.3882145" lon="13.6785579"><ele>6.5</ele><time>2026-05-03T08:03:28.018Z</time></trkpt><trkpt lat="43.3884566" lon="13.6783289"><ele>8.0</ele><time>2026-05-03T08:03:29.018Z</time></trkpt><trkpt lat="43.388701" lon="13.6780996"><ele>8.0</ele><time>2026-05-03T08:03:30.019Z</time></trkpt><trkpt lat="43.388949" lon="13.6778707"><ele>8.0</ele><time>2026-05-03T08:03:31.019Z</time></trkpt><trkpt lat="43.3891981" lon="13.6776415"><ele>7.0</ele><time>2026-05-03T08:03:32.019Z</time></trkpt><trkpt lat="43.389449" lon="13.6774101"><ele>6.0</ele><time>2026-05-03T08:03:33.019Z</time></trkpt><trkpt lat="43.3897015" lon="13.6771746"><ele>6.0</ele><time>2026-05-03T08:03:34.017Z</time></trkpt><trkpt lat="43.3899498" lon="13.6769414"><ele>6.0</ele><time>2026-05-03T08:03:35.019Z</time></trkpt><trkpt lat="43.3901998" lon="13.6767086"><ele>5.5</ele><time>2026-05-03T08:03:36.018Z</time></trkpt><trkpt lat="43.3904508" lon="13.6764748"><ele>5.0</ele><time>2026-05-03T08:03:37.019Z</time></trkpt><trkpt lat="43.3907017" lon="13.6762391"><ele>4.5</ele><time>2026-05-03T08:03:38.019Z</time></trkpt><trkpt lat="43.39095" lon="13.675998"><ele>4.0</ele><time>2026-05-03T08:03:39.018Z</time></trkpt><trkpt lat="43.3912026" lon="13.675746"><ele>4.0</ele><time>2026-05-03T08:03:40.018Z</time></trkpt><trkpt lat="43.3914613" lon="13.6754958"><ele>4.0</ele><time>2026-05-03T08:03:41.019Z</time></trkpt><trkpt lat="43.3917253" lon="13.6752455"><ele>4.0</ele><time>2026-05-03T08:03:42.017Z</time></trkpt><trkpt lat="43.3919903" lon="13.6749849"><ele>4.0</ele><time>2026-05-03T08:03:43.018Z</time></trkpt><trkpt lat="43.3922582" lon="13.6747254"><ele>3.5</ele><time>2026-05-03T08:03:44.018Z</time></trkpt><trkpt lat="43.3925286" lon="13.6744651"><ele>3.0</ele><time>2026-05-03T08:03:45.019Z</time></trkpt><trkpt lat="43.3928037" lon="13.6742083"><ele>2.0</ele><time>2026-05-03T08:03:46.019Z</time></trkpt><trkpt lat="43.3930824" lon="13.6739502"><ele>1.0</ele><time>2026-05-03T08:03:47.018Z</time></trkpt><trkpt lat="43.3933604" lon="13.6736897"><ele>0.5</ele><time>2026-05-03T08:03:48.019Z</time></trkpt><trkpt lat="43.3936443" lon="13.6734331"><ele>0.0</ele><time>2026-05-03T08:03:49.019Z</time></trkpt><trkpt lat="43.393934" lon="13.6731809"><ele>0.0</ele><time>2026-05-03T08:03:50.019Z</time></trkpt><trkpt lat="43.3942228" lon="13.6729294"><ele>0.0</ele><time>2026-05-03T08:03:51.019Z</time></trkpt><trkpt lat="43.3945077" lon="13.6726736"><ele>1.0</ele><time>2026-05-03T08:03:52.019Z</time></trkpt><trkpt lat="43.3947909" lon="13.6724157"><ele>2.0</ele><time>2026-05-03T08:03:53.019Z</time></trkpt><trkpt lat="43.3950717" lon="13.6721591"><ele>2.0</ele><time>2026-05-03T08:03:54.019Z</time></trkpt><trkpt lat="43.3953519" lon="13.6719032"><ele>2.0</ele><time>2026-05-03T08:03:55.018Z</time></trkpt><trkpt lat="43.3956302" lon="13.6716498"><ele>2.0</ele><time>2026-05-03T08:03:56.019Z</time></trkpt><trkpt lat="43.3959076" lon="13.671398"><ele>2.0</ele><time>2026-05-03T08:03:57.018Z</time></trkpt><trkpt lat="43.3961833" lon="13.6711491"><ele>0.5</ele><time>2026-05-03T08:03:58.019Z</time></trkpt><trkpt lat="43.3964561" lon="13.6708983"><ele>-1.0</ele><time>2026-05-03T08:03:59.019Z</time></trkpt><trkpt lat="43.3967262" lon="13.6706451"><ele>-1.0</ele><time>2026-05-03T08:04:00.018Z</time></trkpt><trkpt lat="43.3969945" lon="13.670394"><ele>-1.0</ele><time>2026-05-03T08:04:01.018Z</time></trkpt><trkpt lat="43.3972608" lon="13.6701496"><ele>0.0</ele><time>2026-05-03T08:04:02.018Z</time></trkpt><trkpt lat="43.3975225" lon="13.6699074"><ele>1.0</ele><time>2026-05-03T08:04:03.018Z</time></trkpt><trkpt lat="43.3977806" lon="13.6696658"><ele>1.5</ele><time>2026-05-03T08:04:04.018Z</time></trkpt><trkpt lat="43.3980369" lon="13.6694258"><ele>2.0</ele><time>2026-05-03T08:04:05.019Z</time></trkpt><trkpt lat="43.3982909" lon="13.6691901"><ele>2.0</ele><time>2026-05-03T08:04:06.018Z</time></trkpt><trkpt lat="43.3985435" lon="13.6689573"><ele>2.0</ele><time>2026-05-03T08:04:07.019Z</time></trkpt><trkpt lat="43.3987938" lon="13.6687246"><ele>2.0</ele><time>2026-05-03T08:04:08.019Z</time></trkpt><trkpt lat="43.3990428" lon="13.6684931"><ele>2.0</ele><time>2026-05-03T08:04:09.019Z</time></trkpt><trkpt lat="43.3992895" lon="13.6682637"><ele>2.0</ele><time>2026-05-03T08:04:10.019Z</time></trkpt><trkpt lat="43.399537" lon="13.6680317"><ele>2.0</ele><time>2026-05-03T08:04:11.019Z</time></trkpt><trkpt lat="43.3997858" lon="13.6678004"><ele>2.5</ele><time>2026-05-03T08:04:12.019Z</time></trkpt><trkpt lat="43.4000342" lon="13.6675721"><ele>3.0</ele><time>2026-05-03T08:04:13.018Z</time></trkpt><trkpt lat="43.4002823" lon="13.6673423"><ele>3.0</ele><time>2026-05-03T08:04:14.019Z</time></trkpt><trkpt lat="43.4005299" lon="13.6671126"><ele>3.0</ele><time>2026-05-03T08:04:15.017Z</time></trkpt><trkpt lat="43.4007762" lon="13.6668811"><ele>3.0</ele><time>2026-05-03T08:04:16.019Z</time></trkpt><trkpt lat="43.4010243" lon="13.6666528"><ele>3.0</ele><time>2026-05-03T08:04:17.019Z</time></trkpt><trkpt lat="43.4012714" lon="13.6664238"><ele>3.0</ele><time>2026-05-03T08:04:18.017Z</time></trkpt><trkpt lat="43.4015176" lon="13.6661919"><ele>3.0</ele><time>2026-05-03T08:04:19.018Z</time></trkpt><trkpt lat="43.4017641" lon="13.6659601"><ele>3.0</ele><time>2026-05-03T08:04:20.018Z</time></trkpt><trkpt lat="43.4020124" lon="13.6657313"><ele>3.0</ele><time>2026-05-03T08:04:21.018Z</time></trkpt><trkpt lat="43.4022601" lon="13.6655013"><ele>3.5</ele><time>2026-05-03T08:04:22.019Z</time></trkpt><trkpt lat="43.402508" lon="13.6652699"><ele>4.0</ele><time>2026-05-03T08:04:23.019Z</time></trkpt><trkpt lat="43.4027568" lon="13.6650378"><ele>4.5</ele><time>2026-05-03T08:04:24.018Z</time></trkpt><trkpt lat="43.4030067" lon="13.6648046"><ele>5.0</ele><time>2026-05-03T08:04:25.019Z</time></trkpt><trkpt lat="43.4032603" lon="13.6645748"><ele>5.5</ele><time>2026-05-03T08:04:26.019Z</time></trkpt><trkpt lat="43.4035204" lon="13.6643475"><ele>6.0</ele><time>2026-05-03T08:04:27.019Z</time></trkpt><trkpt lat="43.4037826" lon="13.6641404"><ele>5.0</ele><time>2026-05-03T08:04:28.018Z</time></trkpt><trkpt lat="43.40405" lon="13.6639313"><ele>4.0</ele><time>2026-05-03T08:04:29.019Z</time></trkpt><trkpt lat="43.4043212" lon="13.6637302"><ele>4.0</ele><time>2026-05-03T08:04:30.019Z</time></trkpt><trkpt lat="43.4045955" lon="13.6635402"><ele>4.0</ele><time>2026-05-03T08:04:31.019Z</time></trkpt><trkpt lat="43.4048731" lon="13.663356"><ele>4.0</ele><time>2026-05-03T08:04:32.019Z</time></trkpt><trkpt lat="43.4051549" lon="13.6631789"><ele>4.0</ele><time>2026-05-03T08:04:33.019Z</time></trkpt><trkpt lat="43.4054402" lon="13.6630128"><ele>4.0</ele><time>2026-05-03T08:04:34.018Z</time></trkpt><trkpt lat="43.4057289" lon="13.6628537"><ele>4.0</ele><time>2026-05-03T08:04:35.018Z</time></trkpt><trkpt lat="43.4060195" lon="13.6627014"><ele>4.0</ele><time>2026-05-03T08:04:36.019Z</time></trkpt><trkpt lat="43.4063127" lon="13.6625613"><ele>4.0</ele><time>2026-05-03T08:04:37.019Z</time></trkpt><trkpt lat="43.4066078" lon="13.6624303"><ele>4.0</ele><time>2026-05-03T08:04:38.018Z</time></trkpt><trkpt lat="43.4069057" lon="13.6623067"><ele>4.0</ele><time>2026-05-03T08:04:39.019Z</time></trkpt><trkpt lat="43.407204" lon="13.6621891"><ele>4.5</ele><time>2026-05-03T08:04:40.019Z</time></trkpt><trkpt lat="43.4075021" lon="13.6620702"><ele>5.0</ele><time>2026-05-03T08:04:41.019Z</time></trkpt><trkpt lat="43.4078002" lon="13.6619516"><ele>5.0</ele><time>2026-05-03T08:04:42.019Z</time></trkpt><trkpt lat="43.4080977" lon="13.6618334"><ele>5.0</ele><time>2026-05-03T08:04:43.018Z</time></trkpt><trkpt lat="43.4083951" lon="13.6617124"><ele>5.0</ele><time>2026-05-03T08:04:44.019Z</time></trkpt><trkpt lat="43.4086951" lon="13.6615928"><ele>5.0</ele><time>2026-05-03T08:04:45.017Z</time></trkpt><trkpt lat="43.4089937" lon="13.6614711"><ele>5.0</ele><time>2026-05-03T08:04:46.018Z</time></trkpt><trkpt lat="43.4092923" lon="13.6613523"><ele>5.0</ele><time>2026-05-03T08:04:47.019Z</time></trkpt><trkpt lat="43.4095887" lon="13.6612377"><ele>5.5</ele><time>2026-05-03T08:04:48.018Z</time></trkpt><trkpt lat="43.4098871" lon="13.6611215"><ele>6.0</ele><time>2026-05-03T08:04:49.018Z</time></trkpt><trkpt lat="43.4101819" lon="13.6610067"><ele>6.0</ele><time>2026-05-03T08:04:50.019Z</time></trkpt><trkpt lat="43.4104793" lon="13.6608901"><ele>6.0</ele><time>2026-05-03T08:04:51.019Z</time></trkpt><trkpt lat="43.410776" lon="13.6607743"><ele>5.5</ele><time>2026-05-03T08:04:52.019Z</time></trkpt><trkpt lat="43.4110709" lon="13.6606596"><ele>5.0</ele><time>2026-05-03T08:04:53.018Z</time></trkpt><trkpt lat="43.4113642" lon="13.6605395"><ele>4.5</ele><time>2026-05-03T08:04:54.019Z</time></trkpt><trkpt lat="43.4116569" lon="13.6604227"><ele>4.0</ele><time>2026-05-03T08:04:55.019Z</time></trkpt><trkpt lat="43.4119518" lon="13.6603081"><ele>4.5</ele><time>2026-05-03T08:04:56.018Z</time></trkpt><trkpt lat="43.4122458" lon="13.6601951"><ele>5.0</ele><time>2026-05-03T08:04:57.019Z</time></trkpt><trkpt lat="43.4125413" lon="13.6600779"><ele>5.0</ele><time>2026-05-03T08:04:58.019Z</time></trkpt><trkpt lat="43.412834" lon="13.6599642"><ele>5.0</ele><time>2026-05-03T08:04:59.018Z</time></trkpt><trkpt lat="43.4131254" lon="13.6598483"><ele>5.5</ele><time>2026-05-03T08:05:00.019Z</time></trkpt><trkpt lat="43.4134182" lon="13.6597343"><ele>6.0</ele><time>2026-05-03T08:05:01.018Z</time></trkpt><trkpt lat="43.4137077" lon="13.6596205"><ele>5.5</ele><time>2026-05-03T08:05:02.018Z</time></trkpt><trkpt lat="43.413997" lon="13.6595045"><ele>5.0</ele><time>2026-05-03T08:05:03.018Z</time></trkpt><trkpt lat="43.4142883" lon="13.6593894"><ele>5.0</ele><time>2026-05-03T08:05:04.018Z</time></trkpt><trkpt lat="43.414579" lon="13.6592756"><ele>5.0</ele><time>2026-05-03T08:05:05.018Z</time></trkpt><trkpt lat="43.4148678" lon="13.659165"><ele>4.0</ele><time>2026-05-03T08:05:06.019Z</time></trkpt><trkpt lat="43.4151561" lon="13.6590522"><ele>3.0</ele><time>2026-05-03T08:05:07.019Z</time></trkpt><trkpt lat="43.4154417" lon="13.6589394"><ele>4.0</ele><time>2026-05-03T08:05:08.018Z</time></trkpt><trkpt lat="43.415727" lon="13.6588232"><ele>5.0</ele><time>2026-05-03T08:05:09.018Z</time></trkpt><trkpt lat="43.4160114" lon="13.6587067"><ele>5.0</ele><time>2026-05-03T08:05:10.018Z</time></trkpt><trkpt lat="43.4162921" lon="13.658591"><ele>5.0</ele><time>2026-05-03T08:05:11.019Z</time></trkpt><trkpt lat="43.4165749" lon="13.6584758"><ele>5.0</ele><time>2026-05-03T08:05:12.018Z</time></trkpt><trkpt lat="43.4168565" lon="13.658368"><ele>5.0</ele><time>2026-05-03T08:05:13.019Z</time></trkpt><trkpt lat="43.4171395" lon="13.6582605"><ele>5.5</ele><time>2026-05-03T08:05:14.019Z</time></trkpt><trkpt lat="43.417419" lon="13.6581507"><ele>6.0</ele><time>2026-05-03T08:05:15.018Z</time></trkpt><trkpt lat="43.4176974" lon="13.6580378"><ele>6.0</ele><time>2026-05-03T08:05:16.019Z</time></trkpt><trkpt lat="43.4179743" lon="13.6579261"><ele>6.0</ele><time>2026-05-03T08:05:17.018Z</time></trkpt><trkpt lat="43.4182516" lon="13.6578187"><ele>6.5</ele><time>2026-05-03T08:05:18.018Z</time></trkpt><trkpt lat="43.418527" lon="13.6577124"><ele>7.0</ele><time>2026-05-03T08:05:19.018Z</time></trkpt><trkpt lat="43.4188016" lon="13.6576044"><ele>5.5</ele><time>2026-05-03T08:05:20.019Z</time></trkpt><trkpt lat="43.4190752" lon="13.6574981"><ele>4.0</ele><time>2026-05-03T08:05:21.019Z</time></trkpt><trkpt lat="43.4193496" lon="13.657391"><ele>4.0</ele><time>2026-05-03T08:05:22.019Z</time></trkpt><trkpt lat="43.4196251" lon="13.6572873"><ele>4.0</ele><time>2026-05-03T08:05:23.019Z</time></trkpt><trkpt lat="43.4198993" lon="13.657175"><ele>5.5</ele><time>2026-05-03T08:05:24.019Z</time></trkpt><trkpt lat="43.4201751" lon="13.6570696"><ele>7.0</ele><time>2026-05-03T08:05:25.018Z</time></trkpt><trkpt lat="43.4204516" lon="13.6569671"><ele>14.5</ele><time>2026-05-03T08:05:26.018Z</time></trkpt><trkpt lat="43.4207298" lon="13.6568684"><ele>22.0</ele><time>2026-05-03T08:05:27.019Z</time></trkpt><trkpt lat="43.4210076" lon="13.6567807"><ele>22.0</ele><time>2026-05-03T08:05:28.019Z</time></trkpt><trkpt lat="43.4212868" lon="13.6567011"><ele>22.0</ele><time>2026-05-03T08:05:29.019Z</time></trkpt><trkpt lat="43.4215732" lon="13.6566288"><ele>29.0</ele><time>2026-05-03T08:05:30.019Z</time></trkpt><trkpt lat="43.4218594" lon="13.6565652"><ele>36.0</ele><time>2026-05-03T08:05:31.019Z</time></trkpt><trkpt lat="43.4221474" lon="13.6565124"><ele>36.5</ele><time>2026-05-03T08:05:32.019Z</time></trkpt><trkpt lat="43.422437" lon="13.6564683"><ele>37.0</ele><time>2026-05-03T08:05:33.019Z</time></trkpt><trkpt lat="43.4227284" lon="13.6564311"><ele>32.5</ele><time>2026-05-03T08:05:34.019Z</time></trkpt><trkpt lat="43.4230207" lon="13.6563981"><ele>28.0</ele><time>2026-05-03T08:05:35.018Z</time></trkpt><trkpt lat="43.4233144" lon="13.6563838"><ele>28.0</ele><time>2026-05-03T08:05:36.018Z</time></trkpt><trkpt lat="43.4236123" lon="13.656368"><ele>28.0</ele><time>2026-05-03T08:05:37.019Z</time></trkpt><trkpt lat="43.4239101" lon="13.6563485"><ele>28.0</ele><time>2026-05-03T08:05:38.018Z</time></trkpt><trkpt lat="43.4242057" lon="13.6563317"><ele>28.0</ele><time>2026-05-03T08:05:39.019Z</time></trkpt><trkpt lat="43.4245026" lon="13.6563092"><ele>33.0</ele><time>2026-05-03T08:05:40.019Z</time></trkpt><trkpt lat="43.4248013" lon="13.6562702"><ele>38.0</ele><time>2026-05-03T08:05:41.018Z</time></trkpt><trkpt lat="43.4250977" lon="13.6562102"><ele>38.0</ele><time>2026-05-03T08:05:42.019Z</time></trkpt><trkpt lat="43.4253921" lon="13.6561251"><ele>38.0</ele><time>2026-05-03T08:05:43.019Z</time></trkpt><trkpt lat="43.4256803" lon="13.6560148"><ele>38.0</ele><time>2026-05-03T08:05:44.019Z</time></trkpt><trkpt lat="43.4259704" lon="13.6558897"><ele>38.0</ele><time>2026-05-03T08:05:45.018Z</time></trkpt><trkpt lat="43.42625" lon="13.6557449"><ele>38.0</ele><time>2026-05-03T08:05:46.019Z</time></trkpt><trkpt lat="43.4265269" lon="13.6555765"><ele>38.0</ele><time>2026-05-03T08:05:47.019Z</time></trkpt><trkpt lat="43.4267964" lon="13.6553888"><ele>40.5</ele><time>2026-05-03T08:05:48.018Z</time></trkpt><trkpt lat="43.4270666" lon="13.6551925"><ele>43.0</ele><time>2026-05-03T08:05:49.019Z</time></trkpt><trkpt lat="43.4273137" lon="13.654943"><ele>37.5</ele><time>2026-05-03T08:05:50.019Z</time></trkpt><trkpt lat="43.4275635" lon="13.6547004"><ele>32.0</ele><time>2026-05-03T08:05:51.018Z</time></trkpt><trkpt lat="43.4278011" lon="13.6544299"><ele>28.0</ele><time>2026-05-03T08:05:52.019Z</time></trkpt><trkpt lat="43.4280281" lon="13.6541416"><ele>24.0</ele><time>2026-05-03T08:05:53.018Z</time></trkpt><trkpt lat="43.4282411" lon="13.6538293"><ele>25.0</ele><time>2026-05-03T08:05:54.018Z</time></trkpt><trkpt lat="43.4284415" lon="13.6535075"><ele>26.0</ele><time>2026-05-03T08:05:55.018Z</time></trkpt><trkpt lat="43.428631" lon="13.65317"><ele>26.0</ele><time>2026-05-03T08:05:56.017Z</time></trkpt><trkpt lat="43.428808" lon="13.6528177"><ele>26.0</ele><time>2026-05-03T08:05:57.017Z</time></trkpt><trkpt lat="43.4289727" lon="13.6524618"><ele>26.0</ele><time>2026-05-03T08:05:58.019Z</time></trkpt><trkpt lat="43.42914" lon="13.6520979"><ele>26.0</ele><time>2026-05-03T08:05:59.019Z</time></trkpt><trkpt lat="43.4293063" lon="13.6517347"><ele>26.0</ele><time>2026-05-03T08:06:00.019Z</time></trkpt><trkpt lat="43.4294734" lon="13.6513668"><ele>26.0</ele><time>2026-05-03T08:06:01.018Z</time></trkpt><trkpt lat="43.4296398" lon="13.6509994"><ele>23.0</ele><time>2026-05-03T08:06:02.018Z</time></trkpt><trkpt lat="43.4298052" lon="13.6506268"><ele>20.0</ele><time>2026-05-03T08:06:03.019Z</time></trkpt><trkpt lat="43.4299681" lon="13.650253"><ele>20.0</ele><time>2026-05-03T08:06:04.018Z</time></trkpt><trkpt lat="43.4301323" lon="13.6498784"><ele>20.0</ele><time>2026-05-03T08:06:05.019Z</time></trkpt><trkpt lat="43.4302963" lon="13.6495055"><ele>21.0</ele><time>2026-05-03T08:06:06.018Z</time></trkpt><trkpt lat="43.4304615" lon="13.6491358"><ele>22.0</ele><time>2026-05-03T08:06:07.018Z</time></trkpt><trkpt lat="43.4306286" lon="13.6487685"><ele>18.0</ele><time>2026-05-03T08:06:08.017Z</time></trkpt><trkpt lat="43.4307952" lon="13.6483988"><ele>14.0</ele><time>2026-05-03T08:06:09.019Z</time></trkpt><trkpt lat="43.4309625" lon="13.6480308"><ele>16.5</ele><time>2026-05-03T08:06:10.019Z</time></trkpt><trkpt lat="43.431128" lon="13.6476639"><ele>19.0</ele><time>2026-05-03T08:06:11.019Z</time></trkpt><trkpt lat="43.431294" lon="13.6472994"><ele>13.5</ele><time>2026-05-03T08:06:12.018Z</time></trkpt><trkpt lat="43.4314599" lon="13.6469359"><ele>8.0</ele><time>2026-05-03T08:06:13.019Z</time></trkpt><trkpt lat="43.4316266" lon="13.6465758"><ele>8.0</ele><time>2026-05-03T08:06:14.019Z</time></trkpt><trkpt lat="43.4317929" lon="13.6462168"><ele>8.0</ele><time>2026-05-03T08:06:15.019Z</time></trkpt><trkpt lat="43.4319661" lon="13.6458641"><ele>6.5</ele><time>2026-05-03T08:06:16.018Z</time></trkpt><trkpt lat="43.4321486" lon="13.6455239"><ele>5.0</ele><time>2026-05-03T08:06:17.019Z</time></trkpt><trkpt lat="43.432338" lon="13.6451949"><ele>5.0</ele><time>2026-05-03T08:06:18.018Z</time></trkpt><trkpt lat="43.4325308" lon="13.6448728"><ele>5.0</ele><time>2026-05-03T08:06:19.019Z</time></trkpt><trkpt lat="43.4327273" lon="13.6445589"><ele>5.5</ele><time>2026-05-03T08:06:20.019Z</time></trkpt><trkpt lat="43.4329295" lon="13.6442569"><ele>6.0</ele><time>2026-05-03T08:06:21.019Z</time></trkpt><trkpt lat="43.4331382" lon="13.6439636"><ele>6.5</ele><time>2026-05-03T08:06:22.019Z</time></trkpt><trkpt lat="43.4333481" lon="13.6436776"><ele>7.0</ele><time>2026-05-03T08:06:23.018Z</time></trkpt><trkpt lat="43.4335637" lon="13.6433989"><ele>7.0</ele><time>2026-05-03T08:06:24.019Z</time></trkpt><trkpt lat="43.4337791" lon="13.6431222"><ele>7.0</ele><time>2026-05-03T08:06:25.018Z</time></trkpt><trkpt lat="43.434011" lon="13.6428717"><ele>7.0</ele><time>2026-05-03T08:06:26.018Z</time></trkpt><trkpt lat="43.434241" lon="13.6426148"><ele>7.0</ele><time>2026-05-03T08:06:27.019Z</time></trkpt><trkpt lat="43.4344729" lon="13.6423593"><ele>7.0</ele><time>2026-05-03T08:06:28.019Z</time></trkpt><trkpt lat="43.4347036" lon="13.6421075"><ele>7.0</ele><time>2026-05-03T08:06:29.019Z</time></trkpt><trkpt lat="43.4349368" lon="13.6418548"><ele>6.5</ele><time>2026-05-03T08:06:30.019Z</time></trkpt><trkpt lat="43.4351664" lon="13.6416012"><ele>6.0</ele><time>2026-05-03T08:06:31.019Z</time></trkpt><trkpt lat="43.4353968" lon="13.6413489"><ele>6.5</ele><time>2026-05-03T08:06:32.018Z</time></trkpt><trkpt lat="43.4356276" lon="13.6410986"><ele>7.0</ele><time>2026-05-03T08:06:33.019Z</time></trkpt><trkpt lat="43.4358591" lon="13.6408449"><ele>7.0</ele><time>2026-05-03T08:06:34.019Z</time></trkpt><trkpt lat="43.4360883" lon="13.6405946"><ele>7.0</ele><time>2026-05-03T08:06:35.019Z</time></trkpt><trkpt lat="43.4363198" lon="13.640344"><ele>8.5</ele><time>2026-05-03T08:06:36.018Z</time></trkpt><trkpt lat="43.4365507" lon="13.6400946"><ele>10.0</ele><time>2026-05-03T08:06:37.019Z</time></trkpt><trkpt lat="43.43678" lon="13.6398441"><ele>10.0</ele><time>2026-05-03T08:06:38.018Z</time></trkpt><trkpt lat="43.43701" lon="13.6395921"><ele>10.0</ele><time>2026-05-03T08:06:39.018Z</time></trkpt><trkpt lat="43.4372411" lon="13.6393407"><ele>11.0</ele><time>2026-05-03T08:06:40.019Z</time></trkpt><trkpt lat="43.4374749" lon="13.6391089"><ele>12.0</ele><time>2026-05-03T08:06:41.019Z</time></trkpt><trkpt lat="43.4377077" lon="13.6388619"><ele>12.5</ele><time>2026-05-03T08:06:42.018Z</time></trkpt><trkpt lat="43.4379392" lon="13.6386106"><ele>13.0</ele><time>2026-05-03T08:06:43.019Z</time></trkpt><trkpt lat="43.438169" lon="13.6383612"><ele>11.5</ele><time>2026-05-03T08:06:44.019Z</time></trkpt><trkpt lat="43.4383987" lon="13.6381085"><ele>10.0</ele><time>2026-05-03T08:06:45.019Z</time></trkpt><trkpt lat="43.4386305" lon="13.637859"><ele>10.0</ele><time>2026-05-03T08:06:46.019Z</time></trkpt><trkpt lat="43.4388614" lon="13.6376052"><ele>10.0</ele><time>2026-05-03T08:06:47.018Z</time></trkpt><trkpt lat="43.4390922" lon="13.6373532"><ele>10.0</ele><time>2026-05-03T08:06:48.019Z</time></trkpt><trkpt lat="43.4393236" lon="13.6371001"><ele>10.0</ele><time>2026-05-03T08:06:49.018Z</time></trkpt><trkpt lat="43.4395548" lon="13.6368455"><ele>10.0</ele><time>2026-05-03T08:06:50.019Z</time></trkpt><trkpt lat="43.4397854" lon="13.6365934"><ele>10.0</ele><time>2026-05-03T08:06:51.017Z</time></trkpt><trkpt lat="43.4400171" lon="13.6363405"><ele>11.0</ele><time>2026-05-03T08:06:52.019Z</time></trkpt><trkpt lat="43.440248" lon="13.6360891"><ele>12.0</ele><time>2026-05-03T08:06:53.018Z</time></trkpt><trkpt lat="43.440479" lon="13.6358353"><ele>12.5</ele><time>2026-05-03T08:06:54.019Z</time></trkpt><trkpt lat="43.4407104" lon="13.6355822"><ele>13.0</ele><time>2026-05-03T08:06:55.019Z</time></trkpt><trkpt lat="43.4409406" lon="13.6353256"><ele>13.5</ele><time>2026-05-03T08:06:56.018Z</time></trkpt><trkpt lat="43.4411699" lon="13.6350684"><ele>14.0</ele><time>2026-05-03T08:06:57.018Z</time></trkpt><trkpt lat="43.4414001" lon="13.63481"><ele>15.0</ele><time>2026-05-03T08:06:58.018Z</time></trkpt><trkpt lat="43.4416306" lon="13.6345548"><ele>16.0</ele><time>2026-05-03T08:06:59.017Z</time></trkpt><trkpt lat="43.4418614" lon="13.6342956"><ele>16.0</ele><time>2026-05-03T08:07:00.018Z</time></trkpt><trkpt lat="43.4420916" lon="13.6340361"><ele>16.0</ele><time>2026-05-03T08:07:01.019Z</time></trkpt><trkpt lat="43.4423218" lon="13.6337741"><ele>17.5</ele><time>2026-05-03T08:07:02.018Z</time></trkpt><trkpt lat="43.4425495" lon="13.6335127"><ele>19.0</ele><time>2026-05-03T08:07:03.018Z</time></trkpt><trkpt lat="43.4427766" lon="13.6332508"><ele>16.0</ele><time>2026-05-03T08:07:04.019Z</time></trkpt><trkpt lat="43.4430011" lon="13.6329784"><ele>13.0</ele><time>2026-05-03T08:07:05.019Z</time></trkpt><trkpt lat="43.4432302" lon="13.6327054"><ele>13.0</ele><time>2026-05-03T08:07:06.019Z</time></trkpt><trkpt lat="43.4434605" lon="13.6324377"><ele>13.0</ele><time>2026-05-03T08:07:07.019Z</time></trkpt><trkpt lat="43.4436856" lon="13.6321667"><ele>11.0</ele><time>2026-05-03T08:07:08.019Z</time></trkpt><trkpt lat="43.4439146" lon="13.631894"><ele>9.0</ele><time>2026-05-03T08:07:09.019Z</time></trkpt><trkpt lat="43.4441424" lon="13.6316193"><ele>9.0</ele><time>2026-05-03T08:07:10.019Z</time></trkpt><trkpt lat="43.444365" lon="13.6313498"><ele>9.0</ele><time>2026-05-03T08:07:11.017Z</time></trkpt><trkpt lat="43.4445885" lon="13.6310801"><ele>9.0</ele><time>2026-05-03T08:07:12.019Z</time></trkpt><trkpt lat="43.4448112" lon="13.6308125"><ele>9.0</ele><time>2026-05-03T08:07:13.019Z</time></trkpt><trkpt lat="43.4450331" lon="13.6305475"><ele>9.5</ele><time>2026-05-03T08:07:14.018Z</time></trkpt><trkpt lat="43.4452543" lon="13.6302807"><ele>10.0</ele><time>2026-05-03T08:07:15.019Z</time></trkpt><trkpt lat="43.4454764" lon="13.6300142"><ele>9.0</ele><time>2026-05-03T08:07:16.019Z</time></trkpt><trkpt lat="43.4456997" lon="13.6297439"><ele>8.0</ele><time>2026-05-03T08:07:17.019Z</time></trkpt><trkpt lat="43.4459238" lon="13.62948"><ele>9.0</ele><time>2026-05-03T08:07:18.018Z</time></trkpt><trkpt lat="43.4461481" lon="13.6292157"><ele>10.0</ele><time>2026-05-03T08:07:19.019Z</time></trkpt><trkpt lat="43.4463729" lon="13.6289544"><ele>8.0</ele><time>2026-05-03T08:07:20.019Z</time></trkpt><trkpt lat="43.4466028" lon="13.6286991"><ele>6.0</ele><time>2026-05-03T08:07:21.018Z</time></trkpt><trkpt lat="43.4468319" lon="13.6284489"><ele>6.0</ele><time>2026-05-03T08:07:22.018Z</time></trkpt><trkpt lat="43.4470654" lon="13.628204"><ele>6.0</ele><time>2026-05-03T08:07:23.018Z</time></trkpt><trkpt lat="43.4472991" lon="13.627964"><ele>8.0</ele><time>2026-05-03T08:07:24.019Z</time></trkpt><trkpt lat="43.4475388" lon="13.6277293"><ele>10.0</ele><time>2026-05-03T08:07:25.019Z</time></trkpt><trkpt lat="43.4477814" lon="13.6275001"><ele>9.0</ele><time>2026-05-03T08:07:26.019Z</time></trkpt><trkpt lat="43.4480244" lon="13.6272754"><ele>8.0</ele><time>2026-05-03T08:07:27.019Z</time></trkpt><trkpt lat="43.4482728" lon="13.6270582"><ele>9.5</ele><time>2026-05-03T08:07:28.019Z</time></trkpt><trkpt lat="43.4485213" lon="13.626846"><ele>11.0</ele><time>2026-05-03T08:07:29.018Z</time></trkpt><trkpt lat="43.448771" lon="13.6266459"><ele>10.0</ele><time>2026-05-03T08:07:30.019Z</time></trkpt><trkpt lat="43.4490181" lon="13.6264593"><ele>9.0</ele><time>2026-05-03T08:07:31.018Z</time></trkpt><trkpt lat="43.4492533" lon="13.626276"><ele>9.0</ele><time>2026-05-03T08:07:32.019Z</time></trkpt><trkpt lat="43.4494813" lon="13.6261009"><ele>9.0</ele><time>2026-05-03T08:07:33.019Z</time></trkpt><trkpt lat="43.4497081" lon="13.6259305"><ele>8.5</ele><time>2026-05-03T08:07:34.018Z</time></trkpt><trkpt lat="43.4499301" lon="13.6257648"><ele>8.0</ele><time>2026-05-03T08:07:35.019Z</time></trkpt><trkpt lat="43.4501475" lon="13.6256017"><ele>8.0</ele><time>2026-05-03T08:07:36.017Z</time></trkpt><trkpt lat="43.4503625" lon="13.6254377"><ele>8.0</ele><time>2026-05-03T08:07:37.018Z</time></trkpt><trkpt lat="43.4505754" lon="13.6252804"><ele>8.0</ele><time>2026-05-03T08:07:38.018Z</time></trkpt><trkpt lat="43.4507781" lon="13.6251252"><ele>8.0</ele><time>2026-05-03T08:07:39.019Z</time></trkpt><trkpt lat="43.4509742" lon="13.6249796"><ele>8.0</ele><time>2026-05-03T08:07:40.019Z</time></trkpt><trkpt lat="43.451162" lon="13.6248336"><ele>8.0</ele><time>2026-05-03T08:07:41.019Z</time></trkpt><trkpt lat="43.4513494" lon="13.6246911"><ele>8.0</ele><time>2026-05-03T08:07:42.018Z</time></trkpt><trkpt lat="43.4515329" lon="13.6245482"><ele>7.333333333333333</ele><time>2026-05-03T08:07:43.018Z</time></trkpt><trkpt lat="43.4517167" lon="13.6244098"><ele>6.666666666666666</ele><time>2026-05-03T08:07:44.019Z</time></trkpt><trkpt lat="43.451901" lon="13.6242722"><ele>6.0</ele><time>2026-05-03T08:07:45.018Z</time></trkpt><trkpt lat="43.4520773" lon="13.6241349"><ele>6.0</ele><time>2026-05-03T08:07:46.019Z</time></trkpt><trkpt lat="43.4522544" lon="13.6239995"><ele>6.0</ele><time>2026-05-03T08:07:47.017Z</time></trkpt><trkpt lat="43.4524326" lon="13.6238668"><ele>6.0</ele><time>2026-05-03T08:07:48.019Z</time></trkpt><trkpt lat="43.4526062" lon="13.6237361"><ele>6.0</ele><time>2026-05-03T08:07:49.019Z</time></trkpt><trkpt lat="43.4527782" lon="13.6236055"><ele>6.0</ele><time>2026-05-03T08:07:50.018Z</time></trkpt><trkpt lat="43.4529475" lon="13.6234775"><ele>6.0</ele><time>2026-05-03T08:07:51.019Z</time></trkpt><trkpt lat="43.4531166" lon="13.6233471"><ele>6.0</ele><time>2026-05-03T08:07:52.019Z</time></trkpt><trkpt lat="43.4532849" lon="13.6232218"><ele>6.0</ele><time>2026-05-03T08:07:53.018Z</time></trkpt><trkpt lat="43.4534518" lon="13.6230917"><ele>6.0</ele><time>2026-05-03T08:07:54.019Z</time></trkpt><trkpt lat="43.4536241" lon="13.6229629"><ele>6.0</ele><time>2026-05-03T08:07:55.019Z</time></trkpt><trkpt lat="43.4537944" lon="13.6228326"><ele>6.0</ele><time>2026-05-03T08:07:56.019Z</time></trkpt><trkpt lat="43.453968" lon="13.6226995"><ele>6.0</ele><time>2026-05-03T08:07:57.017Z</time></trkpt><trkpt lat="43.4541401" lon="13.6225696"><ele>6.0</ele><time>2026-05-03T08:07:58.018Z</time></trkpt><trkpt lat="43.4543108" lon="13.6224362"><ele>6.0</ele><time>2026-05-03T08:07:59.018Z</time></trkpt><trkpt lat="43.4544808" lon="13.6223058"><ele>6.0</ele><time>2026-05-03T08:08:00.018Z</time></trkpt><trkpt lat="43.4546495" lon="13.6221808"><ele>5.666666666666667</ele><time>2026-05-03T08:08:01.018Z</time></trkpt><trkpt lat="43.4548237" lon="13.6220462"><ele>5.333333333333334</ele><time>2026-05-03T08:08:02.019Z</time></trkpt><trkpt lat="43.4549972" lon="13.6219121"><ele>5.0</ele><time>2026-05-03T08:08:03.019Z</time></trkpt><trkpt lat="43.4551637" lon="13.621783"><ele>5.0</ele><time>2026-05-03T08:08:04.018Z</time></trkpt><trkpt lat="43.4553247" lon="13.6216624"><ele>5.0</ele><time>2026-05-03T08:08:05.019Z</time></trkpt><trkpt lat="43.4554866" lon="13.6215437"><ele>5.0</ele><time>2026-05-03T08:08:06.019Z</time></trkpt><trkpt lat="43.455649" lon="13.621424"><ele>4.666666666666667</ele><time>2026-05-03T08:08:07.018Z</time></trkpt><trkpt lat="43.4558115" lon="13.6213013"><ele>4.333333333333333</ele><time>2026-05-03T08:08:08.018Z</time></trkpt><trkpt lat="43.4559727" lon="13.6211767"><ele>4.0</ele><time>2026-05-03T08:08:09.019Z</time></trkpt><trkpt lat="43.4561365" lon="13.6210584"><ele>4.333333333333333</ele><time>2026-05-03T08:08:10.018Z</time></trkpt><trkpt lat="43.4562979" lon="13.6209341"><ele>4.666666666666667</ele><time>2026-05-03T08:08:11.019Z</time></trkpt><trkpt lat="43.4564634" lon="13.6208104"><ele>5.0</ele><time>2026-05-03T08:08:12.018Z</time></trkpt><trkpt lat="43.4566255" lon="13.6206851"><ele>5.0</ele><time>2026-05-03T08:08:13.019Z</time></trkpt><trkpt lat="43.4567885" lon="13.6205583"><ele>5.0</ele><time>2026-05-03T08:08:14.018Z</time></trkpt><trkpt lat="43.456953" lon="13.620428"><ele>5.0</ele><time>2026-05-03T08:08:15.019Z</time></trkpt><trkpt lat="43.4571315" lon="13.6202905"><ele>5.666666666666667</ele><time>2026-05-03T08:08:16.018Z</time></trkpt><trkpt lat="43.4573193" lon="13.620148"><ele>6.333333333333334</ele><time>2026-05-03T08:08:17.019Z</time></trkpt><trkpt lat="43.4575158" lon="13.6199985"><ele>7.0</ele><time>2026-05-03T08:08:18.019Z</time></trkpt><trkpt lat="43.4577162" lon="13.6198466"><ele>7.0</ele><time>2026-05-03T08:08:19.018Z</time></trkpt><trkpt lat="43.4579199" lon="13.61969"><ele>7.0</ele><time>2026-05-03T08:08:20.019Z</time></trkpt><trkpt lat="43.4581233" lon="13.6195339"><ele>7.0</ele><time>2026-05-03T08:08:21.019Z</time></trkpt><trkpt lat="43.4585438" lon="13.6192104"><ele>7.0</ele><time>2026-05-03T08:08:23.018Z</time></trkpt><trkpt lat="43.4589853" lon="13.6188737"><ele>7.0</ele><time>2026-05-03T08:08:25.019Z</time></trkpt><trkpt lat="43.4592153" lon="13.6187059"><ele>7.0</ele><time>2026-05-03T08:08:26.019Z</time></trkpt><trkpt lat="43.4594438" lon="13.618535"><ele>6.5</ele><time>2026-05-03T08:08:27.018Z</time></trkpt><trkpt lat="43.4596747" lon="13.6183653"><ele>6.0</ele><time>2026-05-03T08:08:28.019Z</time></trkpt><trkpt lat="43.4599071" lon="13.6181889"><ele>6.0</ele><time>2026-05-03T08:08:29.019Z</time></trkpt><trkpt lat="43.4601393" lon="13.618011"><ele>6.0</ele><time>2026-05-03T08:08:30.018Z</time></trkpt><trkpt lat="43.4603751" lon="13.6178326"><ele>6.5</ele><time>2026-05-03T08:08:31.019Z</time></trkpt><trkpt lat="43.4606098" lon="13.61765"><ele>7.0</ele><time>2026-05-03T08:08:32.019Z</time></trkpt><trkpt lat="43.4608439" lon="13.6174666"><ele>7.0</ele><time>2026-05-03T08:08:33.019Z</time></trkpt><trkpt lat="43.4610872" lon="13.6172736"><ele>7.0</ele><time>2026-05-03T08:08:34.019Z</time></trkpt><trkpt lat="43.4613324" lon="13.6170861"><ele>6.5</ele><time>2026-05-03T08:08:35.019Z</time></trkpt><trkpt lat="43.4615774" lon="13.6168944"><ele>6.0</ele><time>2026-05-03T08:08:36.019Z</time></trkpt><trkpt lat="43.4618219" lon="13.6167007"><ele>6.0</ele><time>2026-05-03T08:08:37.018Z</time></trkpt><trkpt lat="43.4620636" lon="13.6165037"><ele>6.0</ele><time>2026-05-03T08:08:38.018Z</time></trkpt><trkpt lat="43.4623124" lon="13.6162995"><ele>5.0</ele><time>2026-05-03T08:08:39.019Z</time></trkpt><trkpt lat="43.4625697" lon="13.6160926"><ele>4.0</ele><time>2026-05-03T08:08:40.019Z</time></trkpt><trkpt lat="43.4628408" lon="13.6158833"><ele>4.5</ele><time>2026-05-03T08:08:41.019Z</time></trkpt><trkpt lat="43.4631135" lon="13.6156616"><ele>5.0</ele><time>2026-05-03T08:08:42.018Z</time></trkpt><trkpt lat="43.4633873" lon="13.6154339"><ele>5.0</ele><time>2026-05-03T08:08:43.019Z</time></trkpt><trkpt lat="43.4636709" lon="13.6152111"><ele>5.0</ele><time>2026-05-03T08:08:44.019Z</time></trkpt><trkpt lat="43.4639635" lon="13.6149918"><ele>5.0</ele><time>2026-05-03T08:08:45.017Z</time></trkpt><trkpt lat="43.4642563" lon="13.6147659"><ele>5.0</ele><time>2026-05-03T08:08:46.019Z</time></trkpt><trkpt lat="43.4645481" lon="13.614542"><ele>5.0</ele><time>2026-05-03T08:08:47.018Z</time></trkpt><trkpt lat="43.4648454" lon="13.6143196"><ele>5.0</ele><time>2026-05-03T08:08:48.019Z</time></trkpt><trkpt lat="43.4651496" lon="13.6140912"><ele>7.0</ele><time>2026-05-03T08:08:49.018Z</time></trkpt><trkpt lat="43.4654569" lon="13.6138629"><ele>9.0</ele><time>2026-05-03T08:08:50.018Z</time></trkpt><trkpt lat="43.4657687" lon="13.6136391"><ele>9.0</ele><time>2026-05-03T08:08:51.019Z</time></trkpt><trkpt lat="43.4660851" lon="13.6134013"><ele>9.0</ele><time>2026-05-03T08:08:52.018Z</time></trkpt><trkpt lat="43.4663988" lon="13.6131526"><ele>8.5</ele><time>2026-05-03T08:08:53.019Z</time></trkpt><trkpt lat="43.466713" lon="13.6128996"><ele>8.0</ele><time>2026-05-03T08:08:54.019Z</time></trkpt><trkpt lat="43.4670174" lon="13.6126433"><ele>7.5</ele><time>2026-05-03T08:08:55.019Z</time></trkpt><trkpt lat="43.4673157" lon="13.6123731"><ele>7.0</ele><time>2026-05-03T08:08:56.018Z</time></trkpt><trkpt lat="43.467607" lon="13.6120962"><ele>6.0</ele><time>2026-05-03T08:08:57.019Z</time></trkpt><trkpt lat="43.4678921" lon="13.6118166"><ele>5.0</ele><time>2026-05-03T08:08:58.018Z</time></trkpt><trkpt lat="43.468175" lon="13.611532"><ele>5.0</ele><time>2026-05-03T08:08:59.019Z</time></trkpt><trkpt lat="43.4684579" lon="13.6112427"><ele>5.0</ele><time>2026-05-03T08:09:00.018Z</time></trkpt><trkpt lat="43.4687415" lon="13.6109445"><ele>6.0</ele><time>2026-05-03T08:09:01.017Z</time></trkpt><trkpt lat="43.4690189" lon="13.610635"><ele>7.0</ele><time>2026-05-03T08:09:02.019Z</time></trkpt><trkpt lat="43.4692877" lon="13.6103187"><ele>7.5</ele><time>2026-05-03T08:09:03.019Z</time></trkpt><trkpt lat="43.4695501" lon="13.6099973"><ele>8.0</ele><time>2026-05-03T08:09:04.019Z</time></trkpt><trkpt lat="43.46981" lon="13.6096771"><ele>7.0</ele><time>2026-05-03T08:09:05.018Z</time></trkpt><trkpt lat="43.4700658" lon="13.6093585"><ele>6.0</ele><time>2026-05-03T08:09:06.019Z</time></trkpt><trkpt lat="43.4703238" lon="13.6090391"><ele>5.5</ele><time>2026-05-03T08:09:07.018Z</time></trkpt><trkpt lat="43.4705848" lon="13.608717"><ele>5.0</ele><time>2026-05-03T08:09:08.019Z</time></trkpt><trkpt lat="43.4708441" lon="13.6083884"><ele>6.0</ele><time>2026-05-03T08:09:09.019Z</time></trkpt><trkpt lat="43.4711052" lon="13.6080611"><ele>7.0</ele><time>2026-05-03T08:09:10.018Z</time></trkpt><trkpt lat="43.4713654" lon="13.6077369"><ele>7.0</ele><time>2026-05-03T08:09:11.018Z</time></trkpt><trkpt lat="43.4716237" lon="13.6074081"><ele>7.0</ele><time>2026-05-03T08:09:12.019Z</time></trkpt><trkpt lat="43.471884" lon="13.6070763"><ele>6.0</ele><time>2026-05-03T08:09:13.018Z</time></trkpt><trkpt lat="43.4721453" lon="13.6067495"><ele>5.0</ele><time>2026-05-03T08:09:14.018Z</time></trkpt><trkpt lat="43.4724072" lon="13.6064236"><ele>5.5</ele><time>2026-05-03T08:09:15.019Z</time></trkpt><trkpt lat="43.4726664" lon="13.6060981"><ele>6.0</ele><time>2026-05-03T08:09:16.019Z</time></trkpt><trkpt lat="43.4729274" lon="13.6057729"><ele>5.5</ele><time>2026-05-03T08:09:17.018Z</time></trkpt><trkpt lat="43.4731849" lon="13.605453"><ele>5.0</ele><time>2026-05-03T08:09:18.019Z</time></trkpt><trkpt lat="43.4734366" lon="13.6051398"><ele>5.0</ele><time>2026-05-03T08:09:19.018Z</time></trkpt><trkpt lat="43.4736794" lon="13.6048397"><ele>5.0</ele><time>2026-05-03T08:09:20.019Z</time></trkpt><trkpt lat="43.4739081" lon="13.604555"><ele>6.0</ele><time>2026-05-03T08:09:21.019Z</time></trkpt><trkpt lat="43.4741231" lon="13.6042859"><ele>7.0</ele><time>2026-05-03T08:09:22.019Z</time></trkpt><trkpt lat="43.4743317" lon="13.6040264"><ele>7.0</ele><time>2026-05-03T08:09:23.019Z</time></trkpt><trkpt lat="43.4745453" lon="13.6037642"><ele>7.0</ele><time>2026-05-03T08:09:24.019Z</time></trkpt><trkpt lat="43.4747642" lon="13.6034971"><ele>6.5</ele><time>2026-05-03T08:09:25.018Z</time></trkpt><trkpt lat="43.474992" lon="13.6032236"><ele>6.0</ele><time>2026-05-03T08:09:26.019Z</time></trkpt><trkpt lat="43.4752243" lon="13.6029398"><ele>6.5</ele><time>2026-05-03T08:09:27.019Z</time></trkpt><trkpt lat="43.4754592" lon="13.6026476"><ele>7.0</ele><time>2026-05-03T08:09:28.019Z</time></trkpt><trkpt lat="43.4757" lon="13.6023475"><ele>7.0</ele><time>2026-05-03T08:09:29.019Z</time></trkpt><trkpt lat="43.4759423" lon="13.6020451"><ele>7.0</ele><time>2026-05-03T08:09:30.017Z</time></trkpt><trkpt lat="43.4761884" lon="13.6017403"><ele>6.5</ele><time>2026-05-03T08:09:31.018Z</time></trkpt><trkpt lat="43.4764364" lon="13.6014335"><ele>6.0</ele><time>2026-05-03T08:09:32.019Z</time></trkpt><trkpt lat="43.4766858" lon="13.6011264"><ele>6.0</ele><time>2026-05-03T08:09:33.019Z</time></trkpt><trkpt lat="43.4769301" lon="13.600819"><ele>6.0</ele><time>2026-05-03T08:09:34.019Z</time></trkpt><trkpt lat="43.4771787" lon="13.6005127"><ele>6.5</ele><time>2026-05-03T08:09:35.019Z</time></trkpt><trkpt lat="43.4774289" lon="13.6002069"><ele>7.0</ele><time>2026-05-03T08:09:36.019Z</time></trkpt><trkpt lat="43.4776841" lon="13.599904"><ele>7.0</ele><time>2026-05-03T08:09:37.019Z</time></trkpt><trkpt lat="43.4779425" lon="13.5996055"><ele>7.0</ele><time>2026-05-03T08:09:38.018Z</time></trkpt><trkpt lat="43.4782027" lon="13.5993067"><ele>7.0</ele><time>2026-05-03T08:09:39.019Z</time></trkpt><trkpt lat="43.4784638" lon="13.5990095"><ele>7.0</ele><time>2026-05-03T08:09:40.019Z</time></trkpt><trkpt lat="43.4787262" lon="13.5987114"><ele>7.0</ele><time>2026-05-03T08:09:41.019Z</time></trkpt><trkpt lat="43.478988" lon="13.5984152"><ele>7.0</ele><time>2026-05-03T08:09:42.018Z</time></trkpt><trkpt lat="43.4792499" lon="13.5981213"><ele>7.0</ele><time>2026-05-03T08:09:43.019Z</time></trkpt><trkpt lat="43.4795155" lon="13.5978317"><ele>7.0</ele><time>2026-05-03T08:09:44.019Z</time></trkpt><trkpt lat="43.4797803" lon="13.597546"><ele>7.5</ele><time>2026-05-03T08:09:45.019Z</time></trkpt><trkpt lat="43.480042" lon="13.5972677"><ele>8.0</ele><time>2026-05-03T08:09:46.018Z</time></trkpt><trkpt lat="43.4803081" lon="13.5969913"><ele>8.0</ele><time>2026-05-03T08:09:47.019Z</time></trkpt><trkpt lat="43.4805719" lon="13.5967156"><ele>8.0</ele><time>2026-05-03T08:09:48.019Z</time></trkpt><trkpt lat="43.4808381" lon="13.59644"><ele>8.5</ele><time>2026-05-03T08:09:49.018Z</time></trkpt><trkpt lat="43.4811043" lon="13.5961686"><ele>9.0</ele><time>2026-05-03T08:09:50.019Z</time></trkpt><trkpt lat="43.4813736" lon="13.5959002"><ele>8.0</ele><time>2026-05-03T08:09:51.018Z</time></trkpt><trkpt lat="43.4816367" lon="13.5956355"><ele>7.0</ele><time>2026-05-03T08:09:52.017Z</time></trkpt><trkpt lat="43.4819063" lon="13.5953624"><ele>7.5</ele><time>2026-05-03T08:09:53.019Z</time></trkpt><trkpt lat="43.4821751" lon="13.59509"><ele>8.0</ele><time>2026-05-03T08:09:54.019Z</time></trkpt><trkpt lat="43.4824427" lon="13.5948185"><ele>8.0</ele><time>2026-05-03T08:09:55.019Z</time></trkpt><trkpt lat="43.4827119" lon="13.5945418"><ele>8.0</ele><time>2026-05-03T08:09:56.018Z</time></trkpt><trkpt lat="43.4829807" lon="13.5942652"><ele>8.0</ele><time>2026-05-03T08:09:57.019Z</time></trkpt><trkpt lat="43.4832508" lon="13.5939883"><ele>8.0</ele><time>2026-05-03T08:09:58.019Z</time></trkpt><trkpt lat="43.4835227" lon="13.5937142"><ele>8.0</ele><time>2026-05-03T08:09:59.019Z</time></trkpt><trkpt lat="43.4837908" lon="13.5934424"><ele>8.0</ele><time>2026-05-03T08:10:00.019Z</time></trkpt><trkpt lat="43.4840554" lon="13.5931692"><ele>8.0</ele><time>2026-05-03T08:10:01.019Z</time></trkpt><trkpt lat="43.4843189" lon="13.5929007"><ele>8.0</ele><time>2026-05-03T08:10:02.019Z</time></trkpt><trkpt lat="43.4845789" lon="13.5926285"><ele>7.5</ele><time>2026-05-03T08:10:03.018Z</time></trkpt><trkpt lat="43.4848467" lon="13.5923565"><ele>7.0</ele><time>2026-05-03T08:10:04.019Z</time></trkpt><trkpt lat="43.4851145" lon="13.5920853"><ele>7.0</ele><time>2026-05-03T08:10:05.018Z</time></trkpt><trkpt lat="43.4853786" lon="13.5918135"><ele>7.0</ele><time>2026-05-03T08:10:06.019Z</time></trkpt><trkpt lat="43.4856439" lon="13.5915409"><ele>7.0</ele><time>2026-05-03T08:10:07.019Z</time></trkpt><trkpt lat="43.4859112" lon="13.5912692"><ele>7.0</ele><time>2026-05-03T08:10:08.018Z</time></trkpt><trkpt lat="43.486173" lon="13.5910045"><ele>7.0</ele><time>2026-05-03T08:10:09.018Z</time></trkpt><trkpt lat="43.4864411" lon="13.5907359"><ele>7.0</ele><time>2026-05-03T08:10:10.019Z</time></trkpt><trkpt lat="43.4867084" lon="13.5904662"><ele>7.5</ele><time>2026-05-03T08:10:11.018Z</time></trkpt><trkpt lat="43.4869773" lon="13.5901951"><ele>8.0</ele><time>2026-05-03T08:10:12.017Z</time></trkpt><trkpt lat="43.48724" lon="13.5899292"><ele>8.0</ele><time>2026-05-03T08:10:13.019Z</time></trkpt><trkpt lat="43.4875044" lon="13.5896604"><ele>8.0</ele><time>2026-05-03T08:10:14.018Z</time></trkpt><trkpt lat="43.4877688" lon="13.5893927"><ele>8.0</ele><time>2026-05-03T08:10:15.019Z</time></trkpt><trkpt lat="43.4880333" lon="13.5891281"><ele>8.0</ele><time>2026-05-03T08:10:16.019Z</time></trkpt><trkpt lat="43.4882956" lon="13.5888592"><ele>8.5</ele><time>2026-05-03T08:10:17.018Z</time></trkpt><trkpt lat="43.4885575" lon="13.5885901"><ele>9.0</ele><time>2026-05-03T08:10:18.018Z</time></trkpt><trkpt lat="43.4888177" lon="13.5883222"><ele>9.0</ele><time>2026-05-03T08:10:19.019Z</time></trkpt><trkpt lat="43.4890765" lon="13.5880497"><ele>9.0</ele><time>2026-05-03T08:10:20.018Z</time></trkpt><trkpt lat="43.489332" lon="13.5877675"><ele>9.5</ele><time>2026-05-03T08:10:21.019Z</time></trkpt><trkpt lat="43.4895824" lon="13.5874787"><ele>10.0</ele><time>2026-05-03T08:10:22.019Z</time></trkpt><trkpt lat="43.4898285" lon="13.5871802"><ele>11.0</ele><time>2026-05-03T08:10:23.018Z</time></trkpt><trkpt lat="43.4900663" lon="13.5868779"><ele>12.0</ele><time>2026-05-03T08:10:24.018Z</time></trkpt><trkpt lat="43.4902991" lon="13.5865702"><ele>11.5</ele><time>2026-05-03T08:10:25.017Z</time></trkpt><trkpt lat="43.4905261" lon="13.5862549"><ele>11.0</ele><time>2026-05-03T08:10:26.018Z</time></trkpt><trkpt lat="43.490741" lon="13.5859359"><ele>11.0</ele><time>2026-05-03T08:10:27.018Z</time></trkpt><trkpt lat="43.4909576" lon="13.5856121"><ele>11.0</ele><time>2026-05-03T08:10:28.019Z</time></trkpt><trkpt lat="43.4911647" lon="13.5852666"><ele>10.0</ele><time>2026-05-03T08:10:29.017Z</time></trkpt><trkpt lat="43.4913714" lon="13.5849224"><ele>9.0</ele><time>2026-05-03T08:10:30.019Z</time></trkpt><trkpt lat="43.4915724" lon="13.5845702"><ele>9.5</ele><time>2026-05-03T08:10:31.019Z</time></trkpt><trkpt lat="43.4917655" lon="13.5842166"><ele>10.0</ele><time>2026-05-03T08:10:32.019Z</time></trkpt><trkpt lat="43.4919493" lon="13.5838575"><ele>9.0</ele><time>2026-05-03T08:10:33.018Z</time></trkpt><trkpt lat="43.4921274" lon="13.5834949"><ele>8.0</ele><time>2026-05-03T08:10:34.019Z</time></trkpt><trkpt lat="43.4922976" lon="13.583124"><ele>9.0</ele><time>2026-05-03T08:10:35.017Z</time></trkpt><trkpt lat="43.4924618" lon="13.582745"><ele>10.0</ele><time>2026-05-03T08:10:36.019Z</time></trkpt><trkpt lat="43.4926182" lon="13.5823565"><ele>9.5</ele><time>2026-05-03T08:10:37.019Z</time></trkpt><trkpt lat="43.4927677" lon="13.5819546"><ele>9.0</ele><time>2026-05-03T08:10:38.018Z</time></trkpt><trkpt lat="43.4929108" lon="13.5815439"><ele>9.5</ele><time>2026-05-03T08:10:39.019Z</time></trkpt><trkpt lat="43.4930506" lon="13.5811272"><ele>10.0</ele><time>2026-05-03T08:10:40.018Z</time></trkpt><trkpt lat="43.4931869" lon="13.580703"><ele>10.5</ele><time>2026-05-03T08:10:41.019Z</time></trkpt><trkpt lat="43.4933186" lon="13.5802757"><ele>11.0</ele><time>2026-05-03T08:10:42.019Z</time></trkpt><trkpt lat="43.4934463" lon="13.5798399"><ele>11.5</ele><time>2026-05-03T08:10:43.018Z</time></trkpt><trkpt lat="43.4935681" lon="13.5793995"><ele>12.0</ele><time>2026-05-03T08:10:44.018Z</time></trkpt><trkpt lat="43.4936856" lon="13.5789585"><ele>11.5</ele><time>2026-05-03T08:10:45.019Z</time></trkpt><trkpt lat="43.4938033" lon="13.5785169"><ele>11.0</ele><time>2026-05-03T08:10:46.017Z</time></trkpt><trkpt lat="43.4939162" lon="13.5780815"><ele>11.5</ele><time>2026-05-03T08:10:47.019Z</time></trkpt><trkpt lat="43.4940241" lon="13.5776511"><ele>12.0</ele><time>2026-05-03T08:10:48.019Z</time></trkpt><trkpt lat="43.4941302" lon="13.5772259"><ele>11.5</ele><time>2026-05-03T08:10:49.019Z</time></trkpt><trkpt lat="43.4942341" lon="13.5768038"><ele>11.0</ele><time>2026-05-03T08:10:50.018Z</time></trkpt><trkpt lat="43.4943389" lon="13.5763812"><ele>11.0</ele><time>2026-05-03T08:10:51.019Z</time></trkpt><trkpt lat="43.4944443" lon="13.5759582"><ele>11.0</ele><time>2026-05-03T08:10:52.017Z</time></trkpt><trkpt lat="43.4945486" lon="13.5755346"><ele>11.5</ele><time>2026-05-03T08:10:53.017Z</time></trkpt><trkpt lat="43.4946511" lon="13.5751004"><ele>12.0</ele><time>2026-05-03T08:10:54.019Z</time></trkpt><trkpt lat="43.4947539" lon="13.5746598"><ele>12.5</ele><time>2026-05-03T08:10:55.019Z</time></trkpt><trkpt lat="43.4948638" lon="13.5742155"><ele>13.0</ele><time>2026-05-03T08:10:56.018Z</time></trkpt><trkpt lat="43.494976" lon="13.5737675"><ele>12.5</ele><time>2026-05-03T08:10:57.019Z</time></trkpt><trkpt lat="43.4950939" lon="13.5733172"><ele>12.0</ele><time>2026-05-03T08:10:58.019Z</time></trkpt><trkpt lat="43.4952137" lon="13.5728645"><ele>12.0</ele><time>2026-05-03T08:10:59.018Z</time></trkpt><trkpt lat="43.4953351" lon="13.5724095"><ele>12.0</ele><time>2026-05-03T08:11:00.018Z</time></trkpt><trkpt lat="43.4954529" lon="13.5719513"><ele>13.0</ele><time>2026-05-03T08:11:01.017Z</time></trkpt><trkpt lat="43.4955689" lon="13.5714927"><ele>14.0</ele><time>2026-05-03T08:11:02.019Z</time></trkpt><trkpt lat="43.4956828" lon="13.5710363"><ele>14.5</ele><time>2026-05-03T08:11:03.019Z</time></trkpt><trkpt lat="43.495799" lon="13.5705848"><ele>15.0</ele><time>2026-05-03T08:11:04.019Z</time></trkpt><trkpt lat="43.4959139" lon="13.57014"><ele>15.0</ele><time>2026-05-03T08:11:05.019Z</time></trkpt><trkpt lat="43.4960308" lon="13.5697006"><ele>15.0</ele><time>2026-05-03T08:11:06.019Z</time></trkpt><trkpt lat="43.4961484" lon="13.5692632"><ele>15.0</ele><time>2026-05-03T08:11:07.019Z</time></trkpt><trkpt lat="43.4962624" lon="13.568827"><ele>15.0</ele><time>2026-05-03T08:11:08.019Z</time></trkpt><trkpt lat="43.4963744" lon="13.5683934"><ele>14.5</ele><time>2026-05-03T08:11:09.018Z</time></trkpt><trkpt lat="43.4964855" lon="13.5679619"><ele>14.0</ele><time>2026-05-03T08:11:10.019Z</time></trkpt><trkpt lat="43.4965942" lon="13.5675329"><ele>14.0</ele><time>2026-05-03T08:11:11.019Z</time></trkpt><trkpt lat="43.4967035" lon="13.5671046"><ele>14.0</ele><time>2026-05-03T08:11:12.018Z</time></trkpt><trkpt lat="43.4968133" lon="13.5666754"><ele>14.0</ele><time>2026-05-03T08:11:13.019Z</time></trkpt><trkpt lat="43.4969209" lon="13.5662483"><ele>14.0</ele><time>2026-05-03T08:11:14.018Z</time></trkpt><trkpt lat="43.4970309" lon="13.5658215"><ele>14.0</ele><time>2026-05-03T08:11:15.018Z</time></trkpt><trkpt lat="43.4971453" lon="13.565398"><ele>14.0</ele><time>2026-05-03T08:11:16.018Z</time></trkpt><trkpt lat="43.4972664" lon="13.5649782"><ele>14.0</ele><time>2026-05-03T08:11:17.018Z</time></trkpt><trkpt lat="43.4973924" lon="13.5645608"><ele>14.0</ele><time>2026-05-03T08:11:18.018Z</time></trkpt><trkpt lat="43.4975184" lon="13.5641437"><ele>14.5</ele><time>2026-05-03T08:11:19.019Z</time></trkpt><trkpt lat="43.4976675" lon="13.5637466"><ele>15.0</ele><time>2026-05-03T08:11:20.018Z</time></trkpt><trkpt lat="43.4978082" lon="13.5633386"><ele>15.5</ele><time>2026-05-03T08:11:21.018Z</time></trkpt><trkpt lat="43.497954" lon="13.562935"><ele>16.0</ele><time>2026-05-03T08:11:22.019Z</time></trkpt><trkpt lat="43.498107" lon="13.5625362"><ele>16.0</ele><time>2026-05-03T08:11:23.019Z</time></trkpt><trkpt lat="43.4982649" lon="13.5621429"><ele>16.0</ele><time>2026-05-03T08:11:24.018Z</time></trkpt><trkpt lat="43.4984286" lon="13.5617511"><ele>16.0</ele><time>2026-05-03T08:11:25.018Z</time></trkpt><trkpt lat="43.4985977" lon="13.5613666"><ele>16.0</ele><time>2026-05-03T08:11:26.018Z</time></trkpt><trkpt lat="43.4987703" lon="13.5609858"><ele>17.0</ele><time>2026-05-03T08:11:27.018Z</time></trkpt><trkpt lat="43.4989472" lon="13.5606091"><ele>18.0</ele><time>2026-05-03T08:11:28.018Z</time></trkpt><trkpt lat="43.4991275" lon="13.5602364"><ele>18.0</ele><time>2026-05-03T08:11:29.017Z</time></trkpt><trkpt lat="43.4993134" lon="13.5598699"><ele>18.0</ele><time>2026-05-03T08:11:30.018Z</time></trkpt><trkpt lat="43.499505" lon="13.5595112"><ele>19.0</ele><time>2026-05-03T08:11:31.018Z</time></trkpt><trkpt lat="43.4997012" lon="13.5591559"><ele>20.0</ele><time>2026-05-03T08:11:32.018Z</time></trkpt><trkpt lat="43.4999009" lon="13.5588073"><ele>19.5</ele><time>2026-05-03T08:11:33.018Z</time></trkpt><trkpt lat="43.5000999" lon="13.5584602"><ele>19.0</ele><time>2026-05-03T08:11:34.018Z</time></trkpt><trkpt lat="43.5002989" lon="13.5581116"><ele>20.0</ele><time>2026-05-03T08:11:35.017Z</time></trkpt><trkpt lat="43.5004961" lon="13.5577623"><ele>21.0</ele><time>2026-05-03T08:11:36.018Z</time></trkpt><trkpt lat="43.5006947" lon="13.5574146"><ele>21.0</ele><time>2026-05-03T08:11:37.017Z</time></trkpt><trkpt lat="43.5008919" lon="13.5570693"><ele>21.0</ele><time>2026-05-03T08:11:38.017Z</time></trkpt><trkpt lat="43.5010889" lon="13.5567241"><ele>19.5</ele><time>2026-05-03T08:11:39.016Z</time></trkpt><trkpt lat="43.5012879" lon="13.5563802"><ele>18.0</ele><time>2026-05-03T08:11:40.017Z</time></trkpt><trkpt lat="43.5014867" lon="13.5560357"><ele>17.5</ele><time>2026-05-03T08:11:41.018Z</time></trkpt><trkpt lat="43.5016856" lon="13.5556899"><ele>17.0</ele><time>2026-05-03T08:11:42.018Z</time></trkpt><trkpt lat="43.5018844" lon="13.5553472"><ele>17.0</ele><time>2026-05-03T08:11:43.017Z</time></trkpt><trkpt lat="43.5020819" lon="13.5550036"><ele>17.0</ele><time>2026-05-03T08:11:44.017Z</time></trkpt><trkpt lat="43.50228" lon="13.5546646"><ele>17.0</ele><time>2026-05-03T08:11:45.017Z</time></trkpt><trkpt lat="43.5024752" lon="13.5543228"><ele>17.0</ele><time>2026-05-03T08:11:46.017Z</time></trkpt><trkpt lat="43.5026662" lon="13.5539769"><ele>17.0</ele><time>2026-05-03T08:11:47.017Z</time></trkpt><trkpt lat="43.5028524" lon="13.5536263"><ele>17.0</ele><time>2026-05-03T08:11:48.017Z</time></trkpt><trkpt lat="43.5030348" lon="13.5532692"><ele>17.0</ele><time>2026-05-03T08:11:49.018Z</time></trkpt><trkpt lat="43.5032147" lon="13.5529068"><ele>17.0</ele><time>2026-05-03T08:11:50.017Z</time></trkpt><trkpt lat="43.5033891" lon="13.5525407"><ele>17.0</ele><time>2026-05-03T08:11:51.017Z</time></trkpt><trkpt lat="43.5035588" lon="13.5521689"><ele>17.0</ele><time>2026-05-03T08:11:52.018Z</time></trkpt><trkpt lat="43.5037275" lon="13.551793"><ele>17.0</ele><time>2026-05-03T08:11:53.017Z</time></trkpt><trkpt lat="43.5038912" lon="13.5514141"><ele>17.0</ele><time>2026-05-03T08:11:54.017Z</time></trkpt><trkpt lat="43.5040495" lon="13.5510274"><ele>17.0</ele><time>2026-05-03T08:11:55.017Z</time></trkpt><trkpt lat="43.5041952" lon="13.5506401"><ele>17.0</ele><time>2026-05-03T08:11:56.017Z</time></trkpt><trkpt lat="43.504341" lon="13.5502453"><ele>17.0</ele><time>2026-05-03T08:11:57.018Z</time></trkpt><trkpt lat="43.5044841" lon="13.5498475"><ele>17.0</ele><time>2026-05-03T08:11:58.017Z</time></trkpt><trkpt lat="43.5046236" lon="13.5494411"><ele>17.0</ele><time>2026-05-03T08:11:59.018Z</time></trkpt><trkpt lat="43.5047612" lon="13.5490354"><ele>17.0</ele><time>2026-05-03T08:12:00.017Z</time></trkpt><trkpt lat="43.5048925" lon="13.5486326"><ele>17.5</ele><time>2026-05-03T08:12:01.017Z</time></trkpt><trkpt lat="43.5050238" lon="13.5482292"><ele>18.0</ele><time>2026-05-03T08:12:02.018Z</time></trkpt><trkpt lat="43.5051532" lon="13.5478303"><ele>19.0</ele><time>2026-05-03T08:12:03.017Z</time></trkpt><trkpt lat="43.5052843" lon="13.5474304"><ele>20.0</ele><time>2026-05-03T08:12:04.018Z</time></trkpt><trkpt lat="43.5054146" lon="13.5470307"><ele>20.5</ele><time>2026-05-03T08:12:05.018Z</time></trkpt><trkpt lat="43.5055472" lon="13.5466361"><ele>21.0</ele><time>2026-05-03T08:12:06.017Z</time></trkpt><trkpt lat="43.5056763" lon="13.5462417"><ele>21.0</ele><time>2026-05-03T08:12:07.018Z</time></trkpt><trkpt lat="43.5058519" lon="13.5458719"><ele>21.0</ele><time>2026-05-03T08:12:08.018Z</time></trkpt><trkpt lat="43.5060259" lon="13.5455045"><ele>20.0</ele><time>2026-05-03T08:12:09.018Z</time></trkpt><trkpt lat="43.5062121" lon="13.5451531"><ele>19.0</ele><time>2026-05-03T08:12:10.017Z</time></trkpt><trkpt lat="43.5064157" lon="13.5448161"><ele>19.0</ele><time>2026-05-03T08:12:11.017Z</time></trkpt><trkpt lat="43.5066384" lon="13.5444945"><ele>19.0</ele><time>2026-05-03T08:12:12.017Z</time></trkpt><trkpt lat="43.5068765" lon="13.5441896"><ele>20.0</ele><time>2026-05-03T08:12:13.018Z</time></trkpt><trkpt lat="43.5071319" lon="13.5439001"><ele>21.0</ele><time>2026-05-03T08:12:14.017Z</time></trkpt><trkpt lat="43.5074029" lon="13.5436248"><ele>21.0</ele><time>2026-05-03T08:12:15.018Z</time></trkpt><trkpt lat="43.5076868" lon="13.5433694"><ele>21.0</ele><time>2026-05-03T08:12:16.017Z</time></trkpt><trkpt lat="43.5079831" lon="13.5431342"><ele>21.5</ele><time>2026-05-03T08:12:17.018Z</time></trkpt><trkpt lat="43.5082863" lon="13.5429167"><ele>22.0</ele><time>2026-05-03T08:12:18.018Z</time></trkpt><trkpt lat="43.5085916" lon="13.5427099"><ele>20.5</ele><time>2026-05-03T08:12:19.017Z</time></trkpt><trkpt lat="43.5088918" lon="13.542506"><ele>19.0</ele><time>2026-05-03T08:12:20.018Z</time></trkpt><trkpt lat="43.5091906" lon="13.5423025"><ele>19.0</ele><time>2026-05-03T08:12:21.017Z</time></trkpt><trkpt lat="43.5094885" lon="13.5421018"><ele>19.0</ele><time>2026-05-03T08:12:22.018Z</time></trkpt><trkpt lat="43.5097838" lon="13.5418993"><ele>20.0</ele><time>2026-05-03T08:12:23.018Z</time></trkpt><trkpt lat="43.510077" lon="13.5416997"><ele>21.0</ele><time>2026-05-03T08:12:24.018Z</time></trkpt><trkpt lat="43.5103674" lon="13.5414994"><ele>20.5</ele><time>2026-05-03T08:12:25.017Z</time></trkpt><trkpt lat="43.5106562" lon="13.5412992"><ele>20.0</ele><time>2026-05-03T08:12:26.018Z</time></trkpt><trkpt lat="43.5109443" lon="13.5411002"><ele>20.0</ele><time>2026-05-03T08:12:27.018Z</time></trkpt><trkpt lat="43.5112322" lon="13.5409029"><ele>20.0</ele><time>2026-05-03T08:12:28.017Z</time></trkpt><trkpt lat="43.5115175" lon="13.5407075"><ele>20.0</ele><time>2026-05-03T08:12:29.018Z</time></trkpt><trkpt lat="43.5118041" lon="13.5405161"><ele>20.0</ele><time>2026-05-03T08:12:30.018Z</time></trkpt><trkpt lat="43.5120897" lon="13.540325"><ele>21.5</ele><time>2026-05-03T08:12:31.018Z</time></trkpt><trkpt lat="43.5123738" lon="13.5401331"><ele>23.0</ele><time>2026-05-03T08:12:32.018Z</time></trkpt><trkpt lat="43.5126548" lon="13.5399426"><ele>22.5</ele><time>2026-05-03T08:12:33.018Z</time></trkpt><trkpt lat="43.5129368" lon="13.5397486"><ele>22.0</ele><time>2026-05-03T08:12:34.017Z</time></trkpt><trkpt lat="43.5132165" lon="13.539559"><ele>22.0</ele><time>2026-05-03T08:12:35.018Z</time></trkpt><trkpt lat="43.5134944" lon="13.5393709"><ele>22.0</ele><time>2026-05-03T08:12:36.017Z</time></trkpt><trkpt lat="43.5137696" lon="13.5391851"><ele>23.0</ele><time>2026-05-03T08:12:37.017Z</time></trkpt><trkpt lat="43.5140422" lon="13.5390009"><ele>24.0</ele><time>2026-05-03T08:12:38.017Z</time></trkpt><trkpt lat="43.5143121" lon="13.538819"><ele>25.5</ele><time>2026-05-03T08:12:39.018Z</time></trkpt><trkpt lat="43.5145813" lon="13.538636"><ele>27.0</ele><time>2026-05-03T08:12:40.018Z</time></trkpt><trkpt lat="43.5148482" lon="13.5384564"><ele>27.0</ele><time>2026-05-03T08:12:41.017Z</time></trkpt><trkpt lat="43.5151159" lon="13.5382727"><ele>27.0</ele><time>2026-05-03T08:12:42.018Z</time></trkpt><trkpt lat="43.515383" lon="13.5380945"><ele>26.5</ele><time>2026-05-03T08:12:43.018Z</time></trkpt><trkpt lat="43.5156469" lon="13.5379153"><ele>26.0</ele><time>2026-05-03T08:12:44.017Z</time></trkpt><trkpt lat="43.5159156" lon="13.5377291"><ele>26.0</ele><time>2026-05-03T08:12:45.018Z</time></trkpt><trkpt lat="43.5161795" lon="13.5375386"><ele>26.0</ele><time>2026-05-03T08:12:46.017Z</time></trkpt><trkpt lat="43.5164469" lon="13.5373474"><ele>26.0</ele><time>2026-05-03T08:12:47.017Z</time></trkpt><trkpt lat="43.5167142" lon="13.537161"><ele>26.0</ele><time>2026-05-03T08:12:48.018Z</time></trkpt><trkpt lat="43.516976" lon="13.5369689"><ele>25.5</ele><time>2026-05-03T08:12:49.018Z</time></trkpt><trkpt lat="43.5172409" lon="13.5367713"><ele>25.0</ele><time>2026-05-03T08:12:50.018Z</time></trkpt><trkpt lat="43.5175049" lon="13.5365702"><ele>25.0</ele><time>2026-05-03T08:12:51.016Z</time></trkpt><trkpt lat="43.5177679" lon="13.5363599"><ele>25.0</ele><time>2026-05-03T08:12:52.018Z</time></trkpt><trkpt lat="43.5180305" lon="13.5361438"><ele>25.5</ele><time>2026-05-03T08:12:53.018Z</time></trkpt><trkpt lat="43.5182919" lon="13.5359267"><ele>26.0</ele><time>2026-05-03T08:12:54.017Z</time></trkpt><trkpt lat="43.5185539" lon="13.5357063"><ele>26.5</ele><time>2026-05-03T08:12:55.018Z</time></trkpt><trkpt lat="43.518817" lon="13.5354867"><ele>27.0</ele><time>2026-05-03T08:12:56.018Z</time></trkpt><trkpt lat="43.5190754" lon="13.5352682"><ele>26.0</ele><time>2026-05-03T08:12:57.018Z</time></trkpt><trkpt lat="43.519333" lon="13.5350271"><ele>25.0</ele><time>2026-05-03T08:12:58.018Z</time></trkpt><trkpt lat="43.5195887" lon="13.5347934"><ele>25.5</ele><time>2026-05-03T08:12:59.018Z</time></trkpt><trkpt lat="43.5198434" lon="13.5345647"><ele>26.0</ele><time>2026-05-03T08:13:00.016Z</time></trkpt><trkpt lat="43.5200974" lon="13.5343394"><ele>26.0</ele><time>2026-05-03T08:13:01.018Z</time></trkpt><trkpt lat="43.5203527" lon="13.5341122"><ele>26.0</ele><time>2026-05-03T08:13:02.018Z</time></trkpt><trkpt lat="43.5206017" lon="13.5338854"><ele>26.5</ele><time>2026-05-03T08:13:03.018Z</time></trkpt><trkpt lat="43.520851" lon="13.5336594"><ele>27.0</ele><time>2026-05-03T08:13:04.018Z</time></trkpt><trkpt lat="43.5210984" lon="13.5334373"><ele>30.5</ele><time>2026-05-03T08:13:05.018Z</time></trkpt><trkpt lat="43.5213447" lon="13.5332184"><ele>34.0</ele><time>2026-05-03T08:13:06.018Z</time></trkpt><trkpt lat="43.521591" lon="13.5329953"><ele>33.5</ele><time>2026-05-03T08:13:07.018Z</time></trkpt><trkpt lat="43.5218342" lon="13.5327704"><ele>33.0</ele><time>2026-05-03T08:13:08.017Z</time></trkpt><trkpt lat="43.5220771" lon="13.5325373"><ele>33.0</ele><time>2026-05-03T08:13:09.018Z</time></trkpt><trkpt lat="43.5223154" lon="13.5323012"><ele>33.0</ele><time>2026-05-03T08:13:10.016Z</time></trkpt><trkpt lat="43.5225463" lon="13.532043"><ele>30.0</ele><time>2026-05-03T08:13:11.017Z</time></trkpt><trkpt lat="43.5227706" lon="13.5317774"><ele>27.0</ele><time>2026-05-03T08:13:12.018Z</time></trkpt><trkpt lat="43.5229873" lon="13.5314989"><ele>26.0</ele><time>2026-05-03T08:13:13.016Z</time></trkpt><trkpt lat="43.5231986" lon="13.5312086"><ele>25.0</ele><time>2026-05-03T08:13:14.017Z</time></trkpt><trkpt lat="43.5233983" lon="13.5309047"><ele>25.0</ele><time>2026-05-03T08:13:15.017Z</time></trkpt><trkpt lat="43.5235832" lon="13.5305912"><ele>25.0</ele><time>2026-05-03T08:13:16.016Z</time></trkpt><trkpt lat="43.5237644" lon="13.5302673"><ele>26.0</ele><time>2026-05-03T08:13:17.018Z</time></trkpt><trkpt lat="43.5239374" lon="13.5299321"><ele>27.0</ele><time>2026-05-03T08:13:18.017Z</time></trkpt><trkpt lat="43.5240991" lon="13.5295902"><ele>26.0</ele><time>2026-05-03T08:13:19.018Z</time></trkpt><trkpt lat="43.5242511" lon="13.5292344"><ele>25.0</ele><time>2026-05-03T08:13:20.018Z</time></trkpt><trkpt lat="43.5243937" lon="13.5288697"><ele>25.5</ele><time>2026-05-03T08:13:21.018Z</time></trkpt><trkpt lat="43.5245267" lon="13.5284966"><ele>26.0</ele><time>2026-05-03T08:13:22.018Z</time></trkpt><trkpt lat="43.5246432" lon="13.5281221"><ele>26.5</ele><time>2026-05-03T08:13:23.018Z</time></trkpt><trkpt lat="43.5247522" lon="13.5277386"><ele>27.0</ele><time>2026-05-03T08:13:24.018Z</time></trkpt><trkpt lat="43.5248483" lon="13.5273466"><ele>27.0</ele><time>2026-05-03T08:13:25.017Z</time></trkpt><trkpt lat="43.5249413" lon="13.5269511"><ele>27.0</ele><time>2026-05-03T08:13:26.017Z</time></trkpt><trkpt lat="43.5250321" lon="13.5265595"><ele>26.5</ele><time>2026-05-03T08:13:27.017Z</time></trkpt><trkpt lat="43.5251243" lon="13.5261744"><ele>26.0</ele><time>2026-05-03T08:13:28.018Z</time></trkpt><trkpt lat="43.5252098" lon="13.5258042"><ele>26.0</ele><time>2026-05-03T08:13:29.017Z</time></trkpt><trkpt lat="43.5252937" lon="13.5254496"><ele>26.0</ele><time>2026-05-03T08:13:30.016Z</time></trkpt><trkpt lat="43.5253697" lon="13.5251113"><ele>26.5</ele><time>2026-05-03T08:13:31.016Z</time></trkpt><trkpt lat="43.5254464" lon="13.5247865"><ele>27.0</ele><time>2026-05-03T08:13:32.017Z</time></trkpt><trkpt lat="43.5255206" lon="13.5244751"><ele>27.0</ele><time>2026-05-03T08:13:33.017Z</time></trkpt><trkpt lat="43.5255898" lon="13.5241816"><ele>27.0</ele><time>2026-05-03T08:13:34.017Z</time></trkpt><trkpt lat="43.5256552" lon="13.5239022"><ele>27.0</ele><time>2026-05-03T08:13:35.017Z</time></trkpt><trkpt lat="43.5257195" lon="13.523632"><ele>27.0</ele><time>2026-05-03T08:13:36.017Z</time></trkpt><trkpt lat="43.5257791" lon="13.5233754"><ele>27.0</ele><time>2026-05-03T08:13:37.018Z</time></trkpt><trkpt lat="43.525836" lon="13.5231334"><ele>27.0</ele><time>2026-05-03T08:13:38.017Z</time></trkpt><trkpt lat="43.5258913" lon="13.5228935"><ele>27.0</ele><time>2026-05-03T08:13:39.017Z</time></trkpt><trkpt lat="43.5259492" lon="13.5226546"><ele>27.0</ele><time>2026-05-03T08:13:40.018Z</time></trkpt><trkpt lat="43.5260067" lon="13.5224174"><ele>27.0</ele><time>2026-05-03T08:13:41.016Z</time></trkpt><trkpt lat="43.5260664" lon="13.5221787"><ele>27.333333333333336</ele><time>2026-05-03T08:13:42.018Z</time></trkpt><trkpt lat="43.5261244" lon="13.5219342"><ele>27.666666666666668</ele><time>2026-05-03T08:13:43.018Z</time></trkpt><trkpt lat="43.5261809" lon="13.521684"><ele>28.0</ele><time>2026-05-03T08:13:44.017Z</time></trkpt><trkpt lat="43.5262402" lon="13.5214271"><ele>28.333333333333336</ele><time>2026-05-03T08:13:45.016Z</time></trkpt><trkpt lat="43.5263016" lon="13.5211675"><ele>28.666666666666664</ele><time>2026-05-03T08:13:46.017Z</time></trkpt><trkpt lat="43.5263658" lon="13.5209004"><ele>29.0</ele><time>2026-05-03T08:13:47.018Z</time></trkpt><trkpt lat="43.5264304" lon="13.5206356"><ele>29.333333333333332</ele><time>2026-05-03T08:13:48.018Z</time></trkpt><trkpt lat="43.5264965" lon="13.5203635"><ele>29.666666666666664</ele><time>2026-05-03T08:13:49.017Z</time></trkpt><trkpt lat="43.5265622" lon="13.5200896"><ele>30.0</ele><time>2026-05-03T08:13:50.017Z</time></trkpt><trkpt lat="43.5266305" lon="13.5198174"><ele>31.0</ele><time>2026-05-03T08:13:51.018Z</time></trkpt><trkpt lat="43.526699" lon="13.519554"><ele>32.0</ele><time>2026-05-03T08:13:52.018Z</time></trkpt><trkpt lat="43.5267647" lon="13.5192983"><ele>33.0</ele><time>2026-05-03T08:13:53.018Z</time></trkpt><trkpt lat="43.5268262" lon="13.5190452"><ele>33.0</ele><time>2026-05-03T08:13:54.018Z</time></trkpt><trkpt lat="43.5268865" lon="13.5187961"><ele>33.0</ele><time>2026-05-03T08:13:55.017Z</time></trkpt><trkpt lat="43.5269457" lon="13.518549"><ele>33.0</ele><time>2026-05-03T08:13:56.016Z</time></trkpt><trkpt lat="43.5269979" lon="13.5183104"><ele>33.333333333333336</ele><time>2026-05-03T08:13:57.017Z</time></trkpt><trkpt lat="43.5270476" lon="13.5180758"><ele>33.66666666666667</ele><time>2026-05-03T08:13:58.018Z</time></trkpt><trkpt lat="43.5270992" lon="13.5178507"><ele>34.0</ele><time>2026-05-03T08:13:59.018Z</time></trkpt><trkpt lat="43.5271519" lon="13.5176276"><ele>33.66666666666667</ele><time>2026-05-03T08:14:00.018Z</time></trkpt><trkpt lat="43.5272044" lon="13.5174053"><ele>33.333333333333336</ele><time>2026-05-03T08:14:01.016Z</time></trkpt><trkpt lat="43.527263" lon="13.5171908"><ele>33.0</ele><time>2026-05-03T08:14:02.017Z</time></trkpt><trkpt lat="43.5273276" lon="13.5169826"><ele>33.0</ele><time>2026-05-03T08:14:03.018Z</time></trkpt><trkpt lat="43.5274075" lon="13.5167786"><ele>33.0</ele><time>2026-05-03T08:14:04.018Z</time></trkpt><trkpt lat="43.5275062" lon="13.516588"><ele>33.0</ele><time>2026-05-03T08:14:05.017Z</time></trkpt><trkpt lat="43.527621" lon="13.5164197"><ele>33.0</ele><time>2026-05-03T08:14:06.017Z</time></trkpt><trkpt lat="43.5277469" lon="13.5162751"><ele>33.0</ele><time>2026-05-03T08:14:07.018Z</time></trkpt><trkpt lat="43.5278823" lon="13.5161617"><ele>33.0</ele><time>2026-05-03T08:14:08.017Z</time></trkpt><trkpt lat="43.528026" lon="13.5160747"><ele>32.5</ele><time>2026-05-03T08:14:09.018Z</time></trkpt><trkpt lat="43.5281641" lon="13.5160165"><ele>32.0</ele><time>2026-05-03T08:14:10.017Z</time></trkpt><trkpt lat="43.5283" lon="13.5159777"><ele>31.5</ele><time>2026-05-03T08:14:11.017Z</time></trkpt><trkpt lat="43.5284315" lon="13.5159549"><ele>31.0</ele><time>2026-05-03T08:14:12.018Z</time></trkpt><trkpt lat="43.5285649" lon="13.5159493"><ele>31.0</ele><time>2026-05-03T08:14:13.017Z</time></trkpt><trkpt lat="43.528695" lon="13.5159567"><ele>31.0</ele><time>2026-05-03T08:14:14.017Z</time></trkpt><trkpt lat="43.5288217" lon="13.5159685"><ele>31.0</ele><time>2026-05-03T08:14:15.017Z</time></trkpt><trkpt lat="43.5289503" lon="13.5159737"><ele>31.0</ele><time>2026-05-03T08:14:16.016Z</time></trkpt><trkpt lat="43.5290795" lon="13.5159639"><ele>30.5</ele><time>2026-05-03T08:14:17.017Z</time></trkpt><trkpt lat="43.5291999" lon="13.515935"><ele>30.0</ele><time>2026-05-03T08:14:18.017Z</time></trkpt><trkpt lat="43.5293117" lon="13.5158853"><ele>29.5</ele><time>2026-05-03T08:14:19.016Z</time></trkpt><trkpt lat="43.5294218" lon="13.515821"><ele>29.0</ele><time>2026-05-03T08:14:20.017Z</time></trkpt><trkpt lat="43.5295334" lon="13.5157413"><ele>29.4</ele><time>2026-05-03T08:14:21.017Z</time></trkpt><trkpt lat="43.5296383" lon="13.5156595"><ele>29.799999999999997</ele><time>2026-05-03T08:14:22.018Z</time></trkpt><trkpt lat="43.5297374" lon="13.5155804"><ele>30.200000000000003</ele><time>2026-05-03T08:14:23.017Z</time></trkpt><trkpt lat="43.5298283" lon="13.5155044"><ele>30.6</ele><time>2026-05-03T08:14:24.017Z</time></trkpt><trkpt lat="43.5299092" lon="13.5154346"><ele>31.0</ele><time>2026-05-03T08:14:25.018Z</time></trkpt><trkpt lat="43.5299828" lon="13.5153651"><ele>31.000000000000004</ele><time>2026-05-03T08:14:26.018Z</time></trkpt><trkpt lat="43.5300468" lon="13.5152953"><ele>31.0</ele><time>2026-05-03T08:14:27.018Z</time></trkpt><trkpt lat="43.5300979" lon="13.5152334"><ele>31.0</ele><time>2026-05-03T08:14:28.018Z</time></trkpt><trkpt lat="43.5301511" lon="13.5151548"><ele>31.0</ele><time>2026-05-03T08:14:30.018Z</time></trkpt><trkpt lat="43.5301995" lon="13.5150885"><ele>31.000000000000004</ele><time>2026-05-03T08:14:48.018Z</time></trkpt><trkpt lat="43.5302722" lon="13.5150443"><ele>31.0</ele><time>2026-05-03T08:15:43.018Z</time></trkpt><trkpt lat="43.5303445" lon="13.5149277"><ele>31.0</ele><time>2026-05-03T08:15:44.017Z</time></trkpt><trkpt lat="43.5304064" lon="13.5147951"><ele>31.0</ele><time>2026-05-03T08:15:45.018Z</time></trkpt><trkpt lat="43.5304671" lon="13.5146559"><ele>31.0</ele><time>2026-05-03T08:15:46.017Z</time></trkpt><trkpt lat="43.5305218" lon="13.514556"><ele>31.0</ele><time>2026-05-03T08:15:47.017Z</time></trkpt><trkpt lat="43.530572" lon="13.5144903"><ele>31.0</ele><time>2026-05-03T08:15:48.018Z</time></trkpt><trkpt lat="43.5306318" lon="13.5144604"><ele>31.0</ele><time>2026-05-03T08:15:50.018Z</time></trkpt></trkseg><trkseg><trkpt lat="43.5103912" lon="13.2661569"><ele>64.0</ele><time>2026-05-03T09:30:18.002Z</time></trkpt><trkpt lat="43.5102371" lon="13.2659213"><ele>64.0</ele><time>2026-05-03T09:30:19.002Z</time></trkpt><trkpt lat="43.5099241" lon="13.2654531"><ele>64.0</ele><time>2026-05-03T09:30:21.002Z</time></trkpt><trkpt lat="43.5096204" lon="13.2649816"><ele>64.0</ele><time>2026-05-03T09:30:23.002Z</time></trkpt><trkpt lat="43.5094728" lon="13.2647446"><ele>64.0</ele><time>2026-05-03T09:30:24.001Z</time></trkpt><trkpt lat="43.5093189" lon="13.2645028"><ele>64.0</ele><time>2026-05-03T09:30:25.001Z</time></trkpt><trkpt lat="43.5091792" lon="13.2642619"><ele>64.0</ele><time>2026-05-03T09:30:26.002Z</time></trkpt><trkpt lat="43.509042" lon="13.2640139"><ele>64.0</ele><time>2026-05-03T09:30:27.002Z</time></trkpt><trkpt lat="43.5089091" lon="13.2637639"><ele>64.0</ele><time>2026-05-03T09:30:28.002Z</time></trkpt><trkpt lat="43.5087797" lon="13.2635101"><ele>63.666666666666664</ele><time>2026-05-03T09:30:29.001Z</time></trkpt><trkpt lat="43.5086516" lon="13.2632544"><ele>63.33333333333333</ele><time>2026-05-03T09:30:30.001Z</time></trkpt><trkpt lat="43.5085306" lon="13.2629944"><ele>63.0</ele><time>2026-05-03T09:30:31.002Z</time></trkpt><trkpt lat="43.5084159" lon="13.2627307"><ele>63.0</ele><time>2026-05-03T09:30:32Z</time></trkpt><trkpt lat="43.5083009" lon="13.2624651"><ele>63.0</ele><time>2026-05-03T09:30:33Z</time></trkpt><trkpt lat="43.5081847" lon="13.2621992"><ele>63.0</ele><time>2026-05-03T09:30:34.001Z</time></trkpt><trkpt lat="43.5080689" lon="13.2619362"><ele>63.33333333333333</ele><time>2026-05-03T09:30:35.001Z</time></trkpt><trkpt lat="43.5079549" lon="13.2616713"><ele>63.666666666666664</ele><time>2026-05-03T09:30:36.001Z</time></trkpt><trkpt lat="43.5078411" lon="13.2614057"><ele>64.0</ele><time>2026-05-03T09:30:37.002Z</time></trkpt><trkpt lat="43.5077298" lon="13.2611384"><ele>64.0</ele><time>2026-05-03T09:30:38.001Z</time></trkpt><trkpt lat="43.5076174" lon="13.2608685"><ele>64.0</ele><time>2026-05-03T09:30:39.002Z</time></trkpt><trkpt lat="43.5075024" lon="13.2605991"><ele>64.0</ele><time>2026-05-03T09:30:40.002Z</time></trkpt><trkpt lat="43.5073894" lon="13.2603333"><ele>64.0</ele><time>2026-05-03T09:30:41.002Z</time></trkpt><trkpt lat="43.5072727" lon="13.2600644"><ele>64.0</ele><time>2026-05-03T09:30:42.001Z</time></trkpt><trkpt lat="43.5071566" lon="13.2597995"><ele>64.0</ele><time>2026-05-03T09:30:43.001Z</time></trkpt><trkpt lat="43.5070432" lon="13.2595301"><ele>64.0</ele><time>2026-05-03T09:30:44.001Z</time></trkpt><trkpt lat="43.5069262" lon="13.2592597"><ele>64.0</ele><time>2026-05-03T09:30:45.002Z</time></trkpt><trkpt lat="43.5068092" lon="13.2589958"><ele>64.0</ele><time>2026-05-03T09:30:46.001Z</time></trkpt><trkpt lat="43.5066951" lon="13.2587282"><ele>64.0</ele><time>2026-05-03T09:30:47.002Z</time></trkpt><trkpt lat="43.5065829" lon="13.2584636"><ele>64.0</ele><time>2026-05-03T09:30:48.001Z</time></trkpt><trkpt lat="43.506472" lon="13.2581995"><ele>63.0</ele><time>2026-05-03T09:30:49.002Z</time></trkpt><trkpt lat="43.5063612" lon="13.2579345"><ele>62.0</ele><time>2026-05-03T09:30:50.002Z</time></trkpt><trkpt lat="43.5062437" lon="13.2576698"><ele>61.0</ele><time>2026-05-03T09:30:51.001Z</time></trkpt><trkpt lat="43.5061311" lon="13.2574029"><ele>61.666666666666664</ele><time>2026-05-03T09:30:52.002Z</time></trkpt><trkpt lat="43.5060193" lon="13.2571392"><ele>62.33333333333333</ele><time>2026-05-03T09:30:53.001Z</time></trkpt><trkpt lat="43.5059012" lon="13.256872"><ele>63.0</ele><time>2026-05-03T09:30:54.002Z</time></trkpt><trkpt lat="43.5057903" lon="13.2566057"><ele>63.5</ele><time>2026-05-03T09:30:55.001Z</time></trkpt><trkpt lat="43.5056783" lon="13.2563365"><ele>64.0</ele><time>2026-05-03T09:30:56.001Z</time></trkpt><trkpt lat="43.5055633" lon="13.2560656"><ele>64.0</ele><time>2026-05-03T09:30:57.002Z</time></trkpt><trkpt lat="43.5054452" lon="13.2557966"><ele>64.0</ele><time>2026-05-03T09:30:58.001Z</time></trkpt><trkpt lat="43.5053312" lon="13.2555261"><ele>63.0</ele><time>2026-05-03T09:30:59.001Z</time></trkpt><trkpt lat="43.5052124" lon="13.2552531"><ele>62.0</ele><time>2026-05-03T09:31:00.002Z</time></trkpt><trkpt lat="43.505094" lon="13.254976"><ele>62.0</ele><time>2026-05-03T09:31:01.001Z</time></trkpt><trkpt lat="43.504976" lon="13.2546959"><ele>62.0</ele><time>2026-05-03T09:31:02.002Z</time></trkpt><trkpt lat="43.5048536" lon="13.2544128"><ele>62.0</ele><time>2026-05-03T09:31:03.002Z</time></trkpt><trkpt lat="43.5047337" lon="13.254126"><ele>62.0</ele><time>2026-05-03T09:31:04.002Z</time></trkpt><trkpt lat="43.5046109" lon="13.2538372"><ele>62.5</ele><time>2026-05-03T09:31:05Z</time></trkpt><trkpt lat="43.5044946" lon="13.2535474"><ele>63.0</ele><time>2026-05-03T09:31:06.001Z</time></trkpt><trkpt lat="43.5043808" lon="13.253262"><ele>63.33333333333333</ele><time>2026-05-03T09:31:07.001Z</time></trkpt><trkpt lat="43.5042732" lon="13.2529879"><ele>63.666666666666664</ele><time>2026-05-03T09:31:08.002Z</time></trkpt><trkpt lat="43.5041676" lon="13.2527195"><ele>64.0</ele><time>2026-05-03T09:31:09.002Z</time></trkpt><trkpt lat="43.5040668" lon="13.2524613"><ele>63.666666666666664</ele><time>2026-05-03T09:31:10.002Z</time></trkpt><trkpt lat="43.5039651" lon="13.252205"><ele>63.33333333333333</ele><time>2026-05-03T09:31:11.001Z</time></trkpt><trkpt lat="43.5038679" lon="13.2519576"><ele>63.0</ele><time>2026-05-03T09:31:12.001Z</time></trkpt><trkpt lat="43.5037731" lon="13.2517184"><ele>63.33333333333333</ele><time>2026-05-03T09:31:13Z</time></trkpt><trkpt lat="43.5036795" lon="13.2514855"><ele>63.666666666666664</ele><time>2026-05-03T09:31:14.002Z</time></trkpt><trkpt lat="43.5035925" lon="13.2512575"><ele>64.0</ele><time>2026-05-03T09:31:15.002Z</time></trkpt><trkpt lat="43.5035071" lon="13.2510329"><ele>64.0</ele><time>2026-05-03T09:31:16.001Z</time></trkpt><trkpt lat="43.5034201" lon="13.2508106"><ele>64.0</ele><time>2026-05-03T09:31:17.002Z</time></trkpt><trkpt lat="43.5033321" lon="13.2505853"><ele>64.0</ele><time>2026-05-03T09:31:18.001Z</time></trkpt><trkpt lat="43.5032413" lon="13.2503597"><ele>64.0</ele><time>2026-05-03T09:31:19.001Z</time></trkpt><trkpt lat="43.5031461" lon="13.2501322"><ele>64.0</ele><time>2026-05-03T09:31:20.001Z</time></trkpt><trkpt lat="43.5030584" lon="13.2498989"><ele>64.0</ele><time>2026-05-03T09:31:21.002Z</time></trkpt><trkpt lat="43.5029644" lon="13.2496682"><ele>64.33333333333333</ele><time>2026-05-03T09:31:22.001Z</time></trkpt><trkpt lat="43.5028755" lon="13.2494412"><ele>64.66666666666667</ele><time>2026-05-03T09:31:23.002Z</time></trkpt><trkpt lat="43.5027848" lon="13.2492152"><ele>65.0</ele><time>2026-05-03T09:31:24.001Z</time></trkpt><trkpt lat="43.5026953" lon="13.2489907"><ele>65.0</ele><time>2026-05-03T09:31:25.002Z</time></trkpt><trkpt lat="43.5025999" lon="13.2487433"><ele>65.0</ele><time>2026-05-03T09:31:26.002Z</time></trkpt><trkpt lat="43.5024934" lon="13.2484671"><ele>65.0</ele><time>2026-05-03T09:31:27.001Z</time></trkpt><trkpt lat="43.5023771" lon="13.2481629"><ele>64.5</ele><time>2026-05-03T09:31:28Z</time></trkpt><trkpt lat="43.5022495" lon="13.2478441"><ele>64.0</ele><time>2026-05-03T09:31:29.001Z</time></trkpt><trkpt lat="43.5021136" lon="13.2475057"><ele>64.5</ele><time>2026-05-03T09:31:30.001Z</time></trkpt><trkpt lat="43.5019731" lon="13.2471525"><ele>65.0</ele><time>2026-05-03T09:31:31.002Z</time></trkpt><trkpt lat="43.5018276" lon="13.2467828"><ele>65.5</ele><time>2026-05-03T09:31:32.002Z</time></trkpt><trkpt lat="43.501676" lon="13.2463988"><ele>66.0</ele><time>2026-05-03T09:31:33.001Z</time></trkpt><trkpt lat="43.5015239" lon="13.2460153"><ele>66.0</ele><time>2026-05-03T09:31:34.001Z</time></trkpt><trkpt lat="43.5013832" lon="13.2456536"><ele>66.0</ele><time>2026-05-03T09:31:35.001Z</time></trkpt><trkpt lat="43.5012498" lon="13.2453095"><ele>66.5</ele><time>2026-05-03T09:31:36.002Z</time></trkpt><trkpt lat="43.5011208" lon="13.2449828"><ele>67.0</ele><time>2026-05-03T09:31:37.001Z</time></trkpt><trkpt lat="43.5009874" lon="13.2446655"><ele>67.0</ele><time>2026-05-03T09:31:38.002Z</time></trkpt><trkpt lat="43.500846" lon="13.2443673"><ele>67.0</ele><time>2026-05-03T09:31:39.002Z</time></trkpt><trkpt lat="43.5007066" lon="13.2440775"><ele>67.0</ele><time>2026-05-03T09:31:40.001Z</time></trkpt><trkpt lat="43.5005637" lon="13.2437993"><ele>67.0</ele><time>2026-05-03T09:31:41.002Z</time></trkpt><trkpt lat="43.5004185" lon="13.2435328"><ele>68.0</ele><time>2026-05-03T09:31:42.002Z</time></trkpt><trkpt lat="43.5002711" lon="13.2432753"><ele>69.0</ele><time>2026-05-03T09:31:43.002Z</time></trkpt><trkpt lat="43.500123" lon="13.2430274"><ele>69.0</ele><time>2026-05-03T09:31:44.002Z</time></trkpt><trkpt lat="43.4999696" lon="13.2427895"><ele>69.0</ele><time>2026-05-03T09:31:45.001Z</time></trkpt><trkpt lat="43.4998126" lon="13.2425639"><ele>69.0</ele><time>2026-05-03T09:31:46.001Z</time></trkpt><trkpt lat="43.4996531" lon="13.2423461"><ele>69.0</ele><time>2026-05-03T09:31:47.001Z</time></trkpt><trkpt lat="43.4994941" lon="13.2421375"><ele>69.0</ele><time>2026-05-03T09:31:48.001Z</time></trkpt><trkpt lat="43.4993333" lon="13.2419363"><ele>69.66666666666667</ele><time>2026-05-03T09:31:49.002Z</time></trkpt><trkpt lat="43.4991735" lon="13.2417423"><ele>70.33333333333334</ele><time>2026-05-03T09:31:50.001Z</time></trkpt><trkpt lat="43.4990165" lon="13.2415588"><ele>71.0</ele><time>2026-05-03T09:31:51.002Z</time></trkpt><trkpt lat="43.4988519" lon="13.241381"><ele>70.0</ele><time>2026-05-03T09:31:52.002Z</time></trkpt><trkpt lat="43.4986892" lon="13.2412049"><ele>69.0</ele><time>2026-05-03T09:31:53.002Z</time></trkpt><trkpt lat="43.4985279" lon="13.2410296"><ele>68.0</ele><time>2026-05-03T09:31:54Z</time></trkpt><trkpt lat="43.4983719" lon="13.2408559"><ele>68.0</ele><time>2026-05-03T09:31:55.001Z</time></trkpt><trkpt lat="43.4982166" lon="13.2406794"><ele>68.0</ele><time>2026-05-03T09:31:56.002Z</time></trkpt><trkpt lat="43.4980655" lon="13.2405059"><ele>68.0</ele><time>2026-05-03T09:31:57.002Z</time></trkpt><trkpt lat="43.4979156" lon="13.2403246"><ele>68.66666666666667</ele><time>2026-05-03T09:31:58.002Z</time></trkpt><trkpt lat="43.4977671" lon="13.240142"><ele>69.33333333333333</ele><time>2026-05-03T09:31:59.002Z</time></trkpt><trkpt lat="43.4976206" lon="13.2399618"><ele>70.0</ele><time>2026-05-03T09:32:00.001Z</time></trkpt><trkpt lat="43.4974789" lon="13.2397846"><ele>70.0</ele><time>2026-05-03T09:32:01.001Z</time></trkpt><trkpt lat="43.4973408" lon="13.2396061"><ele>70.0</ele><time>2026-05-03T09:32:02Z</time></trkpt><trkpt lat="43.4972071" lon="13.239423"><ele>70.0</ele><time>2026-05-03T09:32:03.002Z</time></trkpt><trkpt lat="43.497075" lon="13.2392417"><ele>70.33333333333333</ele><time>2026-05-03T09:32:04.002Z</time></trkpt><trkpt lat="43.4969456" lon="13.2390635"><ele>70.66666666666667</ele><time>2026-05-03T09:32:05.002Z</time></trkpt><trkpt lat="43.4968166" lon="13.2388814"><ele>71.0</ele><time>2026-05-03T09:32:06.002Z</time></trkpt><trkpt lat="43.4966872" lon="13.2387005"><ele>71.0</ele><time>2026-05-03T09:32:07.002Z</time></trkpt><trkpt lat="43.4965593" lon="13.2385125"><ele>71.0</ele><time>2026-05-03T09:32:08.002Z</time></trkpt><trkpt lat="43.4964237" lon="13.23831"><ele>71.0</ele><time>2026-05-03T09:32:09.002Z</time></trkpt><trkpt lat="43.4962756" lon="13.2380754"><ele>72.5</ele><time>2026-05-03T09:32:10.001Z</time></trkpt><trkpt lat="43.4961133" lon="13.2378205"><ele>74.0</ele><time>2026-05-03T09:32:11.002Z</time></trkpt><trkpt lat="43.4959421" lon="13.2375439"><ele>74.0</ele><time>2026-05-03T09:32:12.001Z</time></trkpt><trkpt lat="43.495767" lon="13.2372448"><ele>74.0</ele><time>2026-05-03T09:32:13.002Z</time></trkpt><trkpt lat="43.4955851" lon="13.2369297"><ele>73.5</ele><time>2026-05-03T09:32:14.001Z</time></trkpt><trkpt lat="43.4954034" lon="13.2365965"><ele>73.0</ele><time>2026-05-03T09:32:15.001Z</time></trkpt><trkpt lat="43.4952204" lon="13.2362552"><ele>73.5</ele><time>2026-05-03T09:32:16.002Z</time></trkpt><trkpt lat="43.4950563" lon="13.2359274"><ele>74.0</ele><time>2026-05-03T09:32:17.001Z</time></trkpt><trkpt lat="43.4948992" lon="13.2356069"><ele>74.0</ele><time>2026-05-03T09:32:18Z</time></trkpt><trkpt lat="43.4947484" lon="13.2352935"><ele>74.0</ele><time>2026-05-03T09:32:19.002Z</time></trkpt><trkpt lat="43.4946028" lon="13.2349874"><ele>74.5</ele><time>2026-05-03T09:32:20.001Z</time></trkpt><trkpt lat="43.4944622" lon="13.2346948"><ele>75.0</ele><time>2026-05-03T09:32:21.001Z</time></trkpt><trkpt lat="43.4943301" lon="13.2344159"><ele>75.0</ele><time>2026-05-03T09:32:22.002Z</time></trkpt><trkpt lat="43.4941996" lon="13.2341516"><ele>75.0</ele><time>2026-05-03T09:32:23.002Z</time></trkpt><trkpt lat="43.4940801" lon="13.2338959"><ele>74.66666666666667</ele><time>2026-05-03T09:32:24.001Z</time></trkpt><trkpt lat="43.4939614" lon="13.2336454"><ele>74.33333333333334</ele><time>2026-05-03T09:32:25Z</time></trkpt><trkpt lat="43.4938389" lon="13.2333978"><ele>74.0</ele><time>2026-05-03T09:32:26Z</time></trkpt><trkpt lat="43.4937228" lon="13.2331488"><ele>73.66666666666667</ele><time>2026-05-03T09:32:27.001Z</time></trkpt><trkpt lat="43.4936048" lon="13.2328999"><ele>73.33333333333333</ele><time>2026-05-03T09:32:28.001Z</time></trkpt><trkpt lat="43.4934874" lon="13.2326555"><ele>73.0</ele><time>2026-05-03T09:32:29Z</time></trkpt><trkpt lat="43.4933723" lon="13.2324112"><ele>72.66666666666666</ele><time>2026-05-03T09:32:30Z</time></trkpt><trkpt lat="43.4932559" lon="13.2321709"><ele>72.33333333333333</ele><time>2026-05-03T09:32:31Z</time></trkpt><trkpt lat="43.4931442" lon="13.2319303"><ele>72.0</ele><time>2026-05-03T09:32:32.001Z</time></trkpt><trkpt lat="43.4930327" lon="13.2316896"><ele>73.0</ele><time>2026-05-03T09:32:33.001Z</time></trkpt><trkpt lat="43.4929203" lon="13.2314549"><ele>74.0</ele><time>2026-05-03T09:32:33.999Z</time></trkpt><trkpt lat="43.4928047" lon="13.2312161"><ele>75.0</ele><time>2026-05-03T09:32:35.001Z</time></trkpt><trkpt lat="43.4926909" lon="13.2309798"><ele>75.0</ele><time>2026-05-03T09:32:36.001Z</time></trkpt><trkpt lat="43.4925726" lon="13.2307426"><ele>75.0</ele><time>2026-05-03T09:32:37.001Z</time></trkpt><trkpt lat="43.4924567" lon="13.2305014"><ele>75.0</ele><time>2026-05-03T09:32:38.001Z</time></trkpt><trkpt lat="43.4923417" lon="13.2302573"><ele>75.0</ele><time>2026-05-03T09:32:39Z</time></trkpt><trkpt lat="43.4922245" lon="13.2300163"><ele>75.0</ele><time>2026-05-03T09:32:40.001Z</time></trkpt><trkpt lat="43.4921035" lon="13.2297742"><ele>75.0</ele><time>2026-05-03T09:32:41.001Z</time></trkpt><trkpt lat="43.4919851" lon="13.2295286"><ele>74.66666666666667</ele><time>2026-05-03T09:32:42.001Z</time></trkpt><trkpt lat="43.4918672" lon="13.2292797"><ele>74.33333333333334</ele><time>2026-05-03T09:32:43.001Z</time></trkpt><trkpt lat="43.491751" lon="13.2290289"><ele>74.0</ele><time>2026-05-03T09:32:44Z</time></trkpt><trkpt lat="43.4916293" lon="13.228779"><ele>74.0</ele><time>2026-05-03T09:32:45.001Z</time></trkpt><trkpt lat="43.4915081" lon="13.2285298"><ele>74.0</ele><time>2026-05-03T09:32:46.001Z</time></trkpt><trkpt lat="43.4913898" lon="13.2282793"><ele>74.0</ele><time>2026-05-03T09:32:47.001Z</time></trkpt><trkpt lat="43.4912704" lon="13.228025"><ele>75.33333333333334</ele><time>2026-05-03T09:32:48Z</time></trkpt><trkpt lat="43.4911562" lon="13.2277731"><ele>76.66666666666667</ele><time>2026-05-03T09:32:49.001Z</time></trkpt><trkpt lat="43.4910472" lon="13.2275226"><ele>78.0</ele><time>2026-05-03T09:32:50.001Z</time></trkpt><trkpt lat="43.4909356" lon="13.2272741"><ele>78.0</ele><time>2026-05-03T09:32:51Z</time></trkpt><trkpt lat="43.4908245" lon="13.2270277"><ele>78.0</ele><time>2026-05-03T09:32:52.001Z</time></trkpt><trkpt lat="43.4907152" lon="13.2267809"><ele>78.0</ele><time>2026-05-03T09:32:53Z</time></trkpt><trkpt lat="43.4906074" lon="13.2265357"><ele>77.66666666666667</ele><time>2026-05-03T09:32:54Z</time></trkpt><trkpt lat="43.4905034" lon="13.2262862"><ele>77.33333333333334</ele><time>2026-05-03T09:32:55Z</time></trkpt><trkpt lat="43.4903963" lon="13.2260359"><ele>77.0</ele><time>2026-05-03T09:32:56.001Z</time></trkpt><trkpt lat="43.4902891" lon="13.2257847"><ele>77.33333333333334</ele><time>2026-05-03T09:32:57Z</time></trkpt><trkpt lat="43.490178" lon="13.2255295"><ele>77.66666666666667</ele><time>2026-05-03T09:32:58.001Z</time></trkpt><trkpt lat="43.4900691" lon="13.2252731"><ele>78.0</ele><time>2026-05-03T09:32:59Z</time></trkpt><trkpt lat="43.4899619" lon="13.2250101"><ele>78.33333333333333</ele><time>2026-05-03T09:33:00.001Z</time></trkpt><trkpt lat="43.4898574" lon="13.2247413"><ele>78.66666666666666</ele><time>2026-05-03T09:33:01.001Z</time></trkpt><trkpt lat="43.4897523" lon="13.2244821"><ele>79.0</ele><time>2026-05-03T09:33:02.001Z</time></trkpt><trkpt lat="43.4896484" lon="13.2242163"><ele>79.66666666666666</ele><time>2026-05-03T09:33:03Z</time></trkpt><trkpt lat="43.4895414" lon="13.2239458"><ele>80.33333333333333</ele><time>2026-05-03T09:33:04.001Z</time></trkpt><trkpt lat="43.4894375" lon="13.2236777"><ele>81.0</ele><time>2026-05-03T09:33:05Z</time></trkpt><trkpt lat="43.4893368" lon="13.2234027"><ele>80.33333333333333</ele><time>2026-05-03T09:33:06Z</time></trkpt><trkpt lat="43.4892356" lon="13.223127"><ele>79.66666666666666</ele><time>2026-05-03T09:33:07Z</time></trkpt><trkpt lat="43.4891332" lon="13.2228545"><ele>79.0</ele><time>2026-05-03T09:33:07.999Z</time></trkpt><trkpt lat="43.4890319" lon="13.2225846"><ele>79.0</ele><time>2026-05-03T09:33:09.001Z</time></trkpt><trkpt lat="43.48893" lon="13.2223158"><ele>79.0</ele><time>2026-05-03T09:33:10Z</time></trkpt><trkpt lat="43.4888318" lon="13.2220522"><ele>79.0</ele><time>2026-05-03T09:33:11.001Z</time></trkpt><trkpt lat="43.4887352" lon="13.2217892"><ele>80.0</ele><time>2026-05-03T09:33:12Z</time></trkpt><trkpt lat="43.4886406" lon="13.2215267"><ele>81.0</ele><time>2026-05-03T09:33:13Z</time></trkpt><trkpt lat="43.488543" lon="13.2212694"><ele>82.0</ele><time>2026-05-03T09:33:14.001Z</time></trkpt><trkpt lat="43.4884502" lon="13.2210185"><ele>82.66666666666666</ele><time>2026-05-03T09:33:15.001Z</time></trkpt><trkpt lat="43.4883534" lon="13.2207685"><ele>83.33333333333333</ele><time>2026-05-03T09:33:16Z</time></trkpt><trkpt lat="43.4882623" lon="13.2205182"><ele>84.0</ele><time>2026-05-03T09:33:17Z</time></trkpt><trkpt lat="43.4881717" lon="13.2202694"><ele>84.0</ele><time>2026-05-03T09:33:18.001Z</time></trkpt><trkpt lat="43.4880821" lon="13.2200191"><ele>84.0</ele><time>2026-05-03T09:33:19Z</time></trkpt><trkpt lat="43.4879894" lon="13.2197667"><ele>84.0</ele><time>2026-05-03T09:33:20Z</time></trkpt><trkpt lat="43.4878949" lon="13.2195135"><ele>84.0</ele><time>2026-05-03T09:33:21.001Z</time></trkpt><trkpt lat="43.4877978" lon="13.2192579"><ele>84.0</ele><time>2026-05-03T09:33:22Z</time></trkpt><trkpt lat="43.4877001" lon="13.2189972"><ele>84.0</ele><time>2026-05-03T09:33:23.001Z</time></trkpt><trkpt lat="43.4876053" lon="13.2187332"><ele>84.0</ele><time>2026-05-03T09:33:24.001Z</time></trkpt><trkpt lat="43.487507" lon="13.2184661"><ele>84.0</ele><time>2026-05-03T09:33:25.001Z</time></trkpt><trkpt lat="43.4874102" lon="13.2181972"><ele>84.0</ele><time>2026-05-03T09:33:26.001Z</time></trkpt><trkpt lat="43.4873093" lon="13.2179332"><ele>84.33333333333333</ele><time>2026-05-03T09:33:27.001Z</time></trkpt><trkpt lat="43.4872086" lon="13.2176659"><ele>84.66666666666666</ele><time>2026-05-03T09:33:28.001Z</time></trkpt><trkpt lat="43.48711" lon="13.2173974"><ele>85.0</ele><time>2026-05-03T09:33:29Z</time></trkpt><trkpt lat="43.4870102" lon="13.2171292"><ele>85.0</ele><time>2026-05-03T09:33:30Z</time></trkpt><trkpt lat="43.4869088" lon="13.2168619"><ele>85.0</ele><time>2026-05-03T09:33:31Z</time></trkpt><trkpt lat="43.4868064" lon="13.216591"><ele>85.0</ele><time>2026-05-03T09:33:32.001Z</time></trkpt><trkpt lat="43.4867067" lon="13.2163191"><ele>85.0</ele><time>2026-05-03T09:33:33Z</time></trkpt><trkpt lat="43.4866073" lon="13.2160465"><ele>85.0</ele><time>2026-05-03T09:33:34.001Z</time></trkpt><trkpt lat="43.4865096" lon="13.2157722"><ele>85.0</ele><time>2026-05-03T09:33:35.001Z</time></trkpt><trkpt lat="43.4864064" lon="13.215498"><ele>85.5</ele><time>2026-05-03T09:33:36Z</time></trkpt><trkpt lat="43.4863066" lon="13.2152266"><ele>86.0</ele><time>2026-05-03T09:33:37Z</time></trkpt><trkpt lat="43.4862" lon="13.2149474"><ele>86.0</ele><time>2026-05-03T09:33:38.001Z</time></trkpt><trkpt lat="43.4860972" lon="13.2146717"><ele>86.0</ele><time>2026-05-03T09:33:39.001Z</time></trkpt><trkpt lat="43.4859995" lon="13.2143918"><ele>86.0</ele><time>2026-05-03T09:33:40.001Z</time></trkpt><trkpt lat="43.4858958" lon="13.2141109"><ele>86.0</ele><time>2026-05-03T09:33:41.001Z</time></trkpt><trkpt lat="43.4857924" lon="13.213831"><ele>85.5</ele><time>2026-05-03T09:33:42Z</time></trkpt><trkpt lat="43.4856985" lon="13.2135508"><ele>85.0</ele><time>2026-05-03T09:33:43Z</time></trkpt><trkpt lat="43.4856035" lon="13.2132641"><ele>85.0</ele><time>2026-05-03T09:33:44.001Z</time></trkpt><trkpt lat="43.485511" lon="13.2129785"><ele>85.0</ele><time>2026-05-03T09:33:45.001Z</time></trkpt><trkpt lat="43.4854275" lon="13.2126915"><ele>85.33333333333333</ele><time>2026-05-03T09:33:46.001Z</time></trkpt><trkpt lat="43.485353" lon="13.212402"><ele>85.66666666666667</ele><time>2026-05-03T09:33:47.001Z</time></trkpt><trkpt lat="43.4852799" lon="13.2121085"><ele>86.0</ele><time>2026-05-03T09:33:48.001Z</time></trkpt><trkpt lat="43.4852156" lon="13.2118151"><ele>86.0</ele><time>2026-05-03T09:33:49.001Z</time></trkpt><trkpt lat="43.4851567" lon="13.2115197"><ele>86.0</ele><time>2026-05-03T09:33:50Z</time></trkpt><trkpt lat="43.4851024" lon="13.2112248"><ele>86.0</ele><time>2026-05-03T09:33:51.001Z</time></trkpt><trkpt lat="43.4850537" lon="13.2109278"><ele>86.66666666666667</ele><time>2026-05-03T09:33:52.001Z</time></trkpt><trkpt lat="43.4850111" lon="13.2106293"><ele>87.33333333333333</ele><time>2026-05-03T09:33:53.001Z</time></trkpt><trkpt lat="43.4849734" lon="13.2103271"><ele>88.0</ele><time>2026-05-03T09:33:54Z</time></trkpt><trkpt lat="43.4849398" lon="13.210029"><ele>87.66666666666666</ele><time>2026-05-03T09:33:55.001Z</time></trkpt><trkpt lat="43.4849075" lon="13.2097313"><ele>87.33333333333333</ele><time>2026-05-03T09:33:56Z</time></trkpt><trkpt lat="43.4848828" lon="13.2094376"><ele>87.0</ele><time>2026-05-03T09:33:57Z</time></trkpt><trkpt lat="43.4848609" lon="13.2091536"><ele>87.0</ele><time>2026-05-03T09:33:57.999Z</time></trkpt><trkpt lat="43.4848475" lon="13.2088664"><ele>87.0</ele><time>2026-05-03T09:33:59Z</time></trkpt><trkpt lat="43.4848395" lon="13.2085728"><ele>87.0</ele><time>2026-05-03T09:34:00Z</time></trkpt><trkpt lat="43.4848382" lon="13.2082796"><ele>87.0</ele><time>2026-05-03T09:34:01Z</time></trkpt><trkpt lat="43.4848426" lon="13.2079797"><ele>87.0</ele><time>2026-05-03T09:34:02.001Z</time></trkpt><trkpt lat="43.4848519" lon="13.2076816"><ele>87.0</ele><time>2026-05-03T09:34:03.001Z</time></trkpt><trkpt lat="43.4848646" lon="13.2073796"><ele>87.0</ele><time>2026-05-03T09:34:03.999Z</time></trkpt><trkpt lat="43.4848853" lon="13.2070797"><ele>87.0</ele><time>2026-05-03T09:34:05Z</time></trkpt><trkpt lat="43.4849081" lon="13.2067803"><ele>87.0</ele><time>2026-05-03T09:34:06.001Z</time></trkpt><trkpt lat="43.4849344" lon="13.2064782"><ele>87.33333333333333</ele><time>2026-05-03T09:34:07.001Z</time></trkpt><trkpt lat="43.4849657" lon="13.2061773"><ele>87.66666666666666</ele><time>2026-05-03T09:34:08Z</time></trkpt><trkpt lat="43.4850044" lon="13.2058795"><ele>88.0</ele><time>2026-05-03T09:34:09.001Z</time></trkpt><trkpt lat="43.4850513" lon="13.2055833"><ele>88.0</ele><time>2026-05-03T09:34:10.001Z</time></trkpt><trkpt lat="43.4851042" lon="13.2052864"><ele>88.0</ele><time>2026-05-03T09:34:11Z</time></trkpt><trkpt lat="43.4851642" lon="13.2049888"><ele>88.0</ele><time>2026-05-03T09:34:12.001Z</time></trkpt><trkpt lat="43.4852282" lon="13.2046926"><ele>88.33333333333333</ele><time>2026-05-03T09:34:13Z</time></trkpt><trkpt lat="43.4853009" lon="13.2043981"><ele>88.66666666666667</ele><time>2026-05-03T09:34:14Z</time></trkpt><trkpt lat="43.4853757" lon="13.2041084"><ele>89.0</ele><time>2026-05-03T09:34:15.001Z</time></trkpt><trkpt lat="43.4854577" lon="13.2038238"><ele>89.0</ele><time>2026-05-03T09:34:16Z</time></trkpt><trkpt lat="43.4855417" lon="13.2035389"><ele>89.0</ele><time>2026-05-03T09:34:17.001Z</time></trkpt><trkpt lat="43.4856181" lon="13.203256"><ele>89.0</ele><time>2026-05-03T09:34:18.001Z</time></trkpt><trkpt lat="43.4856941" lon="13.2029781"><ele>88.66666666666667</ele><time>2026-05-03T09:34:19.001Z</time></trkpt><trkpt lat="43.4857732" lon="13.2027002"><ele>88.33333333333333</ele><time>2026-05-03T09:34:20.001Z</time></trkpt><trkpt lat="43.4858448" lon="13.2024238"><ele>88.0</ele><time>2026-05-03T09:34:21.001Z</time></trkpt><trkpt lat="43.4859193" lon="13.2021471"><ele>88.0</ele><time>2026-05-03T09:34:22.001Z</time></trkpt><trkpt lat="43.4859879" lon="13.2018648"><ele>88.0</ele><time>2026-05-03T09:34:23.001Z</time></trkpt><trkpt lat="43.4860494" lon="13.2015783"><ele>88.0</ele><time>2026-05-03T09:34:24Z</time></trkpt><trkpt lat="43.4861056" lon="13.2012918"><ele>88.0</ele><time>2026-05-03T09:34:25Z</time></trkpt><trkpt lat="43.4861605" lon="13.2009982"><ele>88.0</ele><time>2026-05-03T09:34:25.999Z</time></trkpt><trkpt lat="43.4862108" lon="13.2007045"><ele>88.0</ele><time>2026-05-03T09:34:27Z</time></trkpt><trkpt lat="43.4862587" lon="13.2004079"><ele>88.0</ele><time>2026-05-03T09:34:28.001Z</time></trkpt><trkpt lat="43.4862951" lon="13.2001082"><ele>88.0</ele><time>2026-05-03T09:34:29Z</time></trkpt><trkpt lat="43.4863292" lon="13.1998078"><ele>88.0</ele><time>2026-05-03T09:34:30.001Z</time></trkpt><trkpt lat="43.4863554" lon="13.1995052"><ele>88.0</ele><time>2026-05-03T09:34:31.001Z</time></trkpt><trkpt lat="43.4863736" lon="13.1991993"><ele>88.0</ele><time>2026-05-03T09:34:32Z</time></trkpt><trkpt lat="43.4863885" lon="13.1988909"><ele>88.0</ele><time>2026-05-03T09:34:33.001Z</time></trkpt><trkpt lat="43.4863975" lon="13.1985824"><ele>88.0</ele><time>2026-05-03T09:34:34.001Z</time></trkpt><trkpt lat="43.4864079" lon="13.1982707"><ele>88.0</ele><time>2026-05-03T09:34:35.001Z</time></trkpt><trkpt lat="43.4864163" lon="13.197959"><ele>88.0</ele><time>2026-05-03T09:34:36.001Z</time></trkpt><trkpt lat="43.4864263" lon="13.1976461"><ele>88.0</ele><time>2026-05-03T09:34:37.001Z</time></trkpt><trkpt lat="43.4864395" lon="13.1973316"><ele>87.5</ele><time>2026-05-03T09:34:38Z</time></trkpt><trkpt lat="43.4864553" lon="13.1970183"><ele>87.0</ele><time>2026-05-03T09:34:39.001Z</time></trkpt><trkpt lat="43.4864764" lon="13.1967034"><ele>87.5</ele><time>2026-05-03T09:34:40.001Z</time></trkpt><trkpt lat="43.4864988" lon="13.1963888"><ele>88.0</ele><time>2026-05-03T09:34:41.001Z</time></trkpt><trkpt lat="43.4865274" lon="13.1960756"><ele>88.0</ele><time>2026-05-03T09:34:42Z</time></trkpt><trkpt lat="43.4865627" lon="13.1957588"><ele>88.0</ele><time>2026-05-03T09:34:43.001Z</time></trkpt><trkpt lat="43.4866036" lon="13.1954477"><ele>89.5</ele><time>2026-05-03T09:34:44.001Z</time></trkpt><trkpt lat="43.4866502" lon="13.1951381"><ele>91.0</ele><time>2026-05-03T09:34:45.001Z</time></trkpt><trkpt lat="43.4867017" lon="13.1948297"><ele>91.5</ele><time>2026-05-03T09:34:46.001Z</time></trkpt><trkpt lat="43.4867579" lon="13.1945203"><ele>92.0</ele><time>2026-05-03T09:34:47.001Z</time></trkpt><trkpt lat="43.4868211" lon="13.1942133"><ele>91.5</ele><time>2026-05-03T09:34:48.001Z</time></trkpt><trkpt lat="43.4868914" lon="13.1939072"><ele>91.0</ele><time>2026-05-03T09:34:49.001Z</time></trkpt><trkpt lat="43.4869706" lon="13.1936053"><ele>91.0</ele><time>2026-05-03T09:34:50Z</time></trkpt><trkpt lat="43.4870496" lon="13.1933025"><ele>91.0</ele><time>2026-05-03T09:34:51.001Z</time></trkpt><trkpt lat="43.4871337" lon="13.1930023"><ele>92.0</ele><time>2026-05-03T09:34:52Z</time></trkpt><trkpt lat="43.4872234" lon="13.1927082"><ele>93.0</ele><time>2026-05-03T09:34:53.001Z</time></trkpt><trkpt lat="43.4873208" lon="13.1924168"><ele>93.0</ele><time>2026-05-03T09:34:54Z</time></trkpt><trkpt lat="43.4874213" lon="13.1921265"><ele>93.0</ele><time>2026-05-03T09:34:55Z</time></trkpt><trkpt lat="43.4875225" lon="13.1918369"><ele>93.0</ele><time>2026-05-03T09:34:56.001Z</time></trkpt><trkpt lat="43.4876227" lon="13.1915498"><ele>93.0</ele><time>2026-05-03T09:34:57.001Z</time></trkpt><trkpt lat="43.4877192" lon="13.1912624"><ele>92.5</ele><time>2026-05-03T09:34:58.001Z</time></trkpt><trkpt lat="43.4878155" lon="13.1909721"><ele>92.0</ele><time>2026-05-03T09:34:59Z</time></trkpt><trkpt lat="43.4879153" lon="13.1906871"><ele>92.5</ele><time>2026-05-03T09:35:00.001Z</time></trkpt><trkpt lat="43.4880153" lon="13.1903952"><ele>93.0</ele><time>2026-05-03T09:35:01.001Z</time></trkpt><trkpt lat="43.4881155" lon="13.1901066"><ele>93.0</ele><time>2026-05-03T09:35:02.001Z</time></trkpt><trkpt lat="43.4882161" lon="13.1898194"><ele>93.0</ele><time>2026-05-03T09:35:03.001Z</time></trkpt><trkpt lat="43.4883182" lon="13.1895348"><ele>93.0</ele><time>2026-05-03T09:35:04Z</time></trkpt><trkpt lat="43.48842" lon="13.1892468"><ele>93.0</ele><time>2026-05-03T09:35:04.999Z</time></trkpt><trkpt lat="43.4885194" lon="13.1889587"><ele>92.0</ele><time>2026-05-03T09:35:06.001Z</time></trkpt><trkpt lat="43.4886198" lon="13.1886718"><ele>91.0</ele><time>2026-05-03T09:35:07.001Z</time></trkpt><trkpt lat="43.4887231" lon="13.1883864"><ele>89.0</ele><time>2026-05-03T09:35:08.001Z</time></trkpt><trkpt lat="43.4888273" lon="13.1880993"><ele>87.0</ele><time>2026-05-03T09:35:09.001Z</time></trkpt><trkpt lat="43.4889311" lon="13.1878127"><ele>87.0</ele><time>2026-05-03T09:35:10.001Z</time></trkpt><trkpt lat="43.4890357" lon="13.1875274"><ele>87.0</ele><time>2026-05-03T09:35:11.002Z</time></trkpt><trkpt lat="43.4891424" lon="13.1872437"><ele>90.0</ele><time>2026-05-03T09:35:12.001Z</time></trkpt><trkpt lat="43.4892521" lon="13.1869604"><ele>93.0</ele><time>2026-05-03T09:35:13Z</time></trkpt><trkpt lat="43.4893623" lon="13.1866794"><ele>94.5</ele><time>2026-05-03T09:35:14Z</time></trkpt><trkpt lat="43.489475" lon="13.1864006"><ele>96.0</ele><time>2026-05-03T09:35:15Z</time></trkpt><trkpt lat="43.4895876" lon="13.1861194"><ele>93.5</ele><time>2026-05-03T09:35:16Z</time></trkpt><trkpt lat="43.4896993" lon="13.1858382"><ele>91.0</ele><time>2026-05-03T09:35:17Z</time></trkpt><trkpt lat="43.489814" lon="13.1855581"><ele>91.0</ele><time>2026-05-03T09:35:18Z</time></trkpt><trkpt lat="43.4899269" lon="13.1852744"><ele>91.0</ele><time>2026-05-03T09:35:18.999Z</time></trkpt><trkpt lat="43.4900405" lon="13.1849921"><ele>92.0</ele><time>2026-05-03T09:35:20Z</time></trkpt><trkpt lat="43.4901524" lon="13.1847091"><ele>93.0</ele><time>2026-05-03T09:35:21Z</time></trkpt><trkpt lat="43.4902641" lon="13.184427"><ele>93.0</ele><time>2026-05-03T09:35:22Z</time></trkpt><trkpt lat="43.4903809" lon="13.1841437"><ele>93.0</ele><time>2026-05-03T09:35:22.999Z</time></trkpt><trkpt lat="43.49049" lon="13.1838593"><ele>89.5</ele><time>2026-05-03T09:35:24Z</time></trkpt><trkpt lat="43.4906005" lon="13.1835725"><ele>86.0</ele><time>2026-05-03T09:35:25.001Z</time></trkpt><trkpt lat="43.4907096" lon="13.1832844"><ele>86.0</ele><time>2026-05-03T09:35:26Z</time></trkpt><trkpt lat="43.4908188" lon="13.1829985"><ele>86.0</ele><time>2026-05-03T09:35:27Z</time></trkpt><trkpt lat="43.4909254" lon="13.1827104"><ele>86.0</ele><time>2026-05-03T09:35:27.999Z</time></trkpt><trkpt lat="43.4910306" lon="13.1824224"><ele>86.0</ele><time>2026-05-03T09:35:29.001Z</time></trkpt><trkpt lat="43.4911339" lon="13.1821317"><ele>86.5</ele><time>2026-05-03T09:35:30.001Z</time></trkpt><trkpt lat="43.4912385" lon="13.1818408"><ele>87.0</ele><time>2026-05-03T09:35:31Z</time></trkpt><trkpt lat="43.4913449" lon="13.1815533"><ele>86.0</ele><time>2026-05-03T09:35:32Z</time></trkpt><trkpt lat="43.4914454" lon="13.1812635"><ele>85.0</ele><time>2026-05-03T09:35:32.999Z</time></trkpt><trkpt lat="43.4915446" lon="13.1809709"><ele>84.5</ele><time>2026-05-03T09:35:34.001Z</time></trkpt><trkpt lat="43.4916343" lon="13.1806783"><ele>84.0</ele><time>2026-05-03T09:35:35Z</time></trkpt><trkpt lat="43.4917297" lon="13.1803893"><ele>84.0</ele><time>2026-05-03T09:35:36.001Z</time></trkpt><trkpt lat="43.4918263" lon="13.1801042"><ele>84.0</ele><time>2026-05-03T09:35:37.001Z</time></trkpt><trkpt lat="43.4919263" lon="13.1798201"><ele>83.5</ele><time>2026-05-03T09:35:38.001Z</time></trkpt><trkpt lat="43.4920195" lon="13.179534"><ele>83.0</ele><time>2026-05-03T09:35:38.999Z</time></trkpt><trkpt lat="43.4921114" lon="13.1792447"><ele>82.5</ele><time>2026-05-03T09:35:40Z</time></trkpt><trkpt lat="43.4922038" lon="13.1789535"><ele>82.0</ele><time>2026-05-03T09:35:40.998Z</time></trkpt><trkpt lat="43.4922936" lon="13.1786612"><ele>82.0</ele><time>2026-05-03T09:35:42Z</time></trkpt><trkpt lat="43.4923838" lon="13.1783659"><ele>82.0</ele><time>2026-05-03T09:35:43Z</time></trkpt><trkpt lat="43.4924725" lon="13.1780751"><ele>83.0</ele><time>2026-05-03T09:35:43.999Z</time></trkpt><trkpt lat="43.4925565" lon="13.1777836"><ele>84.0</ele><time>2026-05-03T09:35:44.999Z</time></trkpt><trkpt lat="43.4926447" lon="13.1774933"><ele>84.0</ele><time>2026-05-03T09:35:46Z</time></trkpt><trkpt lat="43.4927305" lon="13.1772032"><ele>84.0</ele><time>2026-05-03T09:35:47Z</time></trkpt><trkpt lat="43.4928114" lon="13.1769098"><ele>84.0</ele><time>2026-05-03T09:35:48Z</time></trkpt><trkpt lat="43.4928919" lon="13.1766146"><ele>84.0</ele><time>2026-05-03T09:35:49Z</time></trkpt><trkpt lat="43.4929682" lon="13.1763181"><ele>84.0</ele><time>2026-05-03T09:35:49.999Z</time></trkpt><trkpt lat="43.493047" lon="13.1760238"><ele>84.0</ele><time>2026-05-03T09:35:50.999Z</time></trkpt><trkpt lat="43.493126" lon="13.1757298"><ele>84.5</ele><time>2026-05-03T09:35:51.999Z</time></trkpt><trkpt lat="43.4932049" lon="13.175435"><ele>85.0</ele><time>2026-05-03T09:35:52.998Z</time></trkpt><trkpt lat="43.4932809" lon="13.1751391"><ele>86.0</ele><time>2026-05-03T09:35:54Z</time></trkpt><trkpt lat="43.4933587" lon="13.1748402"><ele>87.0</ele><time>2026-05-03T09:35:54.999Z</time></trkpt><trkpt lat="43.4934353" lon="13.1745421"><ele>87.0</ele><time>2026-05-03T09:35:55.999Z</time></trkpt><trkpt lat="43.4935087" lon="13.1742407"><ele>87.0</ele><time>2026-05-03T09:35:57Z</time></trkpt><trkpt lat="43.4935786" lon="13.1739414"><ele>86.0</ele><time>2026-05-03T09:35:58Z</time></trkpt><trkpt lat="43.4936456" lon="13.173643"><ele>85.0</ele><time>2026-05-03T09:35:58.999Z</time></trkpt><trkpt lat="43.4937133" lon="13.1733439"><ele>84.5</ele><time>2026-05-03T09:35:59.998Z</time></trkpt><trkpt lat="43.4937823" lon="13.1730419"><ele>84.0</ele><time>2026-05-03T09:36:00.998Z</time></trkpt><trkpt lat="43.4938533" lon="13.1727393"><ele>84.0</ele><time>2026-05-03T09:36:02Z</time></trkpt><trkpt lat="43.4939197" lon="13.1724342"><ele>84.0</ele><time>2026-05-03T09:36:03Z</time></trkpt><trkpt lat="43.4939861" lon="13.1721325"><ele>84.5</ele><time>2026-05-03T09:36:03.999Z</time></trkpt><trkpt lat="43.4940539" lon="13.1718279"><ele>85.0</ele><time>2026-05-03T09:36:05Z</time></trkpt><trkpt lat="43.4941205" lon="13.171523"><ele>85.5</ele><time>2026-05-03T09:36:06Z</time></trkpt><trkpt lat="43.4941842" lon="13.1712165"><ele>86.0</ele><time>2026-05-03T09:36:06.999Z</time></trkpt><trkpt lat="43.4942484" lon="13.1709124"><ele>85.5</ele><time>2026-05-03T09:36:07.999Z</time></trkpt><trkpt lat="43.494314" lon="13.1706053"><ele>85.0</ele><time>2026-05-03T09:36:08.999Z</time></trkpt><trkpt lat="43.4943845" lon="13.1703043"><ele>85.0</ele><time>2026-05-03T09:36:10Z</time></trkpt><trkpt lat="43.4944518" lon="13.1699981"><ele>85.0</ele><time>2026-05-03T09:36:10.999Z</time></trkpt><trkpt lat="43.494516" lon="13.1696924"><ele>85.5</ele><time>2026-05-03T09:36:12Z</time></trkpt><trkpt lat="43.4945802" lon="13.1693838"><ele>86.0</ele><time>2026-05-03T09:36:13Z</time></trkpt><trkpt lat="43.4946479" lon="13.1690751"><ele>85.0</ele><time>2026-05-03T09:36:13.999Z</time></trkpt><trkpt lat="43.4947123" lon="13.1687666"><ele>84.0</ele><time>2026-05-03T09:36:15Z</time></trkpt><trkpt lat="43.4947788" lon="13.1684576"><ele>84.5</ele><time>2026-05-03T09:36:15.999Z</time></trkpt><trkpt lat="43.4948426" lon="13.1681485"><ele>85.0</ele><time>2026-05-03T09:36:16.998Z</time></trkpt><trkpt lat="43.4949102" lon="13.1678401"><ele>85.0</ele><time>2026-05-03T09:36:17.998Z</time></trkpt><trkpt lat="43.494976" lon="13.1675296"><ele>85.0</ele><time>2026-05-03T09:36:18.999Z</time></trkpt><trkpt lat="43.4950423" lon="13.1672236"><ele>86.0</ele><time>2026-05-03T09:36:19.999Z</time></trkpt><trkpt lat="43.495106" lon="13.1669142"><ele>87.0</ele><time>2026-05-03T09:36:20.999Z</time></trkpt><trkpt lat="43.4951662" lon="13.1666028"><ele>87.0</ele><time>2026-05-03T09:36:22Z</time></trkpt><trkpt lat="43.4952136" lon="13.1662897"><ele>87.0</ele><time>2026-05-03T09:36:22.999Z</time></trkpt><trkpt lat="43.4952547" lon="13.1659754"><ele>87.5</ele><time>2026-05-03T09:36:24Z</time></trkpt><trkpt lat="43.4952918" lon="13.1656559"><ele>88.0</ele><time>2026-05-03T09:36:25Z</time></trkpt><trkpt lat="43.4953238" lon="13.1653383"><ele>88.0</ele><time>2026-05-03T09:36:25.999Z</time></trkpt><trkpt lat="43.4953545" lon="13.1650193"><ele>88.0</ele><time>2026-05-03T09:36:27Z</time></trkpt><trkpt lat="43.4953793" lon="13.1646986"><ele>88.0</ele><time>2026-05-03T09:36:28Z</time></trkpt><trkpt lat="43.4953919" lon="13.1643727"><ele>88.0</ele><time>2026-05-03T09:36:28.999Z</time></trkpt><trkpt lat="43.4953985" lon="13.1640474"><ele>88.5</ele><time>2026-05-03T09:36:29.999Z</time></trkpt><trkpt lat="43.4953968" lon="13.1637231"><ele>89.0</ele><time>2026-05-03T09:36:31Z</time></trkpt><trkpt lat="43.4953932" lon="13.1633995"><ele>89.5</ele><time>2026-05-03T09:36:32Z</time></trkpt><trkpt lat="43.4953809" lon="13.1630751"><ele>90.0</ele><time>2026-05-03T09:36:33Z</time></trkpt><trkpt lat="43.4953613" lon="13.1627514"><ele>90.0</ele><time>2026-05-03T09:36:34Z</time></trkpt><trkpt lat="43.4953384" lon="13.1624274"><ele>90.0</ele><time>2026-05-03T09:36:34.998Z</time></trkpt><trkpt lat="43.4953089" lon="13.1621071"><ele>90.5</ele><time>2026-05-03T09:36:35.999Z</time></trkpt><trkpt lat="43.495276" lon="13.1617873"><ele>91.0</ele><time>2026-05-03T09:36:37Z</time></trkpt><trkpt lat="43.4952389" lon="13.1614717"><ele>91.0</ele><time>2026-05-03T09:36:38Z</time></trkpt><trkpt lat="43.4951925" lon="13.1611591"><ele>91.0</ele><time>2026-05-03T09:36:39Z</time></trkpt><trkpt lat="43.495138" lon="13.160852"><ele>91.5</ele><time>2026-05-03T09:36:40Z</time></trkpt><trkpt lat="43.4950814" lon="13.1605502"><ele>92.0</ele><time>2026-05-03T09:36:40.999Z</time></trkpt><trkpt lat="43.4950187" lon="13.1602472"><ele>92.0</ele><time>2026-05-03T09:36:42Z</time></trkpt><trkpt lat="43.4949507" lon="13.1599531"><ele>92.0</ele><time>2026-05-03T09:36:43Z</time></trkpt><trkpt lat="43.4948769" lon="13.1596618"><ele>92.0</ele><time>2026-05-03T09:36:44Z</time></trkpt><trkpt lat="43.4947992" lon="13.1593725"><ele>92.0</ele><time>2026-05-03T09:36:45Z</time></trkpt><trkpt lat="43.4947199" lon="13.1590903"><ele>92.0</ele><time>2026-05-03T09:36:45.999Z</time></trkpt><trkpt lat="43.4946349" lon="13.1588108"><ele>92.0</ele><time>2026-05-03T09:36:47Z</time></trkpt><trkpt lat="43.4945521" lon="13.1585272"><ele>95.33333333333334</ele><time>2026-05-03T09:36:47.999Z</time></trkpt><trkpt lat="43.4944657" lon="13.1582462"><ele>98.66666666666667</ele><time>2026-05-03T09:36:49Z</time></trkpt><trkpt lat="43.4943852" lon="13.157965"><ele>102.0</ele><time>2026-05-03T09:36:50Z</time></trkpt><trkpt lat="43.4943049" lon="13.1576842"><ele>102.0</ele><time>2026-05-03T09:36:51Z</time></trkpt><trkpt lat="43.4942243" lon="13.157402"><ele>102.0</ele><time>2026-05-03T09:36:51.999Z</time></trkpt><trkpt lat="43.4941433" lon="13.1571177"><ele>102.0</ele><time>2026-05-03T09:36:52.999Z</time></trkpt><trkpt lat="43.4940639" lon="13.1568356"><ele>102.0</ele><time>2026-05-03T09:36:54Z</time></trkpt><trkpt lat="43.4939826" lon="13.1565503"><ele>102.0</ele><time>2026-05-03T09:36:55Z</time></trkpt><trkpt lat="43.4938999" lon="13.1562662"><ele>102.0</ele><time>2026-05-03T09:36:56Z</time></trkpt><trkpt lat="43.4938153" lon="13.1559826"><ele>102.66666666666666</ele><time>2026-05-03T09:36:57Z</time></trkpt><trkpt lat="43.4937308" lon="13.1557047"><ele>103.33333333333333</ele><time>2026-05-03T09:36:58Z</time></trkpt><trkpt lat="43.4936505" lon="13.1554332"><ele>104.0</ele><time>2026-05-03T09:36:59Z</time></trkpt><trkpt lat="43.4935742" lon="13.1551772"><ele>104.0</ele><time>2026-05-03T09:36:59.999Z</time></trkpt><trkpt lat="43.4935017" lon="13.1549283"><ele>104.0</ele><time>2026-05-03T09:37:01Z</time></trkpt><trkpt lat="43.4934304" lon="13.1546818"><ele>104.0</ele><time>2026-05-03T09:37:01.999Z</time></trkpt><trkpt lat="43.4933598" lon="13.1544345"><ele>104.0</ele><time>2026-05-03T09:37:03Z</time></trkpt><trkpt lat="43.4932903" lon="13.1541898"><ele>104.0</ele><time>2026-05-03T09:37:04Z</time></trkpt><trkpt lat="43.4932188" lon="13.1539429"><ele>104.0</ele><time>2026-05-03T09:37:05Z</time></trkpt><trkpt lat="43.493153" lon="13.153693"><ele>103.33333333333333</ele><time>2026-05-03T09:37:05.999Z</time></trkpt><trkpt lat="43.4930928" lon="13.1534337"><ele>102.66666666666666</ele><time>2026-05-03T09:37:07Z</time></trkpt><trkpt lat="43.4930372" lon="13.1531619"><ele>102.0</ele><time>2026-05-03T09:37:07.999Z</time></trkpt><trkpt lat="43.4929919" lon="13.1528784"><ele>101.5</ele><time>2026-05-03T09:37:09Z</time></trkpt><trkpt lat="43.4929471" lon="13.152576"><ele>101.0</ele><time>2026-05-03T09:37:10Z</time></trkpt><trkpt lat="43.4929057" lon="13.1522513"><ele>103.0</ele><time>2026-05-03T09:37:10.998Z</time></trkpt><trkpt lat="43.4928752" lon="13.1519044"><ele>105.0</ele><time>2026-05-03T09:37:12Z</time></trkpt><trkpt lat="43.4928583" lon="13.1515491"><ele>106.0</ele><time>2026-05-03T09:37:12.999Z</time></trkpt><trkpt lat="43.4928673" lon="13.1511979"><ele>107.0</ele><time>2026-05-03T09:37:13.998Z</time></trkpt><trkpt lat="43.4928938" lon="13.1508463"><ele>107.0</ele><time>2026-05-03T09:37:15Z</time></trkpt><trkpt lat="43.4929199" lon="13.1505084"><ele>107.0</ele><time>2026-05-03T09:37:15.999Z</time></trkpt><trkpt lat="43.4929533" lon="13.1501807"><ele>103.0</ele><time>2026-05-03T09:37:16.999Z</time></trkpt><trkpt lat="43.4929938" lon="13.1498656"><ele>99.0</ele><time>2026-05-03T09:37:18Z</time></trkpt><trkpt lat="43.4930433" lon="13.1495568"><ele>99.0</ele><time>2026-05-03T09:37:19Z</time></trkpt><trkpt lat="43.4931004" lon="13.1492582"><ele>99.0</ele><time>2026-05-03T09:37:20Z</time></trkpt><trkpt lat="43.4931654" lon="13.148965"><ele>99.0</ele><time>2026-05-03T09:37:21Z</time></trkpt><trkpt lat="43.4932405" lon="13.1486732"><ele>101.0</ele><time>2026-05-03T09:37:21.999Z</time></trkpt><trkpt lat="43.4933272" lon="13.1483871"><ele>103.0</ele><time>2026-05-03T09:37:22.999Z</time></trkpt><trkpt lat="43.4934222" lon="13.1481054"><ele>104.0</ele><time>2026-05-03T09:37:24Z</time></trkpt><trkpt lat="43.4935206" lon="13.1478264"><ele>105.0</ele><time>2026-05-03T09:37:25Z</time></trkpt><trkpt lat="43.4936179" lon="13.1475451"><ele>105.5</ele><time>2026-05-03T09:37:26Z</time></trkpt><trkpt lat="43.4937147" lon="13.1472599"><ele>106.0</ele><time>2026-05-03T09:37:26.999Z</time></trkpt><trkpt lat="43.4938127" lon="13.1469774"><ele>102.0</ele><time>2026-05-03T09:37:28Z</time></trkpt><trkpt lat="43.4939121" lon="13.1466986"><ele>98.0</ele><time>2026-05-03T09:37:28.999Z</time></trkpt><trkpt lat="43.4940067" lon="13.1464163"><ele>98.0</ele><time>2026-05-03T09:37:30Z</time></trkpt><trkpt lat="43.4941024" lon="13.1461304"><ele>98.0</ele><time>2026-05-03T09:37:31Z</time></trkpt><trkpt lat="43.4941998" lon="13.1458451"><ele>97.5</ele><time>2026-05-03T09:37:31.999Z</time></trkpt><trkpt lat="43.4942952" lon="13.1455633"><ele>97.0</ele><time>2026-05-03T09:37:33Z</time></trkpt><trkpt lat="43.4943918" lon="13.1452808"><ele>97.0</ele><time>2026-05-03T09:37:33.999Z</time></trkpt><trkpt lat="43.4944863" lon="13.1449986"><ele>97.0</ele><time>2026-05-03T09:37:35Z</time></trkpt><trkpt lat="43.4945792" lon="13.1447141"><ele>95.5</ele><time>2026-05-03T09:37:36Z</time></trkpt><trkpt lat="43.4946662" lon="13.1444262"><ele>94.0</ele><time>2026-05-03T09:37:36.999Z</time></trkpt><trkpt lat="43.4947472" lon="13.1441347"><ele>94.5</ele><time>2026-05-03T09:37:37.999Z</time></trkpt><trkpt lat="43.494824" lon="13.1438372"><ele>95.0</ele><time>2026-05-03T09:37:38.999Z</time></trkpt><trkpt lat="43.494896" lon="13.143539"><ele>95.0</ele><time>2026-05-03T09:37:40Z</time></trkpt><trkpt lat="43.4949583" lon="13.143235"><ele>95.0</ele><time>2026-05-03T09:37:40.999Z</time></trkpt><trkpt lat="43.4950171" lon="13.1429302"><ele>96.0</ele><time>2026-05-03T09:37:41.999Z</time></trkpt><trkpt lat="43.4950702" lon="13.1426252"><ele>97.0</ele><time>2026-05-03T09:37:42.998Z</time></trkpt><trkpt lat="43.4951201" lon="13.1423157"><ele>97.0</ele><time>2026-05-03T09:37:43.999Z</time></trkpt><trkpt lat="43.4951631" lon="13.1420094"><ele>97.0</ele><time>2026-05-03T09:37:45Z</time></trkpt><trkpt lat="43.495204" lon="13.1417026"><ele>97.0</ele><time>2026-05-03T09:37:45.999Z</time></trkpt><trkpt lat="43.4952413" lon="13.1413963"><ele>97.0</ele><time>2026-05-03T09:37:46.999Z</time></trkpt><trkpt lat="43.4952697" lon="13.1410897"><ele>97.0</ele><time>2026-05-03T09:37:48Z</time></trkpt><trkpt lat="43.4952978" lon="13.1407828"><ele>97.0</ele><time>2026-05-03T09:37:48.998Z</time></trkpt><trkpt lat="43.4953251" lon="13.1404758"><ele>97.0</ele><time>2026-05-03T09:37:49.999Z</time></trkpt><trkpt lat="43.4953535" lon="13.1401663"><ele>97.33333333333334</ele><time>2026-05-03T09:37:50.999Z</time></trkpt><trkpt lat="43.4953837" lon="13.1398621"><ele>97.66666666666666</ele><time>2026-05-03T09:37:51.999Z</time></trkpt><trkpt lat="43.4954152" lon="13.1395565"><ele>98.0</ele><time>2026-05-03T09:37:52.999Z</time></trkpt><trkpt lat="43.4954473" lon="13.1392535"><ele>98.0</ele><time>2026-05-03T09:37:54Z</time></trkpt><trkpt lat="43.4954755" lon="13.1389528"><ele>98.0</ele><time>2026-05-03T09:37:55Z</time></trkpt><trkpt lat="43.4955023" lon="13.1386538"><ele>98.0</ele><time>2026-05-03T09:37:55.999Z</time></trkpt><trkpt lat="43.4955198" lon="13.1383544"><ele>98.33333333333333</ele><time>2026-05-03T09:37:56.999Z</time></trkpt><trkpt lat="43.4955333" lon="13.138054"><ele>98.66666666666666</ele><time>2026-05-03T09:37:57.999Z</time></trkpt><trkpt lat="43.4955448" lon="13.1377515"><ele>99.0</ele><time>2026-05-03T09:37:58.999Z</time></trkpt><trkpt lat="43.4955472" lon="13.1374519"><ele>98.66666666666666</ele><time>2026-05-03T09:37:59.999Z</time></trkpt><trkpt lat="43.4955431" lon="13.1371488"><ele>98.33333333333333</ele><time>2026-05-03T09:38:01Z</time></trkpt><trkpt lat="43.4955363" lon="13.1368505"><ele>98.0</ele><time>2026-05-03T09:38:02Z</time></trkpt><trkpt lat="43.4955262" lon="13.1365498"><ele>97.66666666666666</ele><time>2026-05-03T09:38:02.999Z</time></trkpt><trkpt lat="43.4955098" lon="13.136249"><ele>97.33333333333334</ele><time>2026-05-03T09:38:03.999Z</time></trkpt><trkpt lat="43.4954878" lon="13.1359486"><ele>97.0</ele><time>2026-05-03T09:38:04.999Z</time></trkpt><trkpt lat="43.4954597" lon="13.1356491"><ele>96.33333333333334</ele><time>2026-05-03T09:38:06Z</time></trkpt><trkpt lat="43.4954259" lon="13.1353486"><ele>95.66666666666667</ele><time>2026-05-03T09:38:06.998Z</time></trkpt><trkpt lat="43.4953894" lon="13.1350532"><ele>95.0</ele><time>2026-05-03T09:38:07.999Z</time></trkpt><trkpt lat="43.4953497" lon="13.1347575"><ele>97.0</ele><time>2026-05-03T09:38:08.999Z</time></trkpt><trkpt lat="43.4953038" lon="13.1344623"><ele>99.0</ele><time>2026-05-03T09:38:10Z</time></trkpt><trkpt lat="43.4952578" lon="13.1341648"><ele>101.0</ele><time>2026-05-03T09:38:11Z</time></trkpt><trkpt lat="43.4952113" lon="13.1338681"><ele>101.0</ele><time>2026-05-03T09:38:11.999Z</time></trkpt><trkpt lat="43.4951665" lon="13.1335707"><ele>101.0</ele><time>2026-05-03T09:38:13Z</time></trkpt><trkpt lat="43.4951243" lon="13.1332743"><ele>101.0</ele><time>2026-05-03T09:38:13.999Z</time></trkpt><trkpt lat="43.4950816" lon="13.1329788"><ele>101.0</ele><time>2026-05-03T09:38:15Z</time></trkpt><trkpt lat="43.4950384" lon="13.1326823"><ele>101.0</ele><time>2026-05-03T09:38:15.999Z</time></trkpt><trkpt lat="43.4949968" lon="13.1323855"><ele>101.0</ele><time>2026-05-03T09:38:17Z</time></trkpt><trkpt lat="43.494959" lon="13.1320898"><ele>101.0</ele><time>2026-05-03T09:38:18Z</time></trkpt><trkpt lat="43.4949243" lon="13.1317923"><ele>101.0</ele><time>2026-05-03T09:38:18.999Z</time></trkpt><trkpt lat="43.494894" lon="13.1314956"><ele>101.0</ele><time>2026-05-03T09:38:20Z</time></trkpt><trkpt lat="43.4948716" lon="13.1311988"><ele>101.33333333333333</ele><time>2026-05-03T09:38:20.999Z</time></trkpt><trkpt lat="43.4948516" lon="13.130904"><ele>101.66666666666666</ele><time>2026-05-03T09:38:22Z</time></trkpt><trkpt lat="43.4948384" lon="13.1306092"><ele>102.0</ele><time>2026-05-03T09:38:22.999Z</time></trkpt><trkpt lat="43.494828" lon="13.130317"><ele>102.0</ele><time>2026-05-03T09:38:23.999Z</time></trkpt><trkpt lat="43.4948266" lon="13.1300242"><ele>102.0</ele><time>2026-05-03T09:38:24.999Z</time></trkpt><trkpt lat="43.4948289" lon="13.1297337"><ele>102.0</ele><time>2026-05-03T09:38:25.999Z</time></trkpt><trkpt lat="43.4948343" lon="13.1294421"><ele>102.0</ele><time>2026-05-03T09:38:27Z</time></trkpt><trkpt lat="43.4948429" lon="13.1291506"><ele>102.0</ele><time>2026-05-03T09:38:28Z</time></trkpt><trkpt lat="43.4948511" lon="13.1288594"><ele>102.0</ele><time>2026-05-03T09:38:29Z</time></trkpt><trkpt lat="43.4948569" lon="13.1285659"><ele>102.0</ele><time>2026-05-03T09:38:29.999Z</time></trkpt><trkpt lat="43.4948606" lon="13.1282738"><ele>102.0</ele><time>2026-05-03T09:38:30.999Z</time></trkpt><trkpt lat="43.4948629" lon="13.1279887"><ele>102.0</ele><time>2026-05-03T09:38:32Z</time></trkpt><trkpt lat="43.4948715" lon="13.1277056"><ele>102.0</ele><time>2026-05-03T09:38:32.999Z</time></trkpt><trkpt lat="43.4948754" lon="13.1274202"><ele>102.0</ele><time>2026-05-03T09:38:33.999Z</time></trkpt><trkpt lat="43.4948792" lon="13.1271364"><ele>102.0</ele><time>2026-05-03T09:38:34.999Z</time></trkpt><trkpt lat="43.4948816" lon="13.1268537"><ele>102.33333333333334</ele><time>2026-05-03T09:38:35.999Z</time></trkpt><trkpt lat="43.4948917" lon="13.1265731"><ele>102.66666666666667</ele><time>2026-05-03T09:38:37Z</time></trkpt><trkpt lat="43.4949" lon="13.1262919"><ele>103.0</ele><time>2026-05-03T09:38:37.999Z</time></trkpt><trkpt lat="43.4949083" lon="13.1260103"><ele>103.0</ele><time>2026-05-03T09:38:38.999Z</time></trkpt><trkpt lat="43.494913" lon="13.1257312"><ele>103.0</ele><time>2026-05-03T09:38:39.999Z</time></trkpt><trkpt lat="43.4949186" lon="13.1254476"><ele>103.0</ele><time>2026-05-03T09:38:41Z</time></trkpt><trkpt lat="43.4949225" lon="13.12516"><ele>102.66666666666667</ele><time>2026-05-03T09:38:41.999Z</time></trkpt><trkpt lat="43.4949278" lon="13.1248697"><ele>102.33333333333334</ele><time>2026-05-03T09:38:42.998Z</time></trkpt><trkpt lat="43.4949367" lon="13.1245744"><ele>102.0</ele><time>2026-05-03T09:38:43.998Z</time></trkpt><trkpt lat="43.4949399" lon="13.1242757"><ele>102.33333333333334</ele><time>2026-05-03T09:38:44.998Z</time></trkpt><trkpt lat="43.4949456" lon="13.1239738"><ele>102.66666666666667</ele><time>2026-05-03T09:38:45.999Z</time></trkpt><trkpt lat="43.4949523" lon="13.1236702"><ele>103.0</ele><time>2026-05-03T09:38:46.997Z</time></trkpt><trkpt lat="43.4949618" lon="13.1233632"><ele>102.5</ele><time>2026-05-03T09:38:47.998Z</time></trkpt><trkpt lat="43.4949688" lon="13.1230523"><ele>102.0</ele><time>2026-05-03T09:38:48.999Z</time></trkpt><trkpt lat="43.4949739" lon="13.1227391"><ele>102.0</ele><time>2026-05-03T09:38:49.999Z</time></trkpt><trkpt lat="43.4949828" lon="13.1224252"><ele>102.0</ele><time>2026-05-03T09:38:50.998Z</time></trkpt><trkpt lat="43.4949908" lon="13.1221105"><ele>102.0</ele><time>2026-05-03T09:38:51.998Z</time></trkpt><trkpt lat="43.494997" lon="13.1217937"><ele>102.0</ele><time>2026-05-03T09:38:52.999Z</time></trkpt><trkpt lat="43.4950039" lon="13.1214755"><ele>102.0</ele><time>2026-05-03T09:38:53.999Z</time></trkpt><trkpt lat="43.4950103" lon="13.1211564"><ele>102.0</ele><time>2026-05-03T09:38:54.999Z</time></trkpt><trkpt lat="43.4950149" lon="13.1208393"><ele>103.0</ele><time>2026-05-03T09:38:55.998Z</time></trkpt><trkpt lat="43.4950232" lon="13.1205246"><ele>104.0</ele><time>2026-05-03T09:38:56.999Z</time></trkpt><trkpt lat="43.495025" lon="13.1202133"><ele>104.0</ele><time>2026-05-03T09:38:57.998Z</time></trkpt><trkpt lat="43.4950312" lon="13.1199019"><ele>104.0</ele><time>2026-05-03T09:38:58.999Z</time></trkpt><trkpt lat="43.4950373" lon="13.1195952"><ele>104.0</ele><time>2026-05-03T09:38:59.998Z</time></trkpt><trkpt lat="43.4950466" lon="13.1192897"><ele>104.0</ele><time>2026-05-03T09:39:00.999Z</time></trkpt><trkpt lat="43.4950537" lon="13.1189845"><ele>104.0</ele><time>2026-05-03T09:39:01.998Z</time></trkpt><trkpt lat="43.4950578" lon="13.1186818"><ele>104.0</ele><time>2026-05-03T09:39:02.999Z</time></trkpt><trkpt lat="43.4950634" lon="13.118382"><ele>104.0</ele><time>2026-05-03T09:39:03.998Z</time></trkpt><trkpt lat="43.4950671" lon="13.1180842"><ele>104.0</ele><time>2026-05-03T09:39:04.998Z</time></trkpt><trkpt lat="43.4950684" lon="13.1177859"><ele>104.0</ele><time>2026-05-03T09:39:05.999Z</time></trkpt><trkpt lat="43.4950633" lon="13.1174915"><ele>104.33333333333333</ele><time>2026-05-03T09:39:06.999Z</time></trkpt><trkpt lat="43.495051" lon="13.1171948"><ele>104.66666666666666</ele><time>2026-05-03T09:39:07.998Z</time></trkpt><trkpt lat="43.4950355" lon="13.1168997"><ele>105.0</ele><time>2026-05-03T09:39:08.998Z</time></trkpt><trkpt lat="43.4950156" lon="13.1166012"><ele>104.66666666666666</ele><time>2026-05-03T09:39:09.998Z</time></trkpt><trkpt lat="43.494993" lon="13.1163022"><ele>104.33333333333333</ele><time>2026-05-03T09:39:10.999Z</time></trkpt><trkpt lat="43.4949727" lon="13.116008"><ele>104.0</ele><time>2026-05-03T09:39:11.997Z</time></trkpt><trkpt lat="43.4949415" lon="13.1157093"><ele>103.66666666666666</ele><time>2026-05-03T09:39:12.998Z</time></trkpt><trkpt lat="43.4949055" lon="13.1154113"><ele>103.33333333333334</ele><time>2026-05-03T09:39:13.999Z</time></trkpt><trkpt lat="43.4948664" lon="13.1151132"><ele>103.0</ele><time>2026-05-03T09:39:14.997Z</time></trkpt><trkpt lat="43.4948221" lon="13.1148166"><ele>102.66666666666667</ele><time>2026-05-03T09:39:15.998Z</time></trkpt><trkpt lat="43.4947755" lon="13.1145216"><ele>102.33333333333334</ele><time>2026-05-03T09:39:16.997Z</time></trkpt><trkpt lat="43.4947276" lon="13.1142254"><ele>102.0</ele><time>2026-05-03T09:39:17.997Z</time></trkpt><trkpt lat="43.4946796" lon="13.1139263"><ele>102.0</ele><time>2026-05-03T09:39:18.998Z</time></trkpt><trkpt lat="43.4946253" lon="13.113627"><ele>102.0</ele><time>2026-05-03T09:39:19.998Z</time></trkpt><trkpt lat="43.4945658" lon="13.1133264"><ele>103.0</ele><time>2026-05-03T09:39:20.999Z</time></trkpt><trkpt lat="43.4944974" lon="13.1130308"><ele>104.0</ele><time>2026-05-03T09:39:21.997Z</time></trkpt><trkpt lat="43.4944296" lon="13.1127347"><ele>104.0</ele><time>2026-05-03T09:39:22.999Z</time></trkpt><trkpt lat="43.4943614" lon="13.1124363"><ele>104.0</ele><time>2026-05-03T09:39:23.998Z</time></trkpt><trkpt lat="43.4942888" lon="13.1121428"><ele>104.0</ele><time>2026-05-03T09:39:24.998Z</time></trkpt><trkpt lat="43.49421" lon="13.1118479"><ele>104.0</ele><time>2026-05-03T09:39:25.999Z</time></trkpt><trkpt lat="43.4941283" lon="13.1115541"><ele>104.0</ele><time>2026-05-03T09:39:26.998Z</time></trkpt><trkpt lat="43.4940401" lon="13.1112645"><ele>104.0</ele><time>2026-05-03T09:39:27.999Z</time></trkpt><trkpt lat="43.4939505" lon="13.1109723"><ele>103.5</ele><time>2026-05-03T09:39:28.998Z</time></trkpt><trkpt lat="43.493855" lon="13.1106843"><ele>103.0</ele><time>2026-05-03T09:39:29.999Z</time></trkpt><trkpt lat="43.4937565" lon="13.1103994"><ele>104.5</ele><time>2026-05-03T09:39:30.998Z</time></trkpt><trkpt lat="43.4936569" lon="13.1101168"><ele>106.0</ele><time>2026-05-03T09:39:31.998Z</time></trkpt><trkpt lat="43.4935516" lon="13.1098364"><ele>106.5</ele><time>2026-05-03T09:39:32.999Z</time></trkpt><trkpt lat="43.4934389" lon="13.1095557"><ele>107.0</ele><time>2026-05-03T09:39:33.999Z</time></trkpt><trkpt lat="43.4933265" lon="13.109274"><ele>107.0</ele><time>2026-05-03T09:39:34.998Z</time></trkpt><trkpt lat="43.4932131" lon="13.108994"><ele>107.0</ele><time>2026-05-03T09:39:35.997Z</time></trkpt><trkpt lat="43.493096" lon="13.108714"><ele>107.0</ele><time>2026-05-03T09:39:36.998Z</time></trkpt><trkpt lat="43.49298" lon="13.1084363"><ele>107.0</ele><time>2026-05-03T09:39:37.998Z</time></trkpt><trkpt lat="43.4928629" lon="13.1081588"><ele>107.5</ele><time>2026-05-03T09:39:38.997Z</time></trkpt><trkpt lat="43.492745" lon="13.1078789"><ele>108.0</ele><time>2026-05-03T09:39:39.998Z</time></trkpt><trkpt lat="43.4926267" lon="13.107602"><ele>108.0</ele><time>2026-05-03T09:39:40.998Z</time></trkpt><trkpt lat="43.4925079" lon="13.1073247"><ele>108.0</ele><time>2026-05-03T09:39:41.999Z</time></trkpt><trkpt lat="43.4923901" lon="13.1070451"><ele>108.0</ele><time>2026-05-03T09:39:42.998Z</time></trkpt><trkpt lat="43.4922712" lon="13.1067657"><ele>108.0</ele><time>2026-05-03T09:39:43.999Z</time></trkpt><trkpt lat="43.4921514" lon="13.1064919"><ele>109.0</ele><time>2026-05-03T09:39:44.999Z</time></trkpt><trkpt lat="43.492025" lon="13.1062178"><ele>110.0</ele><time>2026-05-03T09:39:45.998Z</time></trkpt><trkpt lat="43.4918955" lon="13.1059428"><ele>108.5</ele><time>2026-05-03T09:39:46.999Z</time></trkpt><trkpt lat="43.4917663" lon="13.1056703"><ele>107.0</ele><time>2026-05-03T09:39:47.999Z</time></trkpt><trkpt lat="43.4916335" lon="13.1054035"><ele>107.0</ele><time>2026-05-03T09:39:48.999Z</time></trkpt><trkpt lat="43.4914974" lon="13.1051363"><ele>107.0</ele><time>2026-05-03T09:39:49.998Z</time></trkpt><trkpt lat="43.4913612" lon="13.1048684"><ele>108.0</ele><time>2026-05-03T09:39:50.999Z</time></trkpt><trkpt lat="43.491221" lon="13.1046077"><ele>109.0</ele><time>2026-05-03T09:39:51.998Z</time></trkpt><trkpt lat="43.4910801" lon="13.1043481"><ele>109.0</ele><time>2026-05-03T09:39:52.997Z</time></trkpt><trkpt lat="43.4909369" lon="13.1040897"><ele>109.0</ele><time>2026-05-03T09:39:53.999Z</time></trkpt><trkpt lat="43.4907941" lon="13.1038352"><ele>108.0</ele><time>2026-05-03T09:39:54.998Z</time></trkpt><trkpt lat="43.4906503" lon="13.1035781"><ele>107.0</ele><time>2026-05-03T09:39:55.999Z</time></trkpt><trkpt lat="43.4905061" lon="13.1033291"><ele>108.0</ele><time>2026-05-03T09:39:56.998Z</time></trkpt><trkpt lat="43.4903512" lon="13.1030877"><ele>109.0</ele><time>2026-05-03T09:39:57.999Z</time></trkpt><trkpt lat="43.4902028" lon="13.1028462"><ele>109.0</ele><time>2026-05-03T09:39:58.998Z</time></trkpt><trkpt lat="43.4900504" lon="13.1026085"><ele>109.0</ele><time>2026-05-03T09:39:59.999Z</time></trkpt><trkpt lat="43.4898952" lon="13.1023793"><ele>108.5</ele><time>2026-05-03T09:40:00.998Z</time></trkpt><trkpt lat="43.4897401" lon="13.1021526"><ele>108.0</ele><time>2026-05-03T09:40:01.998Z</time></trkpt><trkpt lat="43.4895868" lon="13.1019283"><ele>109.0</ele><time>2026-05-03T09:40:02.998Z</time></trkpt><trkpt lat="43.4894327" lon="13.101704"><ele>110.0</ele><time>2026-05-03T09:40:03.999Z</time></trkpt><trkpt lat="43.4892732" lon="13.1014795"><ele>110.0</ele><time>2026-05-03T09:40:04.999Z</time></trkpt><trkpt lat="43.4891163" lon="13.1012633"><ele>110.0</ele><time>2026-05-03T09:40:05.997Z</time></trkpt><trkpt lat="43.4889559" lon="13.1010489"><ele>110.0</ele><time>2026-05-03T09:40:06.999Z</time></trkpt><trkpt lat="43.4887976" lon="13.1008378"><ele>110.33333333333333</ele><time>2026-05-03T09:40:07.998Z</time></trkpt><trkpt lat="43.4886344" lon="13.1006288"><ele>110.66666666666666</ele><time>2026-05-03T09:40:08.997Z</time></trkpt><trkpt lat="43.4884711" lon="13.1004227"><ele>111.0</ele><time>2026-05-03T09:40:09.998Z</time></trkpt><trkpt lat="43.4883073" lon="13.1002152"><ele>111.0</ele><time>2026-05-03T09:40:10.999Z</time></trkpt><trkpt lat="43.488142" lon="13.1000075"><ele>111.0</ele><time>2026-05-03T09:40:11.998Z</time></trkpt><trkpt lat="43.4879731" lon="13.0997982"><ele>111.0</ele><time>2026-05-03T09:40:12.998Z</time></trkpt><trkpt lat="43.4878067" lon="13.0995899"><ele>111.0</ele><time>2026-05-03T09:40:13.998Z</time></trkpt><trkpt lat="43.4876347" lon="13.0993793"><ele>111.0</ele><time>2026-05-03T09:40:14.998Z</time></trkpt><trkpt lat="43.4874622" lon="13.0991703"><ele>111.0</ele><time>2026-05-03T09:40:15.999Z</time></trkpt><trkpt lat="43.4872926" lon="13.0989578"><ele>111.0</ele><time>2026-05-03T09:40:16.999Z</time></trkpt><trkpt lat="43.4871172" lon="13.0987432"><ele>111.0</ele><time>2026-05-03T09:40:17.998Z</time></trkpt><trkpt lat="43.4869441" lon="13.098526"><ele>112.5</ele><time>2026-05-03T09:40:18.999Z</time></trkpt><trkpt lat="43.4867743" lon="13.0983034"><ele>114.0</ele><time>2026-05-03T09:40:19.998Z</time></trkpt><trkpt lat="43.486601" lon="13.0980786"><ele>114.0</ele><time>2026-05-03T09:40:20.998Z</time></trkpt><trkpt lat="43.4864347" lon="13.097853"><ele>114.0</ele><time>2026-05-03T09:40:21.999Z</time></trkpt><trkpt lat="43.4862652" lon="13.0976336"><ele>114.0</ele><time>2026-05-03T09:40:22.998Z</time></trkpt><trkpt lat="43.4860981" lon="13.0974148"><ele>114.0</ele><time>2026-05-03T09:40:23.998Z</time></trkpt><trkpt lat="43.4859341" lon="13.0971922"><ele>114.0</ele><time>2026-05-03T09:40:24.999Z</time></trkpt><trkpt lat="43.48577" lon="13.0969714"><ele>114.0</ele><time>2026-05-03T09:40:25.998Z</time></trkpt><trkpt lat="43.4856068" lon="13.0967512"><ele>112.5</ele><time>2026-05-03T09:40:26.999Z</time></trkpt><trkpt lat="43.4854451" lon="13.0965335"><ele>111.0</ele><time>2026-05-03T09:40:27.999Z</time></trkpt><trkpt lat="43.4852888" lon="13.096309"><ele>111.0</ele><time>2026-05-03T09:40:28.999Z</time></trkpt><trkpt lat="43.4851415" lon="13.0960802"><ele>111.0</ele><time>2026-05-03T09:40:29.999Z</time></trkpt><trkpt lat="43.4849975" lon="13.0958492"><ele>111.0</ele><time>2026-05-03T09:40:30.999Z</time></trkpt><trkpt lat="43.4848543" lon="13.0956123"><ele>112.0</ele><time>2026-05-03T09:40:31.998Z</time></trkpt><trkpt lat="43.4847176" lon="13.0953755"><ele>113.0</ele><time>2026-05-03T09:40:32.998Z</time></trkpt><trkpt lat="43.4845823" lon="13.0951399"><ele>114.0</ele><time>2026-05-03T09:40:33.999Z</time></trkpt><trkpt lat="43.48445" lon="13.0949033"><ele>115.0</ele><time>2026-05-03T09:40:34.998Z</time></trkpt><trkpt lat="43.4843158" lon="13.0946644"><ele>116.0</ele><time>2026-05-03T09:40:35.999Z</time></trkpt><trkpt lat="43.4841859" lon="13.0944203"><ele>117.0</ele><time>2026-05-03T09:40:36.998Z</time></trkpt><trkpt lat="43.4840548" lon="13.0941761"><ele>116.66666666666666</ele><time>2026-05-03T09:40:37.998Z</time></trkpt><trkpt lat="43.4839235" lon="13.0939336"><ele>116.33333333333333</ele><time>2026-05-03T09:40:38.998Z</time></trkpt><trkpt lat="43.4837957" lon="13.0936933"><ele>116.0</ele><time>2026-05-03T09:40:39.998Z</time></trkpt><trkpt lat="43.4836735" lon="13.0934479"><ele>116.0</ele><time>2026-05-03T09:40:40.998Z</time></trkpt><trkpt lat="43.4835534" lon="13.0931938"><ele>116.0</ele><time>2026-05-03T09:40:41.999Z</time></trkpt><trkpt lat="43.4834263" lon="13.0929338"><ele>116.0</ele><time>2026-05-03T09:40:42.998Z</time></trkpt><trkpt lat="43.4832869" lon="13.0926655"><ele>116.5</ele><time>2026-05-03T09:40:43.999Z</time></trkpt><trkpt lat="43.4831443" lon="13.0923727"><ele>117.0</ele><time>2026-05-03T09:40:44.998Z</time></trkpt><trkpt lat="43.4829966" lon="13.0920603"><ele>116.5</ele><time>2026-05-03T09:40:45.998Z</time></trkpt><trkpt lat="43.4828607" lon="13.0917411"><ele>116.0</ele><time>2026-05-03T09:40:46.998Z</time></trkpt><trkpt lat="43.4827321" lon="13.0914195"><ele>117.0</ele><time>2026-05-03T09:40:47.999Z</time></trkpt><trkpt lat="43.482616" lon="13.091097"><ele>118.0</ele><time>2026-05-03T09:40:48.999Z</time></trkpt><trkpt lat="43.4825008" lon="13.0907727"><ele>119.5</ele><time>2026-05-03T09:40:49.999Z</time></trkpt><trkpt lat="43.482384" lon="13.0904531"><ele>121.0</ele><time>2026-05-03T09:40:50.999Z</time></trkpt><trkpt lat="43.4822675" lon="13.0901367"><ele>121.0</ele><time>2026-05-03T09:40:51.999Z</time></trkpt><trkpt lat="43.4821558" lon="13.0898195"><ele>121.0</ele><time>2026-05-03T09:40:52.999Z</time></trkpt><trkpt lat="43.4820407" lon="13.0895029"><ele>121.0</ele><time>2026-05-03T09:40:53.998Z</time></trkpt><trkpt lat="43.4819325" lon="13.0891883"><ele>121.0</ele><time>2026-05-03T09:40:54.998Z</time></trkpt><trkpt lat="43.481825" lon="13.0888706"><ele>121.0</ele><time>2026-05-03T09:40:55.999Z</time></trkpt><trkpt lat="43.4817189" lon="13.0885499"><ele>121.0</ele><time>2026-05-03T09:40:56.999Z</time></trkpt><trkpt lat="43.4816254" lon="13.088231"><ele>121.0</ele><time>2026-05-03T09:40:57.997Z</time></trkpt><trkpt lat="43.481537" lon="13.0879147"><ele>121.0</ele><time>2026-05-03T09:40:58.997Z</time></trkpt><trkpt lat="43.4814547" lon="13.0876037"><ele>121.0</ele><time>2026-05-03T09:40:59.998Z</time></trkpt><trkpt lat="43.4813667" lon="13.0872911"><ele>121.0</ele><time>2026-05-03T09:41:00.999Z</time></trkpt><trkpt lat="43.4812786" lon="13.0869797"><ele>121.0</ele><time>2026-05-03T09:41:01.998Z</time></trkpt><trkpt lat="43.4811908" lon="13.086665"><ele>121.0</ele><time>2026-05-03T09:41:02.998Z</time></trkpt><trkpt lat="43.4811085" lon="13.0863539"><ele>121.0</ele><time>2026-05-03T09:41:03.999Z</time></trkpt><trkpt lat="43.4810272" lon="13.0860455"><ele>121.0</ele><time>2026-05-03T09:41:04.997Z</time></trkpt><trkpt lat="43.4809539" lon="13.0857337"><ele>121.0</ele><time>2026-05-03T09:41:05.999Z</time></trkpt><trkpt lat="43.4808799" lon="13.0854219"><ele>121.0</ele><time>2026-05-03T09:41:06.999Z</time></trkpt><trkpt lat="43.4808096" lon="13.0851052"><ele>122.0</ele><time>2026-05-03T09:41:07.999Z</time></trkpt><trkpt lat="43.4807403" lon="13.0847949"><ele>123.0</ele><time>2026-05-03T09:41:08.998Z</time></trkpt><trkpt lat="43.480665" lon="13.0844857"><ele>123.0</ele><time>2026-05-03T09:41:09.998Z</time></trkpt><trkpt lat="43.4805803" lon="13.0841826"><ele>123.0</ele><time>2026-05-03T09:41:10.997Z</time></trkpt><trkpt lat="43.4804913" lon="13.0838798"><ele>124.0</ele><time>2026-05-03T09:41:11.999Z</time></trkpt><trkpt lat="43.4803992" lon="13.0835791"><ele>125.0</ele><time>2026-05-03T09:41:12.999Z</time></trkpt><trkpt lat="43.4803007" lon="13.0832832"><ele>124.5</ele><time>2026-05-03T09:41:13.997Z</time></trkpt><trkpt lat="43.4801978" lon="13.0829898"><ele>124.0</ele><time>2026-05-03T09:41:14.999Z</time></trkpt><trkpt lat="43.480093" lon="13.0827028"><ele>123.5</ele><time>2026-05-03T09:41:15.999Z</time></trkpt><trkpt lat="43.4799813" lon="13.0824182"><ele>123.0</ele><time>2026-05-03T09:41:16.998Z</time></trkpt><trkpt lat="43.4798701" lon="13.0821324"><ele>123.0</ele><time>2026-05-03T09:41:17.997Z</time></trkpt><trkpt lat="43.4797526" lon="13.081849"><ele>123.0</ele><time>2026-05-03T09:41:18.999Z</time></trkpt><trkpt lat="43.4796284" lon="13.0815706"><ele>123.5</ele><time>2026-05-03T09:41:19.998Z</time></trkpt><trkpt lat="43.4795021" lon="13.0813017"><ele>124.0</ele><time>2026-05-03T09:41:20.998Z</time></trkpt><trkpt lat="43.4793708" lon="13.0810394"><ele>124.0</ele><time>2026-05-03T09:41:21.999Z</time></trkpt><trkpt lat="43.4792294" lon="13.0807796"><ele>124.0</ele><time>2026-05-03T09:41:22.998Z</time></trkpt><trkpt lat="43.4790821" lon="13.0805317"><ele>124.5</ele><time>2026-05-03T09:41:23.998Z</time></trkpt><trkpt lat="43.4789316" lon="13.0802866"><ele>125.0</ele><time>2026-05-03T09:41:24.998Z</time></trkpt><trkpt lat="43.4787784" lon="13.0800428"><ele>125.0</ele><time>2026-05-03T09:41:25.998Z</time></trkpt><trkpt lat="43.4786239" lon="13.0798032"><ele>125.0</ele><time>2026-05-03T09:41:26.997Z</time></trkpt><trkpt lat="43.4784656" lon="13.0795668"><ele>125.0</ele><time>2026-05-03T09:41:27.997Z</time></trkpt><trkpt lat="43.4783012" lon="13.0793398"><ele>125.0</ele><time>2026-05-03T09:41:28.999Z</time></trkpt><trkpt lat="43.4781313" lon="13.079127"><ele>124.0</ele><time>2026-05-03T09:41:29.999Z</time></trkpt><trkpt lat="43.4779531" lon="13.0789219"><ele>123.0</ele><time>2026-05-03T09:41:30.999Z</time></trkpt><trkpt lat="43.477777" lon="13.0787206"><ele>123.0</ele><time>2026-05-03T09:41:31.999Z</time></trkpt><trkpt lat="43.4775995" lon="13.078522"><ele>123.0</ele><time>2026-05-03T09:41:32.998Z</time></trkpt><trkpt lat="43.477418" lon="13.0783296"><ele>124.0</ele><time>2026-05-03T09:41:33.999Z</time></trkpt><trkpt lat="43.4772334" lon="13.0781432"><ele>125.0</ele><time>2026-05-03T09:41:34.999Z</time></trkpt><trkpt lat="43.4770462" lon="13.0779674"><ele>125.0</ele><time>2026-05-03T09:41:35.998Z</time></trkpt><trkpt lat="43.4768523" lon="13.0778047"><ele>125.0</ele><time>2026-05-03T09:41:36.999Z</time></trkpt><trkpt lat="43.4766541" lon="13.0776547"><ele>125.0</ele><time>2026-05-03T09:41:37.998Z</time></trkpt><trkpt lat="43.4764558" lon="13.0775106"><ele>125.0</ele><time>2026-05-03T09:41:38.998Z</time></trkpt><trkpt lat="43.4762559" lon="13.0773691"><ele>125.0</ele><time>2026-05-03T09:41:39.996Z</time></trkpt><trkpt lat="43.4760543" lon="13.0772292"><ele>123.5</ele><time>2026-05-03T09:41:40.998Z</time></trkpt><trkpt lat="43.4758525" lon="13.077087"><ele>122.0</ele><time>2026-05-03T09:41:41.997Z</time></trkpt><trkpt lat="43.4756497" lon="13.076944"><ele>122.0</ele><time>2026-05-03T09:41:42.997Z</time></trkpt><trkpt lat="43.4754461" lon="13.0767947"><ele>122.0</ele><time>2026-05-03T09:41:43.998Z</time></trkpt><trkpt lat="43.4752384" lon="13.0766492"><ele>122.5</ele><time>2026-05-03T09:41:44.998Z</time></trkpt><trkpt lat="43.4750355" lon="13.0765037"><ele>123.0</ele><time>2026-05-03T09:41:45.997Z</time></trkpt><trkpt lat="43.474832" lon="13.0763527"><ele>123.0</ele><time>2026-05-03T09:41:46.997Z</time></trkpt><trkpt lat="43.4746247" lon="13.076208"><ele>123.0</ele><time>2026-05-03T09:41:47.998Z</time></trkpt><trkpt lat="43.4744206" lon="13.0760592"><ele>123.5</ele><time>2026-05-03T09:41:48.998Z</time></trkpt><trkpt lat="43.4742161" lon="13.0759087"><ele>124.0</ele><time>2026-05-03T09:41:49.998Z</time></trkpt><trkpt lat="43.4740108" lon="13.075753"><ele>124.0</ele><time>2026-05-03T09:41:50.996Z</time></trkpt><trkpt lat="43.4738067" lon="13.0755984"><ele>124.0</ele><time>2026-05-03T09:41:51.997Z</time></trkpt><trkpt lat="43.4736019" lon="13.0754414"><ele>125.0</ele><time>2026-05-03T09:41:52.998Z</time></trkpt><trkpt lat="43.4733965" lon="13.0752875"><ele>126.0</ele><time>2026-05-03T09:41:53.998Z</time></trkpt><trkpt lat="43.4731904" lon="13.0751367"><ele>126.0</ele><time>2026-05-03T09:41:54.996Z</time></trkpt><trkpt lat="43.472985" lon="13.0749796"><ele>126.0</ele><time>2026-05-03T09:41:55.998Z</time></trkpt><trkpt lat="43.472779" lon="13.0748196"><ele>126.0</ele><time>2026-05-03T09:41:56.998Z</time></trkpt><trkpt lat="43.4725763" lon="13.0746603"><ele>126.0</ele><time>2026-05-03T09:41:57.998Z</time></trkpt><trkpt lat="43.4723715" lon="13.074496"><ele>126.0</ele><time>2026-05-03T09:41:58.997Z</time></trkpt><trkpt lat="43.4721709" lon="13.0743277"><ele>126.0</ele><time>2026-05-03T09:41:59.997Z</time></trkpt><trkpt lat="43.4719689" lon="13.0741582"><ele>125.5</ele><time>2026-05-03T09:42:00.998Z</time></trkpt><trkpt lat="43.4717697" lon="13.0739852"><ele>125.0</ele><time>2026-05-03T09:42:01.997Z</time></trkpt><trkpt lat="43.4715709" lon="13.0738085"><ele>125.0</ele><time>2026-05-03T09:42:02.998Z</time></trkpt><trkpt lat="43.4713735" lon="13.0736365"><ele>125.0</ele><time>2026-05-03T09:42:03.997Z</time></trkpt><trkpt lat="43.4711777" lon="13.0734574"><ele>125.5</ele><time>2026-05-03T09:42:04.998Z</time></trkpt><trkpt lat="43.4709842" lon="13.0732778"><ele>126.0</ele><time>2026-05-03T09:42:05.997Z</time></trkpt><trkpt lat="43.4707933" lon="13.0730899"><ele>126.5</ele><time>2026-05-03T09:42:06.998Z</time></trkpt><trkpt lat="43.4706038" lon="13.0729028"><ele>127.0</ele><time>2026-05-03T09:42:07.997Z</time></trkpt><trkpt lat="43.4704169" lon="13.0727098"><ele>127.0</ele><time>2026-05-03T09:42:08.998Z</time></trkpt><trkpt lat="43.4702273" lon="13.0725213"><ele>127.0</ele><time>2026-05-03T09:42:09.997Z</time></trkpt><trkpt lat="43.4700393" lon="13.0723295"><ele>127.0</ele><time>2026-05-03T09:42:10.998Z</time></trkpt><trkpt lat="43.4698527" lon="13.072133"><ele>127.0</ele><time>2026-05-03T09:42:11.998Z</time></trkpt><trkpt lat="43.4696688" lon="13.0719302"><ele>127.5</ele><time>2026-05-03T09:42:12.997Z</time></trkpt><trkpt lat="43.469485" lon="13.071723"><ele>128.0</ele><time>2026-05-03T09:42:13.998Z</time></trkpt><trkpt lat="43.4693042" lon="13.071516"><ele>128.0</ele><time>2026-05-03T09:42:14.996Z</time></trkpt><trkpt lat="43.4691269" lon="13.0713072"><ele>128.0</ele><time>2026-05-03T09:42:15.998Z</time></trkpt><trkpt lat="43.4689481" lon="13.0711011"><ele>128.5</ele><time>2026-05-03T09:42:16.997Z</time></trkpt><trkpt lat="43.4687739" lon="13.0708955"><ele>129.0</ele><time>2026-05-03T09:42:17.998Z</time></trkpt><trkpt lat="43.4686002" lon="13.0706892"><ele>129.0</ele><time>2026-05-03T09:42:18.997Z</time></trkpt><trkpt lat="43.4684294" lon="13.07048"><ele>129.0</ele><time>2026-05-03T09:42:19.998Z</time></trkpt><trkpt lat="43.4682614" lon="13.0702675"><ele>129.0</ele><time>2026-05-03T09:42:20.998Z</time></trkpt><trkpt lat="43.4680953" lon="13.0700534"><ele>129.0</ele><time>2026-05-03T09:42:21.998Z</time></trkpt><trkpt lat="43.4679316" lon="13.0698374"><ele>130.0</ele><time>2026-05-03T09:42:22.997Z</time></trkpt><trkpt lat="43.4677685" lon="13.0696189"><ele>131.0</ele><time>2026-05-03T09:42:23.998Z</time></trkpt><trkpt lat="43.4676091" lon="13.0693955"><ele>131.0</ele><time>2026-05-03T09:42:24.996Z</time></trkpt><trkpt lat="43.4674541" lon="13.069174"><ele>131.0</ele><time>2026-05-03T09:42:25.997Z</time></trkpt><trkpt lat="43.4673052" lon="13.068952"><ele>131.0</ele><time>2026-05-03T09:42:26.997Z</time></trkpt><trkpt lat="43.4671572" lon="13.0687297"><ele>130.66666666666666</ele><time>2026-05-03T09:42:27.997Z</time></trkpt><trkpt lat="43.4670147" lon="13.0685086"><ele>130.33333333333334</ele><time>2026-05-03T09:42:28.998Z</time></trkpt><trkpt lat="43.4668734" lon="13.0682858"><ele>130.0</ele><time>2026-05-03T09:42:29.996Z</time></trkpt><trkpt lat="43.4667301" lon="13.0680639"><ele>130.0</ele><time>2026-05-03T09:42:30.996Z</time></trkpt><trkpt lat="43.4665934" lon="13.0678451"><ele>130.0</ele><time>2026-05-03T09:42:31.997Z</time></trkpt><trkpt lat="43.4664567" lon="13.0676239"><ele>130.0</ele><time>2026-05-03T09:42:32.997Z</time></trkpt><trkpt lat="43.4663225" lon="13.0674002"><ele>131.0</ele><time>2026-05-03T09:42:33.998Z</time></trkpt><trkpt lat="43.4661871" lon="13.0671748"><ele>132.0</ele><time>2026-05-03T09:42:34.997Z</time></trkpt><trkpt lat="43.4660515" lon="13.0669448"><ele>133.0</ele><time>2026-05-03T09:42:35.998Z</time></trkpt><trkpt lat="43.4659205" lon="13.0667139"><ele>133.66666666666669</ele><time>2026-05-03T09:42:36.997Z</time></trkpt><trkpt lat="43.4657934" lon="13.0664822"><ele>134.33333333333334</ele><time>2026-05-03T09:42:37.998Z</time></trkpt><trkpt lat="43.4656676" lon="13.0662494"><ele>135.0</ele><time>2026-05-03T09:42:38.997Z</time></trkpt><trkpt lat="43.4655407" lon="13.0660129"><ele>136.0</ele><time>2026-05-03T09:42:39.997Z</time></trkpt><trkpt lat="43.4654175" lon="13.06578"><ele>137.0</ele><time>2026-05-03T09:42:40.998Z</time></trkpt><trkpt lat="43.4652941" lon="13.0655447"><ele>138.0</ele><time>2026-05-03T09:42:41.997Z</time></trkpt><trkpt lat="43.4651727" lon="13.0653074"><ele>138.0</ele><time>2026-05-03T09:42:42.997Z</time></trkpt><trkpt lat="43.465049" lon="13.0650688"><ele>138.0</ele><time>2026-05-03T09:42:43.997Z</time></trkpt><trkpt lat="43.4649283" lon="13.0648305"><ele>138.0</ele><time>2026-05-03T09:42:44.997Z</time></trkpt><trkpt lat="43.4648081" lon="13.0645923"><ele>137.33333333333334</ele><time>2026-05-03T09:42:45.997Z</time></trkpt><trkpt lat="43.4646884" lon="13.064355"><ele>136.66666666666669</ele><time>2026-05-03T09:42:46.998Z</time></trkpt><trkpt lat="43.4645755" lon="13.0641103"><ele>136.0</ele><time>2026-05-03T09:42:47.997Z</time></trkpt><trkpt lat="43.4644643" lon="13.063861"><ele>136.0</ele><time>2026-05-03T09:42:48.998Z</time></trkpt><trkpt lat="43.4643556" lon="13.0636134"><ele>136.0</ele><time>2026-05-03T09:42:49.998Z</time></trkpt><trkpt lat="43.4642486" lon="13.0633658"><ele>136.0</ele><time>2026-05-03T09:42:50.998Z</time></trkpt><trkpt lat="43.4641425" lon="13.0631206"><ele>136.0</ele><time>2026-05-03T09:42:51.998Z</time></trkpt><trkpt lat="43.4640415" lon="13.0628786"><ele>136.0</ele><time>2026-05-03T09:42:52.998Z</time></trkpt><trkpt lat="43.4639436" lon="13.0626351"><ele>136.0</ele><time>2026-05-03T09:42:53.997Z</time></trkpt><trkpt lat="43.4638459" lon="13.0623924"><ele>137.33333333333334</ele><time>2026-05-03T09:42:54.998Z</time></trkpt><trkpt lat="43.4637486" lon="13.0621453"><ele>138.66666666666666</ele><time>2026-05-03T09:42:55.998Z</time></trkpt><trkpt lat="43.4636542" lon="13.0618887"><ele>140.0</ele><time>2026-05-03T09:42:56.998Z</time></trkpt><trkpt lat="43.4635597" lon="13.0616295"><ele>139.33333333333331</ele><time>2026-05-03T09:42:57.998Z</time></trkpt><trkpt lat="43.463463" lon="13.0613672"><ele>138.66666666666666</ele><time>2026-05-03T09:42:58.998Z</time></trkpt><trkpt lat="43.4633615" lon="13.0610982"><ele>138.0</ele><time>2026-05-03T09:42:59.998Z</time></trkpt><trkpt lat="43.463261" lon="13.0608274"><ele>137.33333333333334</ele><time>2026-05-03T09:43:00.998Z</time></trkpt><trkpt lat="43.4631638" lon="13.0605508"><ele>136.66666666666669</ele><time>2026-05-03T09:43:01.996Z</time></trkpt><trkpt lat="43.4630708" lon="13.060278"><ele>136.0</ele><time>2026-05-03T09:43:02.996Z</time></trkpt><trkpt lat="43.4629781" lon="13.0599996"><ele>136.0</ele><time>2026-05-03T09:43:03.998Z</time></trkpt><trkpt lat="43.4628896" lon="13.0597208"><ele>136.0</ele><time>2026-05-03T09:43:04.998Z</time></trkpt><trkpt lat="43.4628011" lon="13.0594405"><ele>136.0</ele><time>2026-05-03T09:43:05.998Z</time></trkpt><trkpt lat="43.4627102" lon="13.0591657"><ele>135.66666666666669</ele><time>2026-05-03T09:43:06.997Z</time></trkpt><trkpt lat="43.4626184" lon="13.0588898"><ele>135.33333333333334</ele><time>2026-05-03T09:43:07.998Z</time></trkpt><trkpt lat="43.4625281" lon="13.0586144"><ele>135.0</ele><time>2026-05-03T09:43:08.997Z</time></trkpt><trkpt lat="43.4624419" lon="13.0583377"><ele>135.0</ele><time>2026-05-03T09:43:09.998Z</time></trkpt><trkpt lat="43.4623576" lon="13.0580642"><ele>135.0</ele><time>2026-05-03T09:43:10.998Z</time></trkpt><trkpt lat="43.4622698" lon="13.0577887"><ele>135.0</ele><time>2026-05-03T09:43:11.997Z</time></trkpt><trkpt lat="43.4621824" lon="13.0575165"><ele>135.66666666666666</ele><time>2026-05-03T09:43:12.998Z</time></trkpt><trkpt lat="43.4620953" lon="13.0572393"><ele>136.33333333333331</ele><time>2026-05-03T09:43:13.998Z</time></trkpt><trkpt lat="43.4620092" lon="13.0569638"><ele>137.0</ele><time>2026-05-03T09:43:14.997Z</time></trkpt><trkpt lat="43.4619242" lon="13.0566855"><ele>136.33333333333331</ele><time>2026-05-03T09:43:15.998Z</time></trkpt><trkpt lat="43.4618392" lon="13.0564102"><ele>135.66666666666666</ele><time>2026-05-03T09:43:16.997Z</time></trkpt><trkpt lat="43.4617519" lon="13.0561333"><ele>135.0</ele><time>2026-05-03T09:43:17.998Z</time></trkpt><trkpt lat="43.4616634" lon="13.0558538"><ele>135.33333333333334</ele><time>2026-05-03T09:43:18.997Z</time></trkpt><trkpt lat="43.4615783" lon="13.0555748"><ele>135.66666666666669</ele><time>2026-05-03T09:43:19.998Z</time></trkpt><trkpt lat="43.4614927" lon="13.0552993"><ele>136.0</ele><time>2026-05-03T09:43:20.997Z</time></trkpt><trkpt lat="43.4614101" lon="13.0550209"><ele>136.33333333333334</ele><time>2026-05-03T09:43:21.996Z</time></trkpt><trkpt lat="43.461324" lon="13.0547431"><ele>136.66666666666666</ele><time>2026-05-03T09:43:22.997Z</time></trkpt><trkpt lat="43.4612385" lon="13.0544635"><ele>137.0</ele><time>2026-05-03T09:43:23.997Z</time></trkpt><trkpt lat="43.4611507" lon="13.0541833"><ele>137.33333333333331</ele><time>2026-05-03T09:43:24.998Z</time></trkpt><trkpt lat="43.461063" lon="13.0539111"><ele>137.66666666666666</ele><time>2026-05-03T09:43:25.998Z</time></trkpt><trkpt lat="43.4609654" lon="13.0536387"><ele>138.0</ele><time>2026-05-03T09:43:26.997Z</time></trkpt><trkpt lat="43.4608706" lon="13.0533691"><ele>138.33333333333334</ele><time>2026-05-03T09:43:27.998Z</time></trkpt><trkpt lat="43.4607686" lon="13.0531045"><ele>138.66666666666669</ele><time>2026-05-03T09:43:28.997Z</time></trkpt><trkpt lat="43.4606635" lon="13.0528424"><ele>139.0</ele><time>2026-05-03T09:43:29.998Z</time></trkpt><trkpt lat="43.4605512" lon="13.0525822"><ele>138.66666666666669</ele><time>2026-05-03T09:43:30.997Z</time></trkpt><trkpt lat="43.4604379" lon="13.0523246"><ele>138.33333333333334</ele><time>2026-05-03T09:43:31.997Z</time></trkpt><trkpt lat="43.4603215" lon="13.0520739"><ele>138.0</ele><time>2026-05-03T09:43:32.997Z</time></trkpt><trkpt lat="43.4602016" lon="13.0518273"><ele>139.0</ele><time>2026-05-03T09:43:33.998Z</time></trkpt><trkpt lat="43.4600774" lon="13.051585"><ele>140.0</ele><time>2026-05-03T09:43:34.998Z</time></trkpt><trkpt lat="43.4599445" lon="13.051346"><ele>141.0</ele><time>2026-05-03T09:43:35.998Z</time></trkpt><trkpt lat="43.4598084" lon="13.0511146"><ele>141.0</ele><time>2026-05-03T09:43:36.996Z</time></trkpt><trkpt lat="43.4596671" lon="13.0508839"><ele>141.0</ele><time>2026-05-03T09:43:37.997Z</time></trkpt><trkpt lat="43.4595256" lon="13.0506599"><ele>141.0</ele><time>2026-05-03T09:43:38.998Z</time></trkpt><trkpt lat="43.4593796" lon="13.0504418"><ele>141.0</ele><time>2026-05-03T09:43:39.998Z</time></trkpt><trkpt lat="43.45923" lon="13.0502313"><ele>141.0</ele><time>2026-05-03T09:43:40.998Z</time></trkpt><trkpt lat="43.4590749" lon="13.0500281"><ele>141.0</ele><time>2026-05-03T09:43:41.997Z</time></trkpt><trkpt lat="43.4589166" lon="13.0498282"><ele>141.0</ele><time>2026-05-03T09:43:42.996Z</time></trkpt><trkpt lat="43.458759" lon="13.0496309"><ele>141.0</ele><time>2026-05-03T09:43:43.997Z</time></trkpt><trkpt lat="43.4585978" lon="13.049439"><ele>141.0</ele><time>2026-05-03T09:43:44.997Z</time></trkpt><trkpt lat="43.4584348" lon="13.0492506"><ele>140.66666666666666</ele><time>2026-05-03T09:43:45.996Z</time></trkpt><trkpt lat="43.4582682" lon="13.0490706"><ele>140.33333333333331</ele><time>2026-05-03T09:43:46.997Z</time></trkpt><trkpt lat="43.4580979" lon="13.0488973"><ele>140.0</ele><time>2026-05-03T09:43:47.998Z</time></trkpt><trkpt lat="43.4579234" lon="13.0487268"><ele>140.66666666666666</ele><time>2026-05-03T09:43:48.998Z</time></trkpt><trkpt lat="43.4577453" lon="13.048567"><ele>141.33333333333334</ele><time>2026-05-03T09:43:49.998Z</time></trkpt><trkpt lat="43.4575651" lon="13.0484105"><ele>142.0</ele><time>2026-05-03T09:43:50.998Z</time></trkpt><trkpt lat="43.4573821" lon="13.0482608"><ele>142.0</ele><time>2026-05-03T09:43:51.998Z</time></trkpt><trkpt lat="43.4571973" lon="13.0481162"><ele>142.0</ele><time>2026-05-03T09:43:52.998Z</time></trkpt><trkpt lat="43.4570135" lon="13.0479739"><ele>142.0</ele><time>2026-05-03T09:43:53.997Z</time></trkpt><trkpt lat="43.4568225" lon="13.0478323"><ele>142.0</ele><time>2026-05-03T09:43:54.998Z</time></trkpt><trkpt lat="43.4566355" lon="13.0476933"><ele>142.0</ele><time>2026-05-03T09:43:55.998Z</time></trkpt><trkpt lat="43.4564454" lon="13.0475535"><ele>142.0</ele><time>2026-05-03T09:43:56.998Z</time></trkpt><trkpt lat="43.4562529" lon="13.0474122"><ele>142.33333333333334</ele><time>2026-05-03T09:43:57.997Z</time></trkpt><trkpt lat="43.4560623" lon="13.0472695"><ele>142.66666666666666</ele><time>2026-05-03T09:43:58.998Z</time></trkpt><trkpt lat="43.4558746" lon="13.0471315"><ele>143.0</ele><time>2026-05-03T09:43:59.997Z</time></trkpt><trkpt lat="43.4556812" lon="13.0469884"><ele>143.0</ele><time>2026-05-03T09:44:00.997Z</time></trkpt><trkpt lat="43.455491" lon="13.0468353"><ele>143.0</ele><time>2026-05-03T09:44:01.998Z</time></trkpt><trkpt lat="43.4553021" lon="13.0466787"><ele>143.0</ele><time>2026-05-03T09:44:02.998Z</time></trkpt><trkpt lat="43.4551124" lon="13.0465177"><ele>144.5</ele><time>2026-05-03T09:44:03.998Z</time></trkpt><trkpt lat="43.4549235" lon="13.0463461"><ele>146.0</ele><time>2026-05-03T09:44:04.998Z</time></trkpt><trkpt lat="43.4547338" lon="13.0461717"><ele>146.5</ele><time>2026-05-03T09:44:05.997Z</time></trkpt><trkpt lat="43.4545457" lon="13.0459927"><ele>147.0</ele><time>2026-05-03T09:44:06.998Z</time></trkpt><trkpt lat="43.4543619" lon="13.0458109"><ele>146.66666666666666</ele><time>2026-05-03T09:44:07.997Z</time></trkpt><trkpt lat="43.4541853" lon="13.0456281"><ele>146.33333333333331</ele><time>2026-05-03T09:44:08.997Z</time></trkpt><trkpt lat="43.4540057" lon="13.0454369"><ele>146.0</ele><time>2026-05-03T09:44:09.997Z</time></trkpt><trkpt lat="43.4538244" lon="13.0452368"><ele>145.5</ele><time>2026-05-03T09:44:10.997Z</time></trkpt><trkpt lat="43.453643" lon="13.0450279"><ele>145.0</ele><time>2026-05-03T09:44:11.997Z</time></trkpt><trkpt lat="43.4534644" lon="13.0448158"><ele>145.0</ele><time>2026-05-03T09:44:12.997Z</time></trkpt><trkpt lat="43.4532829" lon="13.0445949"><ele>145.0</ele><time>2026-05-03T09:44:13.998Z</time></trkpt><trkpt lat="43.4531048" lon="13.0443665"><ele>145.5</ele><time>2026-05-03T09:44:14.998Z</time></trkpt><trkpt lat="43.4529348" lon="13.044136"><ele>146.0</ele><time>2026-05-03T09:44:15.997Z</time></trkpt><trkpt lat="43.4527648" lon="13.0438985"><ele>146.5</ele><time>2026-05-03T09:44:16.998Z</time></trkpt><trkpt lat="43.4526008" lon="13.0436603"><ele>147.0</ele><time>2026-05-03T09:44:17.997Z</time></trkpt><trkpt lat="43.4524388" lon="13.0434173"><ele>147.0</ele><time>2026-05-03T09:44:18.998Z</time></trkpt><trkpt lat="43.452283" lon="13.0431711"><ele>147.0</ele><time>2026-05-03T09:44:19.998Z</time></trkpt><trkpt lat="43.4521335" lon="13.0429212"><ele>146.5</ele><time>2026-05-03T09:44:20.997Z</time></trkpt><trkpt lat="43.4519842" lon="13.0426695"><ele>146.0</ele><time>2026-05-03T09:44:21.998Z</time></trkpt><trkpt lat="43.4518402" lon="13.0424126"><ele>146.0</ele><time>2026-05-03T09:44:22.998Z</time></trkpt><trkpt lat="43.4517003" lon="13.0421548"><ele>146.0</ele><time>2026-05-03T09:44:23.998Z</time></trkpt><trkpt lat="43.4515606" lon="13.0418909"><ele>145.5</ele><time>2026-05-03T09:44:24.998Z</time></trkpt><trkpt lat="43.4514249" lon="13.0416253"><ele>145.0</ele><time>2026-05-03T09:44:25.997Z</time></trkpt><trkpt lat="43.4512921" lon="13.041353"><ele>145.5</ele><time>2026-05-03T09:44:26.998Z</time></trkpt><trkpt lat="43.4511607" lon="13.0410836"><ele>146.0</ele><time>2026-05-03T09:44:27.998Z</time></trkpt><trkpt lat="43.4510336" lon="13.0408126"><ele>146.0</ele><time>2026-05-03T09:44:28.998Z</time></trkpt><trkpt lat="43.4509062" lon="13.0405389"><ele>146.0</ele><time>2026-05-03T09:44:29.997Z</time></trkpt><trkpt lat="43.4507824" lon="13.0402646"><ele>146.0</ele><time>2026-05-03T09:44:30.996Z</time></trkpt><trkpt lat="43.4506573" lon="13.0399929"><ele>146.0</ele><time>2026-05-03T09:44:31.996Z</time></trkpt><trkpt lat="43.4505328" lon="13.0397227"><ele>145.0</ele><time>2026-05-03T09:44:32.996Z</time></trkpt><trkpt lat="43.4504095" lon="13.0394519"><ele>144.0</ele><time>2026-05-03T09:44:33.997Z</time></trkpt><trkpt lat="43.4502887" lon="13.0391842"><ele>144.5</ele><time>2026-05-03T09:44:34.997Z</time></trkpt><trkpt lat="43.450167" lon="13.038919"><ele>145.0</ele><time>2026-05-03T09:44:35.997Z</time></trkpt><trkpt lat="43.450045" lon="13.038656"><ele>145.0</ele><time>2026-05-03T09:44:36.996Z</time></trkpt><trkpt lat="43.4499203" lon="13.0383927"><ele>145.0</ele><time>2026-05-03T09:44:37.996Z</time></trkpt><trkpt lat="43.4497943" lon="13.0381326"><ele>145.5</ele><time>2026-05-03T09:44:38.996Z</time></trkpt><trkpt lat="43.4496669" lon="13.0378732"><ele>146.0</ele><time>2026-05-03T09:44:39.997Z</time></trkpt><trkpt lat="43.4495335" lon="13.037616"><ele>146.0</ele><time>2026-05-03T09:44:40.997Z</time></trkpt><trkpt lat="43.449391" lon="13.0373614"><ele>146.0</ele><time>2026-05-03T09:44:41.997Z</time></trkpt><trkpt lat="43.4492478" lon="13.0371089"><ele>146.0</ele><time>2026-05-03T09:44:42.996Z</time></trkpt><trkpt lat="43.4491012" lon="13.0368574"><ele>146.0</ele><time>2026-05-03T09:44:43.997Z</time></trkpt><trkpt lat="43.4489532" lon="13.0366099"><ele>146.5</ele><time>2026-05-03T09:44:44.997Z</time></trkpt><trkpt lat="43.4488003" lon="13.036365"><ele>147.0</ele><time>2026-05-03T09:44:45.997Z</time></trkpt><trkpt lat="43.4486429" lon="13.0361275"><ele>147.0</ele><time>2026-05-03T09:44:46.995Z</time></trkpt><trkpt lat="43.4484806" lon="13.0358932"><ele>147.0</ele><time>2026-05-03T09:44:47.996Z</time></trkpt><trkpt lat="43.4483169" lon="13.0356641"><ele>147.0</ele><time>2026-05-03T09:44:48.997Z</time></trkpt><trkpt lat="43.4481492" lon="13.0354467"><ele>147.0</ele><time>2026-05-03T09:44:49.996Z</time></trkpt><trkpt lat="43.4479826" lon="13.035236"><ele>147.0</ele><time>2026-05-03T09:44:50.996Z</time></trkpt><trkpt lat="43.4477997" lon="13.0350235"><ele>147.0</ele><time>2026-05-03T09:44:51.996Z</time></trkpt><trkpt lat="43.4476265" lon="13.0348206"><ele>147.5</ele><time>2026-05-03T09:44:52.996Z</time></trkpt><trkpt lat="43.4474504" lon="13.0346222"><ele>148.0</ele><time>2026-05-03T09:44:53.996Z</time></trkpt><trkpt lat="43.4472741" lon="13.0344321"><ele>147.66666666666669</ele><time>2026-05-03T09:44:54.996Z</time></trkpt><trkpt lat="43.4470947" lon="13.0342448"><ele>147.33333333333334</ele><time>2026-05-03T09:44:55.997Z</time></trkpt><trkpt lat="43.4469167" lon="13.0340613"><ele>147.0</ele><time>2026-05-03T09:44:56.996Z</time></trkpt><trkpt lat="43.4467394" lon="13.0338852"><ele>146.66666666666666</ele><time>2026-05-03T09:44:57.996Z</time></trkpt><trkpt lat="43.4465594" lon="13.0337106"><ele>146.33333333333331</ele><time>2026-05-03T09:44:58.996Z</time></trkpt><trkpt lat="43.4463785" lon="13.0335455"><ele>146.0</ele><time>2026-05-03T09:44:59.996Z</time></trkpt><trkpt lat="43.4461921" lon="13.0333833"><ele>146.0</ele><time>2026-05-03T09:45:00.996Z</time></trkpt><trkpt lat="43.4460039" lon="13.033232"><ele>146.0</ele><time>2026-05-03T09:45:01.997Z</time></trkpt><trkpt lat="43.4458167" lon="13.033086"><ele>146.0</ele><time>2026-05-03T09:45:02.997Z</time></trkpt><trkpt lat="43.4456251" lon="13.0329483"><ele>146.66666666666666</ele><time>2026-05-03T09:45:03.996Z</time></trkpt><trkpt lat="43.445432" lon="13.0328127"><ele>147.33333333333334</ele><time>2026-05-03T09:45:04.997Z</time></trkpt><trkpt lat="43.4452392" lon="13.0326799"><ele>148.0</ele><time>2026-05-03T09:45:05.996Z</time></trkpt><trkpt lat="43.4450422" lon="13.032548"><ele>148.0</ele><time>2026-05-03T09:45:06.996Z</time></trkpt><trkpt lat="43.444848" lon="13.0324208"><ele>148.0</ele><time>2026-05-03T09:45:07.996Z</time></trkpt><trkpt lat="43.4446494" lon="13.0322899"><ele>148.0</ele><time>2026-05-03T09:45:08.996Z</time></trkpt><trkpt lat="43.4444519" lon="13.0321587"><ele>148.0</ele><time>2026-05-03T09:45:09.996Z</time></trkpt><trkpt lat="43.4442539" lon="13.0320231"><ele>148.0</ele><time>2026-05-03T09:45:10.996Z</time></trkpt><trkpt lat="43.4440585" lon="13.0318791"><ele>148.0</ele><time>2026-05-03T09:45:11.996Z</time></trkpt><trkpt lat="43.443868" lon="13.0317272"><ele>147.33333333333334</ele><time>2026-05-03T09:45:12.997Z</time></trkpt><trkpt lat="43.4436758" lon="13.0315746"><ele>146.66666666666666</ele><time>2026-05-03T09:45:13.995Z</time></trkpt><trkpt lat="43.4434868" lon="13.0314169"><ele>146.0</ele><time>2026-05-03T09:45:14.997Z</time></trkpt><trkpt lat="43.4433028" lon="13.0312543"><ele>146.0</ele><time>2026-05-03T09:45:15.996Z</time></trkpt><trkpt lat="43.4431201" lon="13.0310861"><ele>146.0</ele><time>2026-05-03T09:45:16.997Z</time></trkpt><trkpt lat="43.4429409" lon="13.0309111"><ele>146.0</ele><time>2026-05-03T09:45:17.996Z</time></trkpt><trkpt lat="43.4427609" lon="13.0307278"><ele>147.0</ele><time>2026-05-03T09:45:18.997Z</time></trkpt><trkpt lat="43.4425844" lon="13.0305403"><ele>148.0</ele><time>2026-05-03T09:45:19.995Z</time></trkpt><trkpt lat="43.4424126" lon="13.0303475"><ele>149.0</ele><time>2026-05-03T09:45:20.997Z</time></trkpt><trkpt lat="43.4422473" lon="13.0301492"><ele>149.33333333333331</ele><time>2026-05-03T09:45:21.996Z</time></trkpt><trkpt lat="43.4420846" lon="13.0299447"><ele>149.66666666666666</ele><time>2026-05-03T09:45:22.996Z</time></trkpt><trkpt lat="43.4419232" lon="13.0297406"><ele>150.0</ele><time>2026-05-03T09:45:23.996Z</time></trkpt><trkpt lat="43.4417651" lon="13.0295318"><ele>150.0</ele><time>2026-05-03T09:45:24.996Z</time></trkpt><trkpt lat="43.4416144" lon="13.0293199"><ele>150.0</ele><time>2026-05-03T09:45:25.995Z</time></trkpt><trkpt lat="43.4414676" lon="13.029102"><ele>150.0</ele><time>2026-05-03T09:45:26.995Z</time></trkpt><trkpt lat="43.4413228" lon="13.0288775"><ele>150.0</ele><time>2026-05-03T09:45:27.997Z</time></trkpt><trkpt lat="43.4411805" lon="13.0286538"><ele>150.0</ele><time>2026-05-03T09:45:28.997Z</time></trkpt><trkpt lat="43.4410434" lon="13.0284236"><ele>150.0</ele><time>2026-05-03T09:45:29.997Z</time></trkpt><trkpt lat="43.4409109" lon="13.0281865"><ele>150.0</ele><time>2026-05-03T09:45:30.997Z</time></trkpt><trkpt lat="43.4407806" lon="13.0279498"><ele>150.0</ele><time>2026-05-03T09:45:31.997Z</time></trkpt><trkpt lat="43.4406571" lon="13.0277049"><ele>150.0</ele><time>2026-05-03T09:45:32.995Z</time></trkpt><trkpt lat="43.4405347" lon="13.02746"><ele>151.66666666666666</ele><time>2026-05-03T09:45:33.996Z</time></trkpt><trkpt lat="43.440413" lon="13.0272129"><ele>153.33333333333331</ele><time>2026-05-03T09:45:34.996Z</time></trkpt><trkpt lat="43.4402986" lon="13.0269645"><ele>155.0</ele><time>2026-05-03T09:45:35.995Z</time></trkpt><trkpt lat="43.4401897" lon="13.0267137"><ele>154.66666666666666</ele><time>2026-05-03T09:45:36.997Z</time></trkpt><trkpt lat="43.4400839" lon="13.0264663"><ele>154.33333333333334</ele><time>2026-05-03T09:45:37.996Z</time></trkpt><trkpt lat="43.4399847" lon="13.0262151"><ele>154.0</ele><time>2026-05-03T09:45:38.996Z</time></trkpt><trkpt lat="43.4398933" lon="13.0259631"><ele>154.33333333333334</ele><time>2026-05-03T09:45:39.995Z</time></trkpt><trkpt lat="43.4398028" lon="13.0257054"><ele>154.66666666666666</ele><time>2026-05-03T09:45:40.995Z</time></trkpt><trkpt lat="43.4397159" lon="13.0254453"><ele>155.0</ele><time>2026-05-03T09:45:41.996Z</time></trkpt><trkpt lat="43.4396285" lon="13.0251886"><ele>156.33333333333331</ele><time>2026-05-03T09:45:42.995Z</time></trkpt><trkpt lat="43.4395428" lon="13.0249306"><ele>157.66666666666666</ele><time>2026-05-03T09:45:43.996Z</time></trkpt><trkpt lat="43.4394625" lon="13.0246709"><ele>159.0</ele><time>2026-05-03T09:45:44.996Z</time></trkpt><trkpt lat="43.4393752" lon="13.0244105"><ele>159.0</ele><time>2026-05-03T09:45:45.996Z</time></trkpt><trkpt lat="43.4392897" lon="13.0241523"><ele>159.0</ele><time>2026-05-03T09:45:46.996Z</time></trkpt><trkpt lat="43.4391963" lon="13.0238986"><ele>159.0</ele><time>2026-05-03T09:45:47.996Z</time></trkpt><trkpt lat="43.4390923" lon="13.0236507"><ele>159.0</ele><time>2026-05-03T09:45:48.996Z</time></trkpt><trkpt lat="43.4389775" lon="13.0234139"><ele>159.0</ele><time>2026-05-03T09:45:49.996Z</time></trkpt><trkpt lat="43.4388509" lon="13.0231827"><ele>159.0</ele><time>2026-05-03T09:45:50.997Z</time></trkpt><trkpt lat="43.4387226" lon="13.0229533"><ele>159.0</ele><time>2026-05-03T09:45:51.997Z</time></trkpt><trkpt lat="43.438592" lon="13.0227344"><ele>159.0</ele><time>2026-05-03T09:45:52.996Z</time></trkpt><trkpt lat="43.438453" lon="13.022524"><ele>159.0</ele><time>2026-05-03T09:45:53.997Z</time></trkpt><trkpt lat="43.4383036" lon="13.0223243"><ele>158.66666666666666</ele><time>2026-05-03T09:45:54.997Z</time></trkpt><trkpt lat="43.438152" lon="13.022133"><ele>158.33333333333331</ele><time>2026-05-03T09:45:55.997Z</time></trkpt><trkpt lat="43.4379913" lon="13.0219501"><ele>158.0</ele><time>2026-05-03T09:45:56.997Z</time></trkpt><trkpt lat="43.4378271" lon="13.021775"><ele>156.66666666666666</ele><time>2026-05-03T09:45:57.997Z</time></trkpt><trkpt lat="43.4376591" lon="13.0216162"><ele>155.33333333333334</ele><time>2026-05-03T09:45:58.996Z</time></trkpt><trkpt lat="43.4374863" lon="13.0214632"><ele>154.0</ele><time>2026-05-03T09:45:59.996Z</time></trkpt><trkpt lat="43.4373086" lon="13.0213217"><ele>155.66666666666669</ele><time>2026-05-03T09:46:00.996Z</time></trkpt><trkpt lat="43.4371258" lon="13.0211872"><ele>157.33333333333334</ele><time>2026-05-03T09:46:01.995Z</time></trkpt><trkpt lat="43.4369472" lon="13.0210465"><ele>159.0</ele><time>2026-05-03T09:46:02.996Z</time></trkpt><trkpt lat="43.4367656" lon="13.020903"><ele>159.33333333333334</ele><time>2026-05-03T09:46:03.996Z</time></trkpt><trkpt lat="43.4365897" lon="13.0207466"><ele>159.66666666666669</ele><time>2026-05-03T09:46:04.997Z</time></trkpt><trkpt lat="43.4364211" lon="13.0205774"><ele>160.0</ele><time>2026-05-03T09:46:05.996Z</time></trkpt><trkpt lat="43.4362535" lon="13.0203986"><ele>160.0</ele><time>2026-05-03T09:46:06.997Z</time></trkpt><trkpt lat="43.4360958" lon="13.0202074"><ele>160.0</ele><time>2026-05-03T09:46:07.997Z</time></trkpt><trkpt lat="43.4359403" lon="13.0200119"><ele>160.0</ele><time>2026-05-03T09:46:08.997Z</time></trkpt><trkpt lat="43.4357936" lon="13.0198064"><ele>161.33333333333334</ele><time>2026-05-03T09:46:09.997Z</time></trkpt><trkpt lat="43.4356553" lon="13.0195896"><ele>162.66666666666666</ele><time>2026-05-03T09:46:10.996Z</time></trkpt><trkpt lat="43.4355262" lon="13.0193592"><ele>164.0</ele><time>2026-05-03T09:46:11.996Z</time></trkpt><trkpt lat="43.4354038" lon="13.019125"><ele>164.0</ele><time>2026-05-03T09:46:12.997Z</time></trkpt><trkpt lat="43.4352827" lon="13.0188887"><ele>164.0</ele><time>2026-05-03T09:46:13.996Z</time></trkpt><trkpt lat="43.435156" lon="13.0186608"><ele>164.0</ele><time>2026-05-03T09:46:14.997Z</time></trkpt><trkpt lat="43.4350327" lon="13.0184351"><ele>168.0</ele><time>2026-05-03T09:46:15.996Z</time></trkpt><trkpt lat="43.4349123" lon="13.0182045"><ele>172.0</ele><time>2026-05-03T09:46:16.996Z</time></trkpt><trkpt lat="43.4347961" lon="13.0179837"><ele>176.0</ele><time>2026-05-03T09:46:17.997Z</time></trkpt><trkpt lat="43.4346872" lon="13.0177714"><ele>176.0</ele><time>2026-05-03T09:46:18.996Z</time></trkpt><trkpt lat="43.4345778" lon="13.017566"><ele>176.0</ele><time>2026-05-03T09:46:19.997Z</time></trkpt><trkpt lat="43.4344739" lon="13.0173676"><ele>176.0</ele><time>2026-05-03T09:46:20.997Z</time></trkpt><trkpt lat="43.4343784" lon="13.0171729"><ele>176.0</ele><time>2026-05-03T09:46:21.997Z</time></trkpt><trkpt lat="43.4342841" lon="13.0169787"><ele>176.0</ele><time>2026-05-03T09:46:22.997Z</time></trkpt><trkpt lat="43.4341913" lon="13.0167891"><ele>176.0</ele><time>2026-05-03T09:46:23.997Z</time></trkpt><trkpt lat="43.4340971" lon="13.0166012"><ele>181.66666666666666</ele><time>2026-05-03T09:46:24.997Z</time></trkpt><trkpt lat="43.4340109" lon="13.0164219"><ele>187.33333333333331</ele><time>2026-05-03T09:46:25.997Z</time></trkpt><trkpt lat="43.4339282" lon="13.0162483"><ele>193.0</ele><time>2026-05-03T09:46:26.995Z</time></trkpt><trkpt lat="43.4338472" lon="13.0160785"><ele>190.75</ele><time>2026-05-03T09:46:27.996Z</time></trkpt><trkpt lat="43.433766" lon="13.0159092"><ele>188.5</ele><time>2026-05-03T09:46:28.996Z</time></trkpt><trkpt lat="43.4336846" lon="13.0157376"><ele>186.25</ele><time>2026-05-03T09:46:29.997Z</time></trkpt><trkpt lat="43.4335997" lon="13.0155618"><ele>184.0</ele><time>2026-05-03T09:46:30.995Z</time></trkpt><trkpt lat="43.433513" lon="13.01538"><ele>184.0</ele><time>2026-05-03T09:46:31.997Z</time></trkpt><trkpt lat="43.4334188" lon="13.0151894"><ele>184.0</ele><time>2026-05-03T09:46:32.996Z</time></trkpt><trkpt lat="43.4333264" lon="13.0149906"><ele>184.0</ele><time>2026-05-03T09:46:33.997Z</time></trkpt><trkpt lat="43.4332294" lon="13.0147895"><ele>179.0</ele><time>2026-05-03T09:46:34.997Z</time></trkpt><trkpt lat="43.433131" lon="13.0145798"><ele>174.0</ele><time>2026-05-03T09:46:35.996Z</time></trkpt><trkpt lat="43.4330272" lon="13.0143714"><ele>169.0</ele><time>2026-05-03T09:46:36.996Z</time></trkpt><trkpt lat="43.4329255" lon="13.0141596"><ele>172.33333333333334</ele><time>2026-05-03T09:46:37.996Z</time></trkpt><trkpt lat="43.4328213" lon="13.013943"><ele>175.66666666666666</ele><time>2026-05-03T09:46:38.997Z</time></trkpt><trkpt lat="43.4327145" lon="13.013723"><ele>179.0</ele><time>2026-05-03T09:46:39.996Z</time></trkpt><trkpt lat="43.4326092" lon="13.0134993"><ele>181.66666666666666</ele><time>2026-05-03T09:46:40.997Z</time></trkpt><trkpt lat="43.4324989" lon="13.0132722"><ele>184.33333333333334</ele><time>2026-05-03T09:46:41.996Z</time></trkpt><trkpt lat="43.4323884" lon="13.0130423"><ele>187.0</ele><time>2026-05-03T09:46:42.997Z</time></trkpt><trkpt lat="43.4322737" lon="13.0128113"><ele>187.0</ele><time>2026-05-03T09:46:43.996Z</time></trkpt><trkpt lat="43.4321619" lon="13.0125729"><ele>187.0</ele><time>2026-05-03T09:46:44.996Z</time></trkpt><trkpt lat="43.4320518" lon="13.0123319"><ele>187.0</ele><time>2026-05-03T09:46:45.996Z</time></trkpt><trkpt lat="43.4319467" lon="13.0120875"><ele>185.33333333333334</ele><time>2026-05-03T09:46:46.996Z</time></trkpt><trkpt lat="43.4318496" lon="13.0118432"><ele>183.66666666666666</ele><time>2026-05-03T09:46:47.996Z</time></trkpt><trkpt lat="43.4317581" lon="13.0115961"><ele>182.0</ele><time>2026-05-03T09:46:48.996Z</time></trkpt><trkpt lat="43.4316785" lon="13.0113536"><ele>182.0</ele><time>2026-05-03T09:46:49.996Z</time></trkpt><trkpt lat="43.4316022" lon="13.0111121"><ele>182.0</ele><time>2026-05-03T09:46:50.997Z</time></trkpt><trkpt lat="43.4315369" lon="13.0108757"><ele>182.0</ele><time>2026-05-03T09:46:51.997Z</time></trkpt><trkpt lat="43.4314802" lon="13.0106441"><ele>187.0</ele><time>2026-05-03T09:46:52.997Z</time></trkpt><trkpt lat="43.4314317" lon="13.0104121"><ele>192.0</ele><time>2026-05-03T09:46:53.996Z</time></trkpt><trkpt lat="43.4313929" lon="13.010175"><ele>197.0</ele><time>2026-05-03T09:46:54.997Z</time></trkpt><trkpt lat="43.4313605" lon="13.009936"><ele>200.66666666666669</ele><time>2026-05-03T09:46:55.996Z</time></trkpt><trkpt lat="43.4313332" lon="13.0096919"><ele>204.33333333333331</ele><time>2026-05-03T09:46:56.997Z</time></trkpt><trkpt lat="43.4313109" lon="13.0094455"><ele>208.0</ele><time>2026-05-03T09:46:57.997Z</time></trkpt><trkpt lat="43.4312996" lon="13.0092013"><ele>199.33333333333331</ele><time>2026-05-03T09:46:58.997Z</time></trkpt><trkpt lat="43.431289" lon="13.0089456"><ele>190.66666666666666</ele><time>2026-05-03T09:46:59.996Z</time></trkpt><trkpt lat="43.4312797" lon="13.0086772"><ele>182.0</ele><time>2026-05-03T09:47:00.997Z</time></trkpt><trkpt lat="43.4312741" lon="13.008419"><ele>177.0</ele><time>2026-05-03T09:47:01.997Z</time></trkpt><trkpt lat="43.4312676" lon="13.0081624"><ele>172.0</ele><time>2026-05-03T09:47:02.996Z</time></trkpt><trkpt lat="43.4310597" lon="13.0096617"><ele>183.0</ele><time>2026-05-03T09:47:17.921Z</time></trkpt><trkpt lat="43.4282009" lon="13.0012326"><ele>183.0</ele><time>2026-05-03T09:47:32.994Z</time></trkpt><trkpt lat="43.4280472" lon="13.0010399"><ele>183.0</ele><time>2026-05-03T09:47:33.996Z</time></trkpt><trkpt lat="43.4279023" lon="13.0008474"><ele>183.0</ele><time>2026-05-03T09:47:34.995Z</time></trkpt><trkpt lat="43.4277693" lon="13.0006465"><ele>191.33333333333331</ele><time>2026-05-03T09:47:35.996Z</time></trkpt><trkpt lat="43.4276404" lon="13.0004389"><ele>199.66666666666666</ele><time>2026-05-03T09:47:36.995Z</time></trkpt><trkpt lat="43.4275121" lon="13.0002241"><ele>208.0</ele><time>2026-05-03T09:47:37.996Z</time></trkpt><trkpt lat="43.4273863" lon="13.0000072"><ele>163.0</ele><time>2026-05-03T09:47:38.995Z</time></trkpt><trkpt lat="43.424296" lon="12.9946839"><ele>163.0</ele><time>2026-05-03T09:48:05.995Z</time></trkpt><trkpt lat="43.4241663" lon="12.9944771"><ele>163.0</ele><time>2026-05-03T09:48:06.996Z</time></trkpt><trkpt lat="43.4240565" lon="12.9942833"><ele>163.0</ele><time>2026-05-03T09:48:07.995Z</time></trkpt><trkpt lat="43.4239353" lon="12.9940809"><ele>169.33333333333334</ele><time>2026-05-03T09:48:08.996Z</time></trkpt><trkpt lat="43.423807" lon="12.9938764"><ele>175.66666666666666</ele><time>2026-05-03T09:48:09.996Z</time></trkpt><trkpt lat="43.4236845" lon="12.9936719"><ele>182.0</ele><time>2026-05-03T09:48:10.995Z</time></trkpt><trkpt lat="43.42357" lon="12.9934726"><ele>181.0</ele><time>2026-05-03T09:48:11.996Z</time></trkpt><trkpt lat="43.4234556" lon="12.9932731"><ele>180.0</ele><time>2026-05-03T09:48:12.996Z</time></trkpt><trkpt lat="43.4209621" lon="12.9889059"><ele>180.0</ele><time>2026-05-03T09:48:33.995Z</time></trkpt><trkpt lat="43.4208726" lon="12.9887348"><ele>180.0</ele><time>2026-05-03T09:48:34.995Z</time></trkpt><trkpt lat="43.4207795" lon="12.9885617"><ele>180.0</ele><time>2026-05-03T09:48:35.995Z</time></trkpt><trkpt lat="43.4206824" lon="12.9883965"><ele>180.0</ele><time>2026-05-03T09:48:36.994Z</time></trkpt><trkpt lat="43.4205822" lon="12.9882331"><ele>180.0</ele><time>2026-05-03T09:48:37.995Z</time></trkpt><trkpt lat="43.4204822" lon="12.9880681"><ele>180.0</ele><time>2026-05-03T09:48:38.995Z</time></trkpt><trkpt lat="43.4203844" lon="12.9879029"><ele>180.0</ele><time>2026-05-03T09:48:39.995Z</time></trkpt><trkpt lat="43.4202894" lon="12.9877407"><ele>180.0</ele><time>2026-05-03T09:48:40.996Z</time></trkpt><trkpt lat="43.4201859" lon="12.9875722"><ele>180.0</ele><time>2026-05-03T09:48:41.995Z</time></trkpt><trkpt lat="43.4200791" lon="12.9873979"><ele>181.33333333333334</ele><time>2026-05-03T09:48:42.995Z</time></trkpt><trkpt lat="43.4199713" lon="12.9872153"><ele>182.66666666666669</ele><time>2026-05-03T09:48:43.994Z</time></trkpt><trkpt lat="43.4198642" lon="12.987029"><ele>184.0</ele><time>2026-05-03T09:48:44.995Z</time></trkpt><trkpt lat="43.4197508" lon="12.9868373"><ele>183.33333333333334</ele><time>2026-05-03T09:48:45.996Z</time></trkpt><trkpt lat="43.4196344" lon="12.9866418"><ele>182.66666666666666</ele><time>2026-05-03T09:48:46.996Z</time></trkpt><trkpt lat="43.4195178" lon="12.9864506"><ele>182.0</ele><time>2026-05-03T09:48:47.995Z</time></trkpt><trkpt lat="43.4194019" lon="12.986257"><ele>182.0</ele><time>2026-05-03T09:48:48.994Z</time></trkpt><trkpt lat="43.4192903" lon="12.9860599"><ele>182.0</ele><time>2026-05-03T09:48:49.995Z</time></trkpt><trkpt lat="43.4191774" lon="12.9858636"><ele>182.0</ele><time>2026-05-03T09:48:50.995Z</time></trkpt><trkpt lat="43.4190584" lon="12.9856636"><ele>181.66666666666666</ele><time>2026-05-03T09:48:51.996Z</time></trkpt><trkpt lat="43.4189425" lon="12.985464"><ele>181.33333333333334</ele><time>2026-05-03T09:48:52.997Z</time></trkpt><trkpt lat="43.4188204" lon="12.9852576"><ele>181.0</ele><time>2026-05-03T09:48:53.996Z</time></trkpt><trkpt lat="43.4187035" lon="12.9850508"><ele>181.66666666666669</ele><time>2026-05-03T09:48:54.996Z</time></trkpt><trkpt lat="43.4185845" lon="12.9848468"><ele>182.33333333333334</ele><time>2026-05-03T09:48:55.996Z</time></trkpt><trkpt lat="43.4184653" lon="12.9846388"><ele>183.0</ele><time>2026-05-03T09:48:56.996Z</time></trkpt><trkpt lat="43.4183423" lon="12.9844301"><ele>183.0</ele><time>2026-05-03T09:48:57.996Z</time></trkpt><trkpt lat="43.41822" lon="12.9842245"><ele>183.0</ele><time>2026-05-03T09:48:58.994Z</time></trkpt><trkpt lat="43.4180984" lon="12.984016"><ele>183.0</ele><time>2026-05-03T09:48:59.995Z</time></trkpt><trkpt lat="43.4179816" lon="12.9838115"><ele>183.0</ele><time>2026-05-03T09:49:00.996Z</time></trkpt><trkpt lat="43.4178565" lon="12.9836076"><ele>183.0</ele><time>2026-05-03T09:49:01.996Z</time></trkpt><trkpt lat="43.4177244" lon="12.9834129"><ele>183.0</ele><time>2026-05-03T09:49:02.996Z</time></trkpt><trkpt lat="43.4175933" lon="12.9832228"><ele>183.0</ele><time>2026-05-03T09:49:03.995Z</time></trkpt><trkpt lat="43.4174586" lon="12.9830322"><ele>183.0</ele><time>2026-05-03T09:49:04.995Z</time></trkpt><trkpt lat="43.417313" lon="12.9828514"><ele>183.0</ele><time>2026-05-03T09:49:05.995Z</time></trkpt><trkpt lat="43.4171705" lon="12.9826798"><ele>182.33333333333334</ele><time>2026-05-03T09:49:06.995Z</time></trkpt><trkpt lat="43.4170219" lon="12.9825035"><ele>181.66666666666669</ele><time>2026-05-03T09:49:07.995Z</time></trkpt><trkpt lat="43.4168766" lon="12.9823313"><ele>181.0</ele><time>2026-05-03T09:49:08.996Z</time></trkpt><trkpt lat="43.41672" lon="12.9821681"><ele>181.0</ele><time>2026-05-03T09:49:09.996Z</time></trkpt><trkpt lat="43.416566" lon="12.982012"><ele>181.0</ele><time>2026-05-03T09:49:10.995Z</time></trkpt><trkpt lat="43.4164073" lon="12.9818603"><ele>181.0</ele><time>2026-05-03T09:49:11.996Z</time></trkpt><trkpt lat="43.4162462" lon="12.9817152"><ele>181.33333333333334</ele><time>2026-05-03T09:49:12.996Z</time></trkpt><trkpt lat="43.4160809" lon="12.9815711"><ele>181.66666666666666</ele><time>2026-05-03T09:49:13.996Z</time></trkpt><trkpt lat="43.4159118" lon="12.9814313"><ele>182.0</ele><time>2026-05-03T09:49:14.995Z</time></trkpt><trkpt lat="43.4157385" lon="12.9813019"><ele>182.0</ele><time>2026-05-03T09:49:15.995Z</time></trkpt><trkpt lat="43.4155583" lon="12.9811772"><ele>182.0</ele><time>2026-05-03T09:49:16.996Z</time></trkpt><trkpt lat="43.4153731" lon="12.9810503"><ele>182.0</ele><time>2026-05-03T09:49:17.996Z</time></trkpt><trkpt lat="43.4151848" lon="12.9809248"><ele>182.66666666666666</ele><time>2026-05-03T09:49:18.995Z</time></trkpt><trkpt lat="43.4150005" lon="12.9807961"><ele>183.33333333333334</ele><time>2026-05-03T09:49:19.996Z</time></trkpt><trkpt lat="43.4148165" lon="12.9806713"><ele>184.0</ele><time>2026-05-03T09:49:20.996Z</time></trkpt><trkpt lat="43.4146247" lon="12.9805406"><ele>184.0</ele><time>2026-05-03T09:49:21.995Z</time></trkpt><trkpt lat="43.4144345" lon="12.9804104"><ele>184.0</ele><time>2026-05-03T09:49:22.995Z</time></trkpt><trkpt lat="43.4142475" lon="12.9802839"><ele>184.0</ele><time>2026-05-03T09:49:23.996Z</time></trkpt><trkpt lat="43.4140618" lon="12.9801623"><ele>184.0</ele><time>2026-05-03T09:49:24.995Z</time></trkpt><trkpt lat="43.413881" lon="12.9800466"><ele>184.0</ele><time>2026-05-03T09:49:25.996Z</time></trkpt><trkpt lat="43.4137057" lon="12.9799387"><ele>184.0</ele><time>2026-05-03T09:49:26.995Z</time></trkpt><trkpt lat="43.413542" lon="12.9798511"><ele>184.0</ele><time>2026-05-03T09:49:27.996Z</time></trkpt><trkpt lat="43.4133829" lon="12.9797735"><ele>184.0</ele><time>2026-05-03T09:49:28.996Z</time></trkpt><trkpt lat="43.4132276" lon="12.9797118"><ele>184.0</ele><time>2026-05-03T09:49:29.995Z</time></trkpt><trkpt lat="43.4130845" lon="12.9796569"><ele>185.5</ele><time>2026-05-03T09:49:30.995Z</time></trkpt><trkpt lat="43.4129484" lon="12.9796062"><ele>187.0</ele><time>2026-05-03T09:49:31.995Z</time></trkpt><trkpt lat="43.4128202" lon="12.9795585"><ele>188.5</ele><time>2026-05-03T09:49:32.996Z</time></trkpt><trkpt lat="43.4126992" lon="12.97952"><ele>190.0</ele><time>2026-05-03T09:49:33.995Z</time></trkpt><trkpt lat="43.4125829" lon="12.9794948"><ele>190.0</ele><time>2026-05-03T09:49:34.995Z</time></trkpt><trkpt lat="43.4124711" lon="12.9794868"><ele>190.0</ele><time>2026-05-03T09:49:35.996Z</time></trkpt><trkpt lat="43.4123636" lon="12.9794945"><ele>190.0</ele><time>2026-05-03T09:49:36.994Z</time></trkpt><trkpt lat="43.4122615" lon="12.9795113"><ele>190.0</ele><time>2026-05-03T09:49:37.995Z</time></trkpt><trkpt lat="43.4121659" lon="12.9795256"><ele>190.0</ele><time>2026-05-03T09:49:38.995Z</time></trkpt><trkpt lat="43.4120712" lon="12.9795304"><ele>191.0</ele><time>2026-05-03T09:49:39.996Z</time></trkpt><trkpt lat="43.4119868" lon="12.9795019"><ele>192.0</ele><time>2026-05-03T09:49:40.996Z</time></trkpt><trkpt lat="43.4119065" lon="12.9794353"><ele>193.0</ele><time>2026-05-03T09:49:41.995Z</time></trkpt><trkpt lat="43.411835" lon="12.9793491"><ele>194.0</ele><time>2026-05-03T09:49:42.994Z</time></trkpt><trkpt lat="43.4117767" lon="12.9792586"><ele>195.0</ele><time>2026-05-03T09:49:43.995Z</time></trkpt><trkpt lat="43.4117217" lon="12.9791606"><ele>192.8</ele><time>2026-05-03T09:49:44.995Z</time></trkpt><trkpt lat="43.4116621" lon="12.9790567"><ele>190.6</ele><time>2026-05-03T09:49:45.996Z</time></trkpt><trkpt lat="43.4116093" lon="12.9789478"><ele>188.39999999999998</ele><time>2026-05-03T09:49:46.995Z</time></trkpt><trkpt lat="43.4115518" lon="12.9788431"><ele>186.2</ele><time>2026-05-03T09:49:47.996Z</time></trkpt><trkpt lat="43.4114877" lon="12.9787647"><ele>184.0</ele><time>2026-05-03T09:49:48.996Z</time></trkpt><trkpt lat="43.4114158" lon="12.9787104"><ele>184.0</ele><time>2026-05-03T09:49:49.996Z</time></trkpt><trkpt lat="43.4113353" lon="12.9786843"><ele>184.0</ele><time>2026-05-03T09:49:50.996Z</time></trkpt><trkpt lat="43.4112607" lon="12.978682"><ele>184.0</ele><time>2026-05-03T09:49:51.995Z</time></trkpt><trkpt lat="43.4111889" lon="12.9786932"><ele>184.0</ele><time>2026-05-03T09:49:52.996Z</time></trkpt><trkpt lat="43.4111104" lon="12.978706"><ele>184.0</ele><time>2026-05-03T09:49:53.996Z</time></trkpt><trkpt lat="43.4110327" lon="12.9787223"><ele>184.0</ele><time>2026-05-03T09:49:54.995Z</time></trkpt><trkpt lat="43.4109559" lon="12.9787395"><ele>183.6</ele><time>2026-05-03T09:49:55.995Z</time></trkpt><trkpt lat="43.4108761" lon="12.9787359"><ele>183.2</ele><time>2026-05-03T09:49:56.995Z</time></trkpt><trkpt lat="43.4107893" lon="12.9786984"><ele>182.79999999999998</ele><time>2026-05-03T09:49:57.994Z</time></trkpt><trkpt lat="43.4106977" lon="12.9786428"><ele>182.39999999999998</ele><time>2026-05-03T09:49:58.996Z</time></trkpt><trkpt lat="43.410597" lon="12.9785858"><ele>182.0</ele><time>2026-05-03T09:49:59.995Z</time></trkpt><trkpt lat="43.4104836" lon="12.9785344"><ele>182.0</ele><time>2026-05-03T09:50:00.995Z</time></trkpt><trkpt lat="43.410358" lon="12.9784952"><ele>182.0</ele><time>2026-05-03T09:50:01.995Z</time></trkpt><trkpt lat="43.4102233" lon="12.9784769"><ele>182.0</ele><time>2026-05-03T09:50:02.996Z</time></trkpt><trkpt lat="43.4100896" lon="12.9784816"><ele>182.0</ele><time>2026-05-03T09:50:03.995Z</time></trkpt><trkpt lat="43.4099552" lon="12.9785037"><ele>182.0</ele><time>2026-05-03T09:50:04.996Z</time></trkpt><trkpt lat="43.4098231" lon="12.9785473"><ele>182.0</ele><time>2026-05-03T09:50:05.995Z</time></trkpt><trkpt lat="43.409692" lon="12.9785932"><ele>182.0</ele><time>2026-05-03T09:50:06.994Z</time></trkpt><trkpt lat="43.409557" lon="12.9786378"><ele>182.0</ele><time>2026-05-03T09:50:07.995Z</time></trkpt><trkpt lat="43.4094253" lon="12.9786845"><ele>182.0</ele><time>2026-05-03T09:50:08.996Z</time></trkpt><trkpt lat="43.4092953" lon="12.9787358"><ele>182.0</ele><time>2026-05-03T09:50:09.995Z</time></trkpt><trkpt lat="43.4091684" lon="12.9788014"><ele>182.0</ele><time>2026-05-03T09:50:10.996Z</time></trkpt><trkpt lat="43.4090554" lon="12.9788899"><ele>182.0</ele><time>2026-05-03T09:50:11.996Z</time></trkpt><trkpt lat="43.4089588" lon="12.9790016"><ele>182.0</ele><time>2026-05-03T09:50:12.994Z</time></trkpt><trkpt lat="43.4088835" lon="12.9791315"><ele>182.0</ele><time>2026-05-03T09:50:13.996Z</time></trkpt><trkpt lat="43.408831" lon="12.9792703"><ele>182.0</ele><time>2026-05-03T09:50:14.995Z</time></trkpt><trkpt lat="43.4088057" lon="12.9794082"><ele>182.0</ele><time>2026-05-03T09:50:15.996Z</time></trkpt><trkpt lat="43.4088003" lon="12.979532"><ele>182.0</ele><time>2026-05-03T09:50:16.995Z</time></trkpt><trkpt lat="43.4087992" lon="12.9796364"><ele>187.0</ele><time>2026-05-03T09:50:17.994Z</time></trkpt><trkpt lat="43.4087979" lon="12.9797251"><ele>187.0</ele><time>2026-05-03T09:50:18.994Z</time></trkpt><trkpt lat="43.4087897" lon="12.9798768"><ele>187.0</ele><time>2026-05-03T09:50:20.994Z</time></trkpt><trkpt lat="43.4087532" lon="12.9799765"><ele>187.0</ele><time>2026-05-03T09:50:22.993Z</time></trkpt></trkseg><trkseg><trkpt lat="43.4068795" lon="12.9380247"><ele>228.99999999999997</ele><time>2026-05-03T10:14:57.99Z</time></trkpt><trkpt lat="43.4068436" lon="12.9380972"><ele>229.0</ele><time>2026-05-03T10:15:10.983Z</time></trkpt><trkpt lat="43.4068197" lon="12.9382656"><ele>229.0</ele><time>2026-05-03T10:15:12.991Z</time></trkpt><trkpt lat="43.4068202" lon="12.9383675"><ele>229.0</ele><time>2026-05-03T10:15:13.988Z</time></trkpt><trkpt lat="43.4068255" lon="12.9384768"><ele>228.99999999999997</ele><time>2026-05-03T10:15:14.989Z</time></trkpt><trkpt lat="43.4068392" lon="12.9386028"><ele>229.0</ele><time>2026-05-03T10:15:15.988Z</time></trkpt><trkpt lat="43.4068362" lon="12.9387272"><ele>228.75</ele><time>2026-05-03T10:15:16.991Z</time></trkpt><trkpt lat="43.4068345" lon="12.9388712"><ele>228.5</ele><time>2026-05-03T10:15:17.986Z</time></trkpt><trkpt lat="43.4068356" lon="12.9390349"><ele>228.25</ele><time>2026-05-03T10:15:18.986Z</time></trkpt><trkpt lat="43.4068372" lon="12.9392046"><ele>228.0</ele><time>2026-05-03T10:15:19.988Z</time></trkpt><trkpt lat="43.4068327" lon="12.9393758"><ele>230.0</ele><time>2026-05-03T10:15:20.982Z</time></trkpt><trkpt lat="43.4068283" lon="12.9395502"><ele>232.0</ele><time>2026-05-03T10:15:21.986Z</time></trkpt><trkpt lat="43.4068208" lon="12.9397306"><ele>234.0</ele><time>2026-05-03T10:15:22.984Z</time></trkpt><trkpt lat="43.4068047" lon="12.9399107"><ele>236.0</ele><time>2026-05-03T10:15:23.985Z</time></trkpt><trkpt lat="43.4067773" lon="12.9400933"><ele>238.0</ele><time>2026-05-03T10:15:24.986Z</time></trkpt><trkpt lat="43.4067391" lon="12.940272"><ele>240.0</ele><time>2026-05-03T10:15:25.99Z</time></trkpt><trkpt lat="43.4066958" lon="12.9404555"><ele>242.0</ele><time>2026-05-03T10:15:26.983Z</time></trkpt><trkpt lat="43.4066345" lon="12.9406286"><ele>244.0</ele><time>2026-05-03T10:15:27.986Z</time></trkpt><trkpt lat="43.4065541" lon="12.9407949"><ele>240.33333333333331</ele><time>2026-05-03T10:15:28.991Z</time></trkpt><trkpt lat="43.4064489" lon="12.9409445"><ele>236.66666666666669</ele><time>2026-05-03T10:15:29.982Z</time></trkpt><trkpt lat="43.4063334" lon="12.9410835"><ele>233.0</ele><time>2026-05-03T10:15:30.982Z</time></trkpt><trkpt lat="43.4062119" lon="12.9412189"><ele>233.0</ele><time>2026-05-03T10:15:31.991Z</time></trkpt><trkpt lat="43.4060922" lon="12.9413615"><ele>233.0</ele><time>2026-05-03T10:15:32.985Z</time></trkpt><trkpt lat="43.4059676" lon="12.9415088"><ele>233.0</ele><time>2026-05-03T10:15:33.986Z</time></trkpt><trkpt lat="43.4058448" lon="12.941648"><ele>235.5</ele><time>2026-05-03T10:15:34.983Z</time></trkpt><trkpt lat="43.4057372" lon="12.9417925"><ele>238.0</ele><time>2026-05-03T10:15:35.985Z</time></trkpt><trkpt lat="43.4056396" lon="12.9419337"><ele>240.5</ele><time>2026-05-03T10:15:36.985Z</time></trkpt><trkpt lat="43.4055596" lon="12.9420896"><ele>243.0</ele><time>2026-05-03T10:15:37.992Z</time></trkpt><trkpt lat="43.4055365" lon="12.9422617"><ele>243.0</ele><time>2026-05-03T10:15:38.988Z</time></trkpt><trkpt lat="43.4055418" lon="12.942437"><ele>243.0</ele><time>2026-05-03T10:15:39.981Z</time></trkpt><trkpt lat="43.4055593" lon="12.9426332"><ele>243.0</ele><time>2026-05-03T10:15:40.982Z</time></trkpt><trkpt lat="43.4055841" lon="12.9428376"><ele>243.0</ele><time>2026-05-03T10:15:41.993Z</time></trkpt><trkpt lat="43.4056167" lon="12.9430516"><ele>245.0</ele><time>2026-05-03T10:15:42.985Z</time></trkpt><trkpt lat="43.4056522" lon="12.9432675"><ele>247.0</ele><time>2026-05-03T10:15:43.99Z</time></trkpt><trkpt lat="43.4056961" lon="12.9434934"><ele>249.0</ele><time>2026-05-03T10:15:44.99Z</time></trkpt><trkpt lat="43.4057415" lon="12.9437248"><ele>249.0</ele><time>2026-05-03T10:15:45.982Z</time></trkpt><trkpt lat="43.4057868" lon="12.9439642"><ele>249.0</ele><time>2026-05-03T10:15:46.986Z</time></trkpt><trkpt lat="43.4058291" lon="12.9441945"><ele>249.0</ele><time>2026-05-03T10:15:47.989Z</time></trkpt><trkpt lat="43.4058583" lon="12.9444139"><ele>248.66666666666669</ele><time>2026-05-03T10:15:48.987Z</time></trkpt><trkpt lat="43.4058685" lon="12.9446397"><ele>248.33333333333334</ele><time>2026-05-03T10:15:49.985Z</time></trkpt><trkpt lat="43.4058615" lon="12.9448536"><ele>248.0</ele><time>2026-05-03T10:15:50.99Z</time></trkpt><trkpt lat="43.4058292" lon="12.945059"><ele>252.0</ele><time>2026-05-03T10:15:51.993Z</time></trkpt><trkpt lat="43.4057869" lon="12.9452575"><ele>256.0</ele><time>2026-05-03T10:15:52.981Z</time></trkpt><trkpt lat="43.4056957" lon="12.9454394"><ele>260.0</ele><time>2026-05-03T10:15:53.994Z</time></trkpt><trkpt lat="43.4055955" lon="12.9456063"><ele>257.0</ele><time>2026-05-03T10:15:54.986Z</time></trkpt><trkpt lat="43.405494" lon="12.9457747"><ele>254.0</ele><time>2026-05-03T10:15:55.99Z</time></trkpt><trkpt lat="43.4053968" lon="12.9459533"><ele>251.0</ele><time>2026-05-03T10:15:56.983Z</time></trkpt><trkpt lat="43.4053147" lon="12.9461474"><ele>253.66666666666669</ele><time>2026-05-03T10:15:57.99Z</time></trkpt><trkpt lat="43.4052364" lon="12.9463569"><ele>256.3333333333333</ele><time>2026-05-03T10:15:58.992Z</time></trkpt><trkpt lat="43.4051982" lon="12.9465748"><ele>259.0</ele><time>2026-05-03T10:15:59.993Z</time></trkpt><trkpt lat="43.4051292" lon="12.9467794"><ele>259.0</ele><time>2026-05-03T10:16:00.983Z</time></trkpt><trkpt lat="43.4050626" lon="12.9469797"><ele>259.0</ele><time>2026-05-03T10:16:01.984Z</time></trkpt><trkpt lat="43.4049862" lon="12.947176"><ele>259.0</ele><time>2026-05-03T10:16:02.982Z</time></trkpt><trkpt lat="43.4049062" lon="12.9473593"><ele>259.0</ele><time>2026-05-03T10:16:03.979Z</time></trkpt><trkpt lat="43.4048287" lon="12.9475236"><ele>259.0</ele><time>2026-05-03T10:16:04.984Z</time></trkpt><trkpt lat="43.4047406" lon="12.9476868"><ele>259.0</ele><time>2026-05-03T10:16:05.984Z</time></trkpt><trkpt lat="43.4046406" lon="12.9478396"><ele>259.0</ele><time>2026-05-03T10:16:06.981Z</time></trkpt><trkpt lat="43.4045357" lon="12.9479724"><ele>255.6</ele><time>2026-05-03T10:16:07.988Z</time></trkpt><trkpt lat="43.4044424" lon="12.9480998"><ele>252.2</ele><time>2026-05-03T10:16:08.988Z</time></trkpt><trkpt lat="43.4043531" lon="12.9482188"><ele>248.79999999999998</ele><time>2026-05-03T10:16:09.983Z</time></trkpt><trkpt lat="43.4042735" lon="12.9482585"><ele>245.39999999999998</ele><time>2026-05-03T10:16:10.981Z</time></trkpt><trkpt lat="43.40419" lon="12.9482828"><ele>242.0</ele><time>2026-05-03T10:16:11.988Z</time></trkpt><trkpt lat="43.4041258" lon="12.9483102"><ele>242.00000000000003</ele><time>2026-05-03T10:16:12.988Z</time></trkpt><trkpt lat="43.4040664" lon="12.9483492"><ele>242.0</ele><time>2026-05-03T10:16:13.987Z</time></trkpt><trkpt lat="43.4039395" lon="12.9483901"><ele>242.0</ele><time>2026-05-03T10:16:15.987Z</time></trkpt><trkpt lat="43.4038635" lon="12.9483882"><ele>242.0</ele><time>2026-05-03T10:16:16.988Z</time></trkpt><trkpt lat="43.4037664" lon="12.9484241"><ele>242.00000000000003</ele><time>2026-05-03T10:16:18.988Z</time></trkpt><trkpt lat="43.4037029" lon="12.9484258"><ele>242.0</ele><time>2026-05-03T10:16:20.988Z</time></trkpt><trkpt lat="43.4036586" lon="12.9484889"><ele>243.66666666666669</ele><time>2026-05-03T10:16:38.988Z</time></trkpt><trkpt lat="43.4035626" lon="12.9485599"><ele>245.33333333333334</ele><time>2026-05-03T10:16:40.988Z</time></trkpt><trkpt lat="43.4034808" lon="12.9486244"><ele>247.0</ele><time>2026-05-03T10:16:42.988Z</time></trkpt><trkpt lat="43.4034116" lon="12.9486533"><ele>248.66666666666669</ele><time>2026-05-03T10:16:44.988Z</time></trkpt><trkpt lat="43.4033492" lon="12.9487182"><ele>250.33333333333334</ele><time>2026-05-03T10:16:46.987Z</time></trkpt><trkpt lat="43.4032826" lon="12.9487371"><ele>252.0</ele><time>2026-05-03T10:16:47.988Z</time></trkpt><trkpt lat="43.4031965" lon="12.9487536"><ele>252.0</ele><time>2026-05-03T10:16:48.988Z</time></trkpt><trkpt lat="43.4030887" lon="12.9487433"><ele>252.0</ele><time>2026-05-03T10:16:49.988Z</time></trkpt><trkpt lat="43.4029846" lon="12.9487293"><ele>252.0</ele><time>2026-05-03T10:16:50.987Z</time></trkpt><trkpt lat="43.4028926" lon="12.9487329"><ele>252.0</ele><time>2026-05-03T10:16:51.987Z</time></trkpt><trkpt lat="43.4027991" lon="12.9487673"><ele>252.0</ele><time>2026-05-03T10:16:52.988Z</time></trkpt><trkpt lat="43.4026972" lon="12.9488226"><ele>254.25</ele><time>2026-05-03T10:16:53.988Z</time></trkpt><trkpt lat="43.4025914" lon="12.9489122"><ele>256.5</ele><time>2026-05-03T10:16:54.988Z</time></trkpt><trkpt lat="43.4024851" lon="12.9490314"><ele>258.75</ele><time>2026-05-03T10:16:55.987Z</time></trkpt><trkpt lat="43.4023819" lon="12.9491731"><ele>261.0</ele><time>2026-05-03T10:16:56.988Z</time></trkpt><trkpt lat="43.4022776" lon="12.9493313"><ele>262.25</ele><time>2026-05-03T10:16:57.988Z</time></trkpt><trkpt lat="43.4021755" lon="12.9494866"><ele>263.5</ele><time>2026-05-03T10:16:58.987Z</time></trkpt><trkpt lat="43.4020889" lon="12.9496412"><ele>264.75</ele><time>2026-05-03T10:16:59.987Z</time></trkpt><trkpt lat="43.4020073" lon="12.9498175"><ele>266.0</ele><time>2026-05-03T10:17:00.988Z</time></trkpt><trkpt lat="43.4019649" lon="12.9500334"><ele>266.0</ele><time>2026-05-03T10:17:01.987Z</time></trkpt><trkpt lat="43.4019241" lon="12.9502676"><ele>266.0</ele><time>2026-05-03T10:17:02.988Z</time></trkpt><trkpt lat="43.4018782" lon="12.9505218"><ele>266.0</ele><time>2026-05-03T10:17:03.988Z</time></trkpt><trkpt lat="43.4018361" lon="12.950775"><ele>266.0</ele><time>2026-05-03T10:17:04.988Z</time></trkpt><trkpt lat="43.4017877" lon="12.9510222"><ele>266.0</ele><time>2026-05-03T10:17:05.988Z</time></trkpt><trkpt lat="43.4017451" lon="12.9512563"><ele>266.0</ele><time>2026-05-03T10:17:06.987Z</time></trkpt><trkpt lat="43.4017044" lon="12.9514698"><ele>266.0</ele><time>2026-05-03T10:17:07.988Z</time></trkpt><trkpt lat="43.4016692" lon="12.9516864"><ele>266.0</ele><time>2026-05-03T10:17:08.988Z</time></trkpt><trkpt lat="43.4016544" lon="12.9519174"><ele>266.0</ele><time>2026-05-03T10:17:09.988Z</time></trkpt><trkpt lat="43.4016506" lon="12.9521645"><ele>266.0</ele><time>2026-05-03T10:17:10.987Z</time></trkpt><trkpt lat="43.401652" lon="12.952421"><ele>266.0</ele><time>2026-05-03T10:17:11.988Z</time></trkpt><trkpt lat="43.401664" lon="12.9526802"><ele>266.0</ele><time>2026-05-03T10:17:12.988Z</time></trkpt><trkpt lat="43.4016873" lon="12.9529555"><ele>266.0</ele><time>2026-05-03T10:17:13.987Z</time></trkpt><trkpt lat="43.401713" lon="12.9532479"><ele>266.0</ele><time>2026-05-03T10:17:14.987Z</time></trkpt><trkpt lat="43.4017338" lon="12.9535354"><ele>266.0</ele><time>2026-05-03T10:17:15.987Z</time></trkpt><trkpt lat="43.4017377" lon="12.9538082"><ele>266.0</ele><time>2026-05-03T10:17:16.988Z</time></trkpt><trkpt lat="43.401733" lon="12.9540714"><ele>266.0</ele><time>2026-05-03T10:17:17.988Z</time></trkpt><trkpt lat="43.4017256" lon="12.9543214"><ele>266.0</ele><time>2026-05-03T10:17:18.988Z</time></trkpt><trkpt lat="43.4017188" lon="12.9545595"><ele>266.0</ele><time>2026-05-03T10:17:19.988Z</time></trkpt><trkpt lat="43.4017112" lon="12.9547775"><ele>266.0</ele><time>2026-05-03T10:17:20.987Z</time></trkpt><trkpt lat="43.4017055" lon="12.9549794"><ele>266.0</ele><time>2026-05-03T10:17:21.988Z</time></trkpt><trkpt lat="43.4016985" lon="12.9551623"><ele>266.0</ele><time>2026-05-03T10:17:22.988Z</time></trkpt><trkpt lat="43.4016894" lon="12.9553376"><ele>266.0</ele><time>2026-05-03T10:17:23.988Z</time></trkpt><trkpt lat="43.4016812" lon="12.9555051"><ele>266.0</ele><time>2026-05-03T10:17:24.988Z</time></trkpt><trkpt lat="43.4016912" lon="12.9556478"><ele>266.0</ele><time>2026-05-03T10:17:25.987Z</time></trkpt><trkpt lat="43.4017156" lon="12.9557693"><ele>266.0</ele><time>2026-05-03T10:17:26.988Z</time></trkpt><trkpt lat="43.4017563" lon="12.9558725"><ele>266.0</ele><time>2026-05-03T10:17:27.987Z</time></trkpt><trkpt lat="43.4018029" lon="12.9559608"><ele>266.0</ele><time>2026-05-03T10:17:28.988Z</time></trkpt><trkpt lat="43.4018443" lon="12.9560451"><ele>266.0</ele><time>2026-05-03T10:17:29.987Z</time></trkpt><trkpt lat="43.4018809" lon="12.9561156"><ele>266.0</ele><time>2026-05-03T10:17:30.987Z</time></trkpt><trkpt lat="43.4019251" lon="12.9562612"><ele>266.0</ele><time>2026-05-03T10:17:32.987Z</time></trkpt><trkpt lat="43.4019181" lon="12.9564082"><ele>266.0</ele><time>2026-05-03T10:17:34.988Z</time></trkpt><trkpt lat="43.401891" lon="12.9565321"><ele>266.0</ele><time>2026-05-03T10:17:36.988Z</time></trkpt><trkpt lat="43.4018517" lon="12.9566843"><ele>266.0</ele><time>2026-05-03T10:17:38.987Z</time></trkpt><trkpt lat="43.4018137" lon="12.9568106"><ele>266.0</ele><time>2026-05-03T10:17:40.988Z</time></trkpt><trkpt lat="43.4017931" lon="12.9569197"><ele>266.0</ele><time>2026-05-03T10:17:42.988Z</time></trkpt><trkpt lat="43.4017613" lon="12.95702"><ele>266.0</ele><time>2026-05-03T10:17:45.988Z</time></trkpt><trkpt lat="43.4017606" lon="12.9571085"><ele>266.0</ele><time>2026-05-03T10:18:11.988Z</time></trkpt><trkpt lat="43.4017642" lon="12.9572354"><ele>266.0</ele><time>2026-05-03T10:18:43.988Z</time></trkpt><trkpt lat="43.4017556" lon="12.9573644"><ele>266.0</ele><time>2026-05-03T10:18:45.987Z</time></trkpt><trkpt lat="43.4017525" lon="12.957543"><ele>266.0</ele><time>2026-05-03T10:18:47.988Z</time></trkpt><trkpt lat="43.4017526" lon="12.957653"><ele>266.0</ele><time>2026-05-03T10:18:48.988Z</time></trkpt><trkpt lat="43.4017504" lon="12.957771"><ele>266.0</ele><time>2026-05-03T10:18:49.988Z</time></trkpt><trkpt lat="43.4017487" lon="12.9578972"><ele>266.0</ele><time>2026-05-03T10:18:50.988Z</time></trkpt><trkpt lat="43.4017538" lon="12.9580291"><ele>266.0</ele><time>2026-05-03T10:18:51.988Z</time></trkpt><trkpt lat="43.4017499" lon="12.9581601"><ele>266.0</ele><time>2026-05-03T10:18:52.988Z</time></trkpt><trkpt lat="43.401746" lon="12.9582921"><ele>266.0</ele><time>2026-05-03T10:18:53.988Z</time></trkpt><trkpt lat="43.4017417" lon="12.9584248"><ele>266.0</ele><time>2026-05-03T10:18:54.987Z</time></trkpt><trkpt lat="43.4017371" lon="12.9585627"><ele>266.0</ele><time>2026-05-03T10:18:55.987Z</time></trkpt><trkpt lat="43.4017283" lon="12.9587054"><ele>266.0</ele><time>2026-05-03T10:18:56.987Z</time></trkpt><trkpt lat="43.4017124" lon="12.9588518"><ele>266.0</ele><time>2026-05-03T10:18:57.988Z</time></trkpt><trkpt lat="43.4016992" lon="12.9589845"><ele>266.0</ele><time>2026-05-03T10:18:58.988Z</time></trkpt><trkpt lat="43.4016849" lon="12.9590985"><ele>266.0</ele><time>2026-05-03T10:18:59.988Z</time></trkpt><trkpt lat="43.4016577" lon="12.9592041"><ele>266.0</ele><time>2026-05-03T10:19:00.987Z</time></trkpt><trkpt lat="43.4016211" lon="12.9592959"><ele>266.0</ele><time>2026-05-03T10:19:01.988Z</time></trkpt><trkpt lat="43.4015823" lon="12.959384"><ele>266.0</ele><time>2026-05-03T10:19:02.987Z</time></trkpt><trkpt lat="43.4015385" lon="12.9594783"><ele>266.0</ele><time>2026-05-03T10:19:03.988Z</time></trkpt><trkpt lat="43.4014894" lon="12.9595748"><ele>266.0</ele><time>2026-05-03T10:19:04.987Z</time></trkpt><trkpt lat="43.4014462" lon="12.9596662"><ele>266.0</ele><time>2026-05-03T10:19:05.987Z</time></trkpt><trkpt lat="43.4014027" lon="12.9597503"><ele>266.0</ele><time>2026-05-03T10:19:06.987Z</time></trkpt><trkpt lat="43.4013597" lon="12.9598282"><ele>266.0</ele><time>2026-05-03T10:19:07.987Z</time></trkpt><trkpt lat="43.4013111" lon="12.9598968"><ele>266.0</ele><time>2026-05-03T10:19:08.988Z</time></trkpt><trkpt lat="43.4012264" lon="12.96001"><ele>266.0</ele><time>2026-05-03T10:19:10.987Z</time></trkpt><trkpt lat="43.4011287" lon="12.9601039"><ele>266.0</ele><time>2026-05-03T10:19:12.988Z</time></trkpt><trkpt lat="43.4010186" lon="12.9602065"><ele>266.0</ele><time>2026-05-03T10:19:14.987Z</time></trkpt><trkpt lat="43.4009603" lon="12.9602531"><ele>266.0</ele><time>2026-05-03T10:19:15.987Z</time></trkpt><trkpt lat="43.4009002" lon="12.9602965"><ele>266.0</ele><time>2026-05-03T10:19:16.988Z</time></trkpt><trkpt lat="43.4008316" lon="12.9603466"><ele>266.0</ele><time>2026-05-03T10:19:17.988Z</time></trkpt><trkpt lat="43.4007642" lon="12.960413"><ele>266.0</ele><time>2026-05-03T10:19:18.988Z</time></trkpt><trkpt lat="43.4007026" lon="12.9604917"><ele>266.0</ele><time>2026-05-03T10:19:19.988Z</time></trkpt><trkpt lat="43.4006609" lon="12.9606038"><ele>266.0</ele><time>2026-05-03T10:19:20.988Z</time></trkpt><trkpt lat="43.4006213" lon="12.9607148"><ele>266.0</ele><time>2026-05-03T10:19:21.987Z</time></trkpt><trkpt lat="43.4005812" lon="12.9608293"><ele>266.0</ele><time>2026-05-03T10:19:22.988Z</time></trkpt><trkpt lat="43.4005468" lon="12.9609444"><ele>266.0</ele><time>2026-05-03T10:19:23.987Z</time></trkpt><trkpt lat="43.4005096" lon="12.9610631"><ele>266.0</ele><time>2026-05-03T10:19:24.988Z</time></trkpt><trkpt lat="43.4004728" lon="12.9611795"><ele>265.0</ele><time>2026-05-03T10:19:25.988Z</time></trkpt><trkpt lat="43.4004364" lon="12.9612918"><ele>264.0</ele><time>2026-05-03T10:19:26.988Z</time></trkpt><trkpt lat="43.4004034" lon="12.9614032"><ele>263.0</ele><time>2026-05-03T10:19:27.988Z</time></trkpt><trkpt lat="43.4003802" lon="12.9615144"><ele>262.0</ele><time>2026-05-03T10:19:28.988Z</time></trkpt><trkpt lat="43.4003678" lon="12.9616164"><ele>261.0</ele><time>2026-05-03T10:19:29.988Z</time></trkpt><trkpt lat="43.40037" lon="12.9617073"><ele>260.0</ele><time>2026-05-03T10:19:30.988Z</time></trkpt><trkpt lat="43.4003896" lon="12.9618686"><ele>260.0</ele><time>2026-05-03T10:19:32.987Z</time></trkpt><trkpt lat="43.4004068" lon="12.9619539"><ele>260.0</ele><time>2026-05-03T10:19:33.987Z</time></trkpt><trkpt lat="43.4004228" lon="12.9620468"><ele>260.0</ele><time>2026-05-03T10:19:34.988Z</time></trkpt><trkpt lat="43.4004455" lon="12.9621487"><ele>260.0</ele><time>2026-05-03T10:19:35.987Z</time></trkpt><trkpt lat="43.4004727" lon="12.9622564"><ele>260.0</ele><time>2026-05-03T10:19:36.987Z</time></trkpt><trkpt lat="43.4005013" lon="12.9623684"><ele>260.0</ele><time>2026-05-03T10:19:37.988Z</time></trkpt><trkpt lat="43.4005239" lon="12.9624906"><ele>253.2</ele><time>2026-05-03T10:19:38.988Z</time></trkpt><trkpt lat="43.4005543" lon="12.9626181"><ele>246.4</ele><time>2026-05-03T10:19:39.987Z</time></trkpt><trkpt lat="43.4005776" lon="12.962752"><ele>239.60000000000002</ele><time>2026-05-03T10:19:40.988Z</time></trkpt><trkpt lat="43.4006014" lon="12.9628948"><ele>232.8</ele><time>2026-05-03T10:19:41.988Z</time></trkpt><trkpt lat="43.4006131" lon="12.9630442"><ele>226.0</ele><time>2026-05-03T10:19:42.988Z</time></trkpt><trkpt lat="43.4006101" lon="12.9631927"><ele>226.0</ele><time>2026-05-03T10:19:43.987Z</time></trkpt><trkpt lat="43.4005996" lon="12.963341"><ele>226.00000000000003</ele><time>2026-05-03T10:19:44.988Z</time></trkpt><trkpt lat="43.4005898" lon="12.9634904"><ele>226.00000000000003</ele><time>2026-05-03T10:19:45.988Z</time></trkpt><trkpt lat="43.4005789" lon="12.9636424"><ele>226.0</ele><time>2026-05-03T10:19:46.988Z</time></trkpt><trkpt lat="43.4005723" lon="12.9638003"><ele>226.0</ele><time>2026-05-03T10:19:47.987Z</time></trkpt><trkpt lat="43.4005587" lon="12.963958"><ele>223.75</ele><time>2026-05-03T10:19:48.988Z</time></trkpt><trkpt lat="43.4005481" lon="12.96412"><ele>221.5</ele><time>2026-05-03T10:19:49.987Z</time></trkpt><trkpt lat="43.4005363" lon="12.9642866"><ele>219.25</ele><time>2026-05-03T10:19:50.987Z</time></trkpt><trkpt lat="43.4005284" lon="12.9644517"><ele>217.0</ele><time>2026-05-03T10:19:51.988Z</time></trkpt><trkpt lat="43.4005176" lon="12.9646135"><ele>216.0</ele><time>2026-05-03T10:19:52.987Z</time></trkpt><trkpt lat="43.4005064" lon="12.9647771"><ele>215.0</ele><time>2026-05-03T10:19:53.988Z</time></trkpt><trkpt lat="43.4004943" lon="12.9649408"><ele>214.0</ele><time>2026-05-03T10:19:54.987Z</time></trkpt><trkpt lat="43.4004953" lon="12.9651055"><ele>213.0</ele><time>2026-05-03T10:19:55.988Z</time></trkpt><trkpt lat="43.4005207" lon="12.9652597"><ele>217.5</ele><time>2026-05-03T10:19:56.987Z</time></trkpt><trkpt lat="43.4005662" lon="12.9654099"><ele>222.0</ele><time>2026-05-03T10:19:57.988Z</time></trkpt><trkpt lat="43.4006363" lon="12.9655322"><ele>226.5</ele><time>2026-05-03T10:19:58.988Z</time></trkpt><trkpt lat="43.4007357" lon="12.9656353"><ele>231.0</ele><time>2026-05-03T10:19:59.987Z</time></trkpt><trkpt lat="43.4008359" lon="12.9657353"><ele>231.0</ele><time>2026-05-03T10:20:00.987Z</time></trkpt><trkpt lat="43.4009434" lon="12.9658331"><ele>231.0</ele><time>2026-05-03T10:20:01.987Z</time></trkpt><trkpt lat="43.4010562" lon="12.9659277"><ele>231.0</ele><time>2026-05-03T10:20:02.988Z</time></trkpt><trkpt lat="43.401173" lon="12.966024"><ele>231.0</ele><time>2026-05-03T10:20:03.988Z</time></trkpt><trkpt lat="43.4012864" lon="12.9661274"><ele>228.25</ele><time>2026-05-03T10:20:04.988Z</time></trkpt><trkpt lat="43.4014016" lon="12.9662288"><ele>225.5</ele><time>2026-05-03T10:20:05.988Z</time></trkpt><trkpt lat="43.40151" lon="12.9663295"><ele>222.75</ele><time>2026-05-03T10:20:06.987Z</time></trkpt><trkpt lat="43.4016135" lon="12.9664244"><ele>220.0</ele><time>2026-05-03T10:20:07.988Z</time></trkpt><trkpt lat="43.4017162" lon="12.9665151"><ele>220.0</ele><time>2026-05-03T10:20:08.986Z</time></trkpt><trkpt lat="43.4018144" lon="12.9665996"><ele>220.0</ele><time>2026-05-03T10:20:09.988Z</time></trkpt><trkpt lat="43.4019095" lon="12.966682"><ele>220.0</ele><time>2026-05-03T10:20:10.988Z</time></trkpt><trkpt lat="43.4020022" lon="12.9667659"><ele>220.0</ele><time>2026-05-03T10:20:11.988Z</time></trkpt><trkpt lat="43.402088" lon="12.9668483"><ele>220.0</ele><time>2026-05-03T10:20:12.988Z</time></trkpt><trkpt lat="43.4021625" lon="12.9669414"><ele>217.66666666666666</ele><time>2026-05-03T10:20:13.987Z</time></trkpt><trkpt lat="43.4022249" lon="12.9670428"><ele>215.33333333333331</ele><time>2026-05-03T10:20:14.988Z</time></trkpt><trkpt lat="43.4022734" lon="12.9671606"><ele>213.0</ele><time>2026-05-03T10:20:15.988Z</time></trkpt><trkpt lat="43.4023184" lon="12.9672687"><ele>210.66666666666669</ele><time>2026-05-03T10:20:16.988Z</time></trkpt><trkpt lat="43.4023489" lon="12.9673736"><ele>208.33333333333334</ele><time>2026-05-03T10:20:17.988Z</time></trkpt><trkpt lat="43.4023712" lon="12.9674768"><ele>206.0</ele><time>2026-05-03T10:20:18.988Z</time></trkpt><trkpt lat="43.4023903" lon="12.9675671"><ele>206.0</ele><time>2026-05-03T10:20:19.987Z</time></trkpt><trkpt lat="43.402407" lon="12.9676624"><ele>206.0</ele><time>2026-05-03T10:20:20.988Z</time></trkpt><trkpt lat="43.402423" lon="12.9677478"><ele>206.0</ele><time>2026-05-03T10:20:21.988Z</time></trkpt><trkpt lat="43.4024639" lon="12.9679009"><ele>206.0</ele><time>2026-05-03T10:20:23.988Z</time></trkpt><trkpt lat="43.4024861" lon="12.9680333"><ele>206.0</ele><time>2026-05-03T10:20:25.988Z</time></trkpt><trkpt lat="43.4024832" lon="12.9681838"><ele>206.0</ele><time>2026-05-03T10:20:27.987Z</time></trkpt><trkpt lat="43.4024839" lon="12.9682877"><ele>206.0</ele><time>2026-05-03T10:20:28.987Z</time></trkpt><trkpt lat="43.4024835" lon="12.968408"><ele>206.0</ele><time>2026-05-03T10:20:29.988Z</time></trkpt><trkpt lat="43.4024783" lon="12.9685408"><ele>206.0</ele><time>2026-05-03T10:20:30.988Z</time></trkpt><trkpt lat="43.4024641" lon="12.9686757"><ele>206.0</ele><time>2026-05-03T10:20:31.988Z</time></trkpt><trkpt lat="43.4024432" lon="12.9688164"><ele>206.25</ele><time>2026-05-03T10:20:32.988Z</time></trkpt><trkpt lat="43.4024076" lon="12.9689583"><ele>206.5</ele><time>2026-05-03T10:20:33.987Z</time></trkpt><trkpt lat="43.4023631" lon="12.9691053"><ele>206.75</ele><time>2026-05-03T10:20:34.987Z</time></trkpt><trkpt lat="43.4023091" lon="12.9692505"><ele>207.0</ele><time>2026-05-03T10:20:35.988Z</time></trkpt><trkpt lat="43.4022487" lon="12.9693898"><ele>206.2</ele><time>2026-05-03T10:20:36.987Z</time></trkpt><trkpt lat="43.4021894" lon="12.9695193"><ele>205.39999999999998</ele><time>2026-05-03T10:20:37.988Z</time></trkpt><trkpt lat="43.4021331" lon="12.9696372"><ele>204.60000000000002</ele><time>2026-05-03T10:20:38.988Z</time></trkpt><trkpt lat="43.4020743" lon="12.9697523"><ele>203.8</ele><time>2026-05-03T10:20:39.988Z</time></trkpt><trkpt lat="43.4020194" lon="12.9698647"><ele>203.0</ele><time>2026-05-03T10:20:40.988Z</time></trkpt><trkpt lat="43.4019667" lon="12.9699803"><ele>203.8</ele><time>2026-05-03T10:20:41.987Z</time></trkpt><trkpt lat="43.4019075" lon="12.9700984"><ele>204.60000000000002</ele><time>2026-05-03T10:20:42.987Z</time></trkpt><trkpt lat="43.4018478" lon="12.9702213"><ele>205.39999999999998</ele><time>2026-05-03T10:20:43.988Z</time></trkpt><trkpt lat="43.4017937" lon="12.9703441"><ele>206.2</ele><time>2026-05-03T10:20:44.988Z</time></trkpt><trkpt lat="43.40174" lon="12.9704661"><ele>207.0</ele><time>2026-05-03T10:20:45.988Z</time></trkpt><trkpt lat="43.4016853" lon="12.9705876"><ele>207.0</ele><time>2026-05-03T10:20:46.988Z</time></trkpt><trkpt lat="43.4016322" lon="12.9707055"><ele>207.0</ele><time>2026-05-03T10:20:47.987Z</time></trkpt><trkpt lat="43.4015799" lon="12.9708179"><ele>207.0</ele><time>2026-05-03T10:20:48.988Z</time></trkpt><trkpt lat="43.4015337" lon="12.9709327"><ele>207.0</ele><time>2026-05-03T10:20:49.987Z</time></trkpt><trkpt lat="43.4014835" lon="12.9710487"><ele>207.0</ele><time>2026-05-03T10:20:50.988Z</time></trkpt><trkpt lat="43.4014288" lon="12.9711663"><ele>207.0</ele><time>2026-05-03T10:20:51.987Z</time></trkpt><trkpt lat="43.401377" lon="12.9712775"><ele>207.0</ele><time>2026-05-03T10:20:52.988Z</time></trkpt><trkpt lat="43.4013294" lon="12.9713934"><ele>207.0</ele><time>2026-05-03T10:20:53.988Z</time></trkpt><trkpt lat="43.401285" lon="12.9715046"><ele>207.0</ele><time>2026-05-03T10:20:54.988Z</time></trkpt><trkpt lat="43.4012476" lon="12.9716174"><ele>207.0</ele><time>2026-05-03T10:20:55.988Z</time></trkpt><trkpt lat="43.4012235" lon="12.971747"><ele>207.0</ele><time>2026-05-03T10:20:56.988Z</time></trkpt><trkpt lat="43.401212" lon="12.9718816"><ele>207.0</ele><time>2026-05-03T10:20:57.988Z</time></trkpt><trkpt lat="43.401214" lon="12.9720128"><ele>207.0</ele><time>2026-05-03T10:20:58.987Z</time></trkpt><trkpt lat="43.4012235" lon="12.9721546"><ele>207.0</ele><time>2026-05-03T10:20:59.987Z</time></trkpt><trkpt lat="43.4012466" lon="12.9722939"><ele>207.0</ele><time>2026-05-03T10:21:00.988Z</time></trkpt><trkpt lat="43.4012738" lon="12.9724306"><ele>206.39999999999998</ele><time>2026-05-03T10:21:01.988Z</time></trkpt><trkpt lat="43.4013007" lon="12.9725566"><ele>205.79999999999998</ele><time>2026-05-03T10:21:02.987Z</time></trkpt><trkpt lat="43.4013236" lon="12.9726807"><ele>205.2</ele><time>2026-05-03T10:21:03.988Z</time></trkpt><trkpt lat="43.4013501" lon="12.9728052"><ele>204.6</ele><time>2026-05-03T10:21:04.988Z</time></trkpt><trkpt lat="43.4013768" lon="12.9729286"><ele>204.0</ele><time>2026-05-03T10:21:05.987Z</time></trkpt><trkpt lat="43.4014083" lon="12.973055"><ele>204.0</ele><time>2026-05-03T10:21:06.988Z</time></trkpt><trkpt lat="43.4014381" lon="12.9731771"><ele>204.0</ele><time>2026-05-03T10:21:07.987Z</time></trkpt><trkpt lat="43.4014693" lon="12.9733037"><ele>204.0</ele><time>2026-05-03T10:21:08.988Z</time></trkpt><trkpt lat="43.4015011" lon="12.9734284"><ele>204.0</ele><time>2026-05-03T10:21:09.988Z</time></trkpt><trkpt lat="43.4015275" lon="12.9735423"><ele>204.0</ele><time>2026-05-03T10:21:10.988Z</time></trkpt><trkpt lat="43.4015524" lon="12.9736492"><ele>205.66666666666666</ele><time>2026-05-03T10:21:11.987Z</time></trkpt><trkpt lat="43.4015713" lon="12.9737529"><ele>207.33333333333331</ele><time>2026-05-03T10:21:12.987Z</time></trkpt><trkpt lat="43.4015952" lon="12.9738567"><ele>209.0</ele><time>2026-05-03T10:21:13.987Z</time></trkpt><trkpt lat="43.4016196" lon="12.9739636"><ele>210.66666666666666</ele><time>2026-05-03T10:21:14.988Z</time></trkpt><trkpt lat="43.4016529" lon="12.9740654"><ele>212.33333333333331</ele><time>2026-05-03T10:21:15.988Z</time></trkpt><trkpt lat="43.4017044" lon="12.9741586"><ele>214.0</ele><time>2026-05-03T10:21:16.988Z</time></trkpt><trkpt lat="43.4017661" lon="12.9742501"><ele>214.49999999999997</ele><time>2026-05-03T10:21:17.987Z</time></trkpt><trkpt lat="43.4018366" lon="12.9743184"><ele>215.0</ele><time>2026-05-03T10:21:18.988Z</time></trkpt><trkpt lat="43.4019121" lon="12.9743792"><ele>215.5</ele><time>2026-05-03T10:21:19.988Z</time></trkpt><trkpt lat="43.4019961" lon="12.9744175"><ele>216.0</ele><time>2026-05-03T10:21:20.987Z</time></trkpt><trkpt lat="43.4020786" lon="12.9744476"><ele>216.49999999999997</ele><time>2026-05-03T10:21:21.988Z</time></trkpt><trkpt lat="43.4021694" lon="12.97446"><ele>217.0</ele><time>2026-05-03T10:21:22.988Z</time></trkpt><trkpt lat="43.4022625" lon="12.9744724"><ele>213.0</ele><time>2026-05-03T10:21:23.988Z</time></trkpt><trkpt lat="43.4023559" lon="12.9744851"><ele>209.0</ele><time>2026-05-03T10:21:24.987Z</time></trkpt><trkpt lat="43.4024523" lon="12.9744995"><ele>205.0</ele><time>2026-05-03T10:21:25.987Z</time></trkpt><trkpt lat="43.4025527" lon="12.9745105"><ele>201.0</ele><time>2026-05-03T10:21:26.988Z</time></trkpt><trkpt lat="43.4026551" lon="12.9745218"><ele>197.0</ele><time>2026-05-03T10:21:27.988Z</time></trkpt><trkpt lat="43.4027616" lon="12.9745354"><ele>197.0</ele><time>2026-05-03T10:21:28.987Z</time></trkpt><trkpt lat="43.4028665" lon="12.974541"><ele>197.0</ele><time>2026-05-03T10:21:29.988Z</time></trkpt><trkpt lat="43.4029752" lon="12.9745574"><ele>197.0</ele><time>2026-05-03T10:21:30.988Z</time></trkpt><trkpt lat="43.4030911" lon="12.9745759"><ele>197.0</ele><time>2026-05-03T10:21:31.988Z</time></trkpt><trkpt lat="43.4032094" lon="12.9745948"><ele>196.8</ele><time>2026-05-03T10:21:32.987Z</time></trkpt><trkpt lat="43.4033263" lon="12.9746102"><ele>196.6</ele><time>2026-05-03T10:21:33.987Z</time></trkpt><trkpt lat="43.4034363" lon="12.974629"><ele>196.4</ele><time>2026-05-03T10:21:34.987Z</time></trkpt><trkpt lat="43.4035444" lon="12.9746507"><ele>196.20000000000002</ele><time>2026-05-03T10:21:35.988Z</time></trkpt><trkpt lat="43.4036385" lon="12.9746653"><ele>196.0</ele><time>2026-05-03T10:21:36.988Z</time></trkpt><trkpt lat="43.4037386" lon="12.9746934"><ele>199.20000000000002</ele><time>2026-05-03T10:21:37.987Z</time></trkpt><trkpt lat="43.4038351" lon="12.9747265"><ele>202.4</ele><time>2026-05-03T10:21:38.987Z</time></trkpt><trkpt lat="43.4039286" lon="12.9747733"><ele>205.6</ele><time>2026-05-03T10:21:39.988Z</time></trkpt><trkpt lat="43.4040211" lon="12.9748291"><ele>208.8</ele><time>2026-05-03T10:21:40.987Z</time></trkpt><trkpt lat="43.4041038" lon="12.9748919"><ele>212.0</ele><time>2026-05-03T10:21:41.988Z</time></trkpt><trkpt lat="43.4041806" lon="12.9749578"><ele>208.0</ele><time>2026-05-03T10:21:42.987Z</time></trkpt><trkpt lat="43.404252" lon="12.9750328"><ele>204.0</ele><time>2026-05-03T10:21:43.988Z</time></trkpt><trkpt lat="43.4043158" lon="12.9751196"><ele>200.0</ele><time>2026-05-03T10:21:44.987Z</time></trkpt><trkpt lat="43.4043778" lon="12.9752095"><ele>196.0</ele><time>2026-05-03T10:21:45.987Z</time></trkpt><trkpt lat="43.4044358" lon="12.9753037"><ele>192.0</ele><time>2026-05-03T10:21:46.987Z</time></trkpt><trkpt lat="43.4044926" lon="12.9754044"><ele>192.0</ele><time>2026-05-03T10:21:47.988Z</time></trkpt><trkpt lat="43.4045401" lon="12.975509"><ele>192.0</ele><time>2026-05-03T10:21:48.987Z</time></trkpt><trkpt lat="43.4045892" lon="12.9756244"><ele>192.0</ele><time>2026-05-03T10:21:49.988Z</time></trkpt><trkpt lat="43.4046233" lon="12.9757428"><ele>192.0</ele><time>2026-05-03T10:21:50.988Z</time></trkpt><trkpt lat="43.4046497" lon="12.9758662"><ele>192.0</ele><time>2026-05-03T10:21:51.987Z</time></trkpt><trkpt lat="43.4046717" lon="12.9759921"><ele>196.2</ele><time>2026-05-03T10:21:52.988Z</time></trkpt><trkpt lat="43.404691" lon="12.9761213"><ele>200.39999999999998</ele><time>2026-05-03T10:21:53.988Z</time></trkpt><trkpt lat="43.4047092" lon="12.9762527"><ele>204.60000000000002</ele><time>2026-05-03T10:21:54.987Z</time></trkpt><trkpt lat="43.4047254" lon="12.9763842"><ele>208.8</ele><time>2026-05-03T10:21:55.988Z</time></trkpt><trkpt lat="43.4047402" lon="12.9765161"><ele>213.0</ele><time>2026-05-03T10:21:56.988Z</time></trkpt><trkpt lat="43.404752" lon="12.9766377"><ele>210.66666666666666</ele><time>2026-05-03T10:21:57.988Z</time></trkpt><trkpt lat="43.4047661" lon="12.9767542"><ele>208.33333333333331</ele><time>2026-05-03T10:21:58.988Z</time></trkpt><trkpt lat="43.4047812" lon="12.9768656"><ele>206.0</ele><time>2026-05-03T10:21:59.987Z</time></trkpt><trkpt lat="43.4047963" lon="12.9769772"><ele>203.66666666666666</ele><time>2026-05-03T10:22:00.988Z</time></trkpt><trkpt lat="43.4048069" lon="12.9770842"><ele>201.33333333333331</ele><time>2026-05-03T10:22:01.988Z</time></trkpt><trkpt lat="43.4048191" lon="12.9771837"><ele>199.0</ele><time>2026-05-03T10:22:02.988Z</time></trkpt><trkpt lat="43.4048359" lon="12.9772759"><ele>198.99999999999997</ele><time>2026-05-03T10:22:03.987Z</time></trkpt><trkpt lat="43.4048558" lon="12.9773646"><ele>199.0</ele><time>2026-05-03T10:22:04.988Z</time></trkpt><trkpt lat="43.4048789" lon="12.9774476"><ele>199.0</ele><time>2026-05-03T10:22:05.988Z</time></trkpt><trkpt lat="43.4049235" lon="12.9775763"><ele>199.0</ele><time>2026-05-03T10:22:07.987Z</time></trkpt><trkpt lat="43.4049584" lon="12.9776649"><ele>198.99999999999997</ele><time>2026-05-03T10:22:09.987Z</time></trkpt><trkpt lat="43.4050222" lon="12.9777988"><ele>199.0</ele><time>2026-05-03T10:22:11.987Z</time></trkpt><trkpt lat="43.4050679" lon="12.9778777"><ele>197.7142857142857</ele><time>2026-05-03T10:22:12.987Z</time></trkpt><trkpt lat="43.4051153" lon="12.9779572"><ele>196.42857142857142</ele><time>2026-05-03T10:22:13.988Z</time></trkpt><trkpt lat="43.4051637" lon="12.9780403"><ele>195.14285714285714</ele><time>2026-05-03T10:22:14.988Z</time></trkpt><trkpt lat="43.4052063" lon="12.9781166"><ele>193.85714285714283</ele><time>2026-05-03T10:22:15.987Z</time></trkpt><trkpt lat="43.4052432" lon="12.9781901"><ele>192.57142857142858</ele><time>2026-05-03T10:22:16.988Z</time></trkpt><trkpt lat="43.4052823" lon="12.9782601"><ele>191.28571428571428</ele><time>2026-05-03T10:22:17.987Z</time></trkpt><trkpt lat="43.405322" lon="12.9783338"><ele>190.0</ele><time>2026-05-03T10:22:18.987Z</time></trkpt><trkpt lat="43.4053615" lon="12.9784096"><ele>189.5</ele><time>2026-05-03T10:22:19.988Z</time></trkpt><trkpt lat="43.4054021" lon="12.9784863"><ele>189.0</ele><time>2026-05-03T10:22:20.988Z</time></trkpt><trkpt lat="43.4054468" lon="12.9785651"><ele>188.5</ele><time>2026-05-03T10:22:21.987Z</time></trkpt><trkpt lat="43.4054952" lon="12.9786478"><ele>188.0</ele><time>2026-05-03T10:22:22.988Z</time></trkpt><trkpt lat="43.4055385" lon="12.9787371"><ele>187.5</ele><time>2026-05-03T10:22:23.987Z</time></trkpt><trkpt lat="43.4055834" lon="12.9788247"><ele>187.0</ele><time>2026-05-03T10:22:24.988Z</time></trkpt><trkpt lat="43.4056315" lon="12.9789122"><ele>186.83333333333334</ele><time>2026-05-03T10:22:25.988Z</time></trkpt><trkpt lat="43.4056773" lon="12.9790006"><ele>186.66666666666669</ele><time>2026-05-03T10:22:26.987Z</time></trkpt><trkpt lat="43.4057163" lon="12.9790807"><ele>186.5</ele><time>2026-05-03T10:22:27.988Z</time></trkpt><trkpt lat="43.4057877" lon="12.9792109"><ele>186.33333333333334</ele><time>2026-05-03T10:22:29.988Z</time></trkpt><trkpt lat="43.4058452" lon="12.9793095"><ele>186.16666666666666</ele><time>2026-05-03T10:22:31.988Z</time></trkpt><trkpt lat="43.4058901" lon="12.9793903"><ele>186.0</ele><time>2026-05-03T10:22:34.988Z</time></trkpt><trkpt lat="43.4059528" lon="12.9795147"><ele>185.83333333333334</ele><time>2026-05-03T10:22:44.988Z</time></trkpt><trkpt lat="43.4060207" lon="12.9796419"><ele>185.66666666666666</ele><time>2026-05-03T10:22:46.988Z</time></trkpt><trkpt lat="43.4060615" lon="12.9797254"><ele>185.5</ele><time>2026-05-03T10:22:47.988Z</time></trkpt><trkpt lat="43.4061096" lon="12.9798132"><ele>185.33333333333331</ele><time>2026-05-03T10:22:48.988Z</time></trkpt><trkpt lat="43.4061581" lon="12.979902"><ele>185.16666666666666</ele><time>2026-05-03T10:22:49.988Z</time></trkpt><trkpt lat="43.4062046" lon="12.9799924"><ele>185.0</ele><time>2026-05-03T10:22:50.988Z</time></trkpt><trkpt lat="43.4062524" lon="12.9800839"><ele>185.5</ele><time>2026-05-03T10:22:51.988Z</time></trkpt><trkpt lat="43.4063062" lon="12.9801828"><ele>186.0</ele><time>2026-05-03T10:22:52.987Z</time></trkpt><trkpt lat="43.406359" lon="12.980283"><ele>186.5</ele><time>2026-05-03T10:22:53.988Z</time></trkpt><trkpt lat="43.4064077" lon="12.9803776"><ele>187.0</ele><time>2026-05-03T10:22:54.987Z</time></trkpt><trkpt lat="43.4064526" lon="12.9804662"><ele>187.5</ele><time>2026-05-03T10:22:55.988Z</time></trkpt><trkpt lat="43.4064938" lon="12.9805477"><ele>188.0</ele><time>2026-05-03T10:22:56.988Z</time></trkpt><trkpt lat="43.4065431" lon="12.9806863"><ele>188.0</ele><time>2026-05-03T10:22:58.987Z</time></trkpt><trkpt lat="43.4065529" lon="12.9808272"><ele>188.0</ele><time>2026-05-03T10:23:00.987Z</time></trkpt><trkpt lat="43.4065025" lon="12.9809663"><ele>188.0</ele><time>2026-05-03T10:23:02.987Z</time></trkpt><trkpt lat="43.4064383" lon="12.9810428"><ele>188.0</ele><time>2026-05-03T10:23:08.987Z</time></trkpt><trkpt lat="43.4063467" lon="12.9811119"><ele>188.0</ele><time>2026-05-03T10:23:10.988Z</time></trkpt><trkpt lat="43.4062704" lon="12.9811566"><ele>192.5</ele><time>2026-05-03T10:23:11.988Z</time></trkpt><trkpt lat="43.4061732" lon="12.9811945"><ele>197.0</ele><time>2026-05-03T10:23:12.987Z</time></trkpt><trkpt lat="43.4060572" lon="12.9812345"><ele>201.5</ele><time>2026-05-03T10:23:13.988Z</time></trkpt><trkpt lat="43.4059321" lon="12.981274"><ele>206.0</ele><time>2026-05-03T10:23:14.988Z</time></trkpt><trkpt lat="43.4058083" lon="12.9813274"><ele>206.0</ele><time>2026-05-03T10:23:15.987Z</time></trkpt><trkpt lat="43.405667" lon="12.9813764"><ele>206.0</ele><time>2026-05-03T10:23:16.988Z</time></trkpt><trkpt lat="43.4055244" lon="12.9814279"><ele>206.0</ele><time>2026-05-03T10:23:17.988Z</time></trkpt><trkpt lat="43.4053786" lon="12.9814805"><ele>206.0</ele><time>2026-05-03T10:23:18.988Z</time></trkpt><trkpt lat="43.4052424" lon="12.9815269"><ele>205.0</ele><time>2026-05-03T10:23:19.988Z</time></trkpt><trkpt lat="43.4051122" lon="12.9815757"><ele>204.0</ele><time>2026-05-03T10:23:20.988Z</time></trkpt><trkpt lat="43.4049855" lon="12.9816258"><ele>203.0</ele><time>2026-05-03T10:23:21.988Z</time></trkpt><trkpt lat="43.4048609" lon="12.9816711"><ele>202.0</ele><time>2026-05-03T10:23:22.988Z</time></trkpt><trkpt lat="43.4047304" lon="12.9817169"><ele>206.75</ele><time>2026-05-03T10:23:23.987Z</time></trkpt><trkpt lat="43.4046057" lon="12.9817593"><ele>211.5</ele><time>2026-05-03T10:23:24.988Z</time></trkpt><trkpt lat="43.4044813" lon="12.9817911"><ele>216.25</ele><time>2026-05-03T10:23:25.988Z</time></trkpt><trkpt lat="43.4043526" lon="12.9818138"><ele>221.0</ele><time>2026-05-03T10:23:26.987Z</time></trkpt><trkpt lat="43.4042233" lon="12.9818155"><ele>221.0</ele><time>2026-05-03T10:23:27.988Z</time></trkpt><trkpt lat="43.4040977" lon="12.9818225"><ele>221.0</ele><time>2026-05-03T10:23:28.987Z</time></trkpt><trkpt lat="43.4039671" lon="12.9818192"><ele>221.0</ele><time>2026-05-03T10:23:29.988Z</time></trkpt><trkpt lat="43.4038461" lon="12.9818231"><ele>221.0</ele><time>2026-05-03T10:23:30.988Z</time></trkpt><trkpt lat="43.4037298" lon="12.9818257"><ele>220.5</ele><time>2026-05-03T10:23:31.987Z</time></trkpt><trkpt lat="43.4036025" lon="12.9818355"><ele>220.0</ele><time>2026-05-03T10:23:32.988Z</time></trkpt><trkpt lat="43.4034717" lon="12.9818474"><ele>219.5</ele><time>2026-05-03T10:23:33.988Z</time></trkpt><trkpt lat="43.4033386" lon="12.981861"><ele>219.0</ele><time>2026-05-03T10:23:34.987Z</time></trkpt><trkpt lat="43.4032063" lon="12.981864"><ele>219.0</ele><time>2026-05-03T10:23:35.987Z</time></trkpt><trkpt lat="43.4030724" lon="12.9818662"><ele>219.0</ele><time>2026-05-03T10:23:36.988Z</time></trkpt><trkpt lat="43.4029478" lon="12.9818594"><ele>219.0</ele><time>2026-05-03T10:23:37.987Z</time></trkpt><trkpt lat="43.4028244" lon="12.9818508"><ele>219.0</ele><time>2026-05-03T10:23:38.988Z</time></trkpt><trkpt lat="43.4027056" lon="12.9818215"><ele>218.2</ele><time>2026-05-03T10:23:39.987Z</time></trkpt><trkpt lat="43.4026044" lon="12.9817482"><ele>217.39999999999998</ele><time>2026-05-03T10:23:40.988Z</time></trkpt><trkpt lat="43.4025239" lon="12.9816498"><ele>216.6</ele><time>2026-05-03T10:23:41.988Z</time></trkpt><trkpt lat="43.4024829" lon="12.9815278"><ele>215.8</ele><time>2026-05-03T10:23:42.988Z</time></trkpt><trkpt lat="43.4024694" lon="12.9813824"><ele>215.0</ele><time>2026-05-03T10:23:43.987Z</time></trkpt><trkpt lat="43.4024618" lon="12.9812205"><ele>211.0</ele><time>2026-05-03T10:23:44.988Z</time></trkpt><trkpt lat="43.4024497" lon="12.9810547"><ele>207.0</ele><time>2026-05-03T10:23:45.987Z</time></trkpt><trkpt lat="43.4024367" lon="12.980891"><ele>203.0</ele><time>2026-05-03T10:23:46.988Z</time></trkpt><trkpt lat="43.4024197" lon="12.9807314"><ele>199.0</ele><time>2026-05-03T10:23:47.988Z</time></trkpt><trkpt lat="43.4024092" lon="12.9805734"><ele>198.75</ele><time>2026-05-03T10:23:48.988Z</time></trkpt><trkpt lat="43.4023978" lon="12.9804189"><ele>198.5</ele><time>2026-05-03T10:23:49.988Z</time></trkpt><trkpt lat="43.4023902" lon="12.9802628"><ele>198.25</ele><time>2026-05-03T10:23:50.987Z</time></trkpt><trkpt lat="43.4023799" lon="12.9801057"><ele>198.0</ele><time>2026-05-03T10:23:51.988Z</time></trkpt><trkpt lat="43.4023797" lon="12.9799505"><ele>198.0</ele><time>2026-05-03T10:23:52.988Z</time></trkpt><trkpt lat="43.4023932" lon="12.9797934"><ele>198.0</ele><time>2026-05-03T10:23:53.987Z</time></trkpt><trkpt lat="43.4024081" lon="12.9796417"><ele>198.0</ele><time>2026-05-03T10:23:54.988Z</time></trkpt><trkpt lat="43.4024196" lon="12.9795006"><ele>198.0</ele><time>2026-05-03T10:23:55.988Z</time></trkpt><trkpt lat="43.4024375" lon="12.979375"><ele>198.0</ele><time>2026-05-03T10:23:56.987Z</time></trkpt><trkpt lat="43.4024631" lon="12.9792581"><ele>197.60000000000002</ele><time>2026-05-03T10:23:57.988Z</time></trkpt><trkpt lat="43.4025018" lon="12.9791483"><ele>197.20000000000002</ele><time>2026-05-03T10:23:58.987Z</time></trkpt><trkpt lat="43.4025371" lon="12.9790453"><ele>196.8</ele><time>2026-05-03T10:23:59.988Z</time></trkpt><trkpt lat="43.402555" lon="12.9789369"><ele>196.4</ele><time>2026-05-03T10:24:00.987Z</time></trkpt><trkpt lat="43.4025459" lon="12.9788413"><ele>196.0</ele><time>2026-05-03T10:24:01.987Z</time></trkpt><trkpt lat="43.402482" lon="12.9786839"><ele>195.99999999999997</ele><time>2026-05-03T10:24:03.988Z</time></trkpt><trkpt lat="43.4024262" lon="12.9786285"><ele>196.0</ele><time>2026-05-03T10:24:04.988Z</time></trkpt><trkpt lat="43.4023595" lon="12.9785962"><ele>196.0</ele><time>2026-05-03T10:24:05.988Z</time></trkpt><trkpt lat="43.4022883" lon="12.9785991"><ele>196.0</ele><time>2026-05-03T10:24:06.988Z</time></trkpt><trkpt lat="43.402212" lon="12.9786316"><ele>195.99999999999997</ele><time>2026-05-03T10:24:07.987Z</time></trkpt><trkpt lat="43.4021466" lon="12.9787118"><ele>196.0</ele><time>2026-05-03T10:24:08.987Z</time></trkpt><trkpt lat="43.4021039" lon="12.9788225"><ele>196.16666666666666</ele><time>2026-05-03T10:24:09.988Z</time></trkpt><trkpt lat="43.4021005" lon="12.9789575"><ele>196.33333333333331</ele><time>2026-05-03T10:24:10.988Z</time></trkpt><trkpt lat="43.4020961" lon="12.9790863"><ele>196.5</ele><time>2026-05-03T10:24:11.988Z</time></trkpt><trkpt lat="43.4020885" lon="12.9792086"><ele>196.66666666666669</ele><time>2026-05-03T10:24:12.988Z</time></trkpt><trkpt lat="43.4020795" lon="12.9793217"><ele>196.83333333333334</ele><time>2026-05-03T10:24:13.988Z</time></trkpt><trkpt lat="43.4020693" lon="12.9794153"><ele>197.0</ele><time>2026-05-03T10:24:14.988Z</time></trkpt><trkpt lat="43.4020509" lon="12.9795502"><ele>199.39999999999998</ele><time>2026-05-03T10:24:16.988Z</time></trkpt><trkpt lat="43.4019996" lon="12.9796253"><ele>201.79999999999998</ele><time>2026-05-03T10:24:18.987Z</time></trkpt><trkpt lat="43.4019382" lon="12.9797138"><ele>204.2</ele><time>2026-05-03T10:24:31.988Z</time></trkpt><trkpt lat="43.4018323" lon="12.9798214"><ele>206.6</ele><time>2026-05-03T10:24:33.988Z</time></trkpt><trkpt lat="43.4017522" lon="12.979888"><ele>209.0</ele><time>2026-05-03T10:24:34.988Z</time></trkpt><trkpt lat="43.4016472" lon="12.9799632"><ele>212.75</ele><time>2026-05-03T10:24:35.987Z</time></trkpt><trkpt lat="43.4015317" lon="12.9800188"><ele>216.5</ele><time>2026-05-03T10:24:36.987Z</time></trkpt><trkpt lat="43.4014083" lon="12.9800436"><ele>220.25</ele><time>2026-05-03T10:24:37.987Z</time></trkpt><trkpt lat="43.401274" lon="12.9800434"><ele>224.0</ele><time>2026-05-03T10:24:38.988Z</time></trkpt><trkpt lat="43.4011355" lon="12.9800168"><ele>219.0</ele><time>2026-05-03T10:24:39.988Z</time></trkpt><trkpt lat="43.4009866" lon="12.9799642"><ele>214.0</ele><time>2026-05-03T10:24:40.988Z</time></trkpt><trkpt lat="43.4008344" lon="12.9798832"><ele>209.0</ele><time>2026-05-03T10:24:41.988Z</time></trkpt><trkpt lat="43.4006896" lon="12.979787"><ele>209.0</ele><time>2026-05-03T10:24:42.987Z</time></trkpt><trkpt lat="43.4005543" lon="12.9796798"><ele>209.0</ele><time>2026-05-03T10:24:43.988Z</time></trkpt><trkpt lat="43.4004278" lon="12.9795763"><ele>209.0</ele><time>2026-05-03T10:24:44.987Z</time></trkpt><trkpt lat="43.4003129" lon="12.9794773"><ele>209.0</ele><time>2026-05-03T10:24:45.987Z</time></trkpt><trkpt lat="43.4002128" lon="12.9793914"><ele>208.66666666666669</ele><time>2026-05-03T10:24:46.988Z</time></trkpt><trkpt lat="43.4001222" lon="12.979316"><ele>208.33333333333334</ele><time>2026-05-03T10:24:47.988Z</time></trkpt><trkpt lat="43.4000429" lon="12.9792498"><ele>208.0</ele><time>2026-05-03T10:24:48.987Z</time></trkpt><trkpt lat="43.3999722" lon="12.9791904"><ele>207.66666666666669</ele><time>2026-05-03T10:24:49.987Z</time></trkpt><trkpt lat="43.3999133" lon="12.9791379"><ele>207.33333333333334</ele><time>2026-05-03T10:24:50.988Z</time></trkpt><trkpt lat="43.3998567" lon="12.9790869"><ele>207.0</ele><time>2026-05-03T10:24:51.987Z</time></trkpt><trkpt lat="43.3998001" lon="12.979044"><ele>207.0</ele><time>2026-05-03T10:24:52.987Z</time></trkpt><trkpt lat="43.3997378" lon="12.9790287"><ele>207.0</ele><time>2026-05-03T10:24:53.988Z</time></trkpt><trkpt lat="43.3996379" lon="12.9791178"><ele>207.0</ele><time>2026-05-03T10:24:55.988Z</time></trkpt><trkpt lat="43.3996257" lon="12.9792058"><ele>207.0</ele><time>2026-05-03T10:24:56.988Z</time></trkpt><trkpt lat="43.3996394" lon="12.9793141"><ele>207.0</ele><time>2026-05-03T10:24:57.988Z</time></trkpt><trkpt lat="43.3996637" lon="12.9794378"><ele>207.0</ele><time>2026-05-03T10:24:58.988Z</time></trkpt><trkpt lat="43.3996745" lon="12.9795709"><ele>207.5</ele><time>2026-05-03T10:24:59.988Z</time></trkpt><trkpt lat="43.3996595" lon="12.9797015"><ele>208.0</ele><time>2026-05-03T10:25:00.988Z</time></trkpt><trkpt lat="43.3996143" lon="12.9798088"><ele>208.5</ele><time>2026-05-03T10:25:01.987Z</time></trkpt><trkpt lat="43.399549" lon="12.9798721"><ele>209.0</ele><time>2026-05-03T10:25:02.987Z</time></trkpt><trkpt lat="43.3994691" lon="12.979891"><ele>209.5</ele><time>2026-05-03T10:25:03.988Z</time></trkpt><trkpt lat="43.3993781" lon="12.9798823"><ele>210.0</ele><time>2026-05-03T10:25:04.988Z</time></trkpt><trkpt lat="43.3992806" lon="12.9798468"><ele>210.0</ele><time>2026-05-03T10:25:05.988Z</time></trkpt><trkpt lat="43.3991785" lon="12.9797918"><ele>210.0</ele><time>2026-05-03T10:25:06.987Z</time></trkpt><trkpt lat="43.399075" lon="12.9797303"><ele>210.0</ele><time>2026-05-03T10:25:07.988Z</time></trkpt><trkpt lat="43.3989707" lon="12.9796837"><ele>210.0</ele><time>2026-05-03T10:25:08.988Z</time></trkpt><trkpt lat="43.3988679" lon="12.9796725"><ele>210.0</ele><time>2026-05-03T10:25:09.987Z</time></trkpt><trkpt lat="43.3987745" lon="12.9797124"><ele>212.4</ele><time>2026-05-03T10:25:10.987Z</time></trkpt><trkpt lat="43.398701" lon="12.9797998"><ele>214.8</ele><time>2026-05-03T10:25:11.988Z</time></trkpt><trkpt lat="43.3986594" lon="12.9799229"><ele>217.2</ele><time>2026-05-03T10:25:12.987Z</time></trkpt><trkpt lat="43.3986595" lon="12.9800546"><ele>219.6</ele><time>2026-05-03T10:25:13.987Z</time></trkpt><trkpt lat="43.3986992" lon="12.9801731"><ele>222.0</ele><time>2026-05-03T10:25:14.988Z</time></trkpt><trkpt lat="43.3987714" lon="12.9802583"><ele>221.39999999999998</ele><time>2026-05-03T10:25:15.987Z</time></trkpt><trkpt lat="43.3988652" lon="12.9803073"><ele>220.79999999999998</ele><time>2026-05-03T10:25:16.987Z</time></trkpt><trkpt lat="43.3989595" lon="12.9803433"><ele>220.2</ele><time>2026-05-03T10:25:17.988Z</time></trkpt><trkpt lat="43.3990405" lon="12.9804014"><ele>219.6</ele><time>2026-05-03T10:25:18.988Z</time></trkpt><trkpt lat="43.3991005" lon="12.9804945"><ele>219.0</ele><time>2026-05-03T10:25:19.987Z</time></trkpt><trkpt lat="43.3991304" lon="12.9806012"><ele>219.0</ele><time>2026-05-03T10:25:20.987Z</time></trkpt><trkpt lat="43.399123" lon="12.9807115"><ele>218.99999999999997</ele><time>2026-05-03T10:25:21.988Z</time></trkpt><trkpt lat="43.3990812" lon="12.9808061"><ele>218.99999999999997</ele><time>2026-05-03T10:25:22.987Z</time></trkpt><trkpt lat="43.3990096" lon="12.9808716"><ele>219.0</ele><time>2026-05-03T10:25:23.987Z</time></trkpt><trkpt lat="43.3989173" lon="12.9809095"><ele>219.0</ele><time>2026-05-03T10:25:24.988Z</time></trkpt><trkpt lat="43.3988075" lon="12.9809291"><ele>222.0</ele><time>2026-05-03T10:25:25.987Z</time></trkpt><trkpt lat="43.3986837" lon="12.9809387"><ele>225.0</ele><time>2026-05-03T10:25:26.988Z</time></trkpt><trkpt lat="43.3985515" lon="12.9809399"><ele>228.0</ele><time>2026-05-03T10:25:27.987Z</time></trkpt><trkpt lat="43.3984169" lon="12.9809273"><ele>231.0</ele><time>2026-05-03T10:25:28.988Z</time></trkpt><trkpt lat="43.3982913" lon="12.9808889"><ele>229.5</ele><time>2026-05-03T10:25:29.987Z</time></trkpt><trkpt lat="43.3981768" lon="12.9808227"><ele>228.0</ele><time>2026-05-03T10:25:30.988Z</time></trkpt><trkpt lat="43.3980801" lon="12.9807319"><ele>226.5</ele><time>2026-05-03T10:25:31.988Z</time></trkpt><trkpt lat="43.3980032" lon="12.9806233"><ele>225.0</ele><time>2026-05-03T10:25:32.987Z</time></trkpt><trkpt lat="43.3979403" lon="12.9805166"><ele>225.0</ele><time>2026-05-03T10:25:33.988Z</time></trkpt><trkpt lat="43.3978806" lon="12.9804152"><ele>225.0</ele><time>2026-05-03T10:25:34.987Z</time></trkpt><trkpt lat="43.3978243" lon="12.9803293"><ele>225.0</ele><time>2026-05-03T10:25:35.987Z</time></trkpt><trkpt lat="43.3977599" lon="12.980263"><ele>225.0</ele><time>2026-05-03T10:25:36.988Z</time></trkpt><trkpt lat="43.3976807" lon="12.9802223"><ele>225.0</ele><time>2026-05-03T10:25:37.988Z</time></trkpt><trkpt lat="43.3975978" lon="12.980213"><ele>225.0</ele><time>2026-05-03T10:25:38.988Z</time></trkpt><trkpt lat="43.3975191" lon="12.9802294"><ele>225.00000000000003</ele><time>2026-05-03T10:25:39.988Z</time></trkpt><trkpt lat="43.3974557" lon="12.9802576"><ele>225.0</ele><time>2026-05-03T10:25:40.988Z</time></trkpt><trkpt lat="43.3973944" lon="12.9802817"><ele>225.00000000000003</ele><time>2026-05-03T10:25:41.988Z</time></trkpt><trkpt lat="43.3973273" lon="12.9802877"><ele>225.00000000000003</ele><time>2026-05-03T10:25:42.987Z</time></trkpt><trkpt lat="43.3972574" lon="12.9802841"><ele>225.0</ele><time>2026-05-03T10:25:43.988Z</time></trkpt><trkpt lat="43.3971797" lon="12.9802916"><ele>225.00000000000003</ele><time>2026-05-03T10:25:44.987Z</time></trkpt><trkpt lat="43.3970962" lon="12.9803308"><ele>225.00000000000003</ele><time>2026-05-03T10:25:45.988Z</time></trkpt><trkpt lat="43.3970165" lon="12.9804069"><ele>227.2</ele><time>2026-05-03T10:25:46.987Z</time></trkpt><trkpt lat="43.3969314" lon="12.9804988"><ele>229.4</ele><time>2026-05-03T10:25:47.987Z</time></trkpt><trkpt lat="43.3968399" lon="12.9805644"><ele>231.60000000000002</ele><time>2026-05-03T10:25:48.988Z</time></trkpt><trkpt lat="43.3967484" lon="12.9805983"><ele>233.8</ele><time>2026-05-03T10:25:49.988Z</time></trkpt><trkpt lat="43.3966612" lon="12.9806142"><ele>236.0</ele><time>2026-05-03T10:25:50.988Z</time></trkpt><trkpt lat="43.396578" lon="12.9806272"><ele>236.00000000000003</ele><time>2026-05-03T10:25:51.987Z</time></trkpt><trkpt lat="43.3964971" lon="12.9806424"><ele>236.0</ele><time>2026-05-03T10:25:52.987Z</time></trkpt><trkpt lat="43.3964245" lon="12.9806559"><ele>236.0</ele><time>2026-05-03T10:25:53.987Z</time></trkpt><trkpt lat="43.3963231" lon="12.9806643"><ele>236.0</ele><time>2026-05-03T10:25:55.988Z</time></trkpt><trkpt lat="43.3963936" lon="12.980724"><ele>236.00000000000003</ele><time>2026-05-03T10:26:03.988Z</time></trkpt><trkpt lat="43.3964769" lon="12.9807155"><ele>236.0</ele><time>2026-05-03T10:26:04.988Z</time></trkpt><trkpt lat="43.3965846" lon="12.9806997"><ele>236.0</ele><time>2026-05-03T10:26:05.988Z</time></trkpt><trkpt lat="43.3966973" lon="12.9806887"><ele>236.00000000000003</ele><time>2026-05-03T10:26:06.988Z</time></trkpt><trkpt lat="43.3968021" lon="12.9806901"><ele>236.00000000000003</ele><time>2026-05-03T10:26:07.988Z</time></trkpt><trkpt lat="43.3968917" lon="12.9807126"><ele>236.0</ele><time>2026-05-03T10:26:08.987Z</time></trkpt><trkpt lat="43.396967" lon="12.9807608"><ele>236.0</ele><time>2026-05-03T10:26:09.987Z</time></trkpt><trkpt lat="43.397029" lon="12.980837"><ele>235.60000000000002</ele><time>2026-05-03T10:26:10.988Z</time></trkpt><trkpt lat="43.3970714" lon="12.9809389"><ele>235.20000000000002</ele><time>2026-05-03T10:26:11.988Z</time></trkpt><trkpt lat="43.3970892" lon="12.9810619"><ele>234.79999999999998</ele><time>2026-05-03T10:26:12.988Z</time></trkpt><trkpt lat="43.3970759" lon="12.9811962"><ele>234.39999999999998</ele><time>2026-05-03T10:26:13.988Z</time></trkpt><trkpt lat="43.3970308" lon="12.9813343"><ele>234.0</ele><time>2026-05-03T10:26:14.988Z</time></trkpt><trkpt lat="43.3969532" lon="12.9814632"><ele>234.0</ele><time>2026-05-03T10:26:15.987Z</time></trkpt><trkpt lat="43.3968479" lon="12.9815651"><ele>234.0</ele><time>2026-05-03T10:26:16.988Z</time></trkpt><trkpt lat="43.3967246" lon="12.9816303"><ele>234.0</ele><time>2026-05-03T10:26:17.987Z</time></trkpt><trkpt lat="43.3965943" lon="12.9816642"><ele>234.0</ele><time>2026-05-03T10:26:18.987Z</time></trkpt><trkpt lat="43.3964638" lon="12.9816829"><ele>235.5</ele><time>2026-05-03T10:26:19.987Z</time></trkpt><trkpt lat="43.396328" lon="12.9817004"><ele>237.0</ele><time>2026-05-03T10:26:20.988Z</time></trkpt><trkpt lat="43.3961828" lon="12.9817241"><ele>238.5</ele><time>2026-05-03T10:26:21.988Z</time></trkpt><trkpt lat="43.3960285" lon="12.9817564"><ele>240.0</ele><time>2026-05-03T10:26:22.987Z</time></trkpt><trkpt lat="43.3958598" lon="12.9817963"><ele>240.0</ele><time>2026-05-03T10:26:23.988Z</time></trkpt><trkpt lat="43.3956778" lon="12.9818338"><ele>240.0</ele><time>2026-05-03T10:26:24.987Z</time></trkpt><trkpt lat="43.3954789" lon="12.9818646"><ele>240.0</ele><time>2026-05-03T10:26:25.988Z</time></trkpt><trkpt lat="43.3952604" lon="12.9818924"><ele>247.5</ele><time>2026-05-03T10:26:26.988Z</time></trkpt><trkpt lat="43.3950279" lon="12.9819184"><ele>255.0</ele><time>2026-05-03T10:26:27.987Z</time></trkpt><trkpt lat="43.3947782" lon="12.9819416"><ele>260.0</ele><time>2026-05-03T10:26:28.988Z</time></trkpt><trkpt lat="43.3945166" lon="12.981965"><ele>265.0</ele><time>2026-05-03T10:26:29.988Z</time></trkpt><trkpt lat="43.3942487" lon="12.9819893"><ele>265.0</ele><time>2026-05-03T10:26:30.988Z</time></trkpt><trkpt lat="43.3939707" lon="12.982017"><ele>265.0</ele><time>2026-05-03T10:26:31.988Z</time></trkpt><trkpt lat="43.3936782" lon="12.9820484"><ele>270.0</ele><time>2026-05-03T10:26:32.987Z</time></trkpt><trkpt lat="43.3933974" lon="12.9820731"><ele>275.0</ele><time>2026-05-03T10:26:33.988Z</time></trkpt><trkpt lat="43.3931281" lon="12.9820972"><ele>280.5</ele><time>2026-05-03T10:26:34.987Z</time></trkpt><trkpt lat="43.3928653" lon="12.9821199"><ele>286.0</ele><time>2026-05-03T10:26:35.987Z</time></trkpt><trkpt lat="43.3926102" lon="12.9821383"><ele>286.0</ele><time>2026-05-03T10:26:36.987Z</time></trkpt><trkpt lat="43.3923662" lon="12.9821546"><ele>286.0</ele><time>2026-05-03T10:26:37.988Z</time></trkpt><trkpt lat="43.3921281" lon="12.9821702"><ele>287.5</ele><time>2026-05-03T10:26:38.987Z</time></trkpt><trkpt lat="43.3918963" lon="12.9821844"><ele>289.0</ele><time>2026-05-03T10:26:39.987Z</time></trkpt><trkpt lat="43.3916659" lon="12.9822001"><ele>289.0</ele><time>2026-05-03T10:26:40.987Z</time></trkpt><trkpt lat="43.3914372" lon="12.9822165"><ele>289.0</ele><time>2026-05-03T10:26:41.987Z</time></trkpt><trkpt lat="43.3909836" lon="12.9822429"><ele>286.0</ele><time>2026-05-03T10:26:43.987Z</time></trkpt><trkpt lat="43.3907568" lon="12.9822519"><ele>283.0</ele><time>2026-05-03T10:26:44.988Z</time></trkpt><trkpt lat="43.3905299" lon="12.9822579"><ele>223.0</ele><time>2026-05-03T10:26:45.988Z</time></trkpt><trkpt lat="43.3694238" lon="12.9914154"><ele>223.0</ele><time>2026-05-03T10:28:37.987Z</time></trkpt><trkpt lat="43.3691962" lon="12.9916183"><ele>223.0</ele><time>2026-05-03T10:28:38.988Z</time></trkpt><trkpt lat="43.3689909" lon="12.9918169"><ele>225.0</ele><time>2026-05-03T10:28:39.987Z</time></trkpt><trkpt lat="43.3687742" lon="12.9919983"><ele>227.0</ele><time>2026-05-03T10:28:40.988Z</time></trkpt><trkpt lat="43.3685657" lon="12.9921584"><ele>227.0</ele><time>2026-05-03T10:28:41.987Z</time></trkpt><trkpt lat="43.3683465" lon="12.9923062"><ele>227.0</ele><time>2026-05-03T10:28:42.988Z</time></trkpt><trkpt lat="43.3681232" lon="12.9924475"><ele>234.0</ele><time>2026-05-03T10:28:43.987Z</time></trkpt><trkpt lat="43.3678967" lon="12.9925765"><ele>241.0</ele><time>2026-05-03T10:28:44.987Z</time></trkpt><trkpt lat="43.3676672" lon="12.9926984"><ele>241.0</ele><time>2026-05-03T10:28:45.987Z</time></trkpt><trkpt lat="43.3674365" lon="12.9928156"><ele>241.0</ele><time>2026-05-03T10:28:46.988Z</time></trkpt><trkpt lat="43.3671969" lon="12.9929303"><ele>232.5</ele><time>2026-05-03T10:28:47.988Z</time></trkpt><trkpt lat="43.3669587" lon="12.9930459"><ele>224.0</ele><time>2026-05-03T10:28:48.988Z</time></trkpt><trkpt lat="43.3667185" lon="12.9931549"><ele>224.0</ele><time>2026-05-03T10:28:49.988Z</time></trkpt><trkpt lat="43.3664734" lon="12.9932632"><ele>224.0</ele><time>2026-05-03T10:28:50.988Z</time></trkpt><trkpt lat="43.3662298" lon="12.9933714"><ele>233.5</ele><time>2026-05-03T10:28:51.988Z</time></trkpt><trkpt lat="43.3659857" lon="12.9934837"><ele>243.0</ele><time>2026-05-03T10:28:52.988Z</time></trkpt><trkpt lat="43.3657394" lon="12.9935983"><ele>235.5</ele><time>2026-05-03T10:28:53.987Z</time></trkpt><trkpt lat="43.3654937" lon="12.9937155"><ele>228.0</ele><time>2026-05-03T10:28:54.988Z</time></trkpt><trkpt lat="43.3652473" lon="12.9938317"><ele>228.0</ele><time>2026-05-03T10:28:55.988Z</time></trkpt><trkpt lat="43.3649978" lon="12.9939454"><ele>228.0</ele><time>2026-05-03T10:28:56.988Z</time></trkpt><trkpt lat="43.3647532" lon="12.9940578"><ele>230.5</ele><time>2026-05-03T10:28:57.987Z</time></trkpt><trkpt lat="43.3645069" lon="12.9941699"><ele>233.0</ele><time>2026-05-03T10:28:58.988Z</time></trkpt><trkpt lat="43.3642652" lon="12.9942792"><ele>233.0</ele><time>2026-05-03T10:28:59.987Z</time></trkpt><trkpt lat="43.3640263" lon="12.9943897"><ele>233.0</ele><time>2026-05-03T10:29:00.988Z</time></trkpt><trkpt lat="43.3637915" lon="12.9944991"><ele>228.5</ele><time>2026-05-03T10:29:01.987Z</time></trkpt><trkpt lat="43.3635575" lon="12.9946084"><ele>224.0</ele><time>2026-05-03T10:29:02.988Z</time></trkpt><trkpt lat="43.3633246" lon="12.9947149"><ele>224.0</ele><time>2026-05-03T10:29:03.988Z</time></trkpt><trkpt lat="43.3630934" lon="12.9948211"><ele>224.0</ele><time>2026-05-03T10:29:04.987Z</time></trkpt><trkpt lat="43.3628613" lon="12.9949262"><ele>224.5</ele><time>2026-05-03T10:29:05.988Z</time></trkpt><trkpt lat="43.3626343" lon="12.9950299"><ele>225.0</ele><time>2026-05-03T10:29:06.988Z</time></trkpt><trkpt lat="43.3624104" lon="12.9951322"><ele>224.5</ele><time>2026-05-03T10:29:07.988Z</time></trkpt><trkpt lat="43.3621872" lon="12.9952336"><ele>224.0</ele><time>2026-05-03T10:29:08.988Z</time></trkpt><trkpt lat="43.3619637" lon="12.9953367"><ele>224.0</ele><time>2026-05-03T10:29:09.987Z</time></trkpt><trkpt lat="43.3617404" lon="12.9954392"><ele>224.0</ele><time>2026-05-03T10:29:10.987Z</time></trkpt><trkpt lat="43.3615184" lon="12.9955418"><ele>223.5</ele><time>2026-05-03T10:29:11.987Z</time></trkpt><trkpt lat="43.361297" lon="12.9956437"><ele>223.0</ele><time>2026-05-03T10:29:12.988Z</time></trkpt><trkpt lat="43.3610766" lon="12.9957447"><ele>226.5</ele><time>2026-05-03T10:29:13.987Z</time></trkpt><trkpt lat="43.3608571" lon="12.9958479"><ele>230.0</ele><time>2026-05-03T10:29:14.988Z</time></trkpt><trkpt lat="43.360638" lon="12.9959505"><ele>227.0</ele><time>2026-05-03T10:29:15.988Z</time></trkpt><trkpt lat="43.3604179" lon="12.9960497"><ele>224.0</ele><time>2026-05-03T10:29:16.988Z</time></trkpt><trkpt lat="43.3601964" lon="12.9961479"><ele>224.0</ele><time>2026-05-03T10:29:17.988Z</time></trkpt><trkpt lat="43.3599753" lon="12.9962451"><ele>224.0</ele><time>2026-05-03T10:29:18.987Z</time></trkpt><trkpt lat="43.3597537" lon="12.9963445"><ele>223.5</ele><time>2026-05-03T10:29:19.987Z</time></trkpt><trkpt lat="43.3595335" lon="12.9964489"><ele>223.0</ele><time>2026-05-03T10:29:20.988Z</time></trkpt><trkpt lat="43.3593231" lon="12.9965549"><ele>223.0</ele><time>2026-05-03T10:29:21.988Z</time></trkpt><trkpt lat="43.3591195" lon="12.9966635"><ele>223.0</ele><time>2026-05-03T10:29:22.988Z</time></trkpt><trkpt lat="43.3589248" lon="12.9967741"><ele>223.0</ele><time>2026-05-03T10:29:23.988Z</time></trkpt><trkpt lat="43.3587361" lon="12.9968911"><ele>224.33333333333331</ele><time>2026-05-03T10:29:24.988Z</time></trkpt><trkpt lat="43.3585542" lon="12.9970173"><ele>225.66666666666669</ele><time>2026-05-03T10:29:25.988Z</time></trkpt><trkpt lat="43.3583798" lon="12.9971539"><ele>227.0</ele><time>2026-05-03T10:29:26.987Z</time></trkpt><trkpt lat="43.3582091" lon="12.9972999"><ele>227.0</ele><time>2026-05-03T10:29:27.988Z</time></trkpt><trkpt lat="43.3580429" lon="12.9974547"><ele>227.0</ele><time>2026-05-03T10:29:28.987Z</time></trkpt><trkpt lat="43.3578785" lon="12.9976202"><ele>227.0</ele><time>2026-05-03T10:29:29.988Z</time></trkpt><trkpt lat="43.3577142" lon="12.997793"><ele>226.66666666666669</ele><time>2026-05-03T10:29:30.987Z</time></trkpt><trkpt lat="43.3575492" lon="12.9979707"><ele>226.33333333333331</ele><time>2026-05-03T10:29:31.987Z</time></trkpt><trkpt lat="43.357387" lon="12.9981494"><ele>226.0</ele><time>2026-05-03T10:29:32.987Z</time></trkpt><trkpt lat="43.3572264" lon="12.9983268"><ele>228.33333333333331</ele><time>2026-05-03T10:29:33.988Z</time></trkpt><trkpt lat="43.3570682" lon="12.9984945"><ele>230.66666666666669</ele><time>2026-05-03T10:29:34.987Z</time></trkpt><trkpt lat="43.3569129" lon="12.998653"><ele>233.0</ele><time>2026-05-03T10:29:35.988Z</time></trkpt><trkpt lat="43.3567585" lon="12.9988049"><ele>233.0</ele><time>2026-05-03T10:29:36.987Z</time></trkpt><trkpt lat="43.3565992" lon="12.9989553"><ele>233.0</ele><time>2026-05-03T10:29:37.987Z</time></trkpt><trkpt lat="43.356429" lon="12.9991"><ele>233.0</ele><time>2026-05-03T10:29:38.987Z</time></trkpt><trkpt lat="43.3562475" lon="12.9992332"><ele>236.33333333333334</ele><time>2026-05-03T10:29:39.988Z</time></trkpt><trkpt lat="43.3560513" lon="12.9993563"><ele>239.66666666666669</ele><time>2026-05-03T10:29:40.988Z</time></trkpt><trkpt lat="43.3558391" lon="12.9994667"><ele>243.0</ele><time>2026-05-03T10:29:41.988Z</time></trkpt><trkpt lat="43.3556154" lon="12.999559"><ele>236.5</ele><time>2026-05-03T10:29:42.988Z</time></trkpt><trkpt lat="43.3553815" lon="12.9996338"><ele>230.0</ele><time>2026-05-03T10:29:43.988Z</time></trkpt><trkpt lat="43.3551379" lon="12.9996849"><ele>230.0</ele><time>2026-05-03T10:29:44.988Z</time></trkpt><trkpt lat="43.354889" lon="12.9997106"><ele>230.0</ele><time>2026-05-03T10:29:45.988Z</time></trkpt><trkpt lat="43.3546356" lon="12.9997129"><ele>229.0</ele><time>2026-05-03T10:29:46.988Z</time></trkpt><trkpt lat="43.35438" lon="12.9996908"><ele>228.0</ele><time>2026-05-03T10:29:47.988Z</time></trkpt><trkpt lat="43.3541254" lon="12.9996446"><ele>227.0</ele><time>2026-05-03T10:29:48.988Z</time></trkpt><trkpt lat="43.3538717" lon="12.9995739"><ele>226.0</ele><time>2026-05-03T10:29:49.988Z</time></trkpt><trkpt lat="43.3536242" lon="12.9994786"><ele>226.0</ele><time>2026-05-03T10:29:50.987Z</time></trkpt><trkpt lat="43.3533808" lon="12.999362"><ele>226.0</ele><time>2026-05-03T10:29:51.987Z</time></trkpt><trkpt lat="43.353146" lon="12.9992242"><ele>226.5</ele><time>2026-05-03T10:29:52.988Z</time></trkpt><trkpt lat="43.3529229" lon="12.9990663"><ele>227.0</ele><time>2026-05-03T10:29:53.988Z</time></trkpt><trkpt lat="43.3527166" lon="12.9988925"><ele>227.0</ele><time>2026-05-03T10:29:54.988Z</time></trkpt><trkpt lat="43.3525245" lon="12.998704"><ele>227.0</ele><time>2026-05-03T10:29:55.988Z</time></trkpt><trkpt lat="43.3523453" lon="12.9985066"><ele>229.5</ele><time>2026-05-03T10:29:56.988Z</time></trkpt><trkpt lat="43.352178" lon="12.9982969"><ele>232.0</ele><time>2026-05-03T10:29:57.988Z</time></trkpt><trkpt lat="43.3520226" lon="12.9980745"><ele>232.0</ele><time>2026-05-03T10:29:58.988Z</time></trkpt><trkpt lat="43.3518798" lon="12.9978376"><ele>232.0</ele><time>2026-05-03T10:29:59.987Z</time></trkpt><trkpt lat="43.3517434" lon="12.9975891"><ele>231.5</ele><time>2026-05-03T10:30:00.987Z</time></trkpt><trkpt lat="43.3516105" lon="12.9973309"><ele>231.0</ele><time>2026-05-03T10:30:01.987Z</time></trkpt><trkpt lat="43.3514804" lon="12.9970744"><ele>231.0</ele><time>2026-05-03T10:30:02.988Z</time></trkpt><trkpt lat="43.3513515" lon="12.996816"><ele>231.0</ele><time>2026-05-03T10:30:03.987Z</time></trkpt><trkpt lat="43.3512228" lon="12.996557"><ele>229.0</ele><time>2026-05-03T10:30:04.987Z</time></trkpt><trkpt lat="43.3510941" lon="12.9962964"><ele>227.0</ele><time>2026-05-03T10:30:05.988Z</time></trkpt><trkpt lat="43.3509659" lon="12.9960365"><ele>228.5</ele><time>2026-05-03T10:30:06.987Z</time></trkpt><trkpt lat="43.3508388" lon="12.9957771"><ele>230.0</ele><time>2026-05-03T10:30:07.988Z</time></trkpt><trkpt lat="43.3507129" lon="12.99552"><ele>230.0</ele><time>2026-05-03T10:30:08.987Z</time></trkpt><trkpt lat="43.3505878" lon="12.9952645"><ele>230.0</ele><time>2026-05-03T10:30:09.987Z</time></trkpt><trkpt lat="43.3504622" lon="12.9950075"><ele>230.0</ele><time>2026-05-03T10:30:10.987Z</time></trkpt><trkpt lat="43.3503341" lon="12.994752"><ele>231.5</ele><time>2026-05-03T10:30:11.988Z</time></trkpt><trkpt lat="43.3502049" lon="12.9944958"><ele>233.0</ele><time>2026-05-03T10:30:12.988Z</time></trkpt><trkpt lat="43.3500743" lon="12.994238"><ele>249.0</ele><time>2026-05-03T10:30:13.987Z</time></trkpt><trkpt lat="43.3499432" lon="12.9939799"><ele>265.0</ele><time>2026-05-03T10:30:14.988Z</time></trkpt><trkpt lat="43.349812" lon="12.9937223"><ele>272.5</ele><time>2026-05-03T10:30:15.987Z</time></trkpt><trkpt lat="43.3496815" lon="12.9934664"><ele>280.0</ele><time>2026-05-03T10:30:16.988Z</time></trkpt><trkpt lat="43.34955" lon="12.9932122"><ele>280.0</ele><time>2026-05-03T10:30:17.987Z</time></trkpt><trkpt lat="43.3494189" lon="12.9929601"><ele>280.0</ele><time>2026-05-03T10:30:18.988Z</time></trkpt><trkpt lat="43.3492894" lon="12.992708"><ele>290.66666666666663</ele><time>2026-05-03T10:30:19.988Z</time></trkpt><trkpt lat="43.3491602" lon="12.9924572"><ele>301.3333333333333</ele><time>2026-05-03T10:30:20.988Z</time></trkpt><trkpt lat="43.3490293" lon="12.9922099"><ele>312.0</ele><time>2026-05-03T10:30:21.987Z</time></trkpt><trkpt lat="43.3488981" lon="12.9919654"><ele>306.0</ele><time>2026-05-03T10:30:22.988Z</time></trkpt><trkpt lat="43.3486366" lon="12.9914824"><ele>300.0</ele><time>2026-05-03T10:30:24.988Z</time></trkpt><trkpt lat="43.3485047" lon="12.9912439"><ele>300.0</ele><time>2026-05-03T10:30:25.988Z</time></trkpt><trkpt lat="43.3483744" lon="12.9910072"><ele>300.0</ele><time>2026-05-03T10:30:26.987Z</time></trkpt><trkpt lat="43.3482445" lon="12.9907715"><ele>300.0</ele><time>2026-05-03T10:30:27.987Z</time></trkpt><trkpt lat="43.3481138" lon="12.9905384"><ele>288.6666666666667</ele><time>2026-05-03T10:30:28.988Z</time></trkpt><trkpt lat="43.3479819" lon="12.9903068"><ele>277.33333333333337</ele><time>2026-05-03T10:30:29.987Z</time></trkpt><trkpt lat="43.3478486" lon="12.9900759"><ele>266.0</ele><time>2026-05-03T10:30:30.987Z</time></trkpt><trkpt lat="43.3477164" lon="12.9898475"><ele>266.0</ele><time>2026-05-03T10:30:31.988Z</time></trkpt><trkpt lat="43.3475836" lon="12.9896201"><ele>266.0</ele><time>2026-05-03T10:30:32.988Z</time></trkpt><trkpt lat="43.3474498" lon="12.9893953"><ele>266.0</ele><time>2026-05-03T10:30:33.988Z</time></trkpt><trkpt lat="43.3473176" lon="12.9891731"><ele>257.33333333333337</ele><time>2026-05-03T10:30:34.987Z</time></trkpt><trkpt lat="43.3471871" lon="12.9889492"><ele>248.66666666666669</ele><time>2026-05-03T10:30:35.988Z</time></trkpt><trkpt lat="43.3470619" lon="12.9887271"><ele>240.0</ele><time>2026-05-03T10:30:36.988Z</time></trkpt><trkpt lat="43.346944" lon="12.9885054"><ele>240.0</ele><time>2026-05-03T10:30:37.987Z</time></trkpt><trkpt lat="43.3468964" lon="12.9876228"><ele>240.33333333333331</ele><time>2026-05-03T10:30:39.987Z</time></trkpt><trkpt lat="43.3468057" lon="12.9873371"><ele>240.66666666666666</ele><time>2026-05-03T10:30:40.988Z</time></trkpt><trkpt lat="43.3467305" lon="12.9870586"><ele>241.0</ele><time>2026-05-03T10:30:41.987Z</time></trkpt><trkpt lat="43.3466492" lon="12.9867811"><ele>241.0</ele><time>2026-05-03T10:30:42.987Z</time></trkpt><trkpt lat="43.3465693" lon="12.9865048"><ele>241.0</ele><time>2026-05-03T10:30:43.987Z</time></trkpt><trkpt lat="43.3464956" lon="12.9862355"><ele>241.0</ele><time>2026-05-03T10:30:44.987Z</time></trkpt><trkpt lat="43.3464219" lon="12.9859682"><ele>238.66666666666666</ele><time>2026-05-03T10:30:45.988Z</time></trkpt><trkpt lat="43.346347" lon="12.9857014"><ele>236.33333333333331</ele><time>2026-05-03T10:30:46.987Z</time></trkpt><trkpt lat="43.3462732" lon="12.9854323"><ele>234.0</ele><time>2026-05-03T10:30:47.988Z</time></trkpt><trkpt lat="43.3462021" lon="12.9851674"><ele>233.33333333333331</ele><time>2026-05-03T10:30:48.988Z</time></trkpt><trkpt lat="43.3461325" lon="12.9849035"><ele>232.66666666666666</ele><time>2026-05-03T10:30:49.988Z</time></trkpt><trkpt lat="43.3460623" lon="12.9846437"><ele>232.0</ele><time>2026-05-03T10:30:50.988Z</time></trkpt><trkpt lat="43.3459918" lon="12.9843815"><ele>234.66666666666666</ele><time>2026-05-03T10:30:51.988Z</time></trkpt><trkpt lat="43.3459229" lon="12.984124"><ele>237.33333333333331</ele><time>2026-05-03T10:30:52.988Z</time></trkpt><trkpt lat="43.3458542" lon="12.9838668"><ele>240.0</ele><time>2026-05-03T10:30:53.988Z</time></trkpt><trkpt lat="43.3457852" lon="12.9836123"><ele>240.0</ele><time>2026-05-03T10:30:54.987Z</time></trkpt><trkpt lat="43.3457157" lon="12.9833578"><ele>240.0</ele><time>2026-05-03T10:30:55.988Z</time></trkpt><trkpt lat="43.3456462" lon="12.9831048"><ele>240.0</ele><time>2026-05-03T10:30:56.987Z</time></trkpt><trkpt lat="43.3455759" lon="12.9828499"><ele>240.0</ele><time>2026-05-03T10:30:57.988Z</time></trkpt><trkpt lat="43.345504" lon="12.9825901"><ele>240.0</ele><time>2026-05-03T10:30:58.988Z</time></trkpt><trkpt lat="43.3454312" lon="12.9823274"><ele>240.0</ele><time>2026-05-03T10:30:59.988Z</time></trkpt><trkpt lat="43.3453572" lon="12.9820606"><ele>242.33333333333331</ele><time>2026-05-03T10:31:00.988Z</time></trkpt><trkpt lat="43.345282" lon="12.9817893"><ele>244.66666666666666</ele><time>2026-05-03T10:31:01.988Z</time></trkpt><trkpt lat="43.3452054" lon="12.9815141"><ele>247.0</ele><time>2026-05-03T10:31:02.987Z</time></trkpt><trkpt lat="43.3451304" lon="12.9812382"><ele>251.66666666666666</ele><time>2026-05-03T10:31:03.988Z</time></trkpt><trkpt lat="43.3450556" lon="12.980963"><ele>256.3333333333333</ele><time>2026-05-03T10:31:04.988Z</time></trkpt><trkpt lat="43.3449823" lon="12.9806909"><ele>261.0</ele><time>2026-05-03T10:31:05.987Z</time></trkpt><trkpt lat="43.3449105" lon="12.9804231"><ele>259.6666666666667</ele><time>2026-05-03T10:31:06.988Z</time></trkpt><trkpt lat="43.34484" lon="12.9801555"><ele>258.33333333333337</ele><time>2026-05-03T10:31:07.988Z</time></trkpt><trkpt lat="43.3447699" lon="12.9798879"><ele>257.0</ele><time>2026-05-03T10:31:08.988Z</time></trkpt><trkpt lat="43.344701" lon="12.9796194"><ele>257.0</ele><time>2026-05-03T10:31:09.988Z</time></trkpt><trkpt lat="43.3446336" lon="12.9793482"><ele>257.0</ele><time>2026-05-03T10:31:10.988Z</time></trkpt><trkpt lat="43.3445666" lon="12.9790744"><ele>257.0</ele><time>2026-05-03T10:31:11.988Z</time></trkpt><trkpt lat="43.3444786" lon="12.9787796"><ele>256.6666666666667</ele><time>2026-05-03T10:31:12.987Z</time></trkpt><trkpt lat="43.3444167" lon="12.9785009"><ele>256.3333333333333</ele><time>2026-05-03T10:31:13.987Z</time></trkpt><trkpt lat="43.3443612" lon="12.9782159"><ele>256.0</ele><time>2026-05-03T10:31:14.988Z</time></trkpt><trkpt lat="43.3443095" lon="12.9779293"><ele>256.0</ele><time>2026-05-03T10:31:15.987Z</time></trkpt><trkpt lat="43.3442632" lon="12.9776421"><ele>256.0</ele><time>2026-05-03T10:31:16.987Z</time></trkpt><trkpt lat="43.3442212" lon="12.9773559"><ele>256.0</ele><time>2026-05-03T10:31:17.988Z</time></trkpt><trkpt lat="43.344182" lon="12.9770694"><ele>256.3333333333333</ele><time>2026-05-03T10:31:18.987Z</time></trkpt><trkpt lat="43.3441445" lon="12.9767806"><ele>256.6666666666667</ele><time>2026-05-03T10:31:19.987Z</time></trkpt><trkpt lat="43.3441145" lon="12.9764872"><ele>257.0</ele><time>2026-05-03T10:31:20.988Z</time></trkpt><trkpt lat="43.3440934" lon="12.9762018"><ele>257.0</ele><time>2026-05-03T10:31:21.988Z</time></trkpt><trkpt lat="43.3440719" lon="12.975914"><ele>257.0</ele><time>2026-05-03T10:31:22.988Z</time></trkpt><trkpt lat="43.3440535" lon="12.9756274"><ele>257.0</ele><time>2026-05-03T10:31:23.988Z</time></trkpt><trkpt lat="43.3440411" lon="12.9753439"><ele>257.0</ele><time>2026-05-03T10:31:24.988Z</time></trkpt><trkpt lat="43.3440329" lon="12.9750575"><ele>257.0</ele><time>2026-05-03T10:31:25.987Z</time></trkpt><trkpt lat="43.3440302" lon="12.9747701"><ele>257.0</ele><time>2026-05-03T10:31:26.988Z</time></trkpt><trkpt lat="43.3440331" lon="12.9744837"><ele>256.6666666666667</ele><time>2026-05-03T10:31:27.988Z</time></trkpt><trkpt lat="43.3440409" lon="12.9741972"><ele>256.3333333333333</ele><time>2026-05-03T10:31:28.988Z</time></trkpt><trkpt lat="43.3440523" lon="12.9739068"><ele>256.0</ele><time>2026-05-03T10:31:29.988Z</time></trkpt><trkpt lat="43.3440685" lon="12.9736141"><ele>257.66666666666663</ele><time>2026-05-03T10:31:30.987Z</time></trkpt><trkpt lat="43.3440888" lon="12.9733202"><ele>259.3333333333333</ele><time>2026-05-03T10:31:31.988Z</time></trkpt><trkpt lat="43.3441126" lon="12.9730275"><ele>261.0</ele><time>2026-05-03T10:31:32.987Z</time></trkpt><trkpt lat="43.3441389" lon="12.9727362"><ele>260.6666666666667</ele><time>2026-05-03T10:31:33.987Z</time></trkpt><trkpt lat="43.3441668" lon="12.9724449"><ele>260.33333333333337</ele><time>2026-05-03T10:31:34.987Z</time></trkpt><trkpt lat="43.3441939" lon="12.9721542"><ele>260.0</ele><time>2026-05-03T10:31:35.988Z</time></trkpt><trkpt lat="43.3442191" lon="12.971865"><ele>259.6666666666667</ele><time>2026-05-03T10:31:36.987Z</time></trkpt><trkpt lat="43.3442447" lon="12.9715738"><ele>259.3333333333333</ele><time>2026-05-03T10:31:37.988Z</time></trkpt><trkpt lat="43.3442707" lon="12.9712826"><ele>259.0</ele><time>2026-05-03T10:31:38.988Z</time></trkpt><trkpt lat="43.3442969" lon="12.9709904"><ele>260.0</ele><time>2026-05-03T10:31:39.988Z</time></trkpt><trkpt lat="43.3443236" lon="12.9706969"><ele>261.0</ele><time>2026-05-03T10:31:40.988Z</time></trkpt><trkpt lat="43.3443499" lon="12.9704045"><ele>262.0</ele><time>2026-05-03T10:31:41.987Z</time></trkpt><trkpt lat="43.344377" lon="12.9701099"><ele>263.0</ele><time>2026-05-03T10:31:42.988Z</time></trkpt><trkpt lat="43.3444039" lon="12.9698146"><ele>264.0</ele><time>2026-05-03T10:31:43.987Z</time></trkpt><trkpt lat="43.3444315" lon="12.969517"><ele>265.0</ele><time>2026-05-03T10:31:44.988Z</time></trkpt><trkpt lat="43.3444595" lon="12.9692148"><ele>266.3333333333333</ele><time>2026-05-03T10:31:45.987Z</time></trkpt><trkpt lat="43.3444862" lon="12.9689121"><ele>267.6666666666667</ele><time>2026-05-03T10:31:46.987Z</time></trkpt><trkpt lat="43.3445132" lon="12.9686053"><ele>269.0</ele><time>2026-05-03T10:31:47.988Z</time></trkpt><trkpt lat="43.3445406" lon="12.9682986"><ele>269.0</ele><time>2026-05-03T10:31:48.987Z</time></trkpt><trkpt lat="43.3445693" lon="12.9679923"><ele>269.0</ele><time>2026-05-03T10:31:49.988Z</time></trkpt><trkpt lat="43.3445976" lon="12.9676856"><ele>269.0</ele><time>2026-05-03T10:31:50.988Z</time></trkpt><trkpt lat="43.3446241" lon="12.9673785"><ele>268.6666666666667</ele><time>2026-05-03T10:31:51.987Z</time></trkpt><trkpt lat="43.3446505" lon="12.967071"><ele>268.3333333333333</ele><time>2026-05-03T10:31:52.988Z</time></trkpt><trkpt lat="43.3446777" lon="12.9667653"><ele>268.0</ele><time>2026-05-03T10:31:53.987Z</time></trkpt><trkpt lat="43.3447063" lon="12.9664611"><ele>269.66666666666663</ele><time>2026-05-03T10:31:54.987Z</time></trkpt><trkpt lat="43.3447358" lon="12.9661599"><ele>271.3333333333333</ele><time>2026-05-03T10:31:55.987Z</time></trkpt><trkpt lat="43.3447647" lon="12.96586"><ele>273.0</ele><time>2026-05-03T10:31:56.988Z</time></trkpt><trkpt lat="43.3447928" lon="12.9655625"><ele>273.0</ele><time>2026-05-03T10:31:57.988Z</time></trkpt><trkpt lat="43.3448198" lon="12.965268"><ele>273.0</ele><time>2026-05-03T10:31:58.987Z</time></trkpt><trkpt lat="43.3448464" lon="12.9649763"><ele>273.0</ele><time>2026-05-03T10:31:59.988Z</time></trkpt><trkpt lat="43.3448726" lon="12.9646875"><ele>272.3333333333333</ele><time>2026-05-03T10:32:00.988Z</time></trkpt><trkpt lat="43.3448989" lon="12.9644017"><ele>271.66666666666663</ele><time>2026-05-03T10:32:01.988Z</time></trkpt><trkpt lat="43.3449257" lon="12.9641186"><ele>271.0</ele><time>2026-05-03T10:32:02.987Z</time></trkpt><trkpt lat="43.344951" lon="12.9638407"><ele>271.0</ele><time>2026-05-03T10:32:03.988Z</time></trkpt><trkpt lat="43.3449745" lon="12.9635651"><ele>271.0</ele><time>2026-05-03T10:32:04.988Z</time></trkpt><trkpt lat="43.3449955" lon="12.9632924"><ele>271.0</ele><time>2026-05-03T10:32:05.987Z</time></trkpt><trkpt lat="43.3450126" lon="12.9630215"><ele>271.0</ele><time>2026-05-03T10:32:06.987Z</time></trkpt><trkpt lat="43.3450245" lon="12.9627502"><ele>271.0</ele><time>2026-05-03T10:32:07.987Z</time></trkpt><trkpt lat="43.3450313" lon="12.9624798"><ele>271.0</ele><time>2026-05-03T10:32:08.988Z</time></trkpt><trkpt lat="43.3450332" lon="12.9622069"><ele>270.66666666666663</ele><time>2026-05-03T10:32:09.988Z</time></trkpt><trkpt lat="43.3450303" lon="12.9619334"><ele>270.3333333333333</ele><time>2026-05-03T10:32:10.988Z</time></trkpt><trkpt lat="43.3450238" lon="12.9616585"><ele>270.0</ele><time>2026-05-03T10:32:11.987Z</time></trkpt><trkpt lat="43.3450142" lon="12.9613822"><ele>270.0</ele><time>2026-05-03T10:32:12.987Z</time></trkpt><trkpt lat="43.3450015" lon="12.9611043"><ele>270.0</ele><time>2026-05-03T10:32:13.987Z</time></trkpt><trkpt lat="43.3449847" lon="12.9608254"><ele>270.0</ele><time>2026-05-03T10:32:14.988Z</time></trkpt><trkpt lat="43.3449627" lon="12.9605458"><ele>269.0</ele><time>2026-05-03T10:32:15.987Z</time></trkpt><trkpt lat="43.3449336" lon="12.9602664"><ele>268.0</ele><time>2026-05-03T10:32:16.987Z</time></trkpt><trkpt lat="43.3448989" lon="12.9599877"><ele>267.0</ele><time>2026-05-03T10:32:17.987Z</time></trkpt><trkpt lat="43.3448616" lon="12.9597085"><ele>266.3333333333333</ele><time>2026-05-03T10:32:18.988Z</time></trkpt><trkpt lat="43.3448203" lon="12.9594287"><ele>265.66666666666663</ele><time>2026-05-03T10:32:19.987Z</time></trkpt><trkpt lat="43.344774" lon="12.9591529"><ele>265.0</ele><time>2026-05-03T10:32:20.988Z</time></trkpt><trkpt lat="43.3447228" lon="12.9588781"><ele>261.66666666666663</ele><time>2026-05-03T10:32:21.988Z</time></trkpt><trkpt lat="43.3446677" lon="12.9586066"><ele>258.3333333333333</ele><time>2026-05-03T10:32:22.988Z</time></trkpt><trkpt lat="43.3446083" lon="12.9583383"><ele>255.0</ele><time>2026-05-03T10:32:23.987Z</time></trkpt><trkpt lat="43.3445454" lon="12.9580713"><ele>254.0</ele><time>2026-05-03T10:32:24.987Z</time></trkpt><trkpt lat="43.3444813" lon="12.9578075"><ele>253.0</ele><time>2026-05-03T10:32:25.988Z</time></trkpt><trkpt lat="43.3444172" lon="12.9575438"><ele>252.0</ele><time>2026-05-03T10:32:26.988Z</time></trkpt><trkpt lat="43.344353" lon="12.9572782"><ele>251.66666666666669</ele><time>2026-05-03T10:32:27.988Z</time></trkpt><trkpt lat="43.3442897" lon="12.9570127"><ele>251.33333333333334</ele><time>2026-05-03T10:32:28.988Z</time></trkpt><trkpt lat="43.3442259" lon="12.9567454"><ele>251.0</ele><time>2026-05-03T10:32:29.987Z</time></trkpt><trkpt lat="43.344162" lon="12.9564778"><ele>251.0</ele><time>2026-05-03T10:32:30.987Z</time></trkpt><trkpt lat="43.3440977" lon="12.9562091"><ele>251.0</ele><time>2026-05-03T10:32:31.988Z</time></trkpt><trkpt lat="43.3440323" lon="12.9559401"><ele>251.0</ele><time>2026-05-03T10:32:32.988Z</time></trkpt><trkpt lat="43.3439668" lon="12.9556714"><ele>251.66666666666669</ele><time>2026-05-03T10:32:33.987Z</time></trkpt><trkpt lat="43.343902" lon="12.9554028"><ele>252.33333333333331</ele><time>2026-05-03T10:32:34.988Z</time></trkpt><trkpt lat="43.343838" lon="12.9551338"><ele>253.0</ele><time>2026-05-03T10:32:35.988Z</time></trkpt><trkpt lat="43.3437751" lon="12.9548691"><ele>254.33333333333331</ele><time>2026-05-03T10:32:36.988Z</time></trkpt><trkpt lat="43.3437144" lon="12.9546158"><ele>255.66666666666669</ele><time>2026-05-03T10:32:37.987Z</time></trkpt><trkpt lat="43.3436562" lon="12.9543714"><ele>257.0</ele><time>2026-05-03T10:32:38.988Z</time></trkpt><trkpt lat="43.3436005" lon="12.9541372"><ele>259.0</ele><time>2026-05-03T10:32:39.988Z</time></trkpt><trkpt lat="43.3435449" lon="12.9539068"><ele>261.0</ele><time>2026-05-03T10:32:40.988Z</time></trkpt><trkpt lat="43.3434899" lon="12.9536799"><ele>263.0</ele><time>2026-05-03T10:32:41.987Z</time></trkpt><trkpt lat="43.3434374" lon="12.9534573"><ele>263.6666666666667</ele><time>2026-05-03T10:32:42.988Z</time></trkpt><trkpt lat="43.3433902" lon="12.9532433"><ele>264.3333333333333</ele><time>2026-05-03T10:32:43.988Z</time></trkpt><trkpt lat="43.3433454" lon="12.9530325"><ele>265.0</ele><time>2026-05-03T10:32:44.988Z</time></trkpt><trkpt lat="43.3433" lon="12.9528243"><ele>265.0</ele><time>2026-05-03T10:32:45.988Z</time></trkpt><trkpt lat="43.3432538" lon="12.9526189"><ele>265.0</ele><time>2026-05-03T10:32:46.987Z</time></trkpt><trkpt lat="43.3432081" lon="12.9524164"><ele>265.0</ele><time>2026-05-03T10:32:47.987Z</time></trkpt><trkpt lat="43.3431652" lon="12.952223"><ele>265.5</ele><time>2026-05-03T10:32:48.987Z</time></trkpt><trkpt lat="43.3431292" lon="12.9520451"><ele>266.0</ele><time>2026-05-03T10:32:49.988Z</time></trkpt><trkpt lat="43.34311" lon="12.9518843"><ele>266.5</ele><time>2026-05-03T10:32:50.987Z</time></trkpt><trkpt lat="43.3431149" lon="12.9517368"><ele>267.0</ele><time>2026-05-03T10:32:51.987Z</time></trkpt><trkpt lat="43.3431427" lon="12.9515996"><ele>267.4</ele><time>2026-05-03T10:32:52.988Z</time></trkpt><trkpt lat="43.3431904" lon="12.9514722"><ele>267.79999999999995</ele><time>2026-05-03T10:32:53.988Z</time></trkpt><trkpt lat="43.3432576" lon="12.9513558"><ele>268.2</ele><time>2026-05-03T10:32:54.988Z</time></trkpt><trkpt lat="43.3433409" lon="12.951257"><ele>268.59999999999997</ele><time>2026-05-03T10:32:55.987Z</time></trkpt><trkpt lat="43.3434379" lon="12.9511826"><ele>269.0</ele><time>2026-05-03T10:32:56.988Z</time></trkpt><trkpt lat="43.3435464" lon="12.9511321"><ele>269.0</ele><time>2026-05-03T10:32:57.987Z</time></trkpt><trkpt lat="43.3436559" lon="12.9511053"><ele>269.0</ele><time>2026-05-03T10:32:58.987Z</time></trkpt><trkpt lat="43.3437585" lon="12.9511011"><ele>269.0</ele><time>2026-05-03T10:32:59.988Z</time></trkpt><trkpt lat="43.3438446" lon="12.9511296"><ele>269.0</ele><time>2026-05-03T10:33:00.987Z</time></trkpt><trkpt lat="43.3439086" lon="12.9511896"><ele>269.0</ele><time>2026-05-03T10:33:01.988Z</time></trkpt><trkpt lat="43.343948" lon="12.951279"><ele>268.8</ele><time>2026-05-03T10:33:02.988Z</time></trkpt><trkpt lat="43.3439675" lon="12.951394"><ele>268.59999999999997</ele><time>2026-05-03T10:33:03.987Z</time></trkpt><trkpt lat="43.343972" lon="12.9515282"><ele>268.4</ele><time>2026-05-03T10:33:04.987Z</time></trkpt><trkpt lat="43.3439738" lon="12.9516781"><ele>268.2</ele><time>2026-05-03T10:33:05.988Z</time></trkpt><trkpt lat="43.3439744" lon="12.9518406"><ele>268.0</ele><time>2026-05-03T10:33:06.988Z</time></trkpt><trkpt lat="43.3439724" lon="12.9520152"><ele>267.25</ele><time>2026-05-03T10:33:07.988Z</time></trkpt><trkpt lat="43.3439697" lon="12.9521968"><ele>266.5</ele><time>2026-05-03T10:33:08.988Z</time></trkpt><trkpt lat="43.3439671" lon="12.952385"><ele>265.75</ele><time>2026-05-03T10:33:09.987Z</time></trkpt><trkpt lat="43.3439639" lon="12.9525762"><ele>265.0</ele><time>2026-05-03T10:33:10.988Z</time></trkpt><trkpt lat="43.3439602" lon="12.9527705"><ele>265.0</ele><time>2026-05-03T10:33:11.988Z</time></trkpt><trkpt lat="43.3439551" lon="12.9529688"><ele>265.0</ele><time>2026-05-03T10:33:12.988Z</time></trkpt><trkpt lat="43.3439493" lon="12.9531708"><ele>265.0</ele><time>2026-05-03T10:33:13.987Z</time></trkpt><trkpt lat="43.3439424" lon="12.9533747"><ele>265.0</ele><time>2026-05-03T10:33:14.987Z</time></trkpt><trkpt lat="43.3439371" lon="12.9535733"><ele>264.75</ele><time>2026-05-03T10:33:15.987Z</time></trkpt><trkpt lat="43.3439384" lon="12.9537604"><ele>264.5</ele><time>2026-05-03T10:33:16.988Z</time></trkpt><trkpt lat="43.3439515" lon="12.9539322"><ele>264.25</ele><time>2026-05-03T10:33:17.987Z</time></trkpt><trkpt lat="43.3439773" lon="12.9540842"><ele>264.0</ele><time>2026-05-03T10:33:18.988Z</time></trkpt><trkpt lat="43.344005" lon="12.9542158"><ele>262.8333333333333</ele><time>2026-05-03T10:33:19.987Z</time></trkpt><trkpt lat="43.3440221" lon="12.9543316"><ele>261.6666666666667</ele><time>2026-05-03T10:33:20.988Z</time></trkpt><trkpt lat="43.3440255" lon="12.9544354"><ele>260.5</ele><time>2026-05-03T10:33:21.988Z</time></trkpt><trkpt lat="43.3440124" lon="12.954531"><ele>259.33333333333337</ele><time>2026-05-03T10:33:22.988Z</time></trkpt><trkpt lat="43.3439776" lon="12.9546219"><ele>258.1666666666667</ele><time>2026-05-03T10:33:23.988Z</time></trkpt><trkpt lat="43.3439209" lon="12.9546985"><ele>257.0</ele><time>2026-05-03T10:33:24.987Z</time></trkpt><trkpt lat="43.3438481" lon="12.9547582"><ele>257.0</ele><time>2026-05-03T10:33:25.988Z</time></trkpt><trkpt lat="43.3437636" lon="12.9548074"><ele>257.0</ele><time>2026-05-03T10:33:26.988Z</time></trkpt><trkpt lat="43.343672" lon="12.9548482"><ele>257.0</ele><time>2026-05-03T10:33:27.987Z</time></trkpt><trkpt lat="43.3435817" lon="12.9548859"><ele>257.0</ele><time>2026-05-03T10:33:28.988Z</time></trkpt><trkpt lat="43.3434881" lon="12.9549166"><ele>257.0</ele><time>2026-05-03T10:33:29.987Z</time></trkpt><trkpt lat="43.3433956" lon="12.954928"><ele>257.0</ele><time>2026-05-03T10:33:30.988Z</time></trkpt><trkpt lat="43.3433046" lon="12.9549122"><ele>257.0</ele><time>2026-05-03T10:33:31.987Z</time></trkpt><trkpt lat="43.3432191" lon="12.9548712"><ele>257.0</ele><time>2026-05-03T10:33:32.987Z</time></trkpt><trkpt lat="43.3431371" lon="12.9548128"><ele>257.0</ele><time>2026-05-03T10:33:33.988Z</time></trkpt><trkpt lat="43.3430592" lon="12.9547367"><ele>257.0</ele><time>2026-05-03T10:33:34.988Z</time></trkpt><trkpt lat="43.3429893" lon="12.9546403"><ele>257.8</ele><time>2026-05-03T10:33:35.988Z</time></trkpt><trkpt lat="43.3429299" lon="12.9545268"><ele>258.6</ele><time>2026-05-03T10:33:36.988Z</time></trkpt><trkpt lat="43.3428796" lon="12.9543985"><ele>259.40000000000003</ele><time>2026-05-03T10:33:37.988Z</time></trkpt><trkpt lat="43.3428334" lon="12.9542634"><ele>260.2</ele><time>2026-05-03T10:33:38.988Z</time></trkpt><trkpt lat="43.3427872" lon="12.9541259"><ele>261.0</ele><time>2026-05-03T10:33:39.988Z</time></trkpt><trkpt lat="43.3427387" lon="12.9539865"><ele>261.5</ele><time>2026-05-03T10:33:40.987Z</time></trkpt><trkpt lat="43.3426877" lon="12.9538464"><ele>262.0</ele><time>2026-05-03T10:33:41.988Z</time></trkpt><trkpt lat="43.342629" lon="12.9537093"><ele>262.5</ele><time>2026-05-03T10:33:42.987Z</time></trkpt><trkpt lat="43.3425613" lon="12.9535796"><ele>263.0</ele><time>2026-05-03T10:33:43.988Z</time></trkpt><trkpt lat="43.3424849" lon="12.9534598"><ele>263.4</ele><time>2026-05-03T10:33:44.987Z</time></trkpt><trkpt lat="43.3424024" lon="12.9533518"><ele>263.8</ele><time>2026-05-03T10:33:45.987Z</time></trkpt><trkpt lat="43.3423155" lon="12.9532556"><ele>264.2</ele><time>2026-05-03T10:33:46.988Z</time></trkpt><trkpt lat="43.3422264" lon="12.9531709"><ele>264.6</ele><time>2026-05-03T10:33:47.988Z</time></trkpt><trkpt lat="43.3421372" lon="12.9530931"><ele>265.0</ele><time>2026-05-03T10:33:48.988Z</time></trkpt><trkpt lat="43.3420567" lon="12.9530133"><ele>265.0</ele><time>2026-05-03T10:33:49.987Z</time></trkpt><trkpt lat="43.3419872" lon="12.9529208"><ele>265.0</ele><time>2026-05-03T10:33:50.988Z</time></trkpt><trkpt lat="43.3419324" lon="12.9528164"><ele>265.0</ele><time>2026-05-03T10:33:51.988Z</time></trkpt><trkpt lat="43.3418911" lon="12.9527021"><ele>265.0</ele><time>2026-05-03T10:33:52.988Z</time></trkpt><trkpt lat="43.341868" lon="12.952582"><ele>265.0</ele><time>2026-05-03T10:33:53.988Z</time></trkpt><trkpt lat="43.341865" lon="12.9524621"><ele>265.2</ele><time>2026-05-03T10:33:54.988Z</time></trkpt><trkpt lat="43.3418805" lon="12.9523412"><ele>265.4</ele><time>2026-05-03T10:33:55.988Z</time></trkpt><trkpt lat="43.3419124" lon="12.9522196"><ele>265.6</ele><time>2026-05-03T10:33:56.987Z</time></trkpt><trkpt lat="43.3419583" lon="12.9520987"><ele>265.8</ele><time>2026-05-03T10:33:57.988Z</time></trkpt><trkpt lat="43.3420167" lon="12.9519859"><ele>266.0</ele><time>2026-05-03T10:33:58.987Z</time></trkpt><trkpt lat="43.3420863" lon="12.951892"><ele>266.0</ele><time>2026-05-03T10:33:59.987Z</time></trkpt><trkpt lat="43.3421634" lon="12.9518224"><ele>266.0</ele><time>2026-05-03T10:34:00.988Z</time></trkpt><trkpt lat="43.3422471" lon="12.9517785"><ele>266.0</ele><time>2026-05-03T10:34:01.987Z</time></trkpt><trkpt lat="43.3423358" lon="12.9517557"><ele>266.0</ele><time>2026-05-03T10:34:02.988Z</time></trkpt><trkpt lat="43.3424254" lon="12.9517525"><ele>266.0</ele><time>2026-05-03T10:34:03.987Z</time></trkpt><trkpt lat="43.3425155" lon="12.9517667"><ele>266.2</ele><time>2026-05-03T10:34:04.987Z</time></trkpt><trkpt lat="43.3426062" lon="12.9518018"><ele>266.40000000000003</ele><time>2026-05-03T10:34:05.987Z</time></trkpt><trkpt lat="43.3426965" lon="12.9518579"><ele>266.6</ele><time>2026-05-03T10:34:06.988Z</time></trkpt><trkpt lat="43.3427821" lon="12.9519352"><ele>266.8</ele><time>2026-05-03T10:34:07.987Z</time></trkpt><trkpt lat="43.342857" lon="12.952035"><ele>267.0</ele><time>2026-05-03T10:34:08.987Z</time></trkpt><trkpt lat="43.3429191" lon="12.9521512"><ele>267.0</ele><time>2026-05-03T10:34:09.987Z</time></trkpt><trkpt lat="43.3429701" lon="12.9522788"><ele>267.0</ele><time>2026-05-03T10:34:10.987Z</time></trkpt><trkpt lat="43.3430142" lon="12.952416"><ele>267.0</ele><time>2026-05-03T10:34:11.988Z</time></trkpt><trkpt lat="43.343056" lon="12.9525671"><ele>267.0</ele><time>2026-05-03T10:34:12.987Z</time></trkpt><trkpt lat="43.3430994" lon="12.9527278"><ele>266.5</ele><time>2026-05-03T10:34:13.988Z</time></trkpt><trkpt lat="43.3431476" lon="12.9529002"><ele>266.0</ele><time>2026-05-03T10:34:14.988Z</time></trkpt><trkpt lat="43.3432027" lon="12.9530835"><ele>265.5</ele><time>2026-05-03T10:34:15.988Z</time></trkpt><trkpt lat="43.3432652" lon="12.9532835"><ele>265.0</ele><time>2026-05-03T10:34:16.988Z</time></trkpt><trkpt lat="43.3433304" lon="12.9534992"><ele>264.3333333333333</ele><time>2026-05-03T10:34:17.988Z</time></trkpt><trkpt lat="43.3433929" lon="12.9537289"><ele>263.6666666666667</ele><time>2026-05-03T10:34:18.988Z</time></trkpt><trkpt lat="43.3434552" lon="12.9539759"><ele>263.0</ele><time>2026-05-03T10:34:19.987Z</time></trkpt><trkpt lat="43.3435165" lon="12.954243"><ele>261.0</ele><time>2026-05-03T10:34:20.988Z</time></trkpt><trkpt lat="43.343571" lon="12.9545305"><ele>259.0</ele><time>2026-05-03T10:34:21.987Z</time></trkpt><trkpt lat="43.3436315" lon="12.9548287"><ele>257.0</ele><time>2026-05-03T10:34:22.987Z</time></trkpt><trkpt lat="43.3437011" lon="12.9551347"><ele>255.5</ele><time>2026-05-03T10:34:23.988Z</time></trkpt><trkpt lat="43.3437741" lon="12.9554403"><ele>254.0</ele><time>2026-05-03T10:34:24.987Z</time></trkpt><trkpt lat="43.3438475" lon="12.9557476"><ele>252.5</ele><time>2026-05-03T10:34:25.987Z</time></trkpt><trkpt lat="43.3439218" lon="12.9560563"><ele>251.0</ele><time>2026-05-03T10:34:26.988Z</time></trkpt><trkpt lat="43.3439957" lon="12.9563645"><ele>251.0</ele><time>2026-05-03T10:34:27.988Z</time></trkpt><trkpt lat="43.3440702" lon="12.956671"><ele>251.0</ele><time>2026-05-03T10:34:28.988Z</time></trkpt><trkpt lat="43.3441442" lon="12.9569765"><ele>250.5</ele><time>2026-05-03T10:34:29.988Z</time></trkpt><trkpt lat="43.3442168" lon="12.9572841"><ele>250.0</ele><time>2026-05-03T10:34:30.988Z</time></trkpt><trkpt lat="43.3442902" lon="12.9575926"><ele>251.0</ele><time>2026-05-03T10:34:31.988Z</time></trkpt><trkpt lat="43.3443653" lon="12.957901"><ele>252.0</ele><time>2026-05-03T10:34:32.988Z</time></trkpt><trkpt lat="43.3444407" lon="12.9582125"><ele>253.5</ele><time>2026-05-03T10:34:33.987Z</time></trkpt><trkpt lat="43.3445145" lon="12.958523"><ele>255.0</ele><time>2026-05-03T10:34:34.988Z</time></trkpt><trkpt lat="43.3445847" lon="12.9588368"><ele>255.0</ele><time>2026-05-03T10:34:35.988Z</time></trkpt><trkpt lat="43.344646" lon="12.9591545"><ele>255.0</ele><time>2026-05-03T10:34:36.988Z</time></trkpt><trkpt lat="43.3446977" lon="12.9594736"><ele>260.0</ele><time>2026-05-03T10:34:37.987Z</time></trkpt><trkpt lat="43.3447449" lon="12.9597953"><ele>265.0</ele><time>2026-05-03T10:34:38.988Z</time></trkpt><trkpt lat="43.3447876" lon="12.9601185"><ele>266.0</ele><time>2026-05-03T10:34:39.987Z</time></trkpt><trkpt lat="43.3448239" lon="12.9604412"><ele>267.0</ele><time>2026-05-03T10:34:40.987Z</time></trkpt><trkpt lat="43.3448538" lon="12.9607618"><ele>268.5</ele><time>2026-05-03T10:34:41.987Z</time></trkpt><trkpt lat="43.3448767" lon="12.9610793"><ele>270.0</ele><time>2026-05-03T10:34:42.988Z</time></trkpt><trkpt lat="43.3448929" lon="12.9613957"><ele>270.0</ele><time>2026-05-03T10:34:43.988Z</time></trkpt><trkpt lat="43.3449027" lon="12.9617094"><ele>270.0</ele><time>2026-05-03T10:34:44.988Z</time></trkpt><trkpt lat="43.3449076" lon="12.9620219"><ele>270.0</ele><time>2026-05-03T10:34:45.987Z</time></trkpt><trkpt lat="43.3449073" lon="12.9623314"><ele>270.0</ele><time>2026-05-03T10:34:46.988Z</time></trkpt><trkpt lat="43.3449005" lon="12.9626406"><ele>270.0</ele><time>2026-05-03T10:34:47.988Z</time></trkpt><trkpt lat="43.3448878" lon="12.9629491"><ele>270.0</ele><time>2026-05-03T10:34:48.988Z</time></trkpt><trkpt lat="43.3448687" lon="12.9632567"><ele>270.0</ele><time>2026-05-03T10:34:49.988Z</time></trkpt><trkpt lat="43.3448447" lon="12.9635653"><ele>270.0</ele><time>2026-05-03T10:34:50.987Z</time></trkpt><trkpt lat="43.3448177" lon="12.9638746"><ele>270.0</ele><time>2026-05-03T10:34:51.987Z</time></trkpt><trkpt lat="43.3447902" lon="12.964184"><ele>270.5</ele><time>2026-05-03T10:34:52.988Z</time></trkpt><trkpt lat="43.3447619" lon="12.9644934"><ele>271.0</ele><time>2026-05-03T10:34:53.987Z</time></trkpt><trkpt lat="43.344733" lon="12.9648042"><ele>270.0</ele><time>2026-05-03T10:34:54.988Z</time></trkpt><trkpt lat="43.3447043" lon="12.9651165"><ele>269.0</ele><time>2026-05-03T10:34:55.987Z</time></trkpt><trkpt lat="43.3446752" lon="12.9654275"><ele>269.0</ele><time>2026-05-03T10:34:56.988Z</time></trkpt><trkpt lat="43.3446475" lon="12.9657417"><ele>269.0</ele><time>2026-05-03T10:34:57.987Z</time></trkpt><trkpt lat="43.3446188" lon="12.9660529"><ele>268.5</ele><time>2026-05-03T10:34:58.988Z</time></trkpt><trkpt lat="43.3445895" lon="12.9663643"><ele>268.0</ele><time>2026-05-03T10:34:59.988Z</time></trkpt><trkpt lat="43.3445604" lon="12.9666727"><ele>268.0</ele><time>2026-05-03T10:35:00.988Z</time></trkpt><trkpt lat="43.3445311" lon="12.9669777"><ele>268.0</ele><time>2026-05-03T10:35:01.987Z</time></trkpt><trkpt lat="43.344502" lon="12.9672807"><ele>268.0</ele><time>2026-05-03T10:35:02.988Z</time></trkpt><trkpt lat="43.3444741" lon="12.9675834"><ele>268.3333333333333</ele><time>2026-05-03T10:35:03.988Z</time></trkpt><trkpt lat="43.344447" lon="12.9678854"><ele>268.6666666666667</ele><time>2026-05-03T10:35:04.988Z</time></trkpt><trkpt lat="43.3444194" lon="12.9681863"><ele>269.0</ele><time>2026-05-03T10:35:05.988Z</time></trkpt><trkpt lat="43.3443918" lon="12.9684871"><ele>269.33333333333337</ele><time>2026-05-03T10:35:06.988Z</time></trkpt><trkpt lat="43.3443647" lon="12.9687876"><ele>269.6666666666667</ele><time>2026-05-03T10:35:07.988Z</time></trkpt><trkpt lat="43.3443376" lon="12.9690879"><ele>270.0</ele><time>2026-05-03T10:35:08.988Z</time></trkpt><trkpt lat="43.344311" lon="12.96939"><ele>268.3333333333333</ele><time>2026-05-03T10:35:09.987Z</time></trkpt><trkpt lat="43.3442847" lon="12.9696894"><ele>266.66666666666663</ele><time>2026-05-03T10:35:10.988Z</time></trkpt><trkpt lat="43.3442581" lon="12.9699908"><ele>265.0</ele><time>2026-05-03T10:35:11.988Z</time></trkpt><trkpt lat="43.3442315" lon="12.9702913"><ele>264.0</ele><time>2026-05-03T10:35:12.988Z</time></trkpt><trkpt lat="43.3442044" lon="12.9705913"><ele>263.0</ele><time>2026-05-03T10:35:13.988Z</time></trkpt><trkpt lat="43.3441758" lon="12.9708914"><ele>262.0</ele><time>2026-05-03T10:35:14.988Z</time></trkpt><trkpt lat="43.3441471" lon="12.9711905"><ele>261.3333333333333</ele><time>2026-05-03T10:35:15.988Z</time></trkpt><trkpt lat="43.3441192" lon="12.9714882"><ele>260.6666666666667</ele><time>2026-05-03T10:35:16.988Z</time></trkpt><trkpt lat="43.3440921" lon="12.9717859"><ele>260.0</ele><time>2026-05-03T10:35:17.987Z</time></trkpt><trkpt lat="43.3440659" lon="12.9720818"><ele>260.0</ele><time>2026-05-03T10:35:18.988Z</time></trkpt><trkpt lat="43.3440399" lon="12.9723761"><ele>260.0</ele><time>2026-05-03T10:35:19.988Z</time></trkpt><trkpt lat="43.3440142" lon="12.9726686"><ele>260.0</ele><time>2026-05-03T10:35:20.987Z</time></trkpt><trkpt lat="43.343988" lon="12.9729604"><ele>260.33333333333337</ele><time>2026-05-03T10:35:21.988Z</time></trkpt><trkpt lat="43.343961" lon="12.9732518"><ele>260.6666666666667</ele><time>2026-05-03T10:35:22.987Z</time></trkpt><trkpt lat="43.3439357" lon="12.97354"><ele>261.0</ele><time>2026-05-03T10:35:23.988Z</time></trkpt><trkpt lat="43.3439128" lon="12.9738301"><ele>260.3333333333333</ele><time>2026-05-03T10:35:24.988Z</time></trkpt><trkpt lat="43.3438926" lon="12.9741224"><ele>259.66666666666663</ele><time>2026-05-03T10:35:25.988Z</time></trkpt><trkpt lat="43.3438749" lon="12.9744181"><ele>259.0</ele><time>2026-05-03T10:35:26.988Z</time></trkpt><trkpt lat="43.3438629" lon="12.9747193"><ele>257.0</ele><time>2026-05-03T10:35:27.987Z</time></trkpt><trkpt lat="43.343858" lon="12.9750209"><ele>255.0</ele><time>2026-05-03T10:35:28.988Z</time></trkpt><trkpt lat="43.3438569" lon="12.9753257"><ele>253.0</ele><time>2026-05-03T10:35:29.988Z</time></trkpt><trkpt lat="43.3438582" lon="12.9756305"><ele>252.33333333333331</ele><time>2026-05-03T10:35:30.988Z</time></trkpt><trkpt lat="43.3438637" lon="12.9759359"><ele>251.66666666666669</ele><time>2026-05-03T10:35:31.988Z</time></trkpt><trkpt lat="43.3438757" lon="12.9762411"><ele>251.0</ele><time>2026-05-03T10:35:32.988Z</time></trkpt><trkpt lat="43.3438958" lon="12.9765465"><ele>253.0</ele><time>2026-05-03T10:35:33.987Z</time></trkpt><trkpt lat="43.3439213" lon="12.9768527"><ele>255.0</ele><time>2026-05-03T10:35:34.987Z</time></trkpt><trkpt lat="43.343951" lon="12.9771563"><ele>257.0</ele><time>2026-05-03T10:35:35.988Z</time></trkpt><trkpt lat="43.3439855" lon="12.9774635"><ele>256.5</ele><time>2026-05-03T10:35:36.988Z</time></trkpt><trkpt lat="43.344023" lon="12.9777716"><ele>256.0</ele><time>2026-05-03T10:35:37.988Z</time></trkpt><trkpt lat="43.3440649" lon="12.9780815"><ele>255.5</ele><time>2026-05-03T10:35:38.988Z</time></trkpt><trkpt lat="43.3441136" lon="12.9783936"><ele>255.0</ele><time>2026-05-03T10:35:39.988Z</time></trkpt><trkpt lat="43.3441692" lon="12.9787044"><ele>255.0</ele><time>2026-05-03T10:35:40.987Z</time></trkpt><trkpt lat="43.3442319" lon="12.9790165"><ele>255.0</ele><time>2026-05-03T10:35:41.988Z</time></trkpt><trkpt lat="43.3443016" lon="12.9793279"><ele>256.0</ele><time>2026-05-03T10:35:42.987Z</time></trkpt><trkpt lat="43.3443778" lon="12.979639"><ele>257.0</ele><time>2026-05-03T10:35:43.987Z</time></trkpt><trkpt lat="43.3444561" lon="12.979948"><ele>254.0</ele><time>2026-05-03T10:35:44.987Z</time></trkpt><trkpt lat="43.3445345" lon="12.9802505"><ele>251.0</ele><time>2026-05-03T10:35:45.987Z</time></trkpt><trkpt lat="43.3446121" lon="12.9805415"><ele>251.0</ele><time>2026-05-03T10:35:46.988Z</time></trkpt><trkpt lat="43.3446868" lon="12.9808163"><ele>251.0</ele><time>2026-05-03T10:35:47.988Z</time></trkpt><trkpt lat="43.3447588" lon="12.9810807"><ele>251.0</ele><time>2026-05-03T10:35:48.988Z</time></trkpt><trkpt lat="43.3448276" lon="12.9813345"><ele>249.66666666666669</ele><time>2026-05-03T10:35:49.988Z</time></trkpt><trkpt lat="43.3448951" lon="12.9815839"><ele>248.33333333333331</ele><time>2026-05-03T10:35:50.988Z</time></trkpt><trkpt lat="43.3449621" lon="12.9818293"><ele>247.0</ele><time>2026-05-03T10:35:51.988Z</time></trkpt><trkpt lat="43.3450292" lon="12.9820728"><ele>247.0</ele><time>2026-05-03T10:35:52.987Z</time></trkpt><trkpt lat="43.3450966" lon="12.9823142"><ele>247.0</ele><time>2026-05-03T10:35:53.988Z</time></trkpt><trkpt lat="43.345163" lon="12.9825542"><ele>247.0</ele><time>2026-05-03T10:35:54.988Z</time></trkpt><trkpt lat="43.345228" lon="12.9827923"><ele>244.66666666666666</ele><time>2026-05-03T10:35:55.987Z</time></trkpt><trkpt lat="43.3452932" lon="12.9830301"><ele>242.33333333333331</ele><time>2026-05-03T10:35:56.988Z</time></trkpt><trkpt lat="43.3453574" lon="12.9832671"><ele>240.0</ele><time>2026-05-03T10:35:57.988Z</time></trkpt><trkpt lat="43.345421" lon="12.9835048"><ele>240.0</ele><time>2026-05-03T10:35:58.988Z</time></trkpt><trkpt lat="43.3454849" lon="12.9837415"><ele>240.0</ele><time>2026-05-03T10:35:59.988Z</time></trkpt><trkpt lat="43.3455501" lon="12.9839793"><ele>240.0</ele><time>2026-05-03T10:36:00.988Z</time></trkpt><trkpt lat="43.3456156" lon="12.9842172"><ele>237.33333333333331</ele><time>2026-05-03T10:36:01.988Z</time></trkpt><trkpt lat="43.3456808" lon="12.9844567"><ele>234.66666666666666</ele><time>2026-05-03T10:36:02.987Z</time></trkpt><trkpt lat="43.3457461" lon="12.9846968"><ele>232.0</ele><time>2026-05-03T10:36:03.988Z</time></trkpt><trkpt lat="43.3458109" lon="12.984938"><ele>232.66666666666666</ele><time>2026-05-03T10:36:04.988Z</time></trkpt><trkpt lat="43.3458764" lon="12.9851805"><ele>233.33333333333331</ele><time>2026-05-03T10:36:05.987Z</time></trkpt><trkpt lat="43.3459427" lon="12.9854231"><ele>234.0</ele><time>2026-05-03T10:36:06.988Z</time></trkpt><trkpt lat="43.3460094" lon="12.985667"><ele>234.33333333333331</ele><time>2026-05-03T10:36:07.987Z</time></trkpt><trkpt lat="43.3460763" lon="12.9859107"><ele>234.66666666666666</ele><time>2026-05-03T10:36:08.988Z</time></trkpt><trkpt lat="43.3461444" lon="12.9861549"><ele>235.0</ele><time>2026-05-03T10:36:09.988Z</time></trkpt><trkpt lat="43.3462124" lon="12.9863999"><ele>235.0</ele><time>2026-05-03T10:36:10.988Z</time></trkpt><trkpt lat="43.346278" lon="12.9866445"><ele>235.0</ele><time>2026-05-03T10:36:11.988Z</time></trkpt><trkpt lat="43.3463418" lon="12.9868895"><ele>235.0</ele><time>2026-05-03T10:36:12.987Z</time></trkpt><trkpt lat="43.3464058" lon="12.987132"><ele>236.66666666666666</ele><time>2026-05-03T10:36:13.988Z</time></trkpt><trkpt lat="43.3464719" lon="12.9873728"><ele>238.33333333333331</ele><time>2026-05-03T10:36:14.988Z</time></trkpt><trkpt lat="43.3465385" lon="12.9876073"><ele>240.0</ele><time>2026-05-03T10:36:15.987Z</time></trkpt><trkpt lat="43.3466088" lon="12.9878405"><ele>240.0</ele><time>2026-05-03T10:36:16.988Z</time></trkpt><trkpt lat="43.3466881" lon="12.988068"><ele>240.0</ele><time>2026-05-03T10:36:17.988Z</time></trkpt><trkpt lat="43.3467767" lon="12.988288"><ele>240.0</ele><time>2026-05-03T10:36:18.987Z</time></trkpt><trkpt lat="43.3468723" lon="12.9885038"><ele>240.0</ele><time>2026-05-03T10:36:19.988Z</time></trkpt><trkpt lat="43.3469725" lon="12.9887163"><ele>240.0</ele><time>2026-05-03T10:36:20.987Z</time></trkpt><trkpt lat="43.3470748" lon="12.9889277"><ele>240.0</ele><time>2026-05-03T10:36:21.988Z</time></trkpt><trkpt lat="43.3471798" lon="12.9891398"><ele>247.66666666666669</ele><time>2026-05-03T10:36:22.988Z</time></trkpt><trkpt lat="43.3472866" lon="12.9893536"><ele>255.33333333333334</ele><time>2026-05-03T10:36:23.988Z</time></trkpt><trkpt lat="43.3473931" lon="12.9895687"><ele>263.0</ele><time>2026-05-03T10:36:24.987Z</time></trkpt><trkpt lat="43.3475006" lon="12.9897835"><ele>263.0</ele><time>2026-05-03T10:36:25.988Z</time></trkpt><trkpt lat="43.347609" lon="12.9899984"><ele>263.0</ele><time>2026-05-03T10:36:26.987Z</time></trkpt><trkpt lat="43.3477175" lon="12.9902137"><ele>263.0</ele><time>2026-05-03T10:36:27.988Z</time></trkpt><trkpt lat="43.3478245" lon="12.9904308"><ele>262.6666666666667</ele><time>2026-05-03T10:36:28.988Z</time></trkpt><trkpt lat="43.3479318" lon="12.9906479"><ele>262.3333333333333</ele><time>2026-05-03T10:36:29.987Z</time></trkpt><trkpt lat="43.3480389" lon="12.9908652"><ele>262.0</ele><time>2026-05-03T10:36:30.987Z</time></trkpt><trkpt lat="43.3481464" lon="12.9910833"><ele>268.3333333333333</ele><time>2026-05-03T10:36:31.988Z</time></trkpt><trkpt lat="43.3482546" lon="12.9912995"><ele>274.6666666666667</ele><time>2026-05-03T10:36:32.987Z</time></trkpt><trkpt lat="43.3483638" lon="12.9915145"><ele>281.0</ele><time>2026-05-03T10:36:33.988Z</time></trkpt><trkpt lat="43.3484741" lon="12.9917294"><ele>281.0</ele><time>2026-05-03T10:36:34.987Z</time></trkpt><trkpt lat="43.3485909" lon="12.9919666"><ele>281.0</ele><time>2026-05-03T10:36:35.988Z</time></trkpt><trkpt lat="43.348718" lon="12.9922179"><ele>281.0</ele><time>2026-05-03T10:36:36.988Z</time></trkpt><trkpt lat="43.3488532" lon="12.9924893"><ele>280.5</ele><time>2026-05-03T10:36:37.988Z</time></trkpt><trkpt lat="43.3489941" lon="12.9927713"><ele>280.0</ele><time>2026-05-03T10:36:38.988Z</time></trkpt><trkpt lat="43.3491291" lon="12.9930455"><ele>280.0</ele><time>2026-05-03T10:36:39.988Z</time></trkpt><trkpt lat="43.3492585" lon="12.9933108"><ele>280.0</ele><time>2026-05-03T10:36:40.988Z</time></trkpt><trkpt lat="43.3493832" lon="12.9935644"><ele>269.66666666666663</ele><time>2026-05-03T10:36:41.988Z</time></trkpt><trkpt lat="43.3495043" lon="12.9938064"><ele>259.3333333333333</ele><time>2026-05-03T10:36:42.987Z</time></trkpt><trkpt lat="43.3496203" lon="12.9940409"><ele>249.0</ele><time>2026-05-03T10:36:43.988Z</time></trkpt><trkpt lat="43.3497319" lon="12.9942721"><ele>243.66666666666669</ele><time>2026-05-03T10:36:44.988Z</time></trkpt><trkpt lat="43.3498415" lon="12.9944987"><ele>238.33333333333334</ele><time>2026-05-03T10:36:45.987Z</time></trkpt><trkpt lat="43.349976" lon="12.9947132"><ele>233.0</ele><time>2026-05-03T10:36:46.987Z</time></trkpt><trkpt lat="43.3500793" lon="12.9949271"><ele>231.66666666666669</ele><time>2026-05-03T10:36:47.987Z</time></trkpt><trkpt lat="43.3501975" lon="12.9951377"><ele>230.33333333333331</ele><time>2026-05-03T10:36:48.987Z</time></trkpt><trkpt lat="43.3503039" lon="12.9953467"><ele>229.0</ele><time>2026-05-03T10:36:49.988Z</time></trkpt><trkpt lat="43.3504066" lon="12.9955598"><ele>229.0</ele><time>2026-05-03T10:36:50.988Z</time></trkpt><trkpt lat="43.3505061" lon="12.9957595"><ele>229.0</ele><time>2026-05-03T10:36:51.987Z</time></trkpt><trkpt lat="43.3506083" lon="12.9959628"><ele>229.0</ele><time>2026-05-03T10:36:52.987Z</time></trkpt><trkpt lat="43.3507095" lon="12.9961613"><ele>228.33333333333331</ele><time>2026-05-03T10:36:53.987Z</time></trkpt><trkpt lat="43.3508116" lon="12.9963624"><ele>227.66666666666669</ele><time>2026-05-03T10:36:54.987Z</time></trkpt><trkpt lat="43.3509135" lon="12.9965639"><ele>227.0</ele><time>2026-05-03T10:36:55.987Z</time></trkpt><trkpt lat="43.351014" lon="12.996761"><ele>228.33333333333334</ele><time>2026-05-03T10:36:56.988Z</time></trkpt><trkpt lat="43.3511087" lon="12.9969523"><ele>229.66666666666669</ele><time>2026-05-03T10:36:57.987Z</time></trkpt><trkpt lat="43.3512035" lon="12.9971439"><ele>231.0</ele><time>2026-05-03T10:36:58.988Z</time></trkpt><trkpt lat="43.3512999" lon="12.9973373"><ele>231.33333333333331</ele><time>2026-05-03T10:36:59.987Z</time></trkpt><trkpt lat="43.3513986" lon="12.9975313"><ele>231.66666666666666</ele><time>2026-05-03T10:37:00.987Z</time></trkpt><trkpt lat="43.3515033" lon="12.9977247"><ele>232.0</ele><time>2026-05-03T10:37:01.988Z</time></trkpt><trkpt lat="43.351611" lon="12.9979106"><ele>232.0</ele><time>2026-05-03T10:37:02.988Z</time></trkpt><trkpt lat="43.3517218" lon="12.9980891"><ele>232.0</ele><time>2026-05-03T10:37:03.988Z</time></trkpt><trkpt lat="43.3518317" lon="12.9982568"><ele>232.0</ele><time>2026-05-03T10:37:04.987Z</time></trkpt><trkpt lat="43.3519405" lon="12.9984123"><ele>230.33333333333331</ele><time>2026-05-03T10:37:05.987Z</time></trkpt><trkpt lat="43.3520551" lon="12.9985652"><ele>228.66666666666669</ele><time>2026-05-03T10:37:06.988Z</time></trkpt><trkpt lat="43.3521763" lon="12.9987176"><ele>227.0</ele><time>2026-05-03T10:37:07.988Z</time></trkpt><trkpt lat="43.3523052" lon="12.9988623"><ele>227.0</ele><time>2026-05-03T10:37:08.988Z</time></trkpt><trkpt lat="43.3524401" lon="12.9989971"><ele>227.0</ele><time>2026-05-03T10:37:09.988Z</time></trkpt><trkpt lat="43.3525744" lon="12.9991189"><ele>227.0</ele><time>2026-05-03T10:37:10.988Z</time></trkpt><trkpt lat="43.352706" lon="12.9992286"><ele>227.0</ele><time>2026-05-03T10:37:11.988Z</time></trkpt><trkpt lat="43.3528347" lon="12.9993259"><ele>227.0</ele><time>2026-05-03T10:37:12.988Z</time></trkpt><trkpt lat="43.3529589" lon="12.999412"><ele>227.0</ele><time>2026-05-03T10:37:13.987Z</time></trkpt><trkpt lat="43.3530792" lon="12.9994885"><ele>227.0</ele><time>2026-05-03T10:37:14.988Z</time></trkpt><trkpt lat="43.3531962" lon="12.999556"><ele>226.75</ele><time>2026-05-03T10:37:15.988Z</time></trkpt><trkpt lat="43.3533143" lon="12.9996159"><ele>226.5</ele><time>2026-05-03T10:37:16.988Z</time></trkpt><trkpt lat="43.3534279" lon="12.9996661"><ele>226.25</ele><time>2026-05-03T10:37:17.988Z</time></trkpt><trkpt lat="43.3535414" lon="12.9997115"><ele>226.0</ele><time>2026-05-03T10:37:18.987Z</time></trkpt><trkpt lat="43.35366" lon="12.9997541"><ele>226.0</ele><time>2026-05-03T10:37:19.988Z</time></trkpt><trkpt lat="43.3537865" lon="12.9997952"><ele>226.0</ele><time>2026-05-03T10:37:20.988Z</time></trkpt><trkpt lat="43.3539209" lon="12.999833"><ele>226.0</ele><time>2026-05-03T10:37:21.988Z</time></trkpt><trkpt lat="43.3540615" lon="12.9998687"><ele>226.0</ele><time>2026-05-03T10:37:22.988Z</time></trkpt><trkpt lat="43.3542083" lon="12.9998999"><ele>226.66666666666666</ele><time>2026-05-03T10:37:23.987Z</time></trkpt><trkpt lat="43.3543611" lon="12.9999235"><ele>227.33333333333331</ele><time>2026-05-03T10:37:24.988Z</time></trkpt><trkpt lat="43.3545178" lon="12.9999378"><ele>228.0</ele><time>2026-05-03T10:37:25.987Z</time></trkpt><trkpt lat="43.3546794" lon="12.9999437"><ele>228.66666666666669</ele><time>2026-05-03T10:37:26.987Z</time></trkpt><trkpt lat="43.3548431" lon="12.9999406"><ele>229.33333333333334</ele><time>2026-05-03T10:37:27.988Z</time></trkpt><trkpt lat="43.3550083" lon="12.999927"><ele>230.0</ele><time>2026-05-03T10:37:28.988Z</time></trkpt><trkpt lat="43.355174" lon="12.9999035"><ele>230.0</ele><time>2026-05-03T10:37:29.988Z</time></trkpt><trkpt lat="43.3553409" lon="12.999872"><ele>230.0</ele><time>2026-05-03T10:37:30.987Z</time></trkpt><trkpt lat="43.3555067" lon="12.999831"><ele>230.0</ele><time>2026-05-03T10:37:31.988Z</time></trkpt><trkpt lat="43.3556714" lon="12.9997788"><ele>234.33333333333334</ele><time>2026-05-03T10:37:32.988Z</time></trkpt><trkpt lat="43.3558358" lon="12.9997149"><ele>238.66666666666669</ele><time>2026-05-03T10:37:33.988Z</time></trkpt><trkpt lat="43.3559965" lon="12.9996414"><ele>243.0</ele><time>2026-05-03T10:37:34.988Z</time></trkpt><trkpt lat="43.3561568" lon="12.9995588"><ele>243.0</ele><time>2026-05-03T10:37:35.987Z</time></trkpt><trkpt lat="43.3563155" lon="12.9994676"><ele>243.0</ele><time>2026-05-03T10:37:36.988Z</time></trkpt><trkpt lat="43.3564722" lon="12.9993679"><ele>243.0</ele><time>2026-05-03T10:37:37.988Z</time></trkpt><trkpt lat="43.3566272" lon="12.9992566"><ele>239.66666666666669</ele><time>2026-05-03T10:37:38.987Z</time></trkpt><trkpt lat="43.35678" lon="12.9991335"><ele>236.33333333333334</ele><time>2026-05-03T10:37:39.988Z</time></trkpt><trkpt lat="43.3569312" lon="12.9989978"><ele>233.0</ele><time>2026-05-03T10:37:40.988Z</time></trkpt><trkpt lat="43.3570807" lon="12.9988527"><ele>234.0</ele><time>2026-05-03T10:37:41.988Z</time></trkpt><trkpt lat="43.3572299" lon="12.9986973"><ele>235.0</ele><time>2026-05-03T10:37:42.988Z</time></trkpt><trkpt lat="43.3573775" lon="12.9985326"><ele>236.0</ele><time>2026-05-03T10:37:43.987Z</time></trkpt><trkpt lat="43.357525" lon="12.998365"><ele>232.66666666666669</ele><time>2026-05-03T10:37:44.988Z</time></trkpt><trkpt lat="43.3576733" lon="12.9981968"><ele>229.33333333333331</ele><time>2026-05-03T10:37:45.987Z</time></trkpt><trkpt lat="43.3578201" lon="12.9980317"><ele>226.0</ele><time>2026-05-03T10:37:46.987Z</time></trkpt><trkpt lat="43.3579678" lon="12.9978693"><ele>226.33333333333331</ele><time>2026-05-03T10:37:47.988Z</time></trkpt><trkpt lat="43.3581154" lon="12.997712"><ele>226.66666666666669</ele><time>2026-05-03T10:37:48.988Z</time></trkpt><trkpt lat="43.3582645" lon="12.9975594"><ele>227.0</ele><time>2026-05-03T10:37:49.987Z</time></trkpt><trkpt lat="43.3584185" lon="12.9974114"><ele>227.0</ele><time>2026-05-03T10:37:50.987Z</time></trkpt><trkpt lat="43.358577" lon="12.997272"><ele>227.0</ele><time>2026-05-03T10:37:51.988Z</time></trkpt><trkpt lat="43.3587422" lon="12.9971393"><ele>227.0</ele><time>2026-05-03T10:37:52.988Z</time></trkpt><trkpt lat="43.3589126" lon="12.9970134"><ele>228.66666666666669</ele><time>2026-05-03T10:37:53.987Z</time></trkpt><trkpt lat="43.3590873" lon="12.9968957"><ele>230.33333333333331</ele><time>2026-05-03T10:37:54.988Z</time></trkpt><trkpt lat="43.3592674" lon="12.9967849"><ele>232.0</ele><time>2026-05-03T10:37:55.987Z</time></trkpt><trkpt lat="43.3594515" lon="12.9966806"><ele>229.33333333333331</ele><time>2026-05-03T10:37:56.987Z</time></trkpt><trkpt lat="43.3596401" lon="12.9965817"><ele>226.66666666666669</ele><time>2026-05-03T10:37:57.988Z</time></trkpt><trkpt lat="43.3598312" lon="12.9964888"><ele>224.0</ele><time>2026-05-03T10:37:58.988Z</time></trkpt><trkpt lat="43.3600249" lon="12.9963991"><ele>224.0</ele><time>2026-05-03T10:37:59.987Z</time></trkpt><trkpt lat="43.3602199" lon="12.9963097"><ele>224.0</ele><time>2026-05-03T10:38:00.987Z</time></trkpt><trkpt lat="43.3604155" lon="12.9962209"><ele>224.0</ele><time>2026-05-03T10:38:01.987Z</time></trkpt><trkpt lat="43.3606134" lon="12.9961297"><ele>226.0</ele><time>2026-05-03T10:38:02.988Z</time></trkpt><trkpt lat="43.360811" lon="12.9960394"><ele>228.0</ele><time>2026-05-03T10:38:03.987Z</time></trkpt><trkpt lat="43.3610102" lon="12.9959477"><ele>230.0</ele><time>2026-05-03T10:38:04.988Z</time></trkpt><trkpt lat="43.3612107" lon="12.9958547"><ele>228.0</ele><time>2026-05-03T10:38:05.987Z</time></trkpt><trkpt lat="43.3614112" lon="12.9957605"><ele>226.0</ele><time>2026-05-03T10:38:06.988Z</time></trkpt><trkpt lat="43.3616141" lon="12.9956661"><ele>224.0</ele><time>2026-05-03T10:38:07.987Z</time></trkpt><trkpt lat="43.3618164" lon="12.9955722"><ele>224.0</ele><time>2026-05-03T10:38:08.988Z</time></trkpt><trkpt lat="43.3620196" lon="12.9954771"><ele>224.0</ele><time>2026-05-03T10:38:09.988Z</time></trkpt><trkpt lat="43.3622221" lon="12.9953831"><ele>224.0</ele><time>2026-05-03T10:38:10.988Z</time></trkpt><trkpt lat="43.3624243" lon="12.9952889"><ele>224.33333333333334</ele><time>2026-05-03T10:38:11.988Z</time></trkpt><trkpt lat="43.3626257" lon="12.9951961"><ele>224.66666666666669</ele><time>2026-05-03T10:38:12.988Z</time></trkpt><trkpt lat="43.3628273" lon="12.9951035"><ele>225.0</ele><time>2026-05-03T10:38:13.988Z</time></trkpt><trkpt lat="43.3630289" lon="12.9950108"><ele>224.66666666666669</ele><time>2026-05-03T10:38:14.987Z</time></trkpt><trkpt lat="43.3632282" lon="12.9949198"><ele>224.33333333333334</ele><time>2026-05-03T10:38:15.988Z</time></trkpt><trkpt lat="43.3634257" lon="12.9948291"><ele>224.0</ele><time>2026-05-03T10:38:16.988Z</time></trkpt><trkpt lat="43.36362" lon="12.9947384"><ele>224.0</ele><time>2026-05-03T10:38:17.988Z</time></trkpt><trkpt lat="43.3638104" lon="12.9946501"><ele>224.0</ele><time>2026-05-03T10:38:18.988Z</time></trkpt><trkpt lat="43.3639992" lon="12.9945648"><ele>224.0</ele><time>2026-05-03T10:38:19.988Z</time></trkpt><trkpt lat="43.3641837" lon="12.9944819"><ele>227.0</ele><time>2026-05-03T10:38:20.987Z</time></trkpt><trkpt lat="43.3643693" lon="12.9943974"><ele>230.0</ele><time>2026-05-03T10:38:21.988Z</time></trkpt><trkpt lat="43.3645545" lon="12.9943114"><ele>233.0</ele><time>2026-05-03T10:38:22.987Z</time></trkpt><trkpt lat="43.36474" lon="12.9942247"><ele>231.33333333333334</ele><time>2026-05-03T10:38:23.988Z</time></trkpt><trkpt lat="43.3649255" lon="12.9941383"><ele>229.66666666666669</ele><time>2026-05-03T10:38:24.988Z</time></trkpt><trkpt lat="43.3651099" lon="12.9940536"><ele>228.0</ele><time>2026-05-03T10:38:25.988Z</time></trkpt><trkpt lat="43.3652958" lon="12.9939677"><ele>228.0</ele><time>2026-05-03T10:38:26.987Z</time></trkpt><trkpt lat="43.3654811" lon="12.9938818"><ele>228.0</ele><time>2026-05-03T10:38:27.987Z</time></trkpt><trkpt lat="43.3656675" lon="12.9937961"><ele>228.0</ele><time>2026-05-03T10:38:28.988Z</time></trkpt><trkpt lat="43.365854" lon="12.9937093"><ele>233.0</ele><time>2026-05-03T10:38:29.988Z</time></trkpt><trkpt lat="43.3660419" lon="12.9936223"><ele>238.0</ele><time>2026-05-03T10:38:30.987Z</time></trkpt><trkpt lat="43.3662298" lon="12.9935358"><ele>243.0</ele><time>2026-05-03T10:38:31.987Z</time></trkpt><trkpt lat="43.3664179" lon="12.9934492"><ele>248.33333333333331</ele><time>2026-05-03T10:38:32.988Z</time></trkpt><trkpt lat="43.3666066" lon="12.9933627"><ele>253.66666666666666</ele><time>2026-05-03T10:38:33.988Z</time></trkpt><trkpt lat="43.3667964" lon="12.9932763"><ele>259.0</ele><time>2026-05-03T10:38:34.988Z</time></trkpt><trkpt lat="43.3669873" lon="12.9931888"><ele>253.0</ele><time>2026-05-03T10:38:35.988Z</time></trkpt><trkpt lat="43.3671781" lon="12.9930984"><ele>247.0</ele><time>2026-05-03T10:38:36.988Z</time></trkpt><trkpt lat="43.3673703" lon="12.9930029"><ele>241.0</ele><time>2026-05-03T10:38:37.987Z</time></trkpt><trkpt lat="43.3675641" lon="12.9929041"><ele>241.0</ele><time>2026-05-03T10:38:38.988Z</time></trkpt><trkpt lat="43.3677591" lon="12.992805"><ele>241.0</ele><time>2026-05-03T10:38:39.987Z</time></trkpt><trkpt lat="43.367954" lon="12.9927059"><ele>241.0</ele><time>2026-05-03T10:38:40.988Z</time></trkpt><trkpt lat="43.3681462" lon="12.9926041"><ele>236.33333333333331</ele><time>2026-05-03T10:38:41.988Z</time></trkpt><trkpt lat="43.3683332" lon="12.9924977"><ele>231.66666666666669</ele><time>2026-05-03T10:38:42.988Z</time></trkpt><trkpt lat="43.3685181" lon="12.9923828"><ele>227.0</ele><time>2026-05-03T10:38:43.988Z</time></trkpt><trkpt lat="43.3687001" lon="12.9922602"><ele>232.0</ele><time>2026-05-03T10:38:44.988Z</time></trkpt><trkpt lat="43.3688784" lon="12.9921278"><ele>237.0</ele><time>2026-05-03T10:38:45.988Z</time></trkpt><trkpt lat="43.3690495" lon="12.99199"><ele>242.0</ele><time>2026-05-03T10:38:46.988Z</time></trkpt><trkpt lat="43.3692049" lon="12.9918511"><ele>242.0</ele><time>2026-05-03T10:38:47.987Z</time></trkpt><trkpt lat="43.3693474" lon="12.9917145"><ele>242.0</ele><time>2026-05-03T10:38:48.988Z</time></trkpt><trkpt lat="43.3694801" lon="12.9915822"><ele>242.0</ele><time>2026-05-03T10:38:49.988Z</time></trkpt><trkpt lat="43.3696052" lon="12.991455"><ele>240.75</ele><time>2026-05-03T10:38:50.988Z</time></trkpt><trkpt lat="43.3697224" lon="12.9913322"><ele>239.5</ele><time>2026-05-03T10:38:51.988Z</time></trkpt><trkpt lat="43.3698333" lon="12.9912138"><ele>238.25</ele><time>2026-05-03T10:38:52.988Z</time></trkpt><trkpt lat="43.3699378" lon="12.9910989"><ele>237.0</ele><time>2026-05-03T10:38:53.988Z</time></trkpt><trkpt lat="43.370037" lon="12.990988"><ele>237.0</ele><time>2026-05-03T10:38:54.987Z</time></trkpt><trkpt lat="43.3701334" lon="12.9908793"><ele>237.0</ele><time>2026-05-03T10:38:55.988Z</time></trkpt><trkpt lat="43.3702301" lon="12.9907709"><ele>237.0</ele><time>2026-05-03T10:38:56.987Z</time></trkpt><trkpt lat="43.3703259" lon="12.9906641"><ele>237.0</ele><time>2026-05-03T10:38:57.988Z</time></trkpt><trkpt lat="43.3704268" lon="12.9905592"><ele>237.25</ele><time>2026-05-03T10:38:58.987Z</time></trkpt><trkpt lat="43.3705347" lon="12.9904544"><ele>237.5</ele><time>2026-05-03T10:38:59.988Z</time></trkpt><trkpt lat="43.3706514" lon="12.9903505"><ele>237.75</ele><time>2026-05-03T10:39:00.987Z</time></trkpt><trkpt lat="43.3707724" lon="12.990244"><ele>238.0</ele><time>2026-05-03T10:39:01.988Z</time></trkpt><trkpt lat="43.3708982" lon="12.9901332"><ele>238.0</ele><time>2026-05-03T10:39:02.987Z</time></trkpt><trkpt lat="43.3710279" lon="12.9900217"><ele>238.0</ele><time>2026-05-03T10:39:03.988Z</time></trkpt><trkpt lat="43.3711629" lon="12.9899134"><ele>238.0</ele><time>2026-05-03T10:39:04.988Z</time></trkpt><trkpt lat="43.371303" lon="12.9898092"><ele>239.66666666666666</ele><time>2026-05-03T10:39:05.988Z</time></trkpt><trkpt lat="43.3714496" lon="12.9897106"><ele>241.33333333333331</ele><time>2026-05-03T10:39:06.987Z</time></trkpt><trkpt lat="43.3716013" lon="12.989616"><ele>243.0</ele><time>2026-05-03T10:39:07.988Z</time></trkpt><trkpt lat="43.3717587" lon="12.9895262"><ele>243.0</ele><time>2026-05-03T10:39:08.988Z</time></trkpt><trkpt lat="43.3719237" lon="12.9894371"><ele>243.0</ele><time>2026-05-03T10:39:09.987Z</time></trkpt><trkpt lat="43.3721001" lon="12.9893492"><ele>243.0</ele><time>2026-05-03T10:39:10.988Z</time></trkpt><trkpt lat="43.3722827" lon="12.9892604"><ele>243.66666666666669</ele><time>2026-05-03T10:39:11.988Z</time></trkpt><trkpt lat="43.372472" lon="12.9891719"><ele>244.33333333333334</ele><time>2026-05-03T10:39:12.988Z</time></trkpt><trkpt lat="43.3726666" lon="12.9890832"><ele>245.0</ele><time>2026-05-03T10:39:13.987Z</time></trkpt><trkpt lat="43.3728625" lon="12.9889958"><ele>252.0</ele><time>2026-05-03T10:39:14.988Z</time></trkpt><trkpt lat="43.3730588" lon="12.9889102"><ele>259.0</ele><time>2026-05-03T10:39:15.987Z</time></trkpt><trkpt lat="43.3732553" lon="12.9888236"><ele>266.0</ele><time>2026-05-03T10:39:16.987Z</time></trkpt><trkpt lat="43.3734517" lon="12.9887369"><ele>266.0</ele><time>2026-05-03T10:39:17.987Z</time></trkpt><trkpt lat="43.3736491" lon="12.9886533"><ele>266.0</ele><time>2026-05-03T10:39:18.988Z</time></trkpt><trkpt lat="43.3738462" lon="12.9885679"><ele>266.0</ele><time>2026-05-03T10:39:19.988Z</time></trkpt><trkpt lat="43.3740438" lon="12.9884811"><ele>271.0</ele><time>2026-05-03T10:39:20.987Z</time></trkpt><trkpt lat="43.3742412" lon="12.9883947"><ele>276.0</ele><time>2026-05-03T10:39:21.988Z</time></trkpt><trkpt lat="43.3744398" lon="12.9883103"><ele>281.0</ele><time>2026-05-03T10:39:22.988Z</time></trkpt><trkpt lat="43.3746383" lon="12.9882237"><ele>275.33333333333337</ele><time>2026-05-03T10:39:23.988Z</time></trkpt><trkpt lat="43.3748381" lon="12.9881353"><ele>269.6666666666667</ele><time>2026-05-03T10:39:24.988Z</time></trkpt><trkpt lat="43.3750387" lon="12.9880482"><ele>264.0</ele><time>2026-05-03T10:39:25.987Z</time></trkpt><trkpt lat="43.3752395" lon="12.987961"><ele>264.0</ele><time>2026-05-03T10:39:26.988Z</time></trkpt><trkpt lat="43.3754415" lon="12.9878738"><ele>264.0</ele><time>2026-05-03T10:39:27.988Z</time></trkpt><trkpt lat="43.3756466" lon="12.9877858"><ele>264.0</ele><time>2026-05-03T10:39:28.988Z</time></trkpt><trkpt lat="43.3758571" lon="12.9876947"><ele>261.3333333333333</ele><time>2026-05-03T10:39:29.988Z</time></trkpt><trkpt lat="43.3760709" lon="12.9876009"><ele>258.66666666666663</ele><time>2026-05-03T10:39:30.987Z</time></trkpt><trkpt lat="43.3762846" lon="12.9875061"><ele>256.0</ele><time>2026-05-03T10:39:31.988Z</time></trkpt><trkpt lat="43.3764992" lon="12.9874134"><ele>267.0</ele><time>2026-05-03T10:39:32.988Z</time></trkpt><trkpt lat="43.3767142" lon="12.987322"><ele>278.0</ele><time>2026-05-03T10:39:33.987Z</time></trkpt><trkpt lat="43.3769297" lon="12.9872277"><ele>278.0</ele><time>2026-05-03T10:39:34.987Z</time></trkpt><trkpt lat="43.3771454" lon="12.9871339"><ele>278.0</ele><time>2026-05-03T10:39:35.988Z</time></trkpt><trkpt lat="43.3773618" lon="12.9870414"><ele>290.0</ele><time>2026-05-03T10:39:36.987Z</time></trkpt><trkpt lat="43.3775799" lon="12.9869499"><ele>302.0</ele><time>2026-05-03T10:39:37.988Z</time></trkpt><trkpt lat="43.3777982" lon="12.9868558"><ele>209.0</ele><time>2026-05-03T10:39:38.988Z</time></trkpt><trkpt lat="43.4300424" lon="13.006482"><ele>175.0</ele><time>2026-05-03T10:44:06.478Z</time></trkpt><trkpt lat="43.4319342" lon="13.0123867"><ele>161.0</ele><time>2026-05-03T10:44:14.003Z</time></trkpt><trkpt lat="43.4312378" lon="13.0127994"><ele>162.33333333333331</ele><time>2026-05-03T10:44:17.988Z</time></trkpt><trkpt lat="43.4313718" lon="13.0129586"><ele>163.66666666666666</ele><time>2026-05-03T10:44:18.988Z</time></trkpt><trkpt lat="43.4315076" lon="13.0131473"><ele>165.0</ele><time>2026-05-03T10:44:19.988Z</time></trkpt><trkpt lat="43.4316392" lon="13.0133301"><ele>165.0</ele><time>2026-05-03T10:44:20.988Z</time></trkpt><trkpt lat="43.4317705" lon="13.013522"><ele>165.0</ele><time>2026-05-03T10:44:21.987Z</time></trkpt><trkpt lat="43.4319012" lon="13.0137194"><ele>165.0</ele><time>2026-05-03T10:44:22.987Z</time></trkpt><trkpt lat="43.4320285" lon="13.0139219"><ele>166.33333333333334</ele><time>2026-05-03T10:44:23.987Z</time></trkpt><trkpt lat="43.4321538" lon="13.0141319"><ele>167.66666666666669</ele><time>2026-05-03T10:44:24.988Z</time></trkpt><trkpt lat="43.4322761" lon="13.0143383"><ele>169.0</ele><time>2026-05-03T10:44:25.987Z</time></trkpt><trkpt lat="43.4323928" lon="13.014546"><ele>169.0</ele><time>2026-05-03T10:44:26.987Z</time></trkpt><trkpt lat="43.4325107" lon="13.0147522"><ele>169.0</ele><time>2026-05-03T10:44:27.987Z</time></trkpt><trkpt lat="43.4326277" lon="13.0149535"><ele>169.0</ele><time>2026-05-03T10:44:28.988Z</time></trkpt><trkpt lat="43.4327393" lon="13.0151578"><ele>167.0</ele><time>2026-05-03T10:44:29.988Z</time></trkpt><trkpt lat="43.4328469" lon="13.0153615"><ele>165.0</ele><time>2026-05-03T10:44:30.988Z</time></trkpt><trkpt lat="43.4329537" lon="13.0155671"><ele>163.0</ele><time>2026-05-03T10:44:31.987Z</time></trkpt><trkpt lat="43.4330576" lon="13.0157711"><ele>165.33333333333334</ele><time>2026-05-03T10:44:32.987Z</time></trkpt><trkpt lat="43.4331564" lon="13.015968"><ele>167.66666666666666</ele><time>2026-05-03T10:44:33.987Z</time></trkpt><trkpt lat="43.4332512" lon="13.0161514"><ele>170.0</ele><time>2026-05-03T10:44:34.987Z</time></trkpt><trkpt lat="43.4333405" lon="13.0163262"><ele>170.0</ele><time>2026-05-03T10:44:35.988Z</time></trkpt><trkpt lat="43.4334311" lon="13.0165018"><ele>170.0</ele><time>2026-05-03T10:44:36.988Z</time></trkpt><trkpt lat="43.4335189" lon="13.016671"><ele>170.0</ele><time>2026-05-03T10:44:37.988Z</time></trkpt><trkpt lat="43.4336072" lon="13.0168368"><ele>172.0</ele><time>2026-05-03T10:44:38.987Z</time></trkpt><trkpt lat="43.4337005" lon="13.0170101"><ele>174.0</ele><time>2026-05-03T10:44:39.987Z</time></trkpt><trkpt lat="43.4337998" lon="13.0171938"><ele>176.0</ele><time>2026-05-03T10:44:40.987Z</time></trkpt><trkpt lat="43.4339015" lon="13.0173889"><ele>171.66666666666666</ele><time>2026-05-03T10:44:41.988Z</time></trkpt><trkpt lat="43.4340104" lon="13.0175943"><ele>167.33333333333334</ele><time>2026-05-03T10:44:42.988Z</time></trkpt><trkpt lat="43.4341286" lon="13.0178056"><ele>163.0</ele><time>2026-05-03T10:44:43.988Z</time></trkpt><trkpt lat="43.4342572" lon="13.0180248"><ele>163.0</ele><time>2026-05-03T10:44:44.987Z</time></trkpt><trkpt lat="43.4343911" lon="13.0182476"><ele>163.0</ele><time>2026-05-03T10:44:45.987Z</time></trkpt><trkpt lat="43.434526" lon="13.0184723"><ele>163.0</ele><time>2026-05-03T10:44:46.987Z</time></trkpt><trkpt lat="43.4346699" lon="13.0186947"><ele>163.33333333333334</ele><time>2026-05-03T10:44:47.988Z</time></trkpt><trkpt lat="43.4348138" lon="13.0189192"><ele>163.66666666666666</ele><time>2026-05-03T10:44:48.988Z</time></trkpt><trkpt lat="43.4349647" lon="13.0191349"><ele>164.0</ele><time>2026-05-03T10:44:49.988Z</time></trkpt><trkpt lat="43.4351234" lon="13.0193504"><ele>160.5</ele><time>2026-05-03T10:44:50.987Z</time></trkpt><trkpt lat="43.4352877" lon="13.0195643"><ele>157.0</ele><time>2026-05-03T10:44:51.988Z</time></trkpt><trkpt lat="43.4354563" lon="13.0197787"><ele>158.5</ele><time>2026-05-03T10:44:52.988Z</time></trkpt><trkpt lat="43.4356302" lon="13.0199862"><ele>160.0</ele><time>2026-05-03T10:44:53.988Z</time></trkpt><trkpt lat="43.4358077" lon="13.0201856"><ele>160.0</ele><time>2026-05-03T10:44:54.987Z</time></trkpt><trkpt lat="43.4359917" lon="13.020383"><ele>160.0</ele><time>2026-05-03T10:44:55.988Z</time></trkpt><trkpt lat="43.4361796" lon="13.0205782"><ele>159.5</ele><time>2026-05-03T10:44:56.988Z</time></trkpt><trkpt lat="43.4363723" lon="13.0207658"><ele>159.0</ele><time>2026-05-03T10:44:57.988Z</time></trkpt><trkpt lat="43.4365687" lon="13.0209448"><ele>159.0</ele><time>2026-05-03T10:44:58.988Z</time></trkpt><trkpt lat="43.4367664" lon="13.0211192"><ele>159.0</ele><time>2026-05-03T10:44:59.987Z</time></trkpt><trkpt lat="43.436961" lon="13.0212864"><ele>156.5</ele><time>2026-05-03T10:45:00.988Z</time></trkpt><trkpt lat="43.4371549" lon="13.0214488"><ele>154.0</ele><time>2026-05-03T10:45:01.988Z</time></trkpt><trkpt lat="43.4373466" lon="13.0216124"><ele>155.33333333333334</ele><time>2026-05-03T10:45:02.988Z</time></trkpt><trkpt lat="43.437535" lon="13.0217796"><ele>156.66666666666666</ele><time>2026-05-03T10:45:03.987Z</time></trkpt><trkpt lat="43.4377206" lon="13.0219526"><ele>158.0</ele><time>2026-05-03T10:45:04.988Z</time></trkpt><trkpt lat="43.4379013" lon="13.0221352"><ele>158.5</ele><time>2026-05-03T10:45:05.988Z</time></trkpt><trkpt lat="43.4380789" lon="13.0223321"><ele>159.0</ele><time>2026-05-03T10:45:06.988Z</time></trkpt><trkpt lat="43.43825" lon="13.0225443"><ele>159.0</ele><time>2026-05-03T10:45:07.988Z</time></trkpt><trkpt lat="43.4384106" lon="13.0227611"><ele>159.0</ele><time>2026-05-03T10:45:08.988Z</time></trkpt><trkpt lat="43.438567" lon="13.0229855"><ele>159.0</ele><time>2026-05-03T10:45:09.988Z</time></trkpt><trkpt lat="43.4387111" lon="13.0232121"><ele>159.0</ele><time>2026-05-03T10:45:10.988Z</time></trkpt><trkpt lat="43.4388425" lon="13.0234412"><ele>159.0</ele><time>2026-05-03T10:45:11.988Z</time></trkpt><trkpt lat="43.4389659" lon="13.02368"><ele>159.0</ele><time>2026-05-03T10:45:12.988Z</time></trkpt><trkpt lat="43.4390778" lon="13.0239227"><ele>159.0</ele><time>2026-05-03T10:45:13.988Z</time></trkpt><trkpt lat="43.4391825" lon="13.0241726"><ele>159.0</ele><time>2026-05-03T10:45:14.987Z</time></trkpt><trkpt lat="43.4392808" lon="13.02443"><ele>159.0</ele><time>2026-05-03T10:45:15.987Z</time></trkpt><trkpt lat="43.4393726" lon="13.0246919"><ele>159.0</ele><time>2026-05-03T10:45:16.987Z</time></trkpt><trkpt lat="43.4394608" lon="13.0249584"><ele>159.0</ele><time>2026-05-03T10:45:17.988Z</time></trkpt><trkpt lat="43.4395455" lon="13.0252118"><ele>159.0</ele><time>2026-05-03T10:45:18.988Z</time></trkpt><trkpt lat="43.4396265" lon="13.0254558"><ele>159.0</ele><time>2026-05-03T10:45:19.987Z</time></trkpt><trkpt lat="43.4397043" lon="13.0256871"><ele>159.0</ele><time>2026-05-03T10:45:20.988Z</time></trkpt><trkpt lat="43.4397819" lon="13.025908"><ele>157.33333333333334</ele><time>2026-05-03T10:45:21.987Z</time></trkpt><trkpt lat="43.4398573" lon="13.0261164"><ele>155.66666666666669</ele><time>2026-05-03T10:45:22.987Z</time></trkpt><trkpt lat="43.4399258" lon="13.0263068"><ele>154.0</ele><time>2026-05-03T10:45:23.987Z</time></trkpt><trkpt lat="43.4399908" lon="13.0264863"><ele>154.25</ele><time>2026-05-03T10:45:24.987Z</time></trkpt><trkpt lat="43.4400505" lon="13.0266495"><ele>154.5</ele><time>2026-05-03T10:45:25.988Z</time></trkpt><trkpt lat="43.4401038" lon="13.0268002"><ele>154.75</ele><time>2026-05-03T10:45:26.988Z</time></trkpt><trkpt lat="43.4401403" lon="13.0269459"><ele>155.0</ele><time>2026-05-03T10:45:27.988Z</time></trkpt><trkpt lat="43.4401633" lon="13.0270993"><ele>155.0</ele><time>2026-05-03T10:45:28.988Z</time></trkpt><trkpt lat="43.4401756" lon="13.0272659"><ele>155.0</ele><time>2026-05-03T10:45:29.988Z</time></trkpt><trkpt lat="43.4401708" lon="13.0274327"><ele>155.0</ele><time>2026-05-03T10:45:30.988Z</time></trkpt><trkpt lat="43.4401455" lon="13.0276038"><ele>155.0</ele><time>2026-05-03T10:45:31.988Z</time></trkpt><trkpt lat="43.4400975" lon="13.0277629"><ele>155.2</ele><time>2026-05-03T10:45:32.987Z</time></trkpt><trkpt lat="43.4400317" lon="13.0278949"><ele>155.4</ele><time>2026-05-03T10:45:33.987Z</time></trkpt><trkpt lat="43.4399591" lon="13.0279917"><ele>155.6</ele><time>2026-05-03T10:45:34.988Z</time></trkpt><trkpt lat="43.439883" lon="13.0280478"><ele>155.8</ele><time>2026-05-03T10:45:35.988Z</time></trkpt><trkpt lat="43.4397943" lon="13.02807"><ele>156.0</ele><time>2026-05-03T10:45:36.987Z</time></trkpt><trkpt lat="43.4396929" lon="13.0280702"><ele>157.25</ele><time>2026-05-03T10:45:37.988Z</time></trkpt><trkpt lat="43.4395837" lon="13.0280607"><ele>158.5</ele><time>2026-05-03T10:45:38.988Z</time></trkpt><trkpt lat="43.4394619" lon="13.0280502"><ele>159.75</ele><time>2026-05-03T10:45:39.987Z</time></trkpt><trkpt lat="43.4393334" lon="13.0280503"><ele>161.0</ele><time>2026-05-03T10:45:40.988Z</time></trkpt><trkpt lat="43.439201" lon="13.0280724"><ele>161.0</ele><time>2026-05-03T10:45:41.988Z</time></trkpt><trkpt lat="43.4390753" lon="13.0281121"><ele>161.0</ele><time>2026-05-03T10:45:42.988Z</time></trkpt><trkpt lat="43.4389597" lon="13.0281751"><ele>161.0</ele><time>2026-05-03T10:45:43.988Z</time></trkpt><trkpt lat="43.4388557" lon="13.0282437"><ele>161.0</ele><time>2026-05-03T10:45:44.987Z</time></trkpt><trkpt lat="43.4387758" lon="13.0283069"><ele>161.20000000000002</ele><time>2026-05-03T10:45:45.988Z</time></trkpt><trkpt lat="43.4387103" lon="13.0283596"><ele>161.4</ele><time>2026-05-03T10:45:46.988Z</time></trkpt><trkpt lat="43.4386031" lon="13.0284271"><ele>161.6</ele><time>2026-05-03T10:45:48.988Z</time></trkpt><trkpt lat="43.4385087" lon="13.0285357"><ele>161.8</ele><time>2026-05-03T10:45:50.988Z</time></trkpt><trkpt lat="43.4384944" lon="13.0287016"><ele>162.0</ele><time>2026-05-03T10:45:52.987Z</time></trkpt><trkpt lat="43.4385432" lon="13.0288517"><ele>162.0</ele><time>2026-05-03T10:45:54.988Z</time></trkpt><trkpt lat="43.4385823" lon="13.0289587"><ele>162.0</ele><time>2026-05-03T10:45:56.988Z</time></trkpt><trkpt lat="43.4386332" lon="13.0290098"><ele>162.0</ele><time>2026-05-03T10:50:06.969Z</time></trkpt><trkpt lat="43.438699" lon="13.0290595"><ele>162.0</ele><time>2026-05-03T10:50:08.973Z</time></trkpt><trkpt lat="43.4387844" lon="13.0291753"><ele>162.0</ele><time>2026-05-03T10:50:10.977Z</time></trkpt><trkpt lat="43.4388267" lon="13.0292452"><ele>162.0</ele><time>2026-05-03T10:50:11.969Z</time></trkpt><trkpt lat="43.4388683" lon="13.0293247"><ele>161.66666666666666</ele><time>2026-05-03T10:50:12.981Z</time></trkpt><trkpt lat="43.4389057" lon="13.0294088"><ele>161.33333333333334</ele><time>2026-05-03T10:50:13.972Z</time></trkpt><trkpt lat="43.4389393" lon="13.0295026"><ele>161.0</ele><time>2026-05-03T10:50:14.975Z</time></trkpt><trkpt lat="43.4389693" lon="13.0296005"><ele>160.66666666666669</ele><time>2026-05-03T10:50:15.973Z</time></trkpt><trkpt lat="43.4389995" lon="13.0297045"><ele>160.33333333333334</ele><time>2026-05-03T10:50:16.978Z</time></trkpt><trkpt lat="43.4390254" lon="13.0298115"><ele>160.0</ele><time>2026-05-03T10:50:17.972Z</time></trkpt><trkpt lat="43.439053" lon="13.0299299"><ele>160.0</ele><time>2026-05-03T10:50:18.977Z</time></trkpt><trkpt lat="43.4390867" lon="13.0300509"><ele>160.0</ele><time>2026-05-03T10:50:19.973Z</time></trkpt><trkpt lat="43.4391127" lon="13.0301712"><ele>160.0</ele><time>2026-05-03T10:50:20.981Z</time></trkpt><trkpt lat="43.4391334" lon="13.0302919"><ele>160.0</ele><time>2026-05-03T10:50:21.977Z</time></trkpt><trkpt lat="43.4391487" lon="13.0304013"><ele>160.0</ele><time>2026-05-03T10:50:22.981Z</time></trkpt><trkpt lat="43.4391577" lon="13.0305114"><ele>160.0</ele><time>2026-05-03T10:50:23.973Z</time></trkpt><trkpt lat="43.4391651" lon="13.0306285"><ele>160.0</ele><time>2026-05-03T10:50:24.972Z</time></trkpt><trkpt lat="43.439171" lon="13.0307526"><ele>160.0</ele><time>2026-05-03T10:50:25.971Z</time></trkpt><trkpt lat="43.4391803" lon="13.0308771"><ele>160.0</ele><time>2026-05-03T10:50:26.969Z</time></trkpt><trkpt lat="43.4392024" lon="13.0309985"><ele>160.0</ele><time>2026-05-03T10:50:27.981Z</time></trkpt><trkpt lat="43.4392324" lon="13.0311161"><ele>160.0</ele><time>2026-05-03T10:50:28.979Z</time></trkpt><trkpt lat="43.4392815" lon="13.0312263"><ele>159.8</ele><time>2026-05-03T10:50:29.969Z</time></trkpt><trkpt lat="43.4393376" lon="13.0313304"><ele>159.6</ele><time>2026-05-03T10:50:30.971Z</time></trkpt><trkpt lat="43.439398" lon="13.0314403"><ele>159.4</ele><time>2026-05-03T10:50:31.969Z</time></trkpt><trkpt lat="43.4394713" lon="13.0315468"><ele>159.2</ele><time>2026-05-03T10:50:32.972Z</time></trkpt><trkpt lat="43.4395439" lon="13.0316554"><ele>159.0</ele><time>2026-05-03T10:50:33.971Z</time></trkpt><trkpt lat="43.4396123" lon="13.0317583"><ele>158.33333333333334</ele><time>2026-05-03T10:50:34.97Z</time></trkpt><trkpt lat="43.4396689" lon="13.0318636"><ele>157.66666666666666</ele><time>2026-05-03T10:50:35.974Z</time></trkpt><trkpt lat="43.4397052" lon="13.0319692"><ele>157.0</ele><time>2026-05-03T10:50:36.971Z</time></trkpt><trkpt lat="43.4397257" lon="13.0320828"><ele>156.33333333333331</ele><time>2026-05-03T10:50:37.968Z</time></trkpt><trkpt lat="43.439724" lon="13.0321933"><ele>155.66666666666666</ele><time>2026-05-03T10:50:38.975Z</time></trkpt><trkpt lat="43.4397241" lon="13.0323075"><ele>155.0</ele><time>2026-05-03T10:50:39.979Z</time></trkpt><trkpt lat="43.4397191" lon="13.0324117"><ele>155.5</ele><time>2026-05-03T10:50:40.98Z</time></trkpt><trkpt lat="43.4397216" lon="13.0325225"><ele>156.0</ele><time>2026-05-03T10:50:41.976Z</time></trkpt><trkpt lat="43.4397358" lon="13.0326322"><ele>156.5</ele><time>2026-05-03T10:50:42.981Z</time></trkpt><trkpt lat="43.4397768" lon="13.0327346"><ele>157.0</ele><time>2026-05-03T10:50:43.975Z</time></trkpt><trkpt lat="43.4398409" lon="13.0328244"><ele>157.5</ele><time>2026-05-03T10:50:44.97Z</time></trkpt><trkpt lat="43.439912" lon="13.0329058"><ele>158.0</ele><time>2026-05-03T10:50:45.981Z</time></trkpt><trkpt lat="43.4399944" lon="13.0330002"><ele>158.0</ele><time>2026-05-03T10:50:46.973Z</time></trkpt><trkpt lat="43.4400757" lon="13.033106"><ele>158.0</ele><time>2026-05-03T10:50:47.978Z</time></trkpt><trkpt lat="43.4401554" lon="13.0332315"><ele>158.0</ele><time>2026-05-03T10:50:48.98Z</time></trkpt><trkpt lat="43.44023" lon="13.0333768"><ele>158.0</ele><time>2026-05-03T10:50:49.98Z</time></trkpt><trkpt lat="43.4402957" lon="13.0335204"><ele>159.25</ele><time>2026-05-03T10:50:50.973Z</time></trkpt><trkpt lat="43.4403641" lon="13.0336681"><ele>160.5</ele><time>2026-05-03T10:50:51.974Z</time></trkpt><trkpt lat="43.4404334" lon="13.0338035"><ele>161.75</ele><time>2026-05-03T10:50:52.978Z</time></trkpt><trkpt lat="43.4404974" lon="13.0339435"><ele>163.0</ele><time>2026-05-03T10:50:53.969Z</time></trkpt><trkpt lat="43.4405593" lon="13.0340792"><ele>162.0</ele><time>2026-05-03T10:50:54.971Z</time></trkpt><trkpt lat="43.4406164" lon="13.0342115"><ele>161.0</ele><time>2026-05-03T10:50:55.969Z</time></trkpt><trkpt lat="43.4406694" lon="13.0343418"><ele>160.0</ele><time>2026-05-03T10:50:56.98Z</time></trkpt><trkpt lat="43.4407173" lon="13.0344653"><ele>159.0</ele><time>2026-05-03T10:50:57.971Z</time></trkpt><trkpt lat="43.4407686" lon="13.0345865"><ele>158.0</ele><time>2026-05-03T10:50:58.969Z</time></trkpt><trkpt lat="43.440819" lon="13.0346944"><ele>158.0</ele><time>2026-05-03T10:50:59.972Z</time></trkpt><trkpt lat="43.4408743" lon="13.0347829"><ele>158.0</ele><time>2026-05-03T10:51:00.977Z</time></trkpt><trkpt lat="43.4409419" lon="13.0348539"><ele>158.0</ele><time>2026-05-03T10:51:01.972Z</time></trkpt><trkpt lat="43.4410186" lon="13.0349002"><ele>158.0</ele><time>2026-05-03T10:51:02.974Z</time></trkpt><trkpt lat="43.4411096" lon="13.0349312"><ele>158.0</ele><time>2026-05-03T10:51:03.971Z</time></trkpt><trkpt lat="43.4411969" lon="13.0349574"><ele>158.0</ele><time>2026-05-03T10:51:04.98Z</time></trkpt><trkpt lat="43.4412864" lon="13.0350186"><ele>158.20000000000002</ele><time>2026-05-03T10:51:05.981Z</time></trkpt><trkpt lat="43.4413749" lon="13.0350867"><ele>158.4</ele><time>2026-05-03T10:51:06.978Z</time></trkpt><trkpt lat="43.4414585" lon="13.0351627"><ele>158.60000000000002</ele><time>2026-05-03T10:51:07.974Z</time></trkpt><trkpt lat="43.4415391" lon="13.0352451"><ele>158.8</ele><time>2026-05-03T10:51:08.975Z</time></trkpt><trkpt lat="43.4416222" lon="13.0353228"><ele>159.0</ele><time>2026-05-03T10:51:09.97Z</time></trkpt><trkpt lat="43.4417081" lon="13.0353955"><ele>159.0</ele><time>2026-05-03T10:51:10.976Z</time></trkpt><trkpt lat="43.4417953" lon="13.0354626"><ele>159.0</ele><time>2026-05-03T10:51:11.971Z</time></trkpt><trkpt lat="43.4418867" lon="13.035529"><ele>159.0</ele><time>2026-05-03T10:51:12.972Z</time></trkpt><trkpt lat="43.4419811" lon="13.0355877"><ele>159.0</ele><time>2026-05-03T10:51:13.971Z</time></trkpt><trkpt lat="43.4420819" lon="13.0356324"><ele>159.0</ele><time>2026-05-03T10:51:14.971Z</time></trkpt><trkpt lat="43.4423851" lon="13.0357852"><ele>159.5</ele><time>2026-05-03T10:51:17.972Z</time></trkpt><trkpt lat="43.4424851" lon="13.0358533"><ele>160.0</ele><time>2026-05-03T10:51:18.972Z</time></trkpt><trkpt lat="43.442593" lon="13.0359295"><ele>160.5</ele><time>2026-05-03T10:51:19.971Z</time></trkpt><trkpt lat="43.4427112" lon="13.0359975"><ele>161.0</ele><time>2026-05-03T10:51:20.971Z</time></trkpt><trkpt lat="43.4428268" lon="13.0360477"><ele>161.0</ele><time>2026-05-03T10:51:21.971Z</time></trkpt><trkpt lat="43.4429497" lon="13.0360967"><ele>161.0</ele><time>2026-05-03T10:51:22.972Z</time></trkpt><trkpt lat="43.4430737" lon="13.0361423"><ele>161.0</ele><time>2026-05-03T10:51:23.972Z</time></trkpt><trkpt lat="43.4432027" lon="13.0361919"><ele>161.0</ele><time>2026-05-03T10:51:24.971Z</time></trkpt><trkpt lat="43.4433342" lon="13.0362391"><ele>159.25</ele><time>2026-05-03T10:51:25.972Z</time></trkpt><trkpt lat="43.4434728" lon="13.0363012"><ele>157.5</ele><time>2026-05-03T10:51:26.972Z</time></trkpt><trkpt lat="43.4436088" lon="13.0363729"><ele>155.75</ele><time>2026-05-03T10:51:27.972Z</time></trkpt><trkpt lat="43.4437393" lon="13.03645"><ele>154.0</ele><time>2026-05-03T10:51:28.971Z</time></trkpt><trkpt lat="43.4438618" lon="13.036524"><ele>154.4</ele><time>2026-05-03T10:51:29.972Z</time></trkpt><trkpt lat="43.4439772" lon="13.0365783"><ele>154.8</ele><time>2026-05-03T10:51:30.971Z</time></trkpt><trkpt lat="43.4440758" lon="13.0366416"><ele>155.2</ele><time>2026-05-03T10:51:31.972Z</time></trkpt><trkpt lat="43.4441589" lon="13.0367189"><ele>155.6</ele><time>2026-05-03T10:51:32.971Z</time></trkpt><trkpt lat="43.4442054" lon="13.0367961"><ele>156.0</ele><time>2026-05-03T10:51:33.972Z</time></trkpt><trkpt lat="43.444236" lon="13.0369045"><ele>156.0</ele><time>2026-05-03T10:51:34.971Z</time></trkpt><trkpt lat="43.4442587" lon="13.037027"><ele>156.0</ele><time>2026-05-03T10:51:35.972Z</time></trkpt><trkpt lat="43.4442867" lon="13.0371539"><ele>156.0</ele><time>2026-05-03T10:51:36.972Z</time></trkpt><trkpt lat="43.4443168" lon="13.0372619"><ele>156.0</ele><time>2026-05-03T10:51:37.972Z</time></trkpt><trkpt lat="43.4443551" lon="13.037347"><ele>156.0</ele><time>2026-05-03T10:51:38.972Z</time></trkpt><trkpt lat="43.4443991" lon="13.0374097"><ele>156.0</ele><time>2026-05-03T10:51:39.972Z</time></trkpt><trkpt lat="43.4444769" lon="13.0374971"><ele>156.0</ele><time>2026-05-03T10:51:41.971Z</time></trkpt><trkpt lat="43.4445484" lon="13.0375316"><ele>156.0</ele><time>2026-05-03T10:51:51.971Z</time></trkpt><trkpt lat="43.4445903" lon="13.0374655"><ele>156.0</ele><time>2026-05-03T10:51:54.972Z</time></trkpt><trkpt lat="43.4446279" lon="13.037582"><ele>156.0</ele><time>2026-05-03T10:52:34.971Z</time></trkpt><trkpt lat="43.4447482" lon="13.0376507"><ele>156.0</ele><time>2026-05-03T10:52:36.972Z</time></trkpt><trkpt lat="43.4448125" lon="13.0377001"><ele>156.0</ele><time>2026-05-03T10:52:37.971Z</time></trkpt><trkpt lat="43.4449173" lon="13.0377272"><ele>156.2</ele><time>2026-05-03T10:52:38.972Z</time></trkpt><trkpt lat="43.4450134" lon="13.037749"><ele>156.39999999999998</ele><time>2026-05-03T10:52:39.972Z</time></trkpt><trkpt lat="43.445109" lon="13.0377595"><ele>156.6</ele><time>2026-05-03T10:52:40.972Z</time></trkpt><trkpt lat="43.4452073" lon="13.0377747"><ele>156.79999999999998</ele><time>2026-05-03T10:52:41.971Z</time></trkpt><trkpt lat="43.4453081" lon="13.0378036"><ele>157.0</ele><time>2026-05-03T10:52:42.971Z</time></trkpt><trkpt lat="43.4454085" lon="13.0378496"><ele>155.25</ele><time>2026-05-03T10:52:43.972Z</time></trkpt><trkpt lat="43.4455101" lon="13.0379091"><ele>153.5</ele><time>2026-05-03T10:52:44.972Z</time></trkpt><trkpt lat="43.4456191" lon="13.0379933"><ele>151.75</ele><time>2026-05-03T10:52:45.972Z</time></trkpt><trkpt lat="43.4457333" lon="13.0380896"><ele>150.0</ele><time>2026-05-03T10:52:46.972Z</time></trkpt><trkpt lat="43.445854" lon="13.0381974"><ele>154.0</ele><time>2026-05-03T10:52:47.971Z</time></trkpt><trkpt lat="43.445981" lon="13.0383104"><ele>158.0</ele><time>2026-05-03T10:52:48.972Z</time></trkpt><trkpt lat="43.4461168" lon="13.0384309"><ele>162.0</ele><time>2026-05-03T10:52:49.972Z</time></trkpt><trkpt lat="43.446254" lon="13.0385543"><ele>158.66666666666666</ele><time>2026-05-03T10:52:50.972Z</time></trkpt><trkpt lat="43.4463956" lon="13.0386765"><ele>155.33333333333331</ele><time>2026-05-03T10:52:51.972Z</time></trkpt><trkpt lat="43.4465358" lon="13.0387877"><ele>152.0</ele><time>2026-05-03T10:52:52.972Z</time></trkpt><trkpt lat="43.4466705" lon="13.0389005"><ele>152.0</ele><time>2026-05-03T10:52:53.972Z</time></trkpt><trkpt lat="43.446809" lon="13.0390077"><ele>152.0</ele><time>2026-05-03T10:52:54.972Z</time></trkpt><trkpt lat="43.4469417" lon="13.0391173"><ele>152.0</ele><time>2026-05-03T10:52:55.971Z</time></trkpt><trkpt lat="43.4470729" lon="13.0392189"><ele>153.0</ele><time>2026-05-03T10:52:56.972Z</time></trkpt><trkpt lat="43.4471939" lon="13.0393246"><ele>154.0</ele><time>2026-05-03T10:52:57.972Z</time></trkpt><trkpt lat="43.4473157" lon="13.0394261"><ele>155.0</ele><time>2026-05-03T10:52:58.971Z</time></trkpt><trkpt lat="43.4474323" lon="13.0395349"><ele>156.0</ele><time>2026-05-03T10:52:59.972Z</time></trkpt><trkpt lat="43.4475504" lon="13.0396387"><ele>156.0</ele><time>2026-05-03T10:53:00.971Z</time></trkpt><trkpt lat="43.4476758" lon="13.0397427"><ele>156.0</ele><time>2026-05-03T10:53:01.972Z</time></trkpt><trkpt lat="43.4477889" lon="13.0398438"><ele>156.0</ele><time>2026-05-03T10:53:02.971Z</time></trkpt><trkpt lat="43.4479034" lon="13.039958"><ele>156.0</ele><time>2026-05-03T10:53:03.972Z</time></trkpt><trkpt lat="43.4480109" lon="13.0400725"><ele>156.0</ele><time>2026-05-03T10:53:04.971Z</time></trkpt><trkpt lat="43.4481172" lon="13.0401861"><ele>156.0</ele><time>2026-05-03T10:53:05.972Z</time></trkpt><trkpt lat="43.4482289" lon="13.0402839"><ele>156.0</ele><time>2026-05-03T10:53:06.972Z</time></trkpt><trkpt lat="43.4483467" lon="13.04038"><ele>156.0</ele><time>2026-05-03T10:53:07.972Z</time></trkpt><trkpt lat="43.4484696" lon="13.0404664"><ele>156.0</ele><time>2026-05-03T10:53:08.972Z</time></trkpt><trkpt lat="43.4485932" lon="13.0405658"><ele>156.0</ele><time>2026-05-03T10:53:09.971Z</time></trkpt><trkpt lat="43.448712" lon="13.040662"><ele>156.0</ele><time>2026-05-03T10:53:10.972Z</time></trkpt><trkpt lat="43.4488283" lon="13.0407634"><ele>156.0</ele><time>2026-05-03T10:53:11.971Z</time></trkpt><trkpt lat="43.4489349" lon="13.0408674"><ele>156.25</ele><time>2026-05-03T10:53:12.971Z</time></trkpt><trkpt lat="43.4490475" lon="13.0409768"><ele>156.5</ele><time>2026-05-03T10:53:13.971Z</time></trkpt><trkpt lat="43.4491566" lon="13.0410862"><ele>156.75</ele><time>2026-05-03T10:53:14.972Z</time></trkpt><trkpt lat="43.4492656" lon="13.0411995"><ele>157.0</ele><time>2026-05-03T10:53:15.972Z</time></trkpt><trkpt lat="43.4493737" lon="13.0413272"><ele>157.0</ele><time>2026-05-03T10:53:16.971Z</time></trkpt><trkpt lat="43.4494749" lon="13.0414608"><ele>157.0</ele><time>2026-05-03T10:53:17.972Z</time></trkpt><trkpt lat="43.449565" lon="13.0415979"><ele>157.0</ele><time>2026-05-03T10:53:18.972Z</time></trkpt><trkpt lat="43.4496446" lon="13.041739"><ele>157.0</ele><time>2026-05-03T10:53:19.972Z</time></trkpt><trkpt lat="43.4497168" lon="13.0418737"><ele>156.6</ele><time>2026-05-03T10:53:20.971Z</time></trkpt><trkpt lat="43.4497827" lon="13.0420057"><ele>156.2</ele><time>2026-05-03T10:53:21.971Z</time></trkpt><trkpt lat="43.4498458" lon="13.0421246"><ele>155.8</ele><time>2026-05-03T10:53:22.971Z</time></trkpt><trkpt lat="43.4499206" lon="13.0422332"><ele>155.4</ele><time>2026-05-03T10:53:23.971Z</time></trkpt><trkpt lat="43.4499896" lon="13.0423357"><ele>155.0</ele><time>2026-05-03T10:53:24.972Z</time></trkpt><trkpt lat="43.4500587" lon="13.0424387"><ele>156.0</ele><time>2026-05-03T10:53:25.972Z</time></trkpt><trkpt lat="43.4501238" lon="13.042549"><ele>157.0</ele><time>2026-05-03T10:53:26.972Z</time></trkpt><trkpt lat="43.4501841" lon="13.0426719"><ele>158.0</ele><time>2026-05-03T10:53:27.972Z</time></trkpt><trkpt lat="43.4502461" lon="13.0428017"><ele>159.0</ele><time>2026-05-03T10:53:28.972Z</time></trkpt><trkpt lat="43.4503064" lon="13.0429359"><ele>160.0</ele><time>2026-05-03T10:53:29.972Z</time></trkpt><trkpt lat="43.4503611" lon="13.0430741"><ele>160.0</ele><time>2026-05-03T10:53:30.972Z</time></trkpt><trkpt lat="43.4504154" lon="13.0432081"><ele>160.0</ele><time>2026-05-03T10:53:31.972Z</time></trkpt><trkpt lat="43.4504757" lon="13.0433366"><ele>160.0</ele><time>2026-05-03T10:53:32.972Z</time></trkpt><trkpt lat="43.4505376" lon="13.0434672"><ele>160.0</ele><time>2026-05-03T10:53:33.971Z</time></trkpt><trkpt lat="43.4505972" lon="13.0435985"><ele>160.0</ele><time>2026-05-03T10:53:34.972Z</time></trkpt><trkpt lat="43.4506573" lon="13.0437305"><ele>161.0</ele><time>2026-05-03T10:53:35.972Z</time></trkpt><trkpt lat="43.4507158" lon="13.0438607"><ele>162.0</ele><time>2026-05-03T10:53:36.971Z</time></trkpt><trkpt lat="43.4507761" lon="13.0439924"><ele>163.0</ele><time>2026-05-03T10:53:37.972Z</time></trkpt><trkpt lat="43.4508318" lon="13.0441269"><ele>164.0</ele><time>2026-05-03T10:53:38.972Z</time></trkpt><trkpt lat="43.450891" lon="13.0442693"><ele>164.0</ele><time>2026-05-03T10:53:39.972Z</time></trkpt><trkpt lat="43.4509409" lon="13.044391"><ele>164.0</ele><time>2026-05-03T10:53:40.972Z</time></trkpt><trkpt lat="43.4509943" lon="13.0445234"><ele>164.0</ele><time>2026-05-03T10:53:41.972Z</time></trkpt><trkpt lat="43.4510442" lon="13.0446634"><ele>164.0</ele><time>2026-05-03T10:53:42.972Z</time></trkpt><trkpt lat="43.4510956" lon="13.0448014"><ele>164.0</ele><time>2026-05-03T10:53:43.972Z</time></trkpt><trkpt lat="43.4511547" lon="13.0449304"><ele>165.6</ele><time>2026-05-03T10:53:44.971Z</time></trkpt><trkpt lat="43.4512144" lon="13.0450554"><ele>167.2</ele><time>2026-05-03T10:53:45.972Z</time></trkpt><trkpt lat="43.4512816" lon="13.04516"><ele>168.79999999999998</ele><time>2026-05-03T10:53:46.972Z</time></trkpt><trkpt lat="43.4513446" lon="13.0452551"><ele>170.39999999999998</ele><time>2026-05-03T10:53:47.972Z</time></trkpt><trkpt lat="43.4514166" lon="13.0453488"><ele>172.0</ele><time>2026-05-03T10:53:48.971Z</time></trkpt><trkpt lat="43.4514824" lon="13.045441"><ele>170.8</ele><time>2026-05-03T10:53:49.972Z</time></trkpt><trkpt lat="43.4515661" lon="13.0455343"><ele>169.6</ele><time>2026-05-03T10:53:50.971Z</time></trkpt><trkpt lat="43.4516557" lon="13.0456246"><ele>168.4</ele><time>2026-05-03T10:53:51.971Z</time></trkpt><trkpt lat="43.4517491" lon="13.0457121"><ele>167.20000000000002</ele><time>2026-05-03T10:53:52.972Z</time></trkpt><trkpt lat="43.4518425" lon="13.0457947"><ele>166.0</ele><time>2026-05-03T10:53:53.971Z</time></trkpt><trkpt lat="43.4519243" lon="13.0458947"><ele>166.0</ele><time>2026-05-03T10:53:54.971Z</time></trkpt><trkpt lat="43.4519979" lon="13.0459975"><ele>166.0</ele><time>2026-05-03T10:53:55.971Z</time></trkpt><trkpt lat="43.4520817" lon="13.0460964"><ele>166.0</ele><time>2026-05-03T10:53:56.971Z</time></trkpt><trkpt lat="43.4521672" lon="13.0461861"><ele>166.0</ele><time>2026-05-03T10:53:57.972Z</time></trkpt><trkpt lat="43.4522564" lon="13.0462515"><ele>166.0</ele><time>2026-05-03T10:53:58.971Z</time></trkpt><trkpt lat="43.4523488" lon="13.0462894"><ele>163.60000000000002</ele><time>2026-05-03T10:53:59.971Z</time></trkpt><trkpt lat="43.4524475" lon="13.046297"><ele>161.20000000000002</ele><time>2026-05-03T10:54:00.972Z</time></trkpt><trkpt lat="43.452542" lon="13.0462955"><ele>158.8</ele><time>2026-05-03T10:54:01.972Z</time></trkpt><trkpt lat="43.4526473" lon="13.0462982"><ele>156.4</ele><time>2026-05-03T10:54:02.972Z</time></trkpt><trkpt lat="43.4527519" lon="13.0463041"><ele>154.0</ele><time>2026-05-03T10:54:03.972Z</time></trkpt><trkpt lat="43.4528633" lon="13.0463156"><ele>153.2</ele><time>2026-05-03T10:54:04.971Z</time></trkpt><trkpt lat="43.4529768" lon="13.0463421"><ele>152.4</ele><time>2026-05-03T10:54:05.972Z</time></trkpt><trkpt lat="43.4530836" lon="13.0463835"><ele>151.6</ele><time>2026-05-03T10:54:06.971Z</time></trkpt><trkpt lat="43.4531724" lon="13.0464359"><ele>150.8</ele><time>2026-05-03T10:54:07.971Z</time></trkpt><trkpt lat="43.4532544" lon="13.0465001"><ele>150.0</ele><time>2026-05-03T10:54:08.972Z</time></trkpt><trkpt lat="43.4533423" lon="13.0465685"><ele>149.6</ele><time>2026-05-03T10:54:09.972Z</time></trkpt><trkpt lat="43.4534328" lon="13.0466464"><ele>149.2</ele><time>2026-05-03T10:54:10.972Z</time></trkpt><trkpt lat="43.4535235" lon="13.0467415"><ele>148.8</ele><time>2026-05-03T10:54:11.972Z</time></trkpt><trkpt lat="43.4536121" lon="13.0468054"><ele>148.4</ele><time>2026-05-03T10:54:12.972Z</time></trkpt><trkpt lat="43.4536984" lon="13.0468484"><ele>148.0</ele><time>2026-05-03T10:54:13.972Z</time></trkpt><trkpt lat="43.453791" lon="13.0468706"><ele>148.0</ele><time>2026-05-03T10:54:14.972Z</time></trkpt><trkpt lat="43.4538846" lon="13.0468807"><ele>148.0</ele><time>2026-05-03T10:54:15.971Z</time></trkpt><trkpt lat="43.4539756" lon="13.0468722"><ele>148.0</ele><time>2026-05-03T10:54:16.971Z</time></trkpt><trkpt lat="43.4540769" lon="13.0468602"><ele>148.0</ele><time>2026-05-03T10:54:17.972Z</time></trkpt><trkpt lat="43.4541833" lon="13.0468547"><ele>148.0</ele><time>2026-05-03T10:54:18.972Z</time></trkpt><trkpt lat="43.4542943" lon="13.0468428"><ele>148.0</ele><time>2026-05-03T10:54:19.972Z</time></trkpt><trkpt lat="43.4544099" lon="13.0468299"><ele>148.0</ele><time>2026-05-03T10:54:20.971Z</time></trkpt><trkpt lat="43.4545253" lon="13.0468509"><ele>148.0</ele><time>2026-05-03T10:54:21.972Z</time></trkpt><trkpt lat="43.4546415" lon="13.0468926"><ele>148.0</ele><time>2026-05-03T10:54:22.972Z</time></trkpt><trkpt lat="43.4547486" lon="13.0469591"><ele>147.20000000000002</ele><time>2026-05-03T10:54:23.971Z</time></trkpt><trkpt lat="43.4548352" lon="13.0470462"><ele>146.4</ele><time>2026-05-03T10:54:24.972Z</time></trkpt><trkpt lat="43.4549054" lon="13.0471656"><ele>145.60000000000002</ele><time>2026-05-03T10:54:25.972Z</time></trkpt><trkpt lat="43.454961" lon="13.0473004"><ele>144.8</ele><time>2026-05-03T10:54:26.971Z</time></trkpt><trkpt lat="43.455013" lon="13.0474397"><ele>144.0</ele><time>2026-05-03T10:54:27.972Z</time></trkpt><trkpt lat="43.4550608" lon="13.0475795"><ele>144.0</ele><time>2026-05-03T10:54:28.972Z</time></trkpt><trkpt lat="43.4551102" lon="13.0477096"><ele>144.0</ele><time>2026-05-03T10:54:29.971Z</time></trkpt><trkpt lat="43.4551624" lon="13.0478301"><ele>144.0</ele><time>2026-05-03T10:54:30.972Z</time></trkpt><trkpt lat="43.4552225" lon="13.047931"><ele>144.0</ele><time>2026-05-03T10:54:31.972Z</time></trkpt><trkpt lat="43.4552935" lon="13.0480048"><ele>144.0</ele><time>2026-05-03T10:54:32.971Z</time></trkpt><trkpt lat="43.4553731" lon="13.048049"><ele>143.66666666666666</ele><time>2026-05-03T10:54:33.972Z</time></trkpt><trkpt lat="43.4554565" lon="13.0480567"><ele>143.33333333333334</ele><time>2026-05-03T10:54:34.971Z</time></trkpt><trkpt lat="43.4555307" lon="13.0480347"><ele>143.0</ele><time>2026-05-03T10:54:35.972Z</time></trkpt><trkpt lat="43.4555937" lon="13.0479938"><ele>142.66666666666669</ele><time>2026-05-03T10:54:36.971Z</time></trkpt><trkpt lat="43.4556931" lon="13.0479354"><ele>142.33333333333334</ele><time>2026-05-03T10:54:38.971Z</time></trkpt><trkpt lat="43.4557883" lon="13.0479771"><ele>142.0</ele><time>2026-05-03T10:54:40.972Z</time></trkpt><trkpt lat="43.45588" lon="13.0480578"><ele>142.0</ele><time>2026-05-03T10:54:42.972Z</time></trkpt><trkpt lat="43.4559748" lon="13.0481193"><ele>142.0</ele><time>2026-05-03T10:54:44.972Z</time></trkpt><trkpt lat="43.4560655" lon="13.0481799"><ele>142.0</ele><time>2026-05-03T10:54:46.971Z</time></trkpt><trkpt lat="43.4561426" lon="13.0482582"><ele>142.0</ele><time>2026-05-03T10:54:48.972Z</time></trkpt><trkpt lat="43.4561971" lon="13.0483505"><ele>142.0</ele><time>2026-05-03T10:54:50.971Z</time></trkpt><trkpt lat="43.456245" lon="13.048414"><ele>142.2</ele><time>2026-05-03T10:54:52.971Z</time></trkpt><trkpt lat="43.4562792" lon="13.0484877"><ele>142.39999999999998</ele><time>2026-05-03T10:54:54.972Z</time></trkpt><trkpt lat="43.4563226" lon="13.0486027"><ele>142.60000000000002</ele><time>2026-05-03T10:54:57.971Z</time></trkpt><trkpt lat="43.4563632" lon="13.048696"><ele>142.8</ele><time>2026-05-03T10:54:59.972Z</time></trkpt><trkpt lat="43.4564171" lon="13.0488224"><ele>143.0</ele><time>2026-05-03T10:55:01.972Z</time></trkpt><trkpt lat="43.4564848" lon="13.0489587"><ele>142.5</ele><time>2026-05-03T10:55:03.971Z</time></trkpt><trkpt lat="43.4565471" lon="13.0490807"><ele>142.0</ele><time>2026-05-03T10:55:05.972Z</time></trkpt><trkpt lat="43.4565906" lon="13.0491461"><ele>141.5</ele><time>2026-05-03T10:55:06.972Z</time></trkpt><trkpt lat="43.4566443" lon="13.0492208"><ele>141.0</ele><time>2026-05-03T10:55:07.971Z</time></trkpt><trkpt lat="43.4567094" lon="13.0493228"><ele>140.5</ele><time>2026-05-03T10:55:09.972Z</time></trkpt><trkpt lat="43.4567559" lon="13.0493867"><ele>140.0</ele><time>2026-05-03T10:55:11.971Z</time></trkpt><trkpt lat="43.4567989" lon="13.0494689"><ele>139.83333333333331</ele><time>2026-05-03T10:55:13.972Z</time></trkpt><trkpt lat="43.4568095" lon="13.0495688"><ele>139.66666666666666</ele><time>2026-05-03T10:55:16.971Z</time></trkpt><trkpt lat="43.4567594" lon="13.0496603"><ele>139.5</ele><time>2026-05-03T10:55:18.972Z</time></trkpt><trkpt lat="43.4566826" lon="13.0497579"><ele>139.33333333333334</ele><time>2026-05-03T10:55:20.971Z</time></trkpt><trkpt lat="43.4566055" lon="13.0497996"><ele>139.16666666666669</ele><time>2026-05-03T10:55:22.972Z</time></trkpt><trkpt lat="43.4565237" lon="13.0497481"><ele>139.0</ele><time>2026-05-03T10:55:24.971Z</time></trkpt><trkpt lat="43.4564432" lon="13.049634"><ele>139.0</ele><time>2026-05-03T10:55:26.971Z</time></trkpt><trkpt lat="43.4563971" lon="13.0495696"><ele>139.0</ele><time>2026-05-03T10:55:27.972Z</time></trkpt><trkpt lat="43.4563511" lon="13.0495043"><ele>139.0</ele><time>2026-05-03T10:55:28.972Z</time></trkpt><trkpt lat="43.4562795" lon="13.0493921"><ele>139.0</ele><time>2026-05-03T10:55:30.972Z</time></trkpt><trkpt lat="43.4562336" lon="13.0493008"><ele>139.0</ele><time>2026-05-03T10:55:32.971Z</time></trkpt><trkpt lat="43.4561813" lon="13.0492107"><ele>139.0</ele><time>2026-05-03T10:55:35.972Z</time></trkpt><trkpt lat="43.4561402" lon="13.0491356"><ele>139.57142857142856</ele><time>2026-05-03T10:57:40.971Z</time></trkpt><trkpt lat="43.4561101" lon="13.0490539"><ele>140.14285714285714</ele><time>2026-05-03T10:57:47.973Z</time></trkpt><trkpt lat="43.4560698" lon="13.0489838"><ele>140.71428571428572</ele><time>2026-05-03T10:57:53.986Z</time></trkpt><trkpt lat="43.4560241" lon="13.0489241"><ele>141.28571428571428</ele><time>2026-05-03T10:57:59.968Z</time></trkpt><trkpt lat="43.4559777" lon="13.0488643"><ele>141.85714285714286</ele><time>2026-05-03T10:58:04.997Z</time></trkpt><trkpt lat="43.4559418" lon="13.0487876"><ele>142.42857142857142</ele><time>2026-05-03T10:58:10.948Z</time></trkpt><trkpt lat="43.4559171" lon="13.0486978"><ele>143.0</ele><time>2026-05-03T10:58:17.983Z</time></trkpt><trkpt lat="43.455893" lon="13.048607"><ele>143.0</ele><time>2026-05-03T10:58:25.022Z</time></trkpt></trkseg></trk></gpx>